ECMWFFLT1_850_thetae_000.txt.gz
Theta_e
308 309 309 309 309 308 308 308 307 306 306 305 305 304 304 304 304 305 306 307 308 308 308 308 308 310 312 313 314 315 316 317 317 317 318 320 322 323 324 324 324 324 324 325 326 326 326 326 326 326 326 327 326 326 326 325 325 325 326 326 327 328 328
309 309 309 310 309 309 309 308 307 306 306 306 305 305 304 304 303 303 304 305 305 305 304 305 305 306 307 309 310 312 314 314 315 314 313 314 315 316 318 319 320 321 321 323 324 325 325 324 325 325 325 325 325 325 325 325 325 325 325 325 326 327 328
310 309 310 310 310 310 309 308 307 307 306 306 306 305 305 305 304 304 303 304 303 303 303 303 302 303 303 303 304 306 308 311 313 313 313 313 312 312 312 312 312 314 316 318 320 322 323 322 323 323 323 323 323 323 324 323 324 325 325 325 325 326 328
310 310 310 310 310 310 310 309 308 307 307 306 306 306 305 305 304 304 304 304 304 304 303 303 303 303 302 302 302 302 303 305 307 308 310 311 312 312 312 311 311 311 312 314 317 319 320 321 322 322 322 321 320 320 320 320 320 321 323 325 326 327 327
311 310 310 310 310 310 310 310 309 308 307 307 306 306 305 305 305 305 305 305 304 304 303 303 303 303 303 302 302 302 302 302 302 303 304 305 307 308 310 311 312 312 313 314 315 316 317 319 320 320 320 320 319 318 318 318 317 317 319 321 324 326 327
311 310 310 310 309 309 310 310 310 309 308 307 306 306 306 306 305 305 305 305 304 304 303 304 304 304 304 303 303 303 303 302 302 301 301 302 302 303 304 306 307 309 311 313 314 315 315 316 317 318 318 319 320 320 319 318 318 318 317 318 321 323 324
311 311 310 310 309 309 309 309 310 309 309 308 307 306 306 306 305 305 305 305 304 303 303 303 304 304 304 303 303 303 303 303 302 302 302 301 302 302 302 302 302 304 305 308 310 312 313 313 314 315 316 316 317 318 319 320 320 320 320 319 321 322 322
311 311 311 310 310 309 309 309 310 310 309 308 307 307 306 306 306 306 305 305 304 303 303 303 304 304 304 304 303 303 303 303 302 302 302 302 302 302 302 302 302 302 302 303 304 305 307 309 310 312 313 314 315 315 316 317 318 320 320 320 321 320 320
311 311 311 311 310 309 309 309 310 310 310 309 308 307 307 306 306 306 305 305 304 304 303 303 304 304 304 304 304 303 303 302 302 302 302 302 302 302 302 302 302 302 302 302 302 302 303 304 306 309 311 313 314 314 314 314 314 315 316 318 319 319 319
311 312 312 312 310 309 309 309 310 310 310 309 309 308 307 307 306 306 306 306 305 304 303 303 304 304 304 304 304 304 303 303 302 302 301 301 301 301 301 301 301 302 302 302 302 303 303 303 303 305 308 311 313 314 314 314 313 312 313 315 317 317 316
312 312 313 312 312 310 309 309 310 310 311 310 309 308 308 307 306 306 306 306 305 304 303 303 303 304 304 304 304 303 303 303 302 302 302 301 301 301 301 301 301 301 301 301 302 302 303 303 303 304 305 308 311 313 314 315 314 312 313 315 317 318 319
313 313 314 314 313 311 309 309 309 310 311 310 309 308 308 307 307 306 306 306 306 305 304 303 303 303 304 304 304 303 303 303 303 303 302 302 302 301 301 301 301 301 301 301 301 301 302 303 304 304 305 306 308 311 313 315 314 312 312 315 317 319 320
315 314 314 315 314 312 310 309 310 310 311 311 310 309 308 308 307 306 306 306 306 306 304 303 303 303 303 304 304 303 303 303 302 302 302 302 302 302 301 301 301 301 301 301 301 302 302 302 303 304 306 306 307 308 310 313 314 312 310 313 315 315 316
316 316 315 315 316 314 311 309 310 311 311 311 310 309 309 309 308 307 306 306 306 306 305 303 303 304 304 304 304 303 303 303 302 302 301 301 301 301 301 301 301 301 301 301 302 302 302 302 303 303 305 306 307 308 308 309 311 311 308 310 312 311 313
317 317 317 316 317 316 312 310 310 311 311 312 311 310 310 310 309 308 307 306 307 306 305 303 303 303 304 304 304 304 303 303 302 301 301 300 300 300 300 300 300 300 301 301 301 302 302 302 303 303 303 305 306 307 308 308 309 309 309 308 309 308 308
317 317 317 317 317 317 313 311 311 311 312 312 312 311 311 311 311 309 308 307 307 306 305 303 303 303 303 304 304 304 303 303 302 302 301 300 299 299 299 299 298 298 299 299 300 301 302 302 302 302 303 303 304 306 307 308 308 309 309 309 309 307 306
318 318 317 317 318 317 315 312 312 312 312 313 313 312 311 312 312 311 309 307 307 306 305 303 303 303 304 304 304 303 303 303 302 301 300 299 299 298 298 298 297 297 297 298 299 299 300 301 302 302 302 303 303 304 305 305 307 307 309 310 309 308 307
318 319 318 318 318 318 316 314 313 313 313 313 313 312 312 312 312 312 309 307 307 306 304 303 303 303 303 303 303 303 303 302 301 300 299 299 299 298 298 297 296 296 296 297 298 299 299 300 300 301 302 302 302 302 303 304 304 306 307 309 309 309 308
317 319 318 317 318 318 317 315 314 314 313 313 313 312 312 312 312 312 309 307 306 305 304 303 303 303 303 303 303 302 301 300 300 299 299 299 298 297 297 296 295 295 295 296 297 298 299 299 300 300 301 301 301 301 301 302 303 303 304 306 309 309 309
318 319 318 317 317 318 318 316 315 315 313 312 312 312 312 312 312 311 308 306 305 304 303 302 303 303 303 302 302 301 300 299 299 299 298 298 297 296 296 295 295 294 295 296 296 297 298 298 299 299 300 300 300 300 300 300 300 300 301 303 306 308 309
318 318 319 318 316 316 317 317 316 315 313 312 311 311 311 312 311 308 306 305 304 303 302 302 303 303 302 302 301 300 299 299 299 298 297 296 295 295 295 295 295 295 296 296 297 297 298 298 298 299 299 299 299 299 299 299 299 299 299 300 302 305 307
319 318 318 319 316 314 315 317 316 315 313 311 310 311 311 310 308 306 305 304 303 302 303 303 303 302 301 300 300 300 299 299 297 296 295 295 295 295 296 296 296 296 297 298 298 298 298 298 298 299 299 299 299 299 299 299 298 298 299 299 300 302 304
319 319 318 318 317 315 314 315 317 316 313 310 310 311 310 308 307 305 304 304 303 303 303 303 303 301 301 300 300 299 298 296 295 294 294 295 295 295 295 296 296 297 297 298 298 298 299 299 299 299 299 299 299 299 299 299 298 298 298 299 300 301 302
317 318 319 318 317 315 314 315 316 315 312 309 310 310 309 308 306 305 304 304 304 304 304 303 302 301 301 300 299 297 295 294 294 294 294 294 294 294 294 295 295 295 296 297 297 298 298 298 299 299 299 299 299 299 298 298 298 298 298 298 298 299 300
316 317 318 319 318 316 314 315 316 314 311 309 309 309 308 307 305 305 305 305 305 304 303 302 301 301 300 299 296 294 293 293 293 293 293 293 293 293 293 294 294 295 295 296 296 297 297 298 298 298 299 299 299 298 298 298 298 298 297 297 297 298 298
317 318 318 319 318 315 314 315 314 311 310 309 309 309 308 306 306 306 306 305 305 304 303 302 301 300 298 295 293 293 292 293 292 292 293 292 292 292 293 293 293 294 294 295 295 296 296 297 297 298 298 298 298 298 298 298 297 297 297 297 297 297 298
317 319 319 319 318 315 314 314 312 310 309 310 309 308 307 305 306 307 306 306 304 303 302 302 300 298 295 294 293 292 292 292 292 292 292 292 292 292 292 293 293 294 294 295 295 296 296 296 297 297 297 297 297 297 297 297 296 296 296 296 296 297 298
316 318 319 319 318 316 314 313 312 310 309 309 308 307 306 305 306 306 306 305 304 303 301 300 297 296 294 293 292 292 292 292 292 292 292 292 292 292 292 293 293 294 294 295 295 296 296 296 296 296 296 296 296 296 296 296 296 296 296 296 296 296 297
313 316 318 318 318 316 314 312 310 309 310 309 307 305 305 305 305 305 305 304 303 301 299 297 296 295 294 292 292 292 292 293 292 292 292 291 291 292 292 293 293 294 294 295 295 295 295 295 295 295 295 296 295 295 295 295 295 295 295 295 295 295 296
312 315 316 317 317 314 312 311 310 310 310 308 305 304 304 304 304 303 303 302 300 298 297 296 296 295 294 292 292 292 292 292 292 292 292 292 291 291 291 292 293 294 294 294 295 295 294 294 294 294 294 294 294 294 294 294 294 294 294 294 294 294 295
313 314 315 317 316 312 311 311 310 309 307 305 304 304 303 303 303 302 301 300 297 296 296 296 296 295 293 292 292 293 293 293 292 292 292 292 291 291 291 292 293 293 294 294 294 293 293 293 293 293 293 292 292 293 293 293 293 293 293 293 293 293 294
313 314 315 316 314 311 310 310 308 306 305 304 304 303 302 302 302 301 299 297 296 296 296 296 295 294 293 293 293 293 293 293 293 293 292 291 291 290 291 292 293 293 293 293 292 292 292 292 292 292 292 291 291 292 292 292 292 292 292 292 292 292 293
314 315 314 313 312 311 309 307 305 304 305 304 303 302 301 300 299 298 297 296 296 296 296 295 294 294 293 293 293 293 293 293 293 293 292 291 290 290 291 292 292 292 292 292 292 291 291 291 291 291 291 290 290 291 291 291 291 291 291 292 292 292 293
314 314 313 310 310 310 308 306 305 304 304 303 301 300 299 298 297 297 296 296 296 295 295 294 294 293 293 293 293 293 293 293 293 292 291 290 290 290 291 292 292 292 292 292 291 291 291 291 291 291 290 290 290 290 290 290 291 291 291 291 291 292 292
313 312 311 309 309 309 306 303 302 301 300 299 298 297 297 296 296 296 296 296 295 295 294 294 293 293 293 293 293 293 293 293 292 291 290 290 290 291 291 292 292 292 291 291 291 291 291 291 291 290 290 290 290 290 290 290 290 290 290 291 291 291 291
311 310 309 308 308 307 303 301 299 298 297 297 296 296 296 296 296 296 295 295 294 294 293 293 293 293 293 293 293 293 292 292 291 290 290 290 291 291 291 292 291 291 291 291 291 291 291 291 291 290 290 290 290 290 290 290 290 290 290 290 290 291 291
310 307 305 306 305 302 300 299 299 297 297 297 297 296 296 296 296 295 294 294 293 293 292 292 292 292 292 292 292 291 291 291 290 290 290 291 291 291 291 291 291 291 290 290 290 290 290 290 290 290 291 291 291 291 291 291 291 291 291 291 291 291 292

ECMWFFLT1_850_thetae_003.txt.gz
Theta_e
308 309 309 309 308 308 307 307 306 305 305 304 304 303 303 303 304 305 306 306 306 306 307 307 307 308 308 310 312 314 316 318 319 321 321 322 323 325 326 326 326 326 325 325 325 325 325 325 325 324 324 325 326 327 326 326 326 326 325 325 325 325 325
309 309 309 309 309 308 308 307 307 306 305 305 304 304 303 303 303 304 304 304 304 304 304 304 304 305 305 306 307 309 311 313 315 316 317 318 319 321 322 323 323 324 324 324 324 324 325 325 325 324 323 322 323 324 326 326 325 325 325 325 324 324 324
309 309 309 309 310 309 308 308 307 307 306 305 305 304 304 304 303 303 303 303 303 303 303 303 303 303 303 303 303 304 305 307 309 311 312 313 314 314 315 316 317 317 318 319 320 320 322 323 323 323 323 322 321 321 321 322 324 323 323 322 322 322 323
309 309 309 309 310 310 309 308 308 307 306 306 305 305 305 304 304 304 304 304 304 304 303 303 303 303 302 303 302 302 302 303 304 305 307 309 310 310 310 310 311 311 310 311 312 313 315 318 320 320 321 321 321 320 319 318 318 319 320 319 319 319 320
309 309 309 310 310 310 310 309 308 308 307 306 305 305 305 305 305 305 304 304 304 303 303 303 303 304 304 304 303 303 303 302 302 302 303 304 305 306 307 308 309 309 309 309 309 310 311 313 315 317 318 319 319 319 319 316 312 314 317 317 318 318 318
309 309 309 310 310 310 310 310 309 308 308 307 306 306 306 305 305 305 305 304 304 303 304 304 304 304 304 304 304 304 304 303 303 302 302 302 302 303 303 304 305 306 306 307 307 308 309 310 312 314 315 315 316 316 316 315 314 314 315 318 320 319 319
309 309 310 310 310 311 311 310 310 310 309 308 307 306 306 306 305 305 305 304 304 304 304 304 304 304 304 304 304 304 304 304 303 303 303 302 302 302 302 302 302 303 303 303 304 304 305 307 308 310 309 308 309 312 313 314 316 317 317 318 320 318 319
309 309 310 310 311 311 311 311 311 310 310 308 307 307 306 306 306 305 305 305 304 304 303 304 304 304 304 304 304 304 304 304 304 304 303 303 303 302 302 302 302 302 302 302 302 302 303 303 304 305 306 306 308 310 312 313 314 316 315 316 317 318 319
309 308 309 310 311 311 311 311 311 311 311 309 308 307 306 306 306 305 306 305 305 304 304 304 304 304 304 304 304 304 304 304 304 304 303 303 303 303 302 302 302 302 302 301 302 302 302 302 303 303 303 306 309 311 313 313 314 315 315 314 316 318 320
310 309 309 310 311 312 312 311 312 311 312 311 309 308 307 306 306 305 306 305 305 305 304 304 304 304 304 304 304 304 304 304 304 304 303 303 303 302 302 302 302 302 302 302 302 302 302 301 302 302 303 303 306 309 312 313 312 313 315 315 315 317 318
312 311 310 310 310 312 312 312 312 311 312 312 311 309 308 307 306 306 306 306 306 305 305 304 304 304 304 304 304 304 304 304 304 304 303 303 303 302 302 302 301 302 302 302 302 302 302 302 301 302 302 303 304 305 308 310 310 309 312 314 316 318 319
314 313 311 310 311 311 313 313 312 311 311 312 312 311 309 308 307 306 306 306 306 306 306 305 304 304 304 304 304 304 304 304 304 304 303 303 303 302 302 301 301 301 301 301 302 302 302 302 302 302 302 304 306 306 307 308 308 306 307 310 313 315 315
315 315 313 312 311 312 313 314 313 312 312 312 312 312 311 309 308 307 306 306 305 306 306 306 305 304 303 304 304 304 304 304 304 304 303 303 303 302 301 301 300 300 300 300 300 301 301 301 302 302 302 304 305 306 307 308 308 307 307 308 308 309 310
316 316 315 314 313 312 313 314 315 313 312 312 312 313 312 311 309 308 307 306 305 306 306 306 306 305 304 303 303 304 304 304 304 304 304 303 303 302 301 301 300 299 300 299 299 299 299 300 301 302 304 304 304 305 306 307 307 307 306 307 307 307 309
316 316 316 315 314 314 314 315 316 315 313 312 313 313 313 312 311 309 308 307 307 306 306 307 306 306 305 303 303 303 303 304 304 303 303 303 302 302 301 300 300 300 299 299 299 298 298 299 300 301 302 303 303 304 305 305 305 305 305 306 306 306 307
316 316 316 316 316 315 315 316 317 316 314 313 313 313 313 313 312 311 310 309 308 307 307 306 307 306 305 304 303 303 303 303 303 303 303 302 301 301 300 300 300 299 299 298 298 298 297 298 298 298 299 301 302 303 303 303 303 303 303 304 305 305 306
316 316 316 316 316 316 316 316 317 317 316 314 313 313 314 313 313 312 311 311 310 309 308 307 307 306 306 305 303 303 303 303 303 302 302 301 300 300 299 299 298 298 297 297 296 296 296 296 297 297 298 299 300 301 302 303 303 303 303 304 304 305 305
317 316 315 316 316 317 317 317 317 318 317 316 313 313 314 314 313 313 312 312 311 311 309 308 308 307 306 305 304 303 303 303 303 302 301 300 300 299 298 297 297 296 296 296 296 296 296 296 296 297 297 298 298 299 301 301 302 302 303 303 304 304 304
319 318 316 316 315 316 317 318 318 318 318 316 314 314 314 314 313 313 313 312 312 312 311 310 309 307 306 305 304 303 303 303 302 302 300 300 299 297 296 296 296 296 296 296 296 297 297 297 297 298 298 298 298 298 299 300 300 300 301 301 302 302 303
321 320 319 318 317 317 317 318 319 319 319 317 315 314 314 314 313 313 313 312 312 312 312 311 309 308 306 305 303 302 302 302 302 301 300 299 297 296 295 295 295 295 295 295 296 296 297 297 297 298 298 299 299 299 299 299 299 299 299 300 300 301 301
320 320 320 320 320 319 319 319 319 318 319 318 316 315 314 314 313 313 313 313 312 312 312 311 309 307 305 304 303 302 302 302 301 301 299 298 296 295 294 294 294 294 294 294 295 295 295 296 296 297 298 298 299 299 299 299 299 299 300 300 300 300 300
315 318 320 320 320 320 320 320 319 319 319 319 317 315 314 314 314 313 312 312 312 312 312 310 308 306 304 303 302 302 302 302 301 299 297 295 294 294 293 293 293 293 293 293 293 294 294 295 295 295 296 297 297 298 299 299 299 299 300 300 300 300 301
309 313 316 318 319 320 320 320 319 319 319 318 318 315 313 313 313 312 311 311 311 311 310 308 306 304 303 303 302 302 302 301 299 297 295 293 293 293 293 293 293 293 293 293 293 293 294 294 294 295 295 295 296 296 297 297 298 298 299 299 300 300 301
307 309 312 316 319 319 319 319 318 318 317 316 316 315 313 312 312 311 310 310 311 310 309 307 305 304 303 303 302 302 300 298 296 294 293 293 293 292 293 292 292 292 292 293 293 293 294 294 294 295 295 295 295 296 295 296 297 297 298 299 299 299 300
308 308 311 315 318 319 318 318 317 318 317 315 315 315 313 310 311 311 310 310 310 308 307 306 305 304 303 303 302 301 298 296 294 293 293 292 292 292 292 292 292 292 292 293 293 294 294 294 294 295 295 295 295 296 296 296 296 296 296 297 298 299 299
306 307 310 314 317 319 319 318 317 317 317 315 314 314 313 311 310 311 310 310 308 307 306 305 304 304 303 303 301 299 296 294 293 292 292 292 292 292 292 292 292 292 292 293 293 294 294 294 295 295 295 296 296 296 296 296 296 295 295 296 297 298 298
304 305 307 310 314 318 318 318 317 317 316 315 314 314 313 311 310 310 309 308 307 306 305 304 304 303 303 302 299 297 295 294 292 292 292 292 292 292 292 292 292 292 292 293 293 294 294 294 295 295 295 296 296 296 296 296 296 296 296 295 296 296 297
303 304 304 306 310 315 318 317 317 316 315 315 314 313 313 311 309 309 309 307 306 305 304 304 303 303 302 299 297 296 295 293 292 292 292 291 292 292 292 292 292 292 292 292 293 294 294 294 295 295 295 295 295 295 295 295 296 296 296 296 296 296 296
302 303 304 304 307 313 316 317 316 316 314 314 314 313 312 310 309 309 307 306 305 305 304 303 303 301 299 297 296 295 294 292 292 292 292 291 292 292 292 292 292 292 292 292 293 293 294 294 294 294 294 294 295 295 295 295 295 295 295 295 295 295 296
302 303 303 304 306 311 314 316 316 315 313 313 313 312 311 309 309 308 306 305 305 304 303 302 300 298 297 296 295 294 293 293 293 292 292 292 293 293 292 292 292 292 291 291 292 293 293 293 293 293 293 293 293 293 294 294 294 294 294 294 294 294 294
302 303 302 303 306 310 313 314 315 315 314 313 312 311 310 308 307 306 305 304 303 302 301 299 297 296 296 295 294 293 293 293 293 293 292 293 293 293 292 292 292 291 291 291 292 293 293 292 292 292 292 292 292 293 293 293 293 293 293 293 293 293 293
302 303 302 302 306 311 313 314 314 314 313 312 310 310 308 306 305 304 304 303 301 300 298 297 296 295 295 294 294 293 293 293 293 293 293 293 293 293 292 292 291 291 291 292 293 292 292 292 292 291 291 291 292 292 292 292 292 292 292 293 293 293 293
302 303 303 303 308 312 314 314 314 313 312 310 309 308 306 305 304 304 302 300 299 297 296 295 295 294 294 293 293 293 293 293 293 293 293 293 293 292 292 291 290 291 292 293 293 292 292 292 291 291 291 290 291 291 291 291 291 291 291 292 292 292 292
303 303 303 306 311 313 314 314 313 312 311 309 308 306 305 304 303 301 299 298 296 295 294 294 294 293 293 293 293 293 293 293 293 293 293 292 292 291 291 291 291 292 292 293 293 292 292 292 291 290 290 290 290 291 291 290 290 290 290 290 290 291 291
305 304 304 308 312 313 313 313 312 311 310 308 306 305 303 301 300 298 297 296 295 294 294 293 293 293 293 293 293 293 293 293 292 292 292 291 291 290 290 292 292 292 292 292 292 292 291 291 291 290 290 290 290 290 290 290 289 289 289 289 290 290 290
306 304 305 310 312 312 312 311 309 308 307 305 304 302 300 298 297 297 296 295 294 293 293 293 293 293 292 292 292 292 292 292 291 291 290 290 290 291 292 292 292 292 291 291 291 291 291 290 290 290 290 290 290 290 290 290 289 289 290 290 290 290 290
307 305 308 311 311 310 310 309 307 305 304 302 300 298 297 297 297 296 295 294 294 293 293 292 292 292 291 291 291 290 290 290 290 290 291 291 292 292 292 292 292 291 291 291 291 290 290 290 290 290 290 289 290 290 290 290 290 291 291 291 291 292 292

ECMWFFLT1_850_thetae_006.txt.gz
Theta_e
316 313 308 308 308 307 307 307 306 306 306 306 306 308 312 314 314 314 314 313 314 314 314 314 314 314 315 316 315 316 319 321 322 324 324 324 325 325 326 326 326 327 327 327 326 326 326 326 327 326 324 325 325 324 326 327 328 329 328 327 327 328 329
315 312 309 309 308 307 307 307 306 306 306 305 305 305 306 307 306 306 306 306 307 308 309 308 306 306 307 308 308 308 310 313 316 320 321 321 322 324 325 324 324 324 325 325 325 325 325 325 326 325 325 325 323 322 322 324 326 327 327 327 327 327 329
311 310 311 310 308 308 307 307 307 307 306 306 305 305 304 305 304 304 304 304 304 304 305 304 303 303 303 303 303 304 304 305 307 310 312 313 315 317 318 320 320 321 322 323 323 323 323 323 324 324 324 323 322 320 318 317 319 323 326 326 326 327 327
309 309 310 310 309 310 309 308 310 310 307 306 305 305 305 305 305 305 304 304 304 304 304 304 304 304 304 304 304 304 303 303 303 303 303 304 305 306 307 309 313 315 315 317 318 317 316 317 318 319 320 319 319 318 315 313 315 319 323 323 324 326 326
309 309 309 310 310 310 310 310 311 312 309 307 306 306 305 305 305 305 305 305 304 304 305 304 304 305 305 305 305 305 305 304 304 304 303 303 303 303 303 302 304 305 305 307 308 307 308 309 309 312 314 315 316 317 316 316 317 318 320 319 320 323 325
309 309 310 311 311 312 313 311 311 313 312 309 307 306 305 305 305 305 305 305 305 305 305 305 305 305 305 305 305 305 305 305 305 305 304 304 304 304 303 303 303 303 302 303 302 303 304 304 307 312 314 312 313 314 314 314 315 315 317 319 320 321 323
309 309 310 312 312 313 315 312 311 314 314 312 309 306 306 306 305 305 305 305 305 305 304 305 305 305 305 305 305 305 305 305 305 305 304 304 304 304 304 304 303 303 303 303 302 302 303 304 307 310 310 309 309 309 310 312 314 314 315 318 319 320 320
309 309 309 311 311 313 314 312 312 314 315 314 312 307 306 306 305 306 305 305 305 304 304 305 305 305 305 305 305 305 305 305 305 304 304 304 303 303 303 303 303 303 303 303 303 303 303 304 304 304 305 307 310 309 309 310 312 314 316 316 317 317 319
309 309 309 310 310 311 312 312 312 313 314 315 313 308 306 307 306 306 306 305 305 305 304 304 304 304 304 304 305 305 305 305 305 304 304 303 303 303 302 302 302 302 302 303 303 303 303 303 303 303 303 307 311 312 312 311 311 313 315 317 318 317 318
309 309 309 309 310 310 311 312 312 312 312 313 311 309 308 307 306 306 306 306 306 305 305 304 304 304 304 304 304 304 305 305 304 304 304 303 303 303 302 302 302 302 302 301 302 302 302 302 303 302 303 305 309 311 312 313 313 313 312 314 316 317 318
310 309 309 309 309 310 311 312 312 312 312 312 311 311 309 308 307 306 306 306 306 306 305 305 304 304 304 304 304 304 304 304 304 304 304 304 303 303 302 302 301 301 301 301 301 301 301 301 302 302 303 305 308 310 312 313 313 313 312 312 314 316 319
311 310 309 309 309 309 310 311 312 313 313 312 312 311 311 310 308 307 306 306 306 306 306 306 305 305 304 304 304 304 304 304 304 304 304 304 304 303 303 302 301 301 300 300 301 300 300 301 301 302 304 305 306 307 309 311 313 313 313 313 313 312 313
312 311 311 310 310 310 310 310 311 312 313 313 312 312 312 311 311 309 307 307 306 306 306 306 306 306 305 305 304 304 304 304 304 304 304 304 304 303 303 302 301 301 300 300 301 301 301 301 300 300 302 302 303 303 304 308 311 312 311 311 310 309 311
313 313 312 312 312 311 310 310 310 311 313 313 313 312 312 312 312 311 309 308 307 307 306 307 307 307 306 306 305 304 304 303 303 304 304 304 304 303 303 301 301 301 300 299 299 301 304 304 303 303 304 303 304 305 305 306 309 311 310 310 310 310 310
313 313 313 313 313 313 312 311 311 311 312 313 314 313 313 312 312 312 311 310 308 308 307 307 307 307 307 307 307 306 305 304 303 303 303 303 303 303 303 302 301 300 300 298 297 300 304 305 304 306 306 306 305 305 304 304 306 308 308 308 308 308 307
313 312 313 313 313 314 314 314 313 312 312 313 314 314 313 313 313 313 312 311 310 309 308 308 308 308 308 307 307 307 306 305 304 303 303 303 303 303 303 302 301 300 299 298 297 298 301 303 304 306 306 306 305 305 303 302 302 304 305 305 305 306 307
317 316 315 314 313 313 314 315 315 314 313 314 315 315 315 313 313 313 313 312 311 311 310 310 310 309 309 309 308 308 307 306 305 303 303 303 303 303 303 302 301 300 298 298 297 298 300 302 302 303 304 305 305 306 305 304 304 304 304 305 305 305 305
319 318 318 317 316 314 313 314 315 316 315 315 315 316 316 315 314 313 313 313 312 312 311 311 310 310 310 310 310 309 308 306 305 304 303 303 303 303 302 301 300 299 298 297 296 297 299 299 298 299 300 302 303 305 305 306 306 305 306 306 306 305 304
320 320 319 318 317 316 315 314 314 315 315 316 316 317 316 316 314 313 313 313 313 312 312 312 311 311 311 311 311 310 309 306 305 304 303 303 303 302 301 300 298 297 296 296 296 296 296 296 297 297 298 299 300 301 302 303 303 304 305 305 306 306 306
318 321 322 321 320 319 318 318 317 316 316 315 315 316 317 316 315 314 314 313 313 313 313 312 311 311 311 311 312 311 309 307 305 304 303 302 302 302 300 298 297 296 295 295 295 294 294 294 295 296 298 300 301 301 301 301 301 302 303 303 304 305 306
311 316 320 322 322 322 321 321 320 319 318 317 316 316 316 316 315 314 314 314 314 313 313 312 312 311 311 312 312 311 309 306 305 303 303 303 302 301 299 297 295 295 294 294 294 293 293 293 294 294 296 299 300 301 302 302 302 302 302 303 304 304 305
308 309 311 315 318 321 322 322 321 321 320 319 318 317 317 316 315 314 314 314 314 313 313 313 312 312 312 311 311 310 307 305 304 303 302 302 300 299 297 295 294 294 293 293 293 293 292 293 293 293 294 295 297 299 301 302 302 302 302 303 304 304 304
307 307 308 308 311 316 320 321 321 321 320 320 320 319 318 317 316 315 314 314 314 314 313 312 312 312 311 311 310 308 306 304 303 303 301 300 298 296 295 294 294 294 294 293 292 292 292 293 293 293 294 294 295 296 298 299 301 301 302 303 303 303 304
306 306 306 307 307 310 315 319 320 320 320 319 319 319 318 317 316 314 314 314 314 314 313 312 311 311 311 310 308 306 305 304 303 302 300 298 296 295 295 294 294 293 293 293 292 292 292 293 293 293 294 294 294 294 295 296 297 298 300 301 302 302 303
304 306 306 306 306 306 309 314 317 319 319 318 318 318 318 317 316 314 313 313 314 313 312 312 311 310 310 308 307 305 304 303 302 301 299 297 295 295 295 294 293 292 292 292 292 292 292 293 293 294 294 294 295 295 295 295 295 296 297 298 300 301 302
304 305 305 304 305 307 308 309 312 316 318 317 318 317 317 316 315 314 313 313 312 312 311 312 311 309 308 307 306 304 303 302 301 299 297 296 295 295 294 293 293 293 293 293 293 293 293 293 293 293 293 294 295 295 295 295 295 295 295 296 297 298 299
303 304 304 304 303 305 307 307 309 313 315 316 318 318 317 316 315 314 313 313 313 312 310 310 309 308 307 306 305 304 302 301 299 297 296 295 294 293 293 293 293 293 293 293 293 293 293 293 293 293 293 294 295 295 295 295 296 296 296 296 296 296 297
302 302 302 303 303 302 304 305 307 311 313 314 316 318 317 316 315 314 312 312 313 312 309 308 308 307 305 305 304 303 301 299 297 296 295 294 293 293 293 293 293 293 293 293 294 293 293 292 292 293 293 294 294 295 295 295 296 297 297 298 298 297 298
301 301 302 303 304 302 302 302 304 309 313 314 315 316 316 315 315 314 312 311 311 311 309 308 307 306 305 304 302 300 298 297 296 296 296 295 294 295 295 294 294 294 294 293 293 293 292 292 293 293 294 294 294 295 295 296 296 296 296 297 297 298 298
299 301 302 304 307 305 303 302 303 307 312 313 314 316 316 315 314 313 311 310 310 309 307 306 305 305 303 302 299 297 297 297 297 297 297 296 296 296 296 295 294 294 293 293 293 292 292 293 293 294 294 294 294 295 295 295 295 295 295 295 295 295 296
298 300 302 304 307 306 304 303 303 306 311 313 314 314 315 314 313 312 310 309 308 307 305 305 304 303 301 298 297 296 296 297 297 297 297 297 297 297 297 296 295 293 293 293 293 293 293 294 294 294 294 294 294 294 295 295 295 295 295 295 294 294 294
298 299 300 302 305 307 305 305 306 309 311 312 312 313 314 313 312 311 310 308 307 305 304 304 302 299 297 296 295 295 295 296 297 297 297 297 297 297 297 296 295 294 294 294 294 293 294 294 294 294 293 293 293 293 294 294 294 294 294 294 294 294 294
299 299 299 301 304 307 307 306 308 311 311 311 311 313 313 313 312 311 308 307 305 304 303 301 299 296 295 295 294 293 294 295 296 296 297 297 297 297 296 296 296 295 295 294 294 294 294 294 294 293 292 292 292 293 293 293 293 293 293 293 293 293 293
299 301 301 301 305 309 309 307 309 312 312 312 312 312 312 312 311 309 307 305 303 301 299 299 297 295 294 293 293 293 293 293 294 295 295 295 295 295 295 295 295 295 295 294 294 294 294 293 293 292 291 291 292 292 291 291 291 291 291 291 291 292 292
300 301 303 305 308 310 309 308 310 312 312 313 313 312 311 310 309 306 304 302 300 297 296 296 295 293 293 293 293 293 292 292 292 292 292 292 293 294 294 295 295 295 295 294 294 294 293 292 291 291 291 291 291 291 290 290 290 290 290 290 291 291 291
301 302 303 307 309 309 309 309 310 312 313 313 312 310 309 307 305 302 301 299 297 295 294 294 293 293 293 293 292 292 291 291 291 291 291 291 292 293 294 294 295 295 294 294 293 292 292 291 291 291 291 291 291 290 290 289 289 289 289 290 290 290 291
304 304 305 307 309 309 309 310 311 312 312 311 310 308 305 303 300 299 298 298 297 295 295 294 294 293 292 292 291 291 291 291 292 292 293 293 293 294 294 294 294 294 293 293 293 292 292 292 291 291 290 290 290 289 289 289 289 289 290 290 290 290 291

ECMWFFLT1_850_thetae_009.txt.gz
Theta_e
320 319 318 318 317 314 315 316 316 315 315 314 315 318 319 318 318 319 319 320 319 319 319 320 320 320 320 318 316 318 322 322 323 325 326 325 325 325 325 325 325 326 324 322 322 325 327 327 326 326 326 324 321 318 319 321 323 326 327 327 327 328 329
320 317 317 317 315 313 315 318 320 318 315 314 314 315 314 312 311 311 312 314 315 316 316 316 314 312 311 311 310 311 312 312 315 320 322 323 324 324 324 324 324 324 324 323 324 325 325 326 326 326 325 324 322 320 319 319 320 322 321 321 324 326 327
319 317 318 318 315 315 316 317 318 317 314 312 310 310 309 307 306 306 306 306 309 311 311 309 307 305 303 304 305 305 304 304 306 309 311 314 318 318 319 322 322 322 323 322 323 323 323 324 324 325 324 323 322 320 318 317 317 317 315 317 321 323 324
319 317 318 317 317 317 317 317 318 318 316 312 308 307 307 307 306 306 305 304 305 306 307 307 307 306 305 304 305 304 304 304 303 304 303 304 309 310 311 317 318 317 318 319 320 320 319 320 320 320 319 318 317 315 315 315 314 314 311 311 313 315 318
318 317 318 316 318 319 318 318 319 318 316 312 309 307 307 306 306 305 305 305 305 305 305 306 306 306 306 305 306 306 305 305 305 305 305 303 306 307 307 310 313 314 314 314 314 315 315 314 314 315 314 314 315 314 313 313 312 311 310 310 310 310 314
315 316 317 316 317 319 318 318 319 318 317 315 312 309 307 306 306 306 306 305 305 305 305 305 306 306 307 306 306 305 306 306 305 305 305 305 305 305 304 306 310 314 313 308 307 312 314 311 311 314 315 314 314 313 312 311 311 312 313 314 313 314 317
315 315 318 318 318 319 319 317 318 319 318 316 315 310 307 308 307 306 306 306 305 305 305 305 305 306 308 309 306 305 306 305 306 305 305 305 304 304 304 303 306 309 310 309 307 311 314 313 314 315 313 313 313 312 313 312 311 312 314 315 316 317 319
318 317 318 319 318 319 319 317 316 318 318 317 316 311 308 308 307 307 307 306 306 305 305 305 306 305 307 308 306 305 306 305 306 306 305 305 304 303 303 303 304 306 306 306 307 308 310 311 312 312 311 312 313 313 314 314 313 312 313 315 317 317 318
320 319 318 320 319 319 320 318 316 318 318 318 316 311 308 308 308 307 307 307 307 306 306 305 306 305 305 306 305 305 305 305 305 305 305 305 304 304 303 303 304 304 302 302 304 304 304 305 307 309 311 312 313 313 313 314 314 314 313 314 316 318 318
321 321 319 319 320 320 320 319 317 317 318 318 316 311 309 309 308 308 307 307 307 307 307 306 305 306 305 305 305 305 305 305 305 305 305 305 304 304 304 303 303 304 303 302 302 302 302 302 303 305 309 312 312 313 313 313 314 315 315 314 313 315 316
321 322 320 320 321 321 321 320 318 317 318 318 316 311 310 310 309 308 308 308 308 307 307 307 306 306 306 305 305 305 305 304 305 304 304 305 305 304 304 304 304 304 304 303 302 302 302 302 301 302 307 311 312 313 313 314 314 313 315 315 315 314 314
322 322 322 321 322 322 321 320 319 318 318 318 317 313 311 311 310 309 309 308 308 308 308 307 307 307 307 306 306 305 305 305 304 304 304 304 304 304 305 305 304 304 304 303 304 303 302 302 302 302 305 309 312 313 313 313 313 313 313 315 316 314 312
323 322 322 322 323 323 321 320 320 320 319 319 318 314 312 312 311 310 310 309 308 308 308 308 307 308 307 307 307 307 306 305 305 305 304 304 304 304 304 304 305 304 304 304 303 303 303 304 303 303 305 307 309 311 312 313 313 313 313 313 313 313 313
320 319 321 322 323 322 320 320 320 320 319 319 318 315 313 313 312 312 311 310 310 308 308 308 308 308 308 308 308 308 307 306 306 307 305 304 304 304 304 304 305 305 304 303 302 303 305 307 306 307 308 309 310 310 311 311 311 312 312 312 312 312 312
316 316 316 321 324 323 319 319 321 319 318 319 318 315 314 314 313 313 313 313 312 311 310 309 308 308 308 308 308 308 308 307 308 308 306 304 305 305 304 304 305 304 303 303 301 302 305 306 306 307 308 309 309 309 309 309 310 310 310 310 310 310 310
315 315 313 316 321 323 321 320 321 321 319 319 319 317 315 316 314 314 315 315 314 314 313 311 310 309 309 309 309 309 309 308 308 308 306 305 306 306 304 304 304 304 303 303 301 302 303 305 306 307 307 307 307 307 308 309 309 309 310 310 309 310 310
317 320 320 317 317 320 322 321 320 322 322 321 320 319 317 317 317 316 316 316 315 315 314 313 311 310 309 309 309 309 310 309 309 309 307 307 306 305 303 303 304 304 303 303 301 301 305 306 306 306 306 305 306 307 308 309 309 309 310 310 310 309 309
321 322 322 321 321 321 323 322 321 321 323 322 320 319 319 318 318 318 317 316 316 315 314 313 312 311 310 310 310 310 310 310 310 309 308 307 306 305 304 303 303 303 303 302 300 301 304 304 302 302 303 304 304 305 305 306 306 307 307 308 308 308 308
323 323 321 321 323 324 323 322 321 321 323 322 320 320 320 319 319 319 318 318 317 316 315 314 313 312 312 311 310 310 310 310 310 310 309 308 306 305 304 303 303 303 302 301 300 300 300 299 298 299 300 301 301 303 303 303 303 304 305 306 306 307 307
319 320 320 320 321 324 324 323 321 321 322 322 321 319 318 319 319 319 319 318 318 318 316 315 314 313 313 312 311 311 311 310 310 310 309 308 306 305 304 303 302 302 301 300 300 299 298 297 296 297 297 298 300 302 303 303 304 304 305 305 306 306 307
312 314 315 315 314 316 321 324 324 323 321 322 322 320 318 318 319 319 319 319 319 318 317 316 315 314 313 313 312 311 311 310 310 310 309 308 306 305 304 303 302 301 301 300 299 298 297 297 296 295 295 295 296 297 298 300 303 305 305 305 306 306 306
310 311 310 310 309 308 313 319 322 323 323 323 322 322 320 319 319 319 319 319 319 318 318 316 315 314 314 313 312 312 311 310 310 309 308 307 305 304 303 302 302 301 301 300 299 297 296 295 294 294 294 293 293 294 294 296 299 302 304 305 305 305 306
310 311 311 312 311 310 310 314 318 320 322 323 322 322 322 320 320 320 320 320 319 318 318 316 315 314 313 313 312 311 311 311 309 308 307 306 304 303 303 302 301 301 301 300 299 297 296 294 293 293 293 293 293 293 294 294 295 297 299 301 303 303 304
309 310 312 314 315 315 315 316 318 320 321 321 321 321 321 321 321 321 320 320 319 318 317 316 315 314 314 313 312 311 311 310 308 308 306 305 304 303 302 301 301 300 300 299 298 297 295 294 293 294 294 294 294 294 294 294 294 295 296 297 299 301 302
307 308 310 312 314 316 317 318 319 319 320 319 319 319 320 321 321 321 320 318 318 317 316 316 315 314 314 313 312 311 310 308 307 306 305 304 303 302 302 301 301 300 299 298 297 296 295 295 296 296 296 295 295 294 294 295 295 295 295 295 296 298 299
307 308 308 310 312 314 315 316 317 318 318 318 318 318 318 319 320 320 319 318 317 316 316 315 314 313 313 313 312 311 309 306 306 305 304 303 303 302 301 301 300 299 298 298 297 296 296 298 299 298 297 296 295 295 295 295 296 296 296 296 296 296 297
307 308 308 308 309 312 313 314 315 316 316 317 317 317 317 318 318 319 318 317 316 315 314 314 313 313 313 312 311 310 307 305 304 304 303 303 302 301 300 299 298 298 298 298 299 299 299 300 299 298 297 296 296 296 296 296 297 297 297 298 297 297 298
307 308 308 308 308 310 311 314 315 315 314 315 316 316 317 317 317 317 317 317 316 315 314 314 313 312 312 311 310 309 306 305 305 304 303 302 301 300 299 298 298 297 298 298 299 299 299 298 297 296 295 295 295 295 296 297 298 298 298 298 298 299 299
307 307 307 307 308 309 310 312 314 315 314 314 315 315 315 316 317 317 317 316 315 315 314 313 313 312 311 310 309 307 306 305 304 303 302 301 301 300 300 299 299 299 299 300 300 299 298 297 295 295 295 295 295 295 296 297 298 298 298 298 298 298 298
307 307 307 307 308 308 309 311 313 314 314 314 314 314 314 315 316 316 317 315 315 314 313 312 311 310 309 308 307 306 305 304 303 302 302 301 301 301 300 300 300 300 300 300 300 298 297 296 295 295 295 295 295 296 297 297 297 297 297 297 297 297 297
307 306 306 306 307 307 308 309 311 313 313 314 314 313 314 315 314 315 316 315 314 314 313 311 310 309 308 308 307 306 304 302 301 301 301 301 301 301 301 300 299 299 299 299 298 297 296 296 295 295 295 295 295 296 297 297 296 296 296 296 296 296 296
307 307 307 306 307 307 307 309 311 312 312 313 313 313 313 314 314 314 314 314 313 313 311 310 309 308 308 307 306 305 302 300 300 301 300 300 300 300 301 300 300 299 298 298 298 297 296 296 295 295 295 295 295 296 296 295 295 295 295 296 296 296 296
307 307 307 307 306 306 307 308 310 312 312 312 312 312 313 313 313 313 313 313 312 310 309 309 308 307 306 305 305 304 300 297 298 299 300 300 300 300 299 299 299 298 298 297 297 296 296 296 296 295 295 295 295 295 295 294 294 294 294 294 294 294 295
307 307 307 307 306 305 306 308 310 311 311 311 312 312 312 313 313 313 312 310 309 307 306 306 304 304 304 304 303 299 296 295 297 299 298 298 297 297 297 297 297 297 297 297 297 296 296 296 295 295 295 295 294 294 294 293 293 292 292 292 292 292 293
306 305 304 303 304 304 306 308 310 311 311 311 312 311 312 312 312 312 310 308 306 305 304 303 303 302 301 300 297 295 294 294 295 295 294 294 294 295 296 296 297 297 297 297 296 296 296 296 295 295 294 294 293 293 292 292 291 291 291 291 291 291 292
305 305 304 303 304 304 305 308 310 310 311 311 312 311 312 312 311 309 307 306 304 303 302 302 301 299 297 295 294 293 293 293 293 292 292 293 293 294 295 296 297 297 296 296 295 295 295 295 294 294 293 293 292 292 291 291 291 291 290 291 291 291 291
305 306 307 307 308 307 306 308 310 310 311 311 311 311 311 310 309 307 305 303 302 301 300 299 297 295 293 293 293 293 292 292 292 293 293 293 293 294 294 295 295 295 295 294 294 294 294 294 293 293 292 292 291 291 290 290 291 291 291 291 291 291 291

ECMWFFLT1_850_thetae_015.txt.gz
Theta_e
308 308 309 308 308 308 307 307 308 308 310 311 313 316 319 321 321 321 320 320 321 322 322 322 322 323 322 322 322 322 323 323 324 324 324 324 325 325 325 325 325 324 324 324 324 324 324 323 323 323 323 324 325 324 322 321 321 320 318 319 321 322 322
309 308 308 308 307 308 307 307 307 307 308 307 308 310 313 318 321 320 319 319 319 319 320 321 321 320 318 316 318 319 319 319 322 323 323 323 324 324 324 324 324 324 324 324 324 323 324 323 322 322 322 323 323 319 318 317 317 318 317 317 320 319 316
309 308 308 308 307 307 307 307 307 307 307 306 306 306 306 312 318 319 317 317 314 311 311 313 312 310 307 307 310 314 315 318 320 322 322 322 322 321 322 323 322 323 323 322 323 323 322 321 321 322 320 320 319 315 314 315 314 315 314 312 315 317 316
309 309 308 308 308 307 306 307 307 307 307 307 306 306 305 307 312 314 313 310 307 305 305 305 305 304 303 303 305 307 310 314 316 316 315 317 317 316 318 320 321 321 321 321 322 322 321 320 320 318 315 315 315 313 313 315 314 313 310 309 310 313 315
309 309 309 309 308 307 307 307 307 306 307 307 306 306 306 305 306 307 308 306 305 306 306 306 306 306 305 305 305 304 306 307 309 308 307 309 309 309 311 314 317 319 319 319 319 318 317 316 312 309 308 309 311 311 311 312 312 311 311 312 312 312 314
309 309 309 309 309 308 307 307 307 307 306 307 307 306 306 306 306 305 305 306 306 306 306 306 306 306 306 306 306 306 306 306 306 306 306 305 306 305 306 307 310 312 312 310 310 309 309 308 306 305 307 308 308 307 308 312 312 312 313 314 314 314 315
308 309 309 309 309 308 308 308 307 307 307 307 307 307 307 306 306 306 306 306 306 306 306 306 306 306 306 306 306 306 306 306 306 306 306 306 306 305 305 305 306 306 305 305 304 304 305 305 306 305 306 306 306 306 309 313 313 312 314 314 314 316 317
309 309 309 309 309 308 308 308 308 308 308 307 307 307 307 307 307 307 306 306 306 306 306 306 307 306 306 306 306 306 306 306 306 306 306 305 305 305 305 304 304 304 304 304 303 303 304 303 303 303 303 304 305 305 307 311 312 313 315 314 314 315 317
310 310 309 309 310 309 308 309 309 309 308 308 307 307 307 307 307 307 307 307 306 306 306 306 306 306 306 306 306 306 305 305 305 305 305 305 305 304 304 304 304 304 303 303 303 303 303 303 303 302 303 304 304 304 304 305 309 312 314 313 314 315 315
312 312 311 310 310 311 310 310 309 310 310 309 308 308 308 307 307 307 307 307 307 307 307 306 306 306 306 306 306 306 305 305 305 305 305 304 304 304 304 304 304 304 304 303 303 303 303 303 302 302 303 304 304 306 306 304 305 308 310 310 312 313 315
315 314 315 313 313 315 315 312 311 311 311 310 310 309 308 308 308 307 307 307 307 307 307 307 307 307 306 306 306 306 306 305 305 305 305 305 304 304 305 305 305 305 304 304 304 303 303 303 303 303 303 303 303 305 306 305 305 305 306 306 308 309 311
318 317 319 318 316 317 318 316 314 312 311 311 311 311 310 309 309 308 308 308 308 308 307 307 307 307 307 307 307 307 307 306 306 305 306 306 305 305 305 306 306 306 306 305 305 305 304 304 304 304 305 305 306 306 307 307 306 305 305 304 304 304 305
320 318 320 320 319 318 319 319 318 316 314 313 313 313 312 311 310 310 309 309 309 308 308 308 308 308 308 308 308 308 308 307 307 307 307 306 306 306 306 306 307 307 307 307 307 307 307 306 306 306 307 307 307 307 308 308 308 306 305 304 303 303 303
321 319 319 321 320 319 319 320 320 319 318 317 316 316 316 315 314 313 312 312 311 310 309 309 308 308 308 308 308 308 308 308 308 308 308 307 307 307 307 307 307 307 306 307 307 307 307 307 307 306 307 307 307 308 308 308 308 306 305 304 303 303 303
321 320 321 322 321 321 320 321 321 320 319 319 318 318 318 318 318 318 317 316 315 313 312 311 310 309 308 308 308 308 308 308 309 309 308 308 308 308 307 307 308 307 306 306 306 307 307 307 306 306 305 306 306 307 307 305 305 304 304 304 303 303 302
320 320 322 322 322 321 321 321 321 321 320 320 320 320 319 319 320 319 319 319 318 317 316 315 314 312 310 309 308 308 308 309 309 309 309 309 308 308 308 308 308 308 307 306 306 307 307 307 307 306 305 304 304 303 303 303 303 304 303 303 303 302 300
320 321 321 322 322 322 322 322 322 321 320 319 319 319 319 319 319 319 320 320 320 319 318 317 317 316 314 313 311 309 309 309 309 309 309 309 309 309 309 309 308 308 308 307 307 307 308 308 307 306 306 305 304 302 302 301 302 303 302 301 301 300 299
321 320 320 321 320 321 322 322 322 321 320 319 319 319 319 319 319 319 320 321 320 319 319 319 318 318 317 316 315 313 311 310 309 309 309 309 309 309 309 309 309 309 309 308 307 307 307 307 307 306 306 305 305 304 303 302 300 300 299 299 299 298 298
320 320 318 318 318 319 321 321 320 319 319 319 318 318 319 319 319 319 320 320 320 320 319 319 319 318 318 318 318 316 315 313 311 310 310 309 309 309 309 309 309 309 309 308 307 306 306 307 306 306 306 306 306 306 304 303 301 299 298 297 297 297 297
319 318 317 318 319 320 320 319 318 317 317 317 317 318 319 319 318 319 319 319 319 319 319 318 319 319 319 318 318 318 317 315 314 312 311 310 310 310 310 310 310 310 309 308 307 306 305 305 305 305 306 306 305 304 303 302 300 298 297 297 297 297 297
319 319 319 320 321 320 320 318 316 316 317 316 316 316 316 317 318 318 318 317 317 317 317 316 317 318 318 318 318 318 317 317 316 314 313 312 311 311 310 310 310 310 309 308 307 306 305 305 305 305 305 304 302 301 301 300 299 298 297 297 297 297 297
319 320 320 320 320 320 319 317 315 315 315 314 313 313 314 316 317 317 317 317 316 317 317 316 317 318 318 318 318 318 318 317 316 315 314 313 312 311 311 311 310 310 310 309 308 306 305 305 305 305 304 302 300 299 299 298 298 298 297 297 297 297 297
315 314 315 314 315 315 315 314 313 313 313 313 314 315 315 315 315 315 316 317 317 317 318 317 317 318 318 319 318 318 317 317 316 315 314 314 313 312 312 311 311 310 309 309 308 306 306 305 305 304 303 301 300 299 299 298 298 297 297 296 296 296 296
311 311 313 314 314 315 315 315 316 316 316 317 317 318 317 317 316 315 316 317 318 319 319 318 318 318 318 319 318 318 318 317 316 316 315 315 314 313 312 311 310 309 309 308 307 306 306 305 305 303 302 301 300 299 299 298 298 297 296 296 295 295 296
309 310 312 313 313 315 317 318 318 318 318 318 318 318 318 318 317 316 316 316 317 318 319 320 320 319 319 319 319 318 318 317 317 316 315 315 314 313 313 311 310 310 310 308 307 306 305 305 304 303 302 300 300 299 298 298 297 297 296 296 295 295 296
307 308 309 309 310 313 315 316 316 315 315 316 317 318 317 317 316 315 313 312 311 312 316 319 321 321 320 319 319 318 318 317 317 316 316 315 314 313 312 311 310 311 310 308 306 305 304 304 303 302 301 299 299 299 298 298 297 297 296 296 296 296 296
308 308 308 308 308 308 310 311 313 313 314 315 316 316 316 316 314 312 310 308 307 309 312 315 318 320 320 320 318 317 317 317 317 316 315 314 313 312 311 310 310 310 309 307 305 304 303 302 302 300 300 299 299 298 298 298 297 297 296 296 296 296 296
308 308 308 308 306 305 305 307 309 310 311 313 313 314 314 315 314 314 313 311 309 309 310 311 313 316 319 319 318 317 317 317 316 315 313 312 311 311 310 309 308 307 306 305 304 303 302 301 300 300 300 300 299 299 299 298 298 297 297 296 296 296 296
308 308 307 305 303 303 303 304 304 304 306 308 311 312 313 313 313 314 314 314 313 312 311 310 311 314 317 319 318 317 316 316 315 313 311 310 310 309 308 307 307 306 304 303 303 302 301 301 300 301 301 300 300 300 299 299 298 298 297 297 296 296 296
308 307 305 303 303 302 302 302 301 301 301 303 306 310 312 312 312 312 313 313 314 314 312 311 312 315 317 317 317 316 315 315 313 311 309 309 309 308 307 307 306 305 304 303 302 302 301 301 301 301 300 300 299 299 299 299 298 298 297 297 296 296 296
308 307 306 306 305 303 302 301 301 300 300 300 301 305 309 312 312 312 312 312 313 313 313 313 314 315 316 317 316 315 314 313 312 310 309 308 307 306 306 306 305 304 303 303 302 301 301 301 300 300 300 299 299 299 298 298 297 297 297 296 296 296 296
308 307 307 306 305 304 303 303 302 301 300 300 299 302 306 310 311 311 311 312 312 313 313 313 314 314 315 316 316 315 313 312 311 310 308 307 305 305 305 304 304 303 302 302 302 301 301 301 300 300 299 298 298 298 297 297 297 296 296 296 296 296 295
306 306 306 305 304 305 304 304 303 302 301 300 299 301 305 309 311 311 311 311 311 312 313 313 314 314 315 315 315 314 313 311 310 309 307 305 304 304 304 303 302 302 301 301 301 300 299 299 299 298 297 297 297 297 296 296 296 296 295 295 295 294 294
305 305 305 305 305 305 304 304 303 303 302 301 300 300 303 307 310 310 311 311 311 311 312 313 313 313 314 315 315 314 312 310 310 309 308 305 304 303 302 302 301 301 301 300 299 298 297 297 297 297 296 296 296 296 296 295 295 294 294 294 293 293 293
305 305 305 305 305 305 304 304 304 303 302 302 301 301 303 307 309 309 310 310 310 311 311 312 312 312 313 314 315 313 311 309 309 309 307 305 303 302 302 302 301 300 300 298 297 296 296 296 296 295 295 295 295 295 294 294 294 293 293 293 292 292 292
305 305 305 305 305 305 305 305 304 303 302 303 303 303 305 307 309 309 310 310 310 310 311 312 312 312 312 313 313 312 309 308 308 308 306 305 303 301 300 300 299 298 296 295 294 294 294 294 294 294 294 294 294 294 293 293 292 292 292 292 291 291 291
305 305 305 304 305 305 304 304 304 304 304 305 305 306 307 308 310 310 310 311 310 310 310 311 311 311 311 311 310 309 308 307 307 307 306 304 301 298 296 296 296 295 294 293 293 293 293 294 294 294 294 294 293 293 292 292 292 291 291 291 291 291 291

ECMWFFLT1_850_thetae_018.txt.gz
Theta_e
315 309 307 308 307 307 307 307 308 311 315 318 318 318 319 320 320 320 321 322 323 323 323 322 322 322 322 322 323 324 323 323 323 324 325 325 324 324 324 325 326 325 324 324 323 323 323 323 322 322 322 322 323 323 320 318 317 316 317 318 318 320 323
313 308 308 308 307 307 306 306 307 309 313 317 317 316 319 321 320 320 321 321 322 322 322 322 322 321 321 322 322 322 322 322 322 324 324 324 324 324 325 325 325 325 324 324 324 323 323 323 322 322 322 321 321 320 317 317 316 314 313 313 315 317 321
311 309 309 307 306 307 306 306 307 307 309 312 314 317 319 321 320 319 320 320 321 321 321 322 321 321 321 319 317 319 321 320 321 323 323 323 323 324 324 324 324 324 323 323 323 323 322 322 321 321 321 321 319 317 316 316 315 313 312 311 313 314 317
310 310 308 307 307 307 306 306 306 306 306 307 309 315 319 320 319 319 319 317 316 316 318 319 317 315 313 309 308 312 316 318 320 321 320 321 320 320 321 322 322 323 322 322 322 322 322 321 321 320 319 318 315 314 314 315 314 312 312 312 312 313 315
310 309 307 308 307 306 306 306 306 306 306 306 306 309 315 318 317 315 313 309 307 308 310 310 308 306 305 303 304 306 308 311 313 312 309 310 310 309 311 314 316 318 319 318 318 316 315 315 314 313 311 309 308 308 310 311 312 313 313 313 314 314 316
310 308 308 308 307 306 306 305 306 306 306 306 305 306 309 311 310 308 306 306 305 306 306 306 306 306 305 305 305 305 305 306 306 305 305 305 305 305 305 307 309 310 311 310 309 307 306 307 307 306 306 306 305 306 308 311 312 314 314 315 315 316 317
310 309 308 308 307 306 306 306 306 306 306 306 306 306 306 306 306 306 306 306 306 306 306 306 306 306 306 306 306 306 306 305 305 305 305 305 305 305 305 305 305 306 306 305 305 304 304 304 304 304 304 304 304 305 308 313 313 313 314 315 315 317 317
311 310 308 308 307 306 307 306 306 306 306 306 306 306 306 306 306 306 306 306 306 306 306 306 306 306 306 306 306 306 305 306 306 305 305 305 305 305 305 304 304 304 304 304 304 303 303 303 303 303 303 303 304 304 307 311 313 314 314 314 314 316 317
314 311 308 308 308 307 307 306 307 307 306 306 306 306 306 306 306 306 306 306 306 306 306 306 306 306 306 306 305 305 305 305 305 305 304 304 304 304 304 303 303 303 303 303 303 303 303 303 302 303 303 302 303 303 304 307 310 312 313 313 313 314 315
318 313 309 309 309 309 308 308 307 307 307 307 307 306 307 306 306 306 306 306 306 306 306 306 307 306 306 306 305 305 305 305 304 304 304 304 303 303 304 303 303 303 303 303 303 303 303 303 302 303 303 302 303 303 302 304 305 307 308 309 310 311 313
319 318 313 311 311 311 311 311 310 308 307 307 307 307 307 307 307 307 306 307 306 306 307 306 306 306 306 306 306 306 305 305 305 305 305 305 304 304 304 304 305 304 305 304 304 304 304 304 303 304 304 304 304 305 304 304 304 304 305 305 305 306 307
319 319 317 315 313 313 314 314 314 312 310 308 308 308 308 308 307 307 307 307 307 307 307 307 307 307 307 307 307 307 306 306 306 306 306 306 306 306 306 306 306 306 306 306 305 306 306 306 306 306 306 306 306 306 306 305 305 305 305 304 304 303 303
320 319 319 318 315 315 317 316 315 315 314 311 310 309 308 308 308 308 308 308 308 308 308 308 307 307 308 307 307 307 307 307 307 307 307 307 307 307 307 307 307 307 307 307 307 308 308 308 308 308 307 307 306 306 306 306 306 306 305 305 304 303 303
320 319 319 319 318 317 318 318 317 316 316 314 313 311 311 311 310 310 310 310 310 310 310 310 309 309 308 308 308 308 308 308 308 308 307 307 308 308 307 307 307 307 307 308 308 309 309 309 309 308 308 307 306 306 306 306 305 306 306 305 304 304 303
319 319 319 319 319 319 318 319 318 318 318 317 315 315 315 314 314 313 312 313 312 312 312 312 311 311 310 310 309 309 308 308 308 308 308 308 308 308 308 308 307 307 307 307 307 308 309 309 308 308 307 307 306 306 305 305 305 305 306 306 305 304 303
318 318 319 318 319 320 319 319 320 320 320 319 318 317 318 318 317 317 316 316 315 314 314 314 314 313 313 313 312 311 310 310 309 308 308 309 309 308 308 308 308 308 307 307 307 307 308 308 308 307 307 306 305 305 304 304 304 304 305 305 305 304 302
318 319 319 317 318 320 320 320 320 320 321 320 319 319 319 319 319 319 318 318 318 317 317 317 317 316 316 316 315 315 314 313 312 310 309 309 308 308 309 308 308 308 308 307 307 307 307 308 308 308 308 307 306 305 304 303 303 303 303 303 303 302 301
318 319 320 318 319 320 320 320 320 321 321 321 320 319 319 319 320 319 318 318 318 318 319 319 319 319 318 317 317 317 317 316 315 314 312 310 309 309 309 309 309 309 308 308 308 307 308 308 308 308 308 308 307 306 305 305 304 302 301 301 301 301 300
318 320 319 319 320 319 319 320 321 321 321 320 320 320 320 320 320 319 319 319 318 318 319 319 319 319 318 318 318 318 318 318 317 317 315 313 312 311 310 309 309 309 309 309 309 308 308 308 308 308 308 308 307 307 306 305 304 302 300 299 299 299 299
320 319 318 320 320 318 318 320 321 321 320 320 320 320 320 320 320 320 320 320 319 319 319 319 319 318 317 318 318 318 318 318 318 318 317 316 314 313 311 310 310 310 309 310 310 309 308 308 307 307 307 307 307 306 305 304 303 302 301 299 298 298 299
319 319 319 320 320 319 319 320 321 321 321 320 320 320 320 320 320 320 320 320 320 320 320 319 319 317 316 316 318 319 318 318 318 318 318 317 316 315 314 312 312 311 310 310 310 309 309 308 308 307 307 307 306 305 304 303 303 301 300 299 298 298 298
320 319 320 320 319 319 318 318 319 320 321 320 319 320 320 320 320 320 320 319 319 319 319 319 319 317 316 316 317 318 319 318 318 318 318 317 316 316 315 314 314 312 311 311 310 310 309 309 308 307 307 306 306 304 303 302 301 300 299 298 298 298 298
319 319 319 319 319 318 318 318 318 319 320 320 319 319 318 318 318 318 318 318 318 318 318 318 318 317 317 317 317 318 318 318 318 318 318 317 316 316 316 315 315 314 312 311 311 310 309 308 308 307 307 306 305 304 302 301 300 299 298 298 298 298 298
316 317 318 318 317 317 317 317 318 318 318 318 316 315 315 316 317 317 316 317 317 317 318 317 317 317 317 318 318 318 318 318 318 318 318 317 317 316 316 315 315 314 313 312 311 310 309 308 307 307 307 306 304 303 301 300 299 298 298 298 298 297 297
314 314 314 314 314 315 315 315 316 316 316 315 315 315 315 316 317 317 317 317 317 317 318 318 319 319 319 319 319 319 319 319 319 319 318 317 317 316 316 315 315 314 313 312 310 309 308 307 307 307 307 306 304 302 301 300 299 299 299 298 298 298 297
311 312 314 314 314 315 316 316 316 316 315 315 315 315 315 315 316 317 318 318 316 316 315 315 316 317 319 320 320 321 320 320 319 319 318 318 317 317 316 315 315 314 313 311 310 309 308 308 307 306 306 305 304 302 301 300 300 299 299 299 299 298 297
308 310 312 312 312 314 315 316 316 315 314 314 314 314 314 314 314 315 315 315 314 312 310 309 308 309 311 315 318 320 320 319 319 318 318 318 317 316 316 315 314 313 312 310 309 309 308 308 307 306 306 306 303 302 301 300 300 300 300 299 299 298 297
307 308 309 309 310 311 312 312 313 313 313 313 314 315 315 315 314 313 313 313 313 310 307 305 306 307 308 310 313 316 318 319 318 317 317 317 316 315 314 314 313 312 310 309 309 308 307 306 306 306 306 305 303 301 301 300 300 300 299 299 299 298 298
307 308 308 308 308 308 308 308 309 310 311 312 313 313 313 312 312 311 311 312 312 311 308 306 307 308 310 310 312 315 317 318 318 317 317 317 315 314 313 313 311 309 309 309 308 307 306 305 305 305 305 304 303 301 300 300 300 300 299 299 299 298 298
308 308 308 308 308 305 304 303 304 304 305 305 305 306 307 308 309 310 309 309 310 310 309 309 310 311 311 311 312 313 315 316 317 316 316 315 313 312 312 311 310 308 308 307 306 305 304 304 304 305 304 303 302 301 300 300 300 300 299 299 298 298 297
308 308 308 308 306 303 302 302 302 301 301 301 300 301 302 304 307 309 310 311 311 309 307 309 311 312 312 312 311 311 313 314 315 315 314 313 312 311 310 309 308 307 306 306 305 305 304 304 304 303 303 302 301 301 300 300 299 299 298 298 297 297 296
308 308 308 307 306 305 304 303 303 302 302 301 301 301 300 301 302 305 307 309 311 308 306 307 310 312 312 312 312 311 312 313 314 314 313 312 311 310 309 308 307 306 305 305 305 304 304 303 303 302 302 301 301 300 299 298 298 297 296 296 295 295 295
307 307 307 307 307 306 305 303 303 302 302 302 302 302 301 300 300 301 304 307 309 309 308 308 309 311 311 312 313 313 312 313 314 314 313 311 309 309 308 308 307 306 306 305 304 303 303 302 302 302 301 300 299 298 297 296 295 295 295 294 294 294 294
306 306 306 306 305 305 304 303 303 303 303 303 303 303 302 301 300 300 301 305 307 309 310 310 310 311 312 313 313 313 313 313 313 313 312 310 308 308 309 308 307 306 305 304 303 302 302 302 302 301 300 298 297 295 295 294 294 294 294 294 294 294 294
306 305 305 305 304 304 304 305 305 305 304 304 304 304 303 302 301 301 301 303 305 308 309 310 310 311 312 313 313 313 313 313 312 311 310 309 309 308 307 306 305 304 303 302 302 302 301 301 299 297 296 295 294 294 294 294 294 294 294 294 293 293 292
305 305 305 304 304 304 305 305 305 305 305 305 305 304 303 303 303 302 302 304 306 308 309 310 310 311 311 312 313 313 313 312 311 310 309 308 308 306 304 303 303 302 301 301 301 300 298 297 295 294 294 294 294 294 294 294 294 293 293 292 292 291 291
305 305 305 305 305 305 305 305 305 305 305 305 305 304 303 303 304 304 304 305 307 309 310 310 310 310 311 311 312 312 312 311 310 309 308 307 305 303 302 302 301 300 299 299 298 296 295 294 294 294 294 294 294 294 293 293 293 292 292 291 291 290 290

ECMWFFLT1_850_thetae_021.txt.gz
Theta_e
314 315 311 310 313 313 311 309 309 311 313 314 314 315 316 317 316 314 318 323 324 323 324 323 322 322 322 323 323 323 323 324 324 323 323 324 325 325 325 324 324 324 323 323 323 323 322 322 322 322 322 322 322 322 321 319 317 316 315 315 316 317 318
315 315 309 306 308 308 308 309 310 312 314 316 316 316 316 317 317 315 317 321 322 322 322 322 321 322 321 321 322 321 321 321 322 322 323 324 324 324 324 324 324 324 324 324 324 323 323 322 323 322 322 321 320 321 321 318 316 314 312 312 314 316 318
315 313 308 307 307 307 307 307 308 310 313 315 315 315 316 318 317 315 315 317 319 319 319 319 320 320 319 319 317 316 317 317 318 320 322 322 322 323 323 324 324 324 324 324 323 322 322 322 322 321 321 320 317 317 318 316 314 313 312 311 313 315 317
313 310 307 307 307 307 307 306 306 307 309 312 312 313 316 318 317 316 315 315 314 313 314 316 315 312 310 310 309 310 312 314 316 319 320 320 320 320 321 322 323 323 323 322 322 322 322 321 321 320 319 317 314 313 314 314 313 313 312 312 313 314 316
311 308 308 308 308 307 306 306 306 306 306 307 309 312 316 318 317 315 312 310 308 307 309 309 307 305 304 303 304 307 310 312 314 316 314 315 314 312 314 319 321 321 320 319 318 317 315 313 313 313 311 309 308 309 312 313 313 314 313 314 315 315 316
311 308 308 308 307 307 306 305 305 306 305 306 307 309 313 316 314 311 307 305 305 305 306 306 305 305 305 304 304 306 307 308 309 308 306 307 307 306 309 312 314 314 313 311 309 308 306 305 306 306 305 305 305 308 311 313 313 314 314 314 315 316 318
310 308 308 308 308 306 306 305 305 305 306 305 306 307 310 311 309 306 305 306 306 306 306 306 306 306 306 306 306 305 306 306 305 305 305 305 305 306 306 307 307 307 306 305 304 304 303 303 304 303 303 304 305 308 312 314 313 314 314 314 315 316 317
309 308 308 307 307 306 306 306 305 306 306 305 306 306 307 307 306 306 306 306 306 306 306 306 306 306 306 306 306 305 305 305 305 305 305 305 305 305 305 304 304 304 304 303 303 303 303 303 303 303 302 303 303 306 310 313 313 313 314 314 314 314 315
310 309 308 307 307 306 306 306 305 306 306 305 306 305 305 306 306 306 306 306 306 306 306 306 306 306 305 305 305 305 305 305 305 305 304 304 304 304 304 303 303 303 303 303 303 303 303 304 304 303 303 303 303 303 305 309 310 311 312 312 312 312 312
311 311 309 307 307 307 306 306 306 306 306 306 306 306 306 305 306 306 306 306 306 306 306 306 305 305 305 305 305 305 304 304 304 304 304 304 303 304 304 303 303 304 304 304 304 305 305 305 305 306 305 305 305 303 304 305 306 306 308 308 307 307 307
314 315 312 309 308 307 307 306 307 306 306 306 306 305 305 306 306 306 306 306 306 306 306 305 305 306 305 306 306 305 306 306 305 305 305 305 305 306 305 305 305 305 306 306 307 307 307 307 307 307 307 307 307 306 305 305 305 306 305 305 305 304 304
317 316 313 311 309 307 307 307 306 307 307 306 306 306 306 306 306 306 306 306 306 306 306 306 306 307 307 307 308 308 307 308 307 307 307 307 307 307 307 307 307 307 308 308 309 309 309 309 308 308 308 308 307 306 306 306 306 306 305 305 304 304 304
319 316 313 313 312 310 309 308 307 307 307 307 307 306 306 306 306 306 307 306 307 306 306 307 307 307 308 308 308 308 308 308 308 308 308 307 307 308 308 308 308 308 308 309 310 310 310 310 310 309 309 309 308 307 306 306 306 305 305 305 304 304 304
319 318 316 316 316 312 311 311 310 310 310 308 307 307 307 307 307 307 307 307 307 307 307 307 307 307 308 308 308 308 308 308 308 309 308 308 308 308 307 307 307 307 308 308 309 310 310 310 310 310 310 309 309 309 308 307 307 306 306 305 305 304 304
318 318 317 318 317 313 310 313 315 314 313 312 311 309 308 308 308 307 308 308 307 308 308 308 308 308 308 308 308 308 308 308 308 309 308 308 308 308 308 307 307 307 307 307 308 308 309 310 310 310 310 310 309 309 309 308 308 307 307 306 305 304 304
318 318 317 318 318 313 310 314 317 317 317 317 316 315 313 312 312 312 311 310 310 309 310 310 310 310 309 309 309 309 309 309 308 308 308 308 308 308 308 308 307 307 307 307 307 307 308 309 309 310 310 310 310 309 309 308 308 308 307 307 305 304 304
317 318 317 318 317 313 310 314 318 318 318 319 318 318 317 317 316 317 316 316 315 315 314 314 314 314 313 312 311 311 311 310 310 309 308 308 308 308 308 308 308 308 307 308 307 307 307 307 308 309 309 309 309 309 309 309 308 307 307 306 305 304 303
317 317 317 316 315 312 311 314 318 319 318 319 319 318 318 318 318 318 318 317 318 318 318 317 317 317 317 316 316 315 314 314 313 313 311 310 309 309 309 309 309 309 308 308 308 308 308 307 308 308 308 309 309 309 309 309 308 307 306 305 304 303 302
317 318 317 316 314 314 313 314 316 317 316 317 319 319 319 319 318 319 318 318 318 319 319 319 318 318 318 318 318 318 317 317 316 316 315 314 314 313 311 310 310 310 309 309 309 309 309 309 309 309 308 308 309 309 309 309 308 307 305 304 303 302 301
320 319 318 317 316 316 317 316 317 317 315 317 319 319 319 319 319 319 319 318 318 319 319 319 319 318 319 319 319 318 318 318 318 318 317 317 316 316 315 314 313 313 312 310 309 309 309 309 309 310 309 309 308 308 308 308 308 308 306 304 302 301 300
321 321 319 317 317 319 319 318 319 318 316 317 320 320 319 319 319 319 319 319 319 318 319 320 319 319 319 319 319 318 318 317 317 317 318 318 317 317 317 317 316 315 314 313 312 310 310 310 310 310 310 309 308 308 308 308 307 307 306 303 302 301 300
319 319 318 318 319 319 319 319 320 319 318 318 320 320 319 319 319 319 318 318 317 318 319 319 319 319 319 320 319 319 318 317 317 317 317 318 318 317 317 317 317 317 316 315 313 311 311 310 310 310 310 309 308 308 308 307 306 305 304 303 302 301 300
318 318 318 318 319 319 319 319 319 319 319 318 318 319 319 318 318 317 317 316 316 318 319 319 318 318 318 319 319 319 319 318 318 317 317 318 318 318 317 317 317 317 316 315 314 313 312 311 310 311 310 309 308 308 307 306 305 305 304 304 303 302 301
320 320 319 319 318 319 319 319 318 318 319 318 317 316 316 317 316 316 316 317 318 319 319 318 318 318 318 318 319 319 319 318 318 318 318 318 318 318 318 317 317 316 316 315 314 313 312 311 311 311 310 309 308 308 307 306 306 305 305 304 303 302 301
320 320 320 319 319 319 320 319 319 319 319 318 317 316 316 316 316 316 317 318 318 319 319 319 319 319 319 320 320 320 319 319 319 319 319 318 318 318 318 317 317 316 316 315 314 313 312 311 311 310 309 308 308 307 307 306 306 306 305 304 303 301 300
319 319 319 319 319 319 319 318 318 318 318 318 318 317 318 317 317 317 318 318 319 319 318 317 316 315 315 316 318 319 320 320 320 320 320 319 319 319 318 317 316 316 315 314 313 312 312 311 310 309 308 308 307 306 306 305 306 305 304 303 302 301 300
316 315 315 315 315 316 316 316 316 316 317 318 317 317 317 317 317 317 317 317 317 316 315 314 311 309 309 309 311 313 315 317 318 319 320 320 319 318 318 317 316 316 315 314 312 312 311 310 309 308 308 307 306 306 305 305 304 304 303 302 301 300 300
312 312 314 314 314 314 314 315 316 316 317 317 316 314 314 315 316 316 315 314 313 312 311 311 309 308 308 307 307 308 309 310 311 313 316 318 318 317 317 317 316 315 314 312 312 311 310 309 309 308 307 306 306 305 304 304 303 303 302 301 300 300 299
309 310 311 313 313 313 313 313 314 314 315 314 313 313 313 314 314 314 314 313 311 309 309 309 308 308 307 308 308 308 309 308 309 311 314 316 317 317 317 316 315 313 312 311 311 311 310 309 308 307 306 306 306 305 304 303 302 302 301 301 300 300 299
308 307 307 309 310 310 310 311 311 311 311 311 311 311 311 312 311 311 310 308 307 306 307 307 307 307 307 308 309 310 310 310 310 311 312 314 316 316 316 316 314 312 311 311 312 311 310 308 307 306 306 305 305 304 303 302 302 301 301 300 300 299 298
307 307 307 308 308 308 308 308 307 306 306 306 306 306 306 306 306 306 305 306 306 305 306 308 308 308 307 309 310 311 311 311 310 310 310 311 313 314 315 315 313 312 311 311 311 310 309 307 306 305 305 304 304 303 302 302 301 301 300 299 298 297 296
307 307 307 308 308 308 308 306 304 302 303 303 302 302 301 301 302 302 302 304 305 305 305 307 308 308 308 309 310 310 311 311 311 310 310 310 311 313 313 313 312 311 310 310 310 309 308 307 306 305 304 304 303 302 302 301 300 300 298 297 296 295 295
307 307 308 307 308 307 307 306 303 302 302 302 302 302 302 302 302 301 301 301 301 302 303 304 306 308 308 309 310 310 311 311 312 311 311 312 312 312 312 312 311 310 309 309 308 308 307 306 305 304 304 303 302 301 300 300 299 297 296 295 295 295 295
307 307 307 307 307 307 307 306 305 303 303 303 303 303 304 304 303 303 301 301 301 300 301 302 305 307 309 309 310 310 310 312 312 312 312 312 312 312 311 310 309 309 308 307 307 306 305 305 304 303 303 302 301 300 299 297 296 295 294 294 294 294 294
306 306 306 306 306 306 306 306 305 304 304 305 305 306 306 306 305 304 303 302 301 301 300 301 303 306 308 309 310 310 310 311 312 312 312 311 311 310 309 308 308 307 307 306 305 305 304 303 303 302 301 300 298 297 296 295 294 294 294 294 294 294 294
306 305 306 306 305 305 305 304 304 305 305 305 306 306 306 306 305 305 303 302 301 301 301 301 303 305 308 309 310 310 310 311 311 312 311 310 310 309 308 308 307 307 306 305 304 303 303 302 301 300 298 297 295 295 294 294 294 294 294 294 294 293 293
305 305 305 305 305 305 304 304 304 304 304 305 305 305 304 304 304 304 303 302 302 302 302 303 304 307 309 310 310 310 310 311 311 311 310 309 308 308 307 306 305 304 303 303 302 301 300 299 297 296 295 295 294 294 294 294 293 293 293 293 293 292 292

ECMWFFLT1_850_thetae_024.txt.gz
Theta_e
317 315 311 307 307 307 307 307 306 306 307 308 311 314 316 317 314 316 319 320 322 323 323 322 322 322 322 323 323 323 324 324 324 325 325 324 324 325 325 325 325 325 324 323 322 322 322 323 323 323 323 323 323 323 322 321 318 316 315 315 316 316 316
317 315 311 308 307 307 307 307 307 308 308 308 311 314 318 318 316 318 321 322 322 322 322 321 321 321 321 321 321 320 320 321 322 323 323 323 323 324 325 324 324 324 324 324 323 323 322 322 323 322 322 321 321 320 321 320 317 314 313 313 313 314 314
318 316 311 308 307 307 307 307 307 308 308 309 311 313 316 318 317 317 319 320 321 321 320 321 320 320 318 317 315 315 316 317 319 321 322 322 323 323 324 324 324 325 324 324 323 323 322 322 322 320 318 318 317 316 316 316 315 313 313 313 313 314 314
320 318 313 308 307 307 307 306 306 306 307 308 310 311 315 318 317 316 316 316 316 316 316 317 316 313 311 309 308 311 314 315 318 320 319 318 318 320 322 323 324 323 323 322 323 322 322 321 321 319 317 315 314 314 313 314 313 313 313 314 315 315 316
321 320 316 309 307 307 306 306 306 305 306 306 307 310 314 317 317 316 313 310 309 309 309 309 306 304 303 303 306 310 313 315 316 315 314 311 309 310 315 318 321 321 320 320 319 317 315 314 314 315 314 311 311 312 313 313 313 313 314 314 315 315 316
322 320 316 310 307 307 306 306 306 305 306 305 306 309 313 317 317 314 308 305 305 306 306 305 304 304 304 304 305 307 308 309 309 308 306 306 304 305 307 310 312 313 312 311 309 307 306 305 306 307 307 307 308 311 313 313 313 313 314 314 314 314 314
321 316 313 310 308 307 306 305 305 305 305 305 306 308 312 314 313 309 305 305 305 306 305 306 306 305 305 305 305 305 305 306 305 305 305 305 305 305 305 305 306 306 305 305 304 303 303 303 303 303 303 305 307 311 312 313 313 313 313 313 313 313 312
316 310 312 314 310 307 306 306 305 306 305 305 305 307 309 310 308 306 305 306 306 305 306 306 306 306 306 306 306 305 305 305 305 305 305 305 305 305 304 304 304 303 303 303 303 303 303 303 303 303 302 303 306 311 313 313 313 312 312 311 311 311 310
312 310 315 316 310 306 306 306 305 306 305 305 305 306 307 306 305 305 306 306 306 306 306 305 305 305 305 305 305 305 305 304 304 304 304 304 304 303 303 303 303 303 304 305 306 306 307 306 306 305 303 302 304 307 310 311 311 311 310 309 308 308 307
312 313 314 311 308 307 306 306 306 306 305 305 305 305 306 305 305 305 305 306 306 306 305 305 305 305 304 304 304 304 304 304 304 304 304 304 304 303 304 304 304 305 306 308 309 309 309 309 309 308 307 305 304 304 306 307 307 306 306 306 305 305 305
314 314 312 310 309 307 306 306 306 306 306 306 305 305 305 305 305 305 305 305 306 306 306 305 305 305 305 305 305 305 306 306 306 306 306 306 306 306 306 306 306 308 309 310 310 310 310 310 309 309 309 309 308 306 306 306 305 305 305 305 305 305 305
313 313 312 313 311 308 307 307 306 306 306 306 306 306 305 305 305 305 305 305 306 306 306 305 305 305 305 305 305 306 307 307 307 308 308 308 308 308 308 308 308 309 310 310 310 310 311 310 310 310 310 310 309 309 308 307 306 306 305 305 305 305 305
313 313 314 316 313 307 307 308 307 307 306 306 306 306 306 306 306 306 305 306 306 306 306 306 306 306 305 305 306 305 306 306 306 307 307 307 308 308 308 308 308 309 309 310 310 310 310 310 311 310 310 310 310 310 309 309 308 307 306 306 305 305 305
313 314 315 316 312 307 307 308 307 307 307 306 307 306 306 306 306 306 306 306 306 306 306 306 306 306 306 306 306 306 306 306 306 306 306 306 306 306 307 307 307 307 308 309 309 309 310 310 310 310 310 310 310 310 310 309 309 308 307 307 306 305 305
315 316 316 317 312 308 308 307 307 308 307 307 307 307 307 306 306 307 307 307 307 306 306 306 307 307 307 307 306 306 307 307 307 306 306 306 306 306 306 307 306 307 307 307 308 308 309 309 309 309 309 309 309 310 310 310 309 309 308 308 307 306 306
317 317 317 319 316 310 309 308 307 308 308 308 308 307 307 307 307 307 307 308 308 308 308 308 308 308 308 308 307 307 307 307 307 307 306 307 307 306 307 307 307 307 307 307 307 306 307 307 308 309 309 309 309 309 310 309 310 309 309 309 308 307 307
318 315 316 320 318 313 310 309 308 308 309 310 311 311 312 312 311 311 311 312 312 312 312 312 312 312 311 311 311 310 310 309 309 308 308 307 307 307 307 308 308 308 307 308 307 307 307 307 308 308 308 309 310 310 310 309 309 309 309 309 309 308 308
317 316 317 320 318 315 313 311 308 309 311 314 315 315 317 317 316 316 316 316 316 316 316 317 316 316 315 314 314 313 313 313 313 313 313 312 310 309 309 308 308 308 308 308 308 308 308 308 308 308 309 310 311 311 310 310 309 309 309 309 309 308 308
317 317 318 319 319 318 317 313 310 310 313 316 317 317 318 318 318 318 317 317 317 317 318 318 318 318 318 317 316 316 316 316 316 317 316 316 315 314 312 311 310 310 310 310 309 309 309 309 309 309 310 311 312 311 311 311 310 310 309 310 309 308 308
319 317 317 318 318 319 318 316 312 310 312 315 316 316 317 318 318 318 318 318 318 318 318 318 318 318 317 317 317 318 318 317 317 317 317 317 317 317 317 315 313 313 313 313 312 311 310 310 310 310 310 312 312 312 311 311 311 310 311 310 310 309 308
318 316 316 317 318 319 318 316 314 312 311 313 314 316 317 318 318 319 319 319 318 318 318 318 318 318 317 317 317 318 319 318 317 317 317 317 316 317 317 317 316 315 315 314 313 312 311 310 310 310 310 311 311 311 311 310 310 310 310 310 309 309 309
320 319 318 318 318 318 318 317 316 315 314 313 313 315 317 317 317 318 319 319 319 318 318 318 318 317 317 318 318 319 319 318 318 318 318 317 317 317 317 317 316 315 314 314 313 313 313 312 311 311 310 310 311 311 310 309 310 310 309 309 308 308 308
321 321 321 320 320 319 319 319 318 317 317 317 316 316 317 317 317 318 319 319 319 318 317 317 316 316 316 318 319 319 319 319 319 319 319 318 318 317 317 317 317 316 316 315 315 314 313 312 312 312 311 311 310 310 309 309 309 309 308 307 307 307 307
321 321 321 321 321 320 320 320 319 319 319 319 318 317 317 317 318 317 317 317 317 316 315 315 316 316 318 318 318 318 318 318 318 318 318 318 318 317 317 317 317 317 317 317 316 314 313 313 312 312 311 311 310 310 309 309 308 308 307 306 306 305 305
321 321 321 321 321 321 320 319 319 319 319 319 318 317 316 316 316 315 315 316 316 315 316 318 318 318 319 318 318 319 319 319 319 319 319 319 318 318 317 317 317 318 318 317 316 315 313 312 312 312 311 311 311 310 310 309 308 307 306 305 304 304 304
321 320 321 320 320 320 319 319 318 318 319 319 316 315 316 316 316 315 316 316 316 316 317 318 317 317 316 315 314 314 315 316 317 318 319 320 319 319 318 318 318 318 318 317 317 315 313 312 312 311 311 311 310 310 309 308 308 307 305 304 303 303 303
318 319 320 320 320 319 319 319 319 318 317 318 317 316 317 318 318 317 317 317 317 317 317 316 315 314 313 311 309 309 309 309 310 312 313 314 315 316 317 318 318 318 317 317 317 316 314 312 312 311 310 310 309 309 308 307 306 305 304 304 303 303 303
314 316 318 319 318 318 318 318 318 317 316 317 317 317 318 317 317 317 317 317 316 315 315 313 313 313 312 311 309 308 307 307 307 307 307 307 308 310 313 316 317 318 317 316 316 315 314 313 312 311 310 309 309 309 307 306 304 303 303 303 303 303 302
313 314 315 316 316 316 316 316 316 316 317 317 316 316 315 315 315 315 315 315 314 313 313 312 312 312 311 311 310 309 309 309 309 308 308 307 308 309 312 315 316 317 317 316 315 314 313 312 312 310 310 309 309 307 306 304 303 303 303 303 303 302 301
311 312 312 313 314 315 314 314 315 315 315 314 313 313 313 313 313 314 313 313 312 311 311 310 309 309 308 309 309 310 310 310 310 310 309 308 308 309 311 314 315 315 315 315 314 312 312 311 310 310 309 309 307 306 304 304 304 304 304 303 303 302 301
308 309 309 309 311 312 312 311 311 312 311 310 310 310 310 310 310 310 310 309 309 308 307 307 307 306 307 307 308 308 308 309 309 310 309 308 308 308 309 311 312 313 313 313 311 310 310 310 310 310 309 307 305 304 304 304 303 303 303 302 302 301 299
307 307 307 307 308 309 309 308 308 307 307 306 306 306 305 304 304 304 304 304 304 303 304 304 304 304 305 306 306 306 307 307 308 308 308 308 307 308 309 310 311 312 311 310 309 309 309 309 309 308 307 305 304 304 304 303 303 302 302 301 300 298 297
306 307 307 307 308 308 307 306 305 304 303 303 303 303 302 302 302 301 301 301 301 301 301 301 301 301 302 303 304 305 306 307 308 308 309 309 308 308 309 311 311 311 310 310 309 309 309 309 307 306 305 305 304 304 303 303 303 302 301 299 297 296 295
306 306 307 307 307 307 307 306 304 304 303 303 302 303 303 303 303 303 302 302 302 302 301 301 301 300 301 302 304 306 307 308 309 309 309 310 310 309 310 310 310 310 309 309 309 308 308 307 306 305 305 305 304 303 303 303 302 300 298 296 295 295 295
306 306 307 307 307 307 307 306 306 306 305 304 303 303 303 304 304 304 304 304 303 303 302 301 301 301 300 301 303 305 307 309 310 310 310 311 311 310 310 309 309 308 308 308 307 307 306 305 305 305 304 303 303 303 301 300 298 297 296 295 295 294 294
305 305 306 307 306 307 307 307 307 306 306 305 304 303 303 304 304 304 304 304 304 303 303 301 301 301 301 301 303 306 308 309 310 310 310 310 310 309 309 308 308 307 307 307 306 305 305 304 304 304 303 302 301 299 298 296 295 295 294 294 294 294 294
305 305 305 305 306 306 306 306 306 305 305 305 304 304 304 304 304 304 304 304 304 303 303 302 302 302 302 302 304 307 309 310 310 310 309 309 308 308 307 307 307 306 306 305 304 304 303 303 303 302 301 299 297 296 295 295 294 294 294 293 293 294 294

ECMWFFLT1_850_thetae_027.txt.gz
Theta_e
312 312 310 309 308 308 307 306 306 306 307 308 310 312 311 312 314 314 315 319 322 322 322 322 322 322 322 322 322 323 325 325 325 326 325 325 325 325 325 324 325 325 325 324 323 325 325 322 321 322 322 321 322 322 322 321 319 317 315 314 314 313 313
313 313 311 309 307 307 307 307 306 306 306 308 310 311 312 313 315 316 317 321 322 322 322 322 321 321 321 321 321 322 322 322 323 324 324 324 325 325 325 325 325 324 324 323 322 324 324 322 320 319 318 318 319 318 318 318 317 315 314 313 313 313 313
316 317 314 310 307 307 307 307 306 306 306 307 308 310 312 314 316 317 319 320 321 321 320 320 320 320 320 320 319 319 319 320 322 323 323 323 324 325 325 325 325 325 324 324 323 323 323 322 320 318 316 316 317 316 314 315 314 314 314 313 313 314 315
316 318 315 310 308 307 307 307 306 305 305 306 307 309 313 314 314 315 316 317 317 317 317 318 318 316 315 314 315 316 318 320 322 322 323 323 324 324 325 325 325 324 324 324 324 323 322 321 319 316 315 315 316 314 313 314 313 313 314 314 314 315 316
315 317 314 309 308 307 306 306 305 305 305 305 308 311 313 313 313 311 310 310 311 312 311 310 308 307 307 309 312 316 319 321 321 320 319 319 320 322 323 324 324 323 323 323 322 321 321 321 319 316 314 314 314 314 313 313 313 313 314 314 314 314 315
318 318 313 308 308 307 307 307 305 305 305 305 308 312 312 312 311 308 306 306 307 307 306 304 303 303 306 309 313 316 317 317 315 312 310 309 311 314 317 318 318 317 317 315 313 312 312 314 317 317 314 314 314 313 313 313 313 313 313 314 313 313 312
320 317 310 309 312 309 308 309 306 305 305 305 307 311 311 310 308 305 305 305 305 305 305 305 305 305 306 308 309 310 309 308 307 306 305 305 305 307 309 309 308 308 307 306 304 304 304 305 309 310 310 310 312 313 312 312 313 312 312 312 312 310 309
319 314 310 312 315 311 307 308 306 305 305 305 306 309 310 308 306 305 305 306 305 306 305 305 305 306 306 305 305 305 305 305 305 305 304 305 304 304 304 304 304 303 303 303 304 304 304 303 303 304 305 308 312 313 313 312 312 312 311 310 309 308 307
319 313 310 314 316 312 308 306 305 305 305 305 306 308 308 307 306 305 305 305 306 305 305 305 305 305 305 304 304 305 304 304 304 304 304 304 304 303 303 304 304 306 306 307 307 307 306 305 304 303 304 308 311 313 313 313 312 311 309 308 307 306 305
319 314 311 314 315 312 307 306 306 305 305 305 305 307 306 305 305 305 305 305 306 305 305 304 304 304 304 304 304 304 303 303 303 303 303 303 303 303 304 305 307 309 310 309 310 310 309 308 307 306 306 306 309 311 312 312 310 308 306 305 305 305 305
319 316 313 314 315 311 307 306 306 305 305 305 305 305 305 305 305 305 305 305 305 305 305 304 304 304 304 304 303 303 303 303 303 304 304 304 304 305 306 308 309 311 311 310 310 310 310 310 309 309 309 308 308 308 309 310 308 306 306 306 306 306 306
319 317 314 313 313 310 307 307 307 306 306 306 305 305 305 305 305 305 305 306 306 305 305 305 305 304 304 304 304 304 304 304 305 305 306 306 306 306 307 308 310 310 311 311 311 311 311 310 310 310 310 310 309 309 308 309 308 307 306 307 306 306 306
318 317 315 313 312 310 307 308 308 307 306 306 306 306 305 305 305 305 306 306 306 306 306 305 305 305 305 305 305 305 305 305 306 306 307 307 307 307 307 308 309 310 310 310 310 310 310 310 310 310 310 310 310 310 309 310 310 308 308 307 307 306 306
319 317 315 312 313 311 308 308 309 308 307 307 306 306 306 306 306 305 306 305 306 306 306 306 306 306 306 306 306 306 306 306 306 306 306 306 306 307 307 307 307 308 309 309 310 310 309 309 310 309 310 309 309 310 310 310 310 309 309 308 308 307 307
320 318 316 313 313 313 309 307 309 308 307 307 307 307 306 306 306 306 306 306 306 306 306 306 306 306 306 306 306 306 306 306 306 306 306 306 306 306 307 307 307 307 307 307 308 308 309 309 309 309 309 309 310 311 311 311 310 309 309 309 308 308 308
321 320 318 314 314 315 310 307 308 308 307 307 307 307 307 307 307 307 306 307 307 307 307 307 307 307 307 307 307 307 307 307 307 307 307 307 307 307 307 307 307 307 307 307 307 307 307 307 308 308 308 309 312 312 312 311 311 310 310 309 309 309 308
322 321 319 315 315 316 311 307 308 307 307 307 307 307 307 307 307 307 307 308 308 309 309 309 310 310 310 310 309 309 309 308 308 308 308 309 308 308 308 308 308 308 308 308 307 307 307 307 307 307 308 310 313 313 312 312 312 312 311 310 310 310 310
322 322 319 316 316 316 313 310 309 307 307 307 307 308 308 307 308 308 309 311 312 313 313 313 314 314 314 314 314 313 313 312 311 311 312 312 312 311 310 309 309 309 309 309 308 308 308 307 307 308 308 310 312 312 312 313 313 313 312 311 311 311 310
323 322 320 318 317 317 317 315 312 310 308 308 309 310 310 310 312 311 312 314 316 316 316 316 317 317 317 317 317 316 316 316 315 315 315 315 314 314 313 312 311 310 310 309 309 309 309 309 308 309 309 310 311 312 311 312 312 312 312 311 311 310 310
323 322 320 318 317 318 319 318 316 314 311 309 311 314 314 314 316 316 316 316 317 317 317 317 318 318 318 318 318 317 317 317 317 317 317 316 316 316 316 315 315 313 311 311 310 311 310 309 309 309 309 310 310 311 311 311 311 311 312 312 311 310 309
324 322 320 318 317 318 319 319 318 318 314 310 312 316 317 317 318 318 318 318 318 318 317 317 318 318 318 318 318 317 317 318 318 318 318 317 317 317 317 317 317 316 315 313 312 312 311 311 310 310 310 310 310 310 311 312 312 311 311 311 310 309 308
324 322 321 319 318 318 319 319 319 319 317 313 312 315 317 318 318 319 318 318 318 318 318 318 318 318 317 317 317 317 318 318 319 319 319 318 318 318 317 317 317 317 317 316 315 314 313 313 312 311 311 311 311 311 311 312 312 311 311 310 309 308 308
323 322 321 320 318 317 317 319 319 319 319 317 315 315 315 316 316 318 318 318 318 318 318 319 318 317 316 317 317 317 317 317 318 319 318 318 319 318 318 318 318 318 318 317 316 316 315 314 314 312 311 311 311 312 312 311 312 311 310 310 309 308 307
322 321 321 321 320 319 318 319 319 319 319 319 318 318 317 317 317 318 318 318 318 318 318 318 318 316 315 316 316 315 316 316 317 317 317 317 318 318 318 318 318 318 318 317 317 317 316 316 314 312 311 311 312 312 312 312 311 311 310 310 309 308 307
321 321 321 321 321 321 320 320 319 319 319 318 318 318 318 319 319 319 318 318 317 316 315 316 316 315 315 315 315 316 316 317 317 317 317 318 318 318 318 318 318 318 318 317 318 318 317 315 314 312 311 311 312 312 312 311 310 309 309 309 308 307 306
321 321 321 321 321 321 321 321 320 319 319 318 318 318 319 319 318 318 317 316 316 314 314 315 315 314 315 316 316 317 317 316 315 314 314 314 315 316 318 319 318 318 318 317 317 318 317 315 314 313 312 311 312 311 311 309 309 309 309 308 306 305 304
320 320 320 320 320 320 320 320 320 319 318 318 318 317 317 316 316 315 315 316 315 314 315 316 315 315 316 316 316 315 313 311 309 308 308 307 307 310 313 315 317 318 317 317 317 318 317 315 314 313 312 311 311 310 309 308 309 309 307 306 305 304 304
314 316 317 318 319 320 320 320 320 319 318 317 317 316 316 316 316 316 316 316 317 317 317 317 316 316 316 315 313 311 309 308 307 306 305 305 305 305 306 309 311 314 316 316 317 317 316 315 313 312 312 311 310 309 308 308 308 307 306 305 304 303 303
309 311 314 316 317 318 319 319 319 319 318 317 316 316 317 317 317 317 317 317 317 317 316 316 315 314 314 312 311 309 308 307 306 306 306 307 307 307 307 307 309 312 315 316 317 317 316 315 313 311 311 310 309 308 308 308 308 307 305 304 304 303 303
307 308 311 313 314 315 316 316 316 316 316 316 316 317 317 316 316 316 316 316 315 315 314 313 313 312 312 311 310 309 308 308 308 309 309 309 308 308 308 308 310 313 315 316 317 316 314 313 312 311 310 309 308 308 308 308 307 306 305 304 304 303 303
307 307 308 309 310 311 313 314 314 315 316 316 316 316 315 314 314 314 314 314 313 313 312 311 310 310 309 310 310 309 308 308 309 309 309 310 309 308 308 308 309 311 313 313 314 313 312 311 310 309 309 308 308 308 308 307 305 304 304 303 303 303 303
306 306 307 307 307 308 311 312 312 313 313 313 313 313 313 312 312 312 312 312 311 310 309 308 308 308 308 308 309 309 309 308 309 309 309 309 309 307 306 306 307 309 309 309 309 310 310 309 309 308 308 308 307 307 306 305 304 304 303 303 302 302 301
307 307 306 306 307 307 308 309 309 309 309 309 309 309 309 308 308 308 307 306 306 305 304 304 304 304 304 305 305 307 308 308 308 308 308 308 307 306 305 305 306 306 307 307 308 309 309 308 307 307 307 307 306 305 304 304 303 302 302 301 300 298 297
307 307 307 306 307 307 307 307 307 306 306 305 305 305 304 304 303 303 303 303 302 302 302 302 301 301 301 301 302 303 305 306 307 307 307 307 307 307 306 306 306 306 306 307 308 308 308 307 307 306 306 305 304 304 303 303 302 301 300 298 297 296 295
307 306 306 306 306 307 307 306 306 305 304 304 303 302 302 302 302 302 302 302 303 303 303 302 302 302 302 301 301 301 302 303 305 306 307 308 308 308 308 308 307 307 307 307 307 307 307 307 306 306 305 304 304 303 303 302 300 299 297 296 295 295 294
306 306 305 305 306 306 306 306 306 305 304 304 303 303 302 302 302 302 302 302 302 303 303 303 302 302 302 302 301 301 301 302 305 307 308 309 309 309 308 308 307 307 307 306 306 306 306 306 306 305 304 304 303 302 301 299 297 296 295 295 294 294 294
304 305 304 304 305 305 306 306 306 305 305 305 305 304 303 303 303 303 302 303 303 303 303 303 303 302 302 301 301 301 302 304 306 308 309 309 309 308 307 307 306 306 305 305 305 306 306 305 305 304 303 302 300 298 297 296 295 294 294 294 294 294 294

ECMWFFLT1_850_thetae_030.txt.gz
Theta_e
316 310 308 307 308 307 306 308 312 312 312 316 316 316 317 315 316 319 319 319 319 317 318 318 320 323 324 324 324 325 327 328 328 329 328 326 327 327 325 326 326 324 325 324 323 325 326 325 323 322 321 322 323 323 323 322 321 318 316 315 315 314 312
311 306 308 308 306 307 306 307 313 314 311 312 313 314 316 316 316 318 319 319 319 319 321 321 319 320 321 320 322 323 324 326 326 327 327 326 328 327 325 325 325 325 325 325 325 326 326 324 323 321 320 320 321 321 320 319 317 316 314 314 315 314 314
310 308 308 307 306 307 306 305 308 310 311 310 309 311 315 316 317 319 319 319 318 318 321 321 319 320 320 321 323 323 323 324 323 325 326 327 328 327 327 327 324 324 326 326 326 326 325 324 323 321 320 320 319 318 317 316 315 315 314 314 314 314 314
311 309 307 307 307 305 306 306 305 307 310 310 308 312 315 315 317 318 318 318 318 318 320 320 320 321 321 322 323 323 323 322 321 323 324 325 326 326 326 327 324 324 326 325 325 325 325 325 323 321 321 320 319 317 315 315 314 314 313 313 313 313 313
313 309 308 307 307 306 306 306 306 306 308 311 312 313 314 314 315 315 316 317 316 316 316 315 315 317 317 319 320 320 321 321 321 322 323 324 326 327 327 326 325 325 325 325 325 325 325 324 323 322 320 319 318 317 315 314 313 312 312 311 311 311 312
316 311 308 307 308 309 309 307 307 307 310 316 317 314 311 312 310 309 311 312 310 308 307 306 305 307 312 315 315 317 320 321 321 321 322 324 325 325 324 324 323 323 323 322 323 323 324 322 321 320 318 318 317 316 315 314 313 312 311 311 310 310 310
319 313 308 309 311 311 310 308 309 310 311 315 315 311 308 307 306 306 307 306 305 304 304 303 303 305 313 317 315 316 318 317 316 314 314 318 321 322 322 320 320 319 318 317 317 318 319 319 319 318 317 317 316 315 315 314 314 313 311 309 308 308 309
320 314 310 313 312 310 309 307 308 309 310 310 309 306 306 305 305 306 305 305 305 306 305 305 305 305 311 315 313 311 311 309 307 307 307 310 313 314 314 313 312 310 309 309 310 311 313 316 316 316 316 315 315 314 314 313 313 313 312 309 307 306 306
320 313 311 314 312 309 309 307 306 306 307 307 306 305 305 306 306 306 306 306 306 306 306 305 306 305 306 308 307 305 305 305 305 305 305 305 306 306 305 305 306 305 305 306 307 307 309 312 314 314 314 314 315 315 314 314 313 312 310 309 307 305 305
321 315 312 314 312 311 310 306 305 305 305 306 305 305 306 306 306 306 306 306 305 305 305 305 306 305 305 305 305 305 305 304 305 304 304 304 303 304 304 305 306 307 307 308 308 306 306 309 312 313 314 314 315 315 315 316 315 313 309 307 306 305 305
321 316 312 313 313 312 309 306 305 305 305 306 305 305 306 305 306 306 305 306 305 305 305 305 305 304 304 304 304 304 304 303 304 303 303 303 304 305 306 308 309 310 310 310 310 310 308 310 311 312 313 314 314 315 315 315 314 313 311 307 305 305 305
320 318 313 313 313 311 308 306 306 305 305 306 305 306 306 306 306 306 306 306 305 305 304 304 304 304 303 303 303 303 304 303 304 303 304 304 305 307 309 310 310 310 311 311 310 311 310 311 312 313 313 313 313 314 315 315 313 312 310 308 307 306 306
320 319 315 313 313 311 307 306 306 306 306 305 305 306 306 305 306 306 306 306 305 305 305 304 304 304 304 304 304 305 305 305 305 305 306 306 307 308 309 310 310 310 311 311 311 310 311 311 312 312 312 312 312 313 314 315 314 311 309 309 308 308 308
320 320 317 313 312 311 308 306 307 306 306 306 305 305 306 306 306 305 306 306 306 305 305 305 305 305 305 305 306 306 306 307 308 306 306 307 307 308 309 309 309 310 310 311 311 310 310 310 310 311 312 311 312 313 314 314 313 312 310 310 310 309 310
320 320 318 314 312 312 310 307 307 307 306 306 306 306 306 306 306 306 306 306 306 306 306 306 306 306 306 306 306 306 307 309 309 307 307 307 307 307 308 307 308 308 309 309 310 311 311 311 311 311 311 311 312 313 313 313 313 313 311 311 311 310 311
321 321 320 316 313 313 312 309 307 307 306 306 307 306 306 306 306 306 306 306 306 306 306 307 306 307 307 307 307 307 307 308 308 307 308 309 308 308 307 307 308 307 307 307 308 309 309 310 311 310 309 311 312 312 312 313 313 313 311 312 311 309 310
322 322 321 319 316 314 314 311 308 307 307 307 307 307 306 306 307 306 306 307 307 307 307 307 307 308 308 308 309 308 308 308 308 309 310 311 310 310 309 308 308 308 308 308 308 308 308 308 310 310 309 310 312 313 313 313 312 312 312 312 311 309 310
322 322 321 321 319 316 316 314 309 307 308 307 307 307 307 307 307 307 307 307 308 307 308 308 309 309 310 310 311 311 311 310 309 310 311 311 311 311 311 311 310 309 309 309 309 309 309 308 309 310 309 309 310 312 313 312 311 311 312 312 312 312 311
323 322 321 321 320 318 316 316 312 308 307 308 308 307 308 307 307 309 311 312 311 311 310 311 312 313 313 314 314 314 314 314 313 313 313 313 313 314 313 313 313 311 311 311 311 310 310 309 309 309 309 308 308 310 311 311 311 311 312 311 311 311 311
324 323 323 323 322 319 317 317 316 312 309 309 309 309 309 310 310 312 315 315 314 313 313 314 315 316 317 317 317 317 317 317 317 316 316 316 316 316 316 316 315 315 314 313 312 311 311 311 310 309 309 308 308 309 310 311 311 311 311 311 311 311 311
325 324 324 324 323 321 319 318 318 316 313 311 310 310 312 314 314 315 316 316 316 316 316 316 317 317 318 318 318 318 318 317 318 318 318 318 318 317 317 317 317 317 316 316 315 314 314 313 312 311 312 311 309 309 310 310 311 311 311 311 312 311 311
325 325 324 324 323 321 320 319 318 318 317 315 314 313 312 314 317 318 318 318 318 317 317 318 318 317 318 319 319 318 318 317 317 318 319 319 319 319 318 318 317 317 317 317 317 317 316 315 314 313 314 313 311 310 310 310 311 311 312 312 312 311 311
325 324 324 323 321 319 320 320 319 319 319 318 318 317 314 313 315 318 318 319 319 318 318 318 318 318 318 318 319 318 317 316 317 317 318 318 319 319 319 319 318 318 318 318 318 318 318 317 316 315 314 313 313 312 311 311 311 311 312 312 311 311 311
324 324 324 324 322 320 319 320 319 320 320 320 320 320 317 315 315 317 317 317 318 318 318 318 318 318 318 318 319 318 316 316 316 316 317 317 317 319 320 320 319 319 318 318 318 318 318 317 317 316 315 314 313 313 313 312 311 311 311 311 310 310 310
323 323 323 323 323 322 321 319 319 319 320 320 320 320 319 318 318 318 318 318 317 318 318 318 318 318 318 318 318 318 317 316 315 315 316 316 318 320 321 321 320 319 318 319 319 318 318 318 317 317 316 315 314 314 313 313 312 311 310 310 310 309 309
322 322 323 322 322 322 321 321 320 319 320 320 320 320 319 319 319 319 319 319 319 319 318 318 318 317 317 317 317 317 316 315 316 316 317 318 319 319 319 319 319 319 318 318 318 318 317 317 317 317 315 315 314 314 313 313 312 311 310 310 309 308 308
318 320 321 321 322 322 322 321 322 321 321 320 320 319 319 319 318 318 318 319 320 319 319 318 318 317 316 316 316 315 315 315 316 317 316 315 315 313 313 314 315 316 316 315 316 318 318 317 317 316 314 314 314 313 313 312 311 310 309 308 308 307 307
312 313 315 316 318 320 320 321 321 320 320 320 319 318 317 317 317 317 317 317 317 317 317 317 316 316 315 315 314 314 314 315 316 316 314 312 309 307 306 307 308 311 314 313 312 314 317 317 316 315 314 313 313 313 312 311 310 309 308 308 308 307 307
309 309 310 311 313 316 318 319 319 319 319 319 318 317 316 316 317 317 316 316 315 316 316 316 315 315 315 315 314 314 314 315 315 314 311 309 308 306 305 305 307 311 312 311 309 311 314 316 316 316 314 313 312 312 311 310 309 308 308 308 308 307 306
308 308 308 309 311 312 314 316 317 317 317 318 317 316 316 316 317 317 317 316 316 317 317 316 316 316 316 315 314 313 313 314 313 312 309 308 307 306 305 306 308 309 309 307 308 310 313 315 315 315 313 312 311 310 309 309 308 308 308 308 307 305 304
307 307 307 308 309 310 310 312 313 314 315 316 316 316 316 317 317 318 318 317 317 317 316 316 316 316 315 314 313 312 312 314 313 311 309 309 307 306 305 305 305 305 305 305 307 309 313 314 314 313 312 311 309 309 308 308 307 307 307 306 305 304 304
307 307 307 307 308 308 308 310 311 312 312 315 316 316 316 316 316 317 317 316 316 315 314 314 314 313 313 312 311 311 312 314 313 311 310 310 308 306 305 304 303 303 304 304 306 309 312 313 311 310 310 309 308 307 307 307 306 306 305 304 304 303 302
307 307 307 307 307 307 307 308 309 310 311 314 315 315 314 314 315 315 314 314 314 314 313 313 312 311 311 311 310 310 312 313 313 312 311 310 309 307 306 304 304 304 304 304 305 306 308 308 308 309 309 307 306 306 306 306 305 304 303 303 302 301 299
305 306 307 307 307 307 307 307 307 307 310 313 313 312 312 313 313 313 313 312 313 313 312 310 309 308 308 309 309 309 311 313 313 312 311 310 309 308 307 306 305 305 305 304 304 304 306 307 308 308 307 306 306 306 306 305 305 304 303 302 300 298 297
302 304 305 306 307 307 307 307 306 307 309 310 309 310 311 311 311 311 311 310 309 309 307 305 304 303 303 304 304 304 307 310 311 310 311 311 310 309 308 307 307 306 305 305 305 306 306 307 307 307 307 307 306 306 305 304 303 302 300 298 297 296 296
300 301 303 305 306 306 307 307 307 307 307 307 307 307 308 308 307 307 306 305 304 303 302 302 302 302 302 302 302 301 302 304 306 308 310 310 309 309 308 308 307 306 306 306 306 306 306 306 306 306 306 306 305 305 303 301 300 298 296 295 295 295 296
298 299 300 302 304 305 306 307 307 307 307 307 307 306 305 305 305 304 303 302 302 302 302 303 303 303 302 302 302 301 301 303 306 309 310 310 309 309 309 308 307 306 306 305 305 305 305 305 305 305 305 305 303 302 300 298 297 296 295 295 296 296 296

ECMWFFLT1_850_thetae_033.txt.gz
Theta_e
327 323 323 322 320 315 311 314 315 316 321 322 323 323 322 317 318 321 320 323 325 323 322 324 325 327 327 326 325 325 326 325 326 327 328 330 329 329 329 329 328 325 325 324 325 327 326 325 326 325 325 324 324 324 323 322 320 319 319 319 319 318 318
324 320 321 317 313 310 312 318 322 321 318 318 319 321 323 321 321 324 324 324 325 325 325 325 325 323 322 323 323 324 325 325 325 326 327 328 327 328 328 328 328 326 326 325 325 326 325 325 325 324 324 323 322 322 321 320 319 318 318 317 317 317 317
322 322 321 315 311 309 311 316 321 320 316 313 313 317 322 324 323 324 324 324 324 325 324 324 324 322 319 319 320 322 323 322 323 324 326 326 326 327 328 328 328 327 327 326 325 326 324 324 324 323 324 323 322 321 320 319 318 317 316 315 316 316 317
321 322 319 313 312 313 313 315 319 322 321 316 310 313 320 323 324 324 324 324 323 324 324 324 325 323 319 318 320 322 322 321 322 323 325 325 324 326 327 327 327 327 326 325 325 325 324 324 324 323 323 322 321 320 319 317 316 315 314 314 314 314 315
315 316 315 314 317 318 318 319 320 321 322 319 316 316 319 322 323 323 323 324 323 322 322 323 324 322 322 321 321 322 323 321 323 323 324 324 325 326 327 326 325 324 324 324 325 324 323 323 324 322 322 321 320 319 317 315 313 313 313 312 312 313 313
311 314 315 316 320 321 321 320 320 320 322 322 323 322 321 321 322 323 323 323 320 318 318 319 321 321 322 323 322 323 323 322 323 324 323 324 325 326 325 324 324 323 322 323 324 324 323 323 322 321 320 319 318 317 315 314 313 312 311 311 310 311 311
313 315 317 319 321 321 321 320 320 322 323 324 325 324 321 319 318 318 318 316 312 310 310 312 317 321 322 322 323 323 322 322 323 323 322 323 324 324 323 322 321 320 320 320 321 321 321 321 321 319 318 318 317 316 315 314 314 312 310 309 308 309 309
319 318 320 321 321 320 319 320 321 322 323 324 324 320 315 311 309 308 308 307 306 306 308 312 316 319 320 321 320 319 318 318 318 317 317 318 320 321 319 319 317 317 316 316 316 317 318 319 319 318 317 316 316 316 315 314 314 313 311 309 307 307 308
323 322 323 321 319 317 318 319 320 322 323 324 321 314 308 306 305 306 306 305 307 308 310 315 317 317 317 317 314 312 312 312 311 312 310 311 313 313 314 315 315 314 314 314 315 315 316 317 317 316 316 316 315 315 315 315 314 312 311 310 308 307 307
325 324 323 319 315 313 314 316 318 320 322 321 316 309 306 307 307 307 307 306 307 307 309 313 314 313 313 313 309 308 309 308 308 308 307 307 307 308 311 315 316 315 315 314 314 314 315 315 315 316 316 316 316 316 315 316 315 313 311 309 308 307 307
326 324 320 314 312 312 312 313 315 318 319 316 311 307 307 307 306 307 306 306 306 305 307 310 309 310 311 309 306 306 306 306 306 306 305 305 306 307 312 315 315 314 313 312 311 312 314 315 315 316 316 316 317 317 316 316 317 315 311 309 308 307 307
324 321 316 311 311 313 312 312 315 316 315 313 310 307 308 308 308 307 307 306 306 305 306 306 307 308 308 307 307 307 305 306 306 305 305 305 306 308 311 313 312 311 311 311 312 313 315 316 315 315 316 317 317 317 316 316 316 315 312 310 309 308 308
323 318 314 313 313 314 312 311 314 314 312 314 311 309 311 312 311 311 309 309 307 305 305 306 306 306 306 308 310 308 306 307 307 307 307 308 309 311 312 311 311 312 313 314 313 314 315 315 315 316 316 316 316 317 317 317 316 313 312 311 309 308 310
322 318 317 316 314 313 312 311 312 312 313 314 312 311 314 314 314 313 312 311 309 307 305 305 306 307 309 311 311 308 309 311 311 310 310 312 313 314 314 312 310 311 314 315 314 314 314 314 314 315 315 316 317 317 317 317 315 313 312 312 310 309 311
321 319 320 318 314 314 314 313 309 308 312 314 312 314 315 314 315 315 314 313 312 310 308 307 309 311 311 309 308 309 312 314 312 310 311 314 314 313 314 313 311 311 313 314 314 314 314 313 314 313 314 315 316 316 316 316 316 315 314 313 311 310 311
322 321 321 319 317 318 318 314 310 307 311 314 314 316 315 313 314 315 315 315 313 313 312 310 311 311 309 307 308 311 314 314 311 310 312 314 313 311 312 312 310 309 309 310 313 314 313 313 314 313 313 314 315 315 316 316 316 316 315 313 313 311 311
325 325 323 318 318 321 320 317 313 311 313 315 316 317 315 313 315 314 315 316 315 315 314 311 312 312 309 309 309 309 311 312 310 311 313 314 313 313 312 311 310 309 309 310 312 313 313 313 313 313 312 313 314 314 314 315 315 316 315 314 314 313 312
327 326 324 320 319 322 321 319 317 316 316 316 316 317 315 314 315 315 315 315 315 316 315 313 314 313 311 311 311 311 311 311 311 313 315 314 314 314 313 313 312 310 310 311 311 313 313 313 313 313 312 312 313 313 314 314 314 315 315 315 315 314 313
327 326 325 323 323 323 322 322 319 317 318 317 316 317 316 315 315 315 315 315 315 316 315 314 315 314 312 311 312 312 313 313 312 314 315 314 314 315 315 316 315 312 312 313 313 314 314 312 312 313 312 312 312 312 313 313 314 315 315 315 315 314 314
327 327 326 325 325 324 323 323 322 318 318 318 318 317 317 316 315 315 315 315 315 316 316 315 316 316 315 313 313 313 315 315 315 317 317 317 316 316 316 317 317 316 315 315 316 315 314 312 312 312 313 312 311 311 312 313 314 314 314 314 314 314 313
327 327 326 325 325 325 323 323 323 321 319 319 319 318 317 317 317 316 316 316 316 316 316 316 317 317 317 317 317 316 317 317 318 319 318 318 319 319 319 319 319 318 317 317 317 317 316 315 314 314 314 313 310 310 312 313 313 314 314 314 314 314 313
326 326 326 325 325 325 324 323 323 323 321 320 319 319 318 318 318 317 318 318 318 317 318 318 318 319 319 320 320 320 319 319 320 320 320 320 320 319 319 320 319 319 319 318 317 317 317 317 316 315 315 314 312 312 313 313 313 314 315 314 314 314 313
326 326 325 325 325 325 325 324 323 323 323 322 320 319 319 319 319 319 319 319 320 320 320 320 320 319 319 321 322 322 321 320 320 320 320 321 321 320 320 320 320 319 319 318 317 317 317 317 317 317 316 315 314 314 313 313 314 315 314 314 314 313 313
325 326 325 325 325 324 324 324 323 323 324 323 322 321 320 320 320 319 320 320 321 321 321 320 319 318 318 320 321 321 321 320 320 320 319 320 321 320 319 320 320 320 319 319 318 318 318 318 318 318 317 316 315 314 314 314 314 314 315 314 314 313 312
323 324 324 325 325 324 324 324 324 323 322 323 323 322 321 320 321 320 320 321 322 323 321 319 318 318 318 318 319 319 319 319 320 320 319 318 318 318 319 319 319 318 318 318 319 318 318 318 318 318 317 317 316 316 315 314 314 314 314 313 313 313 312
323 323 323 324 324 324 323 324 324 323 322 322 322 321 321 321 321 321 320 320 322 323 322 320 318 319 319 318 318 318 318 319 320 320 320 319 317 318 319 317 316 316 315 316 318 319 318 319 319 318 317 317 317 317 316 315 315 314 313 313 312 312 311
321 321 321 322 322 322 323 324 323 322 322 322 320 321 321 321 321 321 321 320 320 321 321 320 318 318 318 318 318 318 318 319 320 320 320 319 318 318 318 316 315 315 314 315 317 319 317 316 317 318 317 317 317 317 316 315 314 314 313 312 311 310 310
315 317 319 320 320 321 322 323 323 322 322 321 321 321 320 320 320 320 321 321 320 320 321 320 319 318 318 318 318 319 318 317 318 318 318 316 316 316 316 315 315 315 315 315 316 317 316 314 314 316 317 316 316 316 315 314 314 314 313 312 311 310 309
313 313 314 316 318 319 320 321 322 322 321 320 321 320 320 319 318 318 319 320 320 320 320 320 320 319 319 318 318 318 317 316 316 316 316 316 316 316 315 315 315 315 316 315 314 313 313 310 311 314 316 316 315 315 315 314 314 313 311 310 310 309 309
312 312 313 312 314 316 318 319 321 321 320 319 319 318 318 318 318 318 318 318 319 319 319 319 319 319 318 317 316 315 316 316 315 316 316 316 316 315 314 312 313 315 315 312 310 309 309 309 311 313 315 315 315 314 314 314 313 311 310 309 309 309 308
311 312 312 312 313 314 315 316 318 319 320 319 318 317 317 317 318 318 319 319 319 319 319 319 318 317 316 316 315 315 316 316 315 315 316 315 315 313 309 307 309 313 314 308 305 307 309 311 314 313 313 313 313 313 313 312 311 310 309 309 308 308 307
310 311 311 312 312 312 313 313 314 316 317 318 319 319 319 319 319 319 319 319 319 319 318 317 317 316 317 316 315 316 316 315 314 315 315 315 315 311 306 304 306 308 307 305 304 305 307 311 313 312 312 312 311 311 310 310 310 309 308 308 307 307 306
308 309 310 311 311 312 312 312 312 314 315 316 317 318 320 320 319 318 318 317 318 318 317 316 316 316 316 316 315 314 314 314 314 315 314 315 314 310 304 304 305 304 303 303 303 303 306 311 312 311 310 311 310 309 309 308 308 307 306 306 306 306 305
306 306 307 308 309 310 311 311 311 312 313 314 315 316 317 319 318 316 316 316 317 317 315 314 314 314 314 314 314 312 311 312 314 315 314 314 314 312 307 304 304 304 303 303 303 303 305 309 311 310 309 309 309 309 308 307 307 306 306 305 305 304 302
302 302 303 304 306 308 310 310 311 311 312 312 313 313 314 315 315 315 314 315 315 315 313 312 312 313 312 312 311 311 310 312 314 314 314 313 313 312 310 306 305 305 304 304 304 303 304 306 308 308 308 308 308 308 307 306 305 305 304 303 302 301 301
299 301 302 303 304 306 307 309 310 311 312 312 312 312 313 313 313 313 313 313 314 313 313 312 312 312 311 310 308 307 308 310 312 314 313 312 312 312 310 306 306 306 305 304 304 304 304 305 306 306 307 307 307 307 306 305 304 303 302 301 300 300 300
300 301 302 303 304 305 306 308 309 310 311 312 311 312 313 313 312 312 311 311 311 311 311 311 312 311 308 305 304 303 303 305 308 311 311 312 312 311 309 307 307 307 306 305 305 304 304 304 305 305 306 306 306 306 305 304 302 301 301 300 300 300 300

ECMWFFLT1_850_thetae_036.txt.gz
Theta_e
327 327 325 326 327 322 317 314 314 319 323 324 324 324 321 315 315 317 321 326 323 321 323 325 328 329 328 328 326 325 326 326 327 327 327 328 327 325 326 328 326 325 326 326 327 326 326 326 325 324 323 322 322 321 321 321 320 320 320 319 318 316 315
328 324 323 323 319 312 311 316 322 323 323 323 324 326 325 320 320 321 321 324 326 325 324 323 325 328 328 328 326 325 326 326 326 327 327 327 328 327 327 328 327 325 325 325 327 327 326 326 324 323 323 322 322 321 320 320 319 319 318 318 318 316 313
327 322 319 316 310 311 317 323 326 323 319 320 323 325 326 324 325 323 321 324 325 325 324 323 323 324 324 326 326 326 326 325 325 326 326 326 328 328 328 327 326 326 324 324 326 326 326 325 324 323 322 321 321 320 319 318 317 317 317 317 317 317 313
324 319 317 311 308 313 320 323 324 323 322 322 323 324 325 325 326 324 323 323 323 323 323 323 323 322 321 322 324 325 325 324 325 326 325 326 327 328 327 325 325 326 325 323 323 324 325 324 324 323 322 321 320 319 318 317 315 314 314 315 315 316 314
322 319 314 308 309 313 316 321 324 325 326 324 322 323 324 324 324 325 325 324 324 323 323 324 324 323 322 321 321 323 323 323 325 326 326 326 327 326 325 325 324 325 325 323 323 323 324 324 323 323 322 321 319 317 316 314 313 313 313 313 313 314 313
321 318 311 311 316 317 318 322 323 324 325 325 324 323 323 324 324 323 324 323 323 323 323 324 324 323 322 321 321 321 322 323 324 325 326 325 325 324 324 323 324 324 323 322 322 323 324 323 322 322 321 319 316 315 313 312 312 311 311 311 311 311 312
316 316 314 317 322 322 322 323 322 324 325 325 325 324 323 324 324 324 324 322 320 319 320 322 322 322 322 322 322 321 321 323 324 324 324 324 323 323 322 322 322 322 321 321 322 322 322 321 321 320 318 316 315 314 313 312 311 309 309 309 309 309 309
311 315 319 322 324 323 322 322 323 324 325 325 324 323 321 321 321 321 319 317 316 314 315 319 322 323 323 323 322 319 319 321 320 319 320 321 321 320 320 319 319 318 319 319 320 320 320 320 320 318 316 315 315 314 314 312 311 310 309 308 308 308 308
309 316 322 323 322 321 320 322 324 324 325 324 322 319 315 313 314 314 313 313 315 316 316 318 320 321 321 320 319 317 316 316 314 313 314 316 316 316 316 315 315 316 316 316 318 319 319 318 318 316 315 316 316 314 314 313 312 311 309 308 308 308 309
313 318 323 322 320 317 317 322 323 324 324 321 317 313 309 310 312 312 311 312 314 317 317 316 317 317 317 317 316 315 314 312 311 309 310 312 314 315 315 315 314 314 314 316 317 318 317 317 316 316 316 316 315 314 314 313 312 310 309 308 308 308 308
320 322 323 320 316 313 314 318 322 323 322 317 313 308 307 309 310 308 307 307 309 314 317 315 315 314 313 313 312 311 310 309 309 309 309 312 316 318 318 316 314 312 313 314 315 315 315 315 316 317 317 317 316 315 316 314 313 311 310 308 308 308 308
324 324 323 317 313 313 314 315 319 320 318 315 310 307 307 307 306 306 306 305 306 309 312 313 314 312 309 308 307 308 308 306 306 308 307 310 315 317 316 315 314 313 314 313 314 315 315 315 316 316 317 317 317 317 317 316 314 312 311 310 309 309 309
326 325 321 314 312 315 314 313 316 316 314 315 310 307 309 309 307 307 306 305 305 306 308 311 311 310 308 308 307 307 308 307 308 309 308 311 314 314 314 314 315 315 314 313 314 315 316 316 316 316 316 316 317 317 317 317 315 313 312 312 310 310 311
327 324 317 314 314 316 314 313 314 312 313 316 312 311 314 312 310 309 308 308 308 307 309 309 309 311 312 311 309 309 311 310 309 311 313 314 315 313 311 312 314 314 312 312 313 313 314 314 315 315 316 316 317 317 317 317 315 313 313 313 311 310 311
326 322 316 315 317 315 314 312 311 311 315 316 313 314 316 314 313 312 312 312 310 308 309 309 312 315 312 310 311 313 314 311 309 312 314 315 313 312 310 310 310 310 311 314 315 313 313 314 314 315 316 317 317 317 317 316 316 315 315 314 312 311 311
325 321 317 318 318 315 314 311 307 310 314 313 313 316 316 314 315 314 313 312 311 311 311 310 313 312 308 309 313 314 313 311 310 313 314 312 311 310 310 310 310 309 310 313 315 314 313 314 314 314 315 316 316 316 317 316 316 316 315 314 313 312 311
325 320 318 319 318 317 317 313 306 308 312 311 313 317 315 314 315 315 314 313 312 313 311 308 308 306 305 307 310 312 312 310 310 312 313 313 311 310 310 310 310 310 310 311 312 313 312 313 314 313 313 314 314 314 315 316 316 316 316 315 314 313 313
325 323 321 320 320 321 320 316 310 311 313 313 315 317 314 314 316 315 315 315 313 313 310 306 306 306 305 306 307 309 310 309 310 311 313 313 312 310 310 310 310 310 309 309 309 311 311 312 313 313 313 313 314 313 313 314 316 315 316 316 315 314 314
326 326 324 320 321 323 322 319 316 315 316 315 316 318 315 314 316 315 315 315 315 315 312 309 308 307 307 307 308 308 309 309 310 310 311 313 312 311 311 310 310 309 309 309 309 310 311 311 313 313 313 313 313 313 313 313 314 315 315 315 315 315 314
327 328 325 321 321 323 322 320 318 317 318 317 317 318 316 314 316 315 315 315 315 316 315 312 312 312 310 309 309 309 309 310 310 309 310 310 311 311 310 311 312 311 311 312 311 312 313 313 313 313 313 313 313 313 313 312 313 315 315 315 315 315 314
327 327 325 323 323 323 323 323 320 318 318 318 317 317 317 316 315 315 315 315 315 316 316 315 315 315 314 311 310 310 309 309 309 310 310 310 311 313 313 314 317 316 316 316 315 315 316 316 315 313 313 314 314 313 312 312 314 315 315 315 315 314 314
327 326 326 326 325 324 323 323 322 319 318 319 319 318 317 317 316 315 316 315 315 316 316 316 316 316 315 314 312 311 310 310 311 312 314 314 316 318 318 318 319 319 318 317 317 317 317 317 317 315 314 315 315 313 312 312 314 314 314 315 315 314 314
327 327 326 326 326 325 324 324 323 321 319 319 320 319 318 318 317 315 316 316 316 316 316 316 316 316 317 317 316 315 314 313 314 317 319 319 319 320 320 320 319 319 319 319 318 318 318 317 317 316 316 316 316 315 314 314 314 314 315 315 315 314 314
326 326 325 325 325 324 324 323 322 321 321 320 320 320 319 319 318 317 316 317 318 317 317 317 317 317 317 317 318 319 317 316 318 320 321 321 321 321 321 321 320 319 319 319 318 318 318 318 317 317 317 317 317 316 315 314 314 314 315 315 315 314 313
324 324 324 324 324 323 323 323 323 322 322 321 320 320 319 319 319 319 318 318 318 319 319 317 317 318 318 318 319 320 319 319 320 320 320 321 321 319 319 319 318 317 317 317 317 318 318 318 317 316 316 317 317 317 316 315 314 314 315 315 315 314 314
323 323 323 323 322 322 321 322 323 322 321 320 319 320 320 319 319 319 319 319 319 320 320 319 318 318 319 319 319 320 320 319 319 319 320 321 321 319 318 317 317 316 315 315 317 317 317 317 317 317 316 316 317 318 316 315 315 315 315 315 314 314 314
321 321 322 322 322 321 319 319 320 320 320 319 319 320 321 320 319 319 319 319 319 320 320 320 319 317 317 317 318 319 320 319 319 319 319 319 320 319 318 318 318 317 315 315 316 317 316 316 317 316 316 316 318 318 317 316 316 315 314 314 314 314 314
316 317 319 320 321 321 321 320 320 321 321 321 321 321 321 321 320 319 319 319 319 320 320 320 319 317 315 315 317 318 318 319 319 319 319 319 318 317 317 318 318 316 315 315 315 314 314 314 315 315 316 317 318 318 317 317 316 316 315 314 314 314 313
314 314 315 316 317 318 320 320 321 320 319 319 321 321 321 321 320 319 319 319 320 320 321 320 319 319 317 315 316 317 317 317 318 318 318 318 317 316 316 317 317 315 315 314 313 313 313 313 314 315 316 317 317 317 317 317 316 316 315 314 314 313 313
312 313 313 314 314 315 317 319 320 320 318 317 318 319 319 320 319 319 319 319 319 319 320 321 321 320 319 317 317 318 318 317 318 318 318 317 317 317 317 317 316 314 313 313 314 314 313 312 313 315 316 317 316 315 315 315 315 315 315 314 313 313 311
310 311 312 313 313 314 315 316 317 317 318 318 318 318 319 319 319 318 318 318 318 318 319 320 321 320 320 318 318 319 320 319 319 318 317 317 317 317 316 316 315 313 313 313 314 314 313 313 313 314 315 316 315 313 312 314 315 314 314 313 312 311 310
307 308 310 311 312 313 313 313 314 314 315 316 318 318 319 318 318 317 317 318 319 319 320 320 319 318 319 319 318 319 320 319 318 317 317 317 317 316 315 315 315 314 313 314 314 314 313 313 314 313 312 311 311 309 309 311 312 312 312 312 311 310 309
306 307 307 308 309 310 312 312 312 312 313 314 315 316 317 318 318 318 318 318 318 317 317 318 317 316 317 318 318 319 318 317 317 317 316 316 315 315 314 313 313 314 315 315 314 313 312 312 314 313 311 310 308 308 307 307 308 309 309 309 309 308 307
304 305 305 305 306 306 307 307 309 310 311 312 313 314 315 315 317 318 318 317 316 314 314 315 315 316 316 317 318 317 316 316 316 315 314 314 315 315 314 311 309 310 312 311 309 308 308 310 312 312 311 310 310 309 309 308 308 308 308 307 307 306 305
300 300 301 301 301 301 302 303 305 307 308 310 311 312 313 313 314 315 315 315 314 314 315 315 314 314 316 317 317 317 316 316 315 314 313 314 314 314 313 310 306 306 306 304 304 303 304 308 310 310 311 311 310 310 309 309 309 309 308 307 306 304 303
298 299 300 300 300 300 301 302 303 304 305 307 309 310 312 312 313 313 313 312 313 314 315 315 314 313 314 315 314 315 315 314 313 314 314 313 313 313 313 310 306 304 304 303 303 303 303 306 309 310 310 310 310 309 309 308 308 308 307 306 304 302 302
298 299 301 302 302 302 302 302 303 303 304 305 307 309 311 312 312 313 312 313 313 313 313 313 312 311 311 312 312 312 313 312 312 313 314 313 312 312 312 311 307 305 304 304 304 304 304 305 308 310 310 310 309 308 308 308 307 306 305 304 303 302 301

ECMWFFLT1_850_thetae_039.txt.gz
Theta_e
319 321 324 325 326 326 321 319 321 322 323 324 322 320 315 311 310 317 324 325 323 322 323 326 328 327 326 326 326 325 326 326 325 325 326 326 326 326 326 327 326 326 327 327 326 325 325 325 325 325 324 323 322 321 321 320 320 320 319 319 317 316 317
322 323 326 327 326 323 317 315 316 316 319 322 322 322 317 313 314 320 325 326 325 325 323 324 327 328 327 327 325 325 325 326 325 325 326 327 327 326 326 326 326 326 327 327 326 325 324 324 323 323 322 322 321 320 320 320 320 319 318 317 316 314 314
325 323 324 326 321 317 316 319 320 317 318 322 323 324 322 318 319 321 325 326 325 326 325 325 326 327 327 326 325 325 326 325 326 325 326 326 326 326 326 326 325 326 327 327 326 325 324 323 323 322 321 321 320 319 319 319 319 319 318 317 315 313 312
324 320 319 318 313 313 318 322 323 320 320 323 323 325 325 322 323 323 324 326 325 325 324 324 325 326 325 324 324 324 324 324 325 325 325 326 326 325 326 326 325 325 326 326 325 325 324 323 322 321 321 320 319 318 317 317 317 317 316 315 313 311 309
319 315 311 310 309 311 316 319 320 319 320 321 320 323 326 325 324 323 323 324 325 324 324 323 324 323 322 321 322 323 323 324 325 323 323 325 325 325 325 325 325 324 325 326 326 325 324 323 322 321 319 318 317 316 315 314 314 314 313 312 310 309 308
315 312 309 309 309 311 314 317 319 320 321 322 320 321 323 323 324 324 323 323 323 323 324 324 323 321 320 320 320 320 322 324 325 323 323 324 324 324 324 325 325 324 324 325 325 324 324 323 321 320 318 317 316 315 314 313 313 312 312 311 309 308 308
313 311 309 309 312 314 316 318 321 322 323 323 322 322 320 320 322 323 323 323 323 323 324 324 323 321 321 320 320 321 322 324 324 324 324 323 322 322 322 323 323 323 323 323 324 324 323 322 320 318 318 318 317 315 314 313 312 311 311 310 309 308 308
312 310 309 312 315 316 318 321 323 324 324 323 323 322 319 318 319 320 320 320 320 322 323 322 323 323 322 321 322 322 322 323 324 324 324 323 322 322 321 321 322 322 323 323 323 323 322 321 319 316 315 315 315 313 312 311 310 309 309 309 308 308 309
312 310 310 315 319 319 320 322 324 324 323 324 323 322 319 317 317 319 317 314 314 319 322 322 323 324 322 320 321 323 322 322 323 323 323 322 322 321 320 320 320 321 322 323 323 323 322 322 320 317 314 313 312 311 310 310 309 308 308 308 308 308 309
312 310 311 317 321 320 320 322 324 323 323 324 323 319 313 311 311 313 310 307 309 315 319 322 322 323 322 319 319 320 318 319 322 322 321 320 320 319 317 317 318 318 319 321 322 321 320 320 320 317 315 314 312 311 309 309 308 308 308 308 308 309 309
312 312 314 318 320 319 319 321 323 322 321 322 318 311 307 307 307 306 306 306 308 310 314 318 321 322 320 316 315 316 314 315 319 319 317 317 317 317 316 316 316 316 317 318 318 318 317 317 318 317 316 315 313 312 311 310 308 308 308 308 308 309 310
313 314 316 318 318 316 317 319 320 319 318 316 311 306 306 307 306 305 306 307 308 308 308 311 314 315 314 314 314 313 311 311 314 314 314 315 314 313 314 314 315 316 316 317 317 317 316 316 316 317 316 316 314 313 312 312 310 308 308 308 309 310 310
314 315 317 318 316 314 315 316 316 314 313 310 307 306 306 306 306 306 306 306 308 309 307 306 307 307 308 310 310 308 307 308 309 311 312 312 311 309 310 311 313 315 315 316 317 317 316 316 316 316 316 316 315 313 313 314 312 309 309 310 311 311 310
318 318 320 318 314 313 315 314 312 310 309 307 306 306 306 306 306 306 305 305 307 309 308 307 307 306 305 307 307 306 306 306 306 308 309 311 311 310 309 309 310 312 313 313 314 314 315 315 315 316 316 316 316 315 315 316 314 312 312 313 312 311 310
323 322 322 318 314 315 317 314 310 309 309 308 308 309 309 309 309 308 307 306 307 308 308 308 309 308 306 308 309 308 307 307 308 310 310 311 311 311 311 310 310 311 311 312 313 313 314 314 315 315 316 317 316 316 316 316 315 314 314 313 312 311 311
325 325 322 317 315 317 317 313 309 309 311 311 312 313 313 312 311 311 310 309 308 308 309 312 312 310 309 311 312 310 310 312 313 313 312 311 311 311 311 310 311 312 313 313 313 314 314 315 316 316 316 316 316 316 316 315 315 315 314 313 311 311 312
327 326 320 316 317 317 315 312 309 310 313 314 314 315 315 313 313 313 312 311 310 309 312 315 313 311 312 314 314 313 313 315 316 314 312 310 310 310 310 310 310 311 313 313 313 313 314 315 315 315 315 316 316 316 316 316 316 315 314 313 312 312 313
326 324 318 317 318 315 314 312 308 311 313 313 315 316 314 314 314 314 313 312 312 311 312 313 310 310 313 315 314 314 314 315 315 314 312 310 309 309 310 310 310 310 311 312 313 313 313 314 315 314 314 314 314 315 316 316 316 315 314 314 313 313 314
324 321 317 318 318 316 317 313 308 310 312 311 315 317 314 313 315 315 314 313 313 312 310 308 307 307 310 313 313 312 312 313 314 313 312 311 310 310 310 310 310 309 309 310 310 311 312 313 313 313 313 313 313 313 314 314 315 316 315 314 314 314 314
323 319 317 319 320 320 320 316 310 311 313 311 315 317 314 313 315 315 314 314 314 314 312 309 308 307 307 309 310 310 310 311 312 313 313 312 311 311 311 310 310 309 309 309 309 310 311 312 312 312 312 313 313 313 313 313 313 314 315 315 315 315 314
324 322 320 321 322 323 321 319 315 314 316 313 314 317 314 313 315 315 314 315 316 315 314 312 311 310 309 308 308 309 309 309 310 311 312 312 313 313 312 310 309 309 311 312 313 314 314 314 313 312 312 312 312 313 313 313 312 313 314 315 315 314 314
325 324 322 321 322 323 321 320 318 317 318 316 315 316 314 314 315 315 314 315 315 316 316 315 314 313 312 311 310 309 309 309 310 310 312 313 314 313 312 311 311 313 315 316 316 316 316 316 316 315 314 313 313 313 314 313 312 313 314 315 314 314 315
325 325 323 321 322 323 322 321 319 317 319 318 317 316 315 315 316 315 315 315 315 315 316 315 316 315 314 314 313 312 312 311 311 312 314 314 314 313 313 313 315 316 317 318 317 317 316 316 317 317 316 315 315 315 316 314 313 312 314 314 314 315 315
323 324 323 320 320 322 322 322 321 318 318 319 318 318 317 317 317 316 315 315 315 316 315 315 316 316 315 315 315 315 316 315 314 315 316 316 315 315 316 316 317 318 318 318 318 318 317 317 317 317 317 317 317 317 317 316 315 314 314 314 315 315 314
322 323 322 319 319 320 322 323 323 321 319 318 319 319 318 318 318 317 316 316 316 317 317 316 316 315 316 316 316 317 317 317 318 318 318 318 317 317 318 318 317 317 318 319 319 318 318 318 318 318 318 317 317 317 317 317 316 315 314 314 315 315 315
321 322 322 321 321 321 322 323 323 323 322 320 319 319 319 319 318 318 318 317 317 317 317 317 317 316 316 317 317 317 317 318 319 320 320 319 318 317 318 318 317 317 317 318 318 317 317 316 317 317 318 318 317 316 317 317 317 315 314 314 314 315 315
317 319 320 320 321 321 321 321 321 321 321 321 320 320 320 319 319 319 319 319 318 318 318 317 317 317 317 317 317 317 318 319 320 320 320 320 319 318 317 317 317 317 316 316 316 316 316 316 316 316 318 318 317 317 316 317 317 316 315 314 314 315 315
314 314 315 316 317 318 319 319 319 318 318 317 318 319 320 320 320 319 319 319 319 319 319 318 318 318 318 318 318 318 319 319 320 321 321 321 321 320 319 318 318 317 317 317 316 316 316 315 315 316 318 318 317 317 317 317 317 317 316 315 314 314 314
314 314 313 314 314 315 317 318 318 318 317 315 315 316 317 318 320 320 320 319 320 320 320 319 319 318 317 318 318 318 319 319 319 319 320 321 320 320 320 319 318 317 317 317 316 316 316 315 316 317 317 317 316 316 316 317 317 317 316 316 315 314 314
312 313 313 313 313 314 315 315 315 316 317 316 315 315 314 315 317 319 320 320 320 320 320 320 319 319 318 318 318 319 319 319 318 317 318 319 319 320 319 319 318 318 317 316 316 315 315 315 315 315 315 315 315 315 316 317 317 317 317 316 316 315 314
309 310 311 312 313 313 314 314 314 314 314 314 315 315 315 314 314 315 316 318 318 319 319 319 318 318 318 318 318 319 319 320 320 318 318 319 319 319 318 318 318 317 316 316 315 314 314 314 314 314 315 314 314 313 314 315 315 316 316 316 315 315 314
305 305 306 308 309 310 311 313 314 314 313 313 313 313 314 315 315 315 315 316 316 317 317 316 315 316 316 316 316 317 318 319 320 319 319 319 319 319 318 318 317 316 315 315 314 313 314 313 313 314 314 312 310 310 311 313 313 314 315 314 314 313 313
302 302 303 304 305 306 307 308 309 310 311 311 312 313 313 313 314 315 316 316 316 316 315 314 314 315 315 315 315 316 317 317 318 319 319 319 319 318 317 317 317 316 315 314 313 313 314 313 313 313 311 308 306 306 308 310 310 310 311 311 311 311 310
300 300 300 301 301 302 303 303 303 302 303 305 307 309 311 312 312 313 314 315 316 316 316 316 316 316 314 314 314 314 315 315 316 318 319 319 319 318 317 316 316 315 315 314 313 314 314 312 310 310 308 305 305 306 306 307 307 307 307 308 308 308 307
298 298 298 298 298 299 299 299 299 299 299 300 302 304 306 308 310 311 312 313 314 315 315 315 316 315 314 312 312 313 314 314 316 317 318 319 318 316 315 315 314 312 313 314 314 314 314 311 309 309 308 306 306 307 308 308 308 308 308 308 308 307 306
298 298 298 298 297 297 297 298 299 300 300 301 301 303 303 304 305 307 308 310 312 312 312 312 313 313 312 311 312 313 313 314 316 317 317 318 316 314 314 315 313 310 311 313 315 314 312 310 310 311 311 309 309 309 309 309 308 309 309 308 308 307 305
299 299 299 299 299 298 298 298 298 300 301 302 302 303 303 304 304 304 306 308 309 311 311 312 312 312 311 311 312 313 313 314 316 317 317 316 315 313 313 313 311 310 310 312 314 312 308 307 309 311 311 311 310 310 310 309 309 309 308 307 306 306 304

ECMWFFLT1_850_thetae_042.txt.gz
Theta_e
325 322 318 318 318 318 317 317 318 320 323 322 322 321 317 315 318 321 321 321 323 324 326 327 327 327 327 327 326 326 325 326 325 325 326 326 326 325 324 325 326 325 325 325 324 323 324 326 326 326 325 324 323 323 322 321 321 320 319 319 318 317 317
326 319 316 317 316 314 312 312 316 320 324 325 324 322 317 315 318 320 321 320 321 321 323 326 327 327 326 326 325 324 325 325 326 326 327 327 326 326 325 325 326 325 325 326 325 324 324 325 326 325 323 322 322 322 321 320 320 319 317 316 315 315 314
322 316 318 320 318 315 310 310 313 317 322 325 324 323 321 320 322 324 323 323 323 322 321 322 325 327 326 325 324 324 325 325 325 325 326 327 327 327 326 325 325 325 325 326 325 324 324 324 324 323 321 321 322 322 321 320 319 318 317 315 313 312 311
316 317 321 322 320 316 311 311 314 315 318 321 322 323 323 324 324 325 325 325 324 324 322 320 321 325 325 324 323 324 324 325 325 325 325 326 327 327 327 326 325 325 324 325 325 325 324 324 323 322 321 321 321 321 321 319 319 317 315 313 311 309 308
314 317 318 317 316 314 312 314 317 317 317 319 320 322 324 324 324 324 325 325 325 325 323 320 320 322 323 322 322 322 323 324 324 324 325 326 326 326 327 326 326 325 324 324 324 324 324 323 322 321 320 320 320 320 320 320 318 315 312 310 309 308 307
315 315 314 313 312 312 314 317 319 318 319 320 321 322 324 324 323 323 324 325 325 324 323 321 320 321 320 319 320 320 321 322 323 323 324 325 325 326 326 326 326 326 325 324 324 324 323 322 322 320 318 317 318 318 319 318 315 313 312 310 308 308 307
317 314 312 310 310 312 315 317 319 319 320 320 320 323 325 325 323 323 323 324 324 323 322 320 319 318 318 318 318 318 319 321 323 323 323 324 324 325 326 325 326 326 325 324 325 324 323 322 321 320 318 316 316 316 316 315 312 310 311 310 308 307 307
319 313 309 309 310 314 315 317 320 320 321 320 319 320 322 324 324 323 322 321 322 321 321 321 319 316 316 317 317 319 319 321 323 323 323 323 323 324 325 325 325 325 325 324 325 324 323 322 321 318 317 316 315 315 314 313 312 310 309 309 308 308 308
320 311 308 310 312 315 316 318 321 322 323 321 319 318 318 319 322 322 321 320 321 322 321 321 319 316 317 318 319 320 321 321 323 323 322 322 323 323 324 325 325 324 324 324 324 324 322 321 319 316 315 314 313 314 314 313 312 310 309 308 308 309 309
321 310 309 312 314 317 318 320 322 323 323 322 320 319 316 315 317 319 320 319 319 321 321 321 318 316 318 320 320 321 321 321 321 322 321 321 321 321 322 323 324 324 324 324 324 323 321 318 317 315 314 313 311 312 313 312 311 309 308 308 308 309 310
321 312 312 314 315 317 318 320 322 323 323 322 322 319 313 310 312 314 315 315 317 320 320 321 320 318 318 320 322 321 321 321 321 321 321 321 320 319 320 321 323 323 323 323 323 323 321 317 315 315 315 314 312 311 312 311 310 309 309 308 308 310 311
320 313 313 315 315 316 317 319 321 322 322 322 321 315 308 306 308 308 308 308 313 318 320 321 321 320 318 318 320 321 322 322 321 320 321 320 319 318 318 319 321 322 323 322 322 322 321 319 317 316 315 314 313 312 312 312 311 310 309 309 309 310 311
319 314 313 314 315 315 315 317 319 320 319 317 313 308 305 305 305 305 305 306 308 312 317 319 320 321 317 315 316 319 321 323 321 320 320 319 317 316 316 316 318 319 320 319 319 319 319 319 318 317 314 313 312 312 312 312 312 312 310 309 309 311 312
319 315 315 315 316 315 314 316 317 316 314 310 306 305 305 305 305 305 306 306 306 307 310 313 316 317 314 312 313 314 318 320 320 319 319 319 317 315 315 316 316 316 317 316 316 316 316 316 317 317 315 313 312 312 312 312 312 313 311 310 310 311 312
320 319 319 319 318 315 314 315 315 313 310 306 304 305 306 306 306 306 306 307 306 305 306 307 308 310 310 310 310 311 314 316 315 313 314 315 316 315 315 315 315 315 316 316 316 316 316 316 315 316 315 314 313 313 312 312 313 314 313 312 312 312 312
323 323 322 322 320 315 314 316 314 311 308 305 305 307 308 308 307 306 306 307 307 306 306 305 305 306 307 307 307 308 311 312 310 309 309 309 311 312 313 315 315 315 315 314 315 314 315 315 315 315 315 315 314 313 313 313 315 315 314 314 313 312 312
324 324 323 324 321 315 315 316 313 310 308 306 308 311 311 310 309 308 307 307 307 306 306 306 306 306 307 306 305 307 308 309 309 310 310 309 309 309 310 312 313 313 312 312 312 313 313 314 314 314 315 315 314 314 315 315 315 315 314 314 313 312 312
322 324 325 324 319 315 316 316 313 310 309 309 312 314 313 312 312 311 309 307 306 307 307 307 308 309 309 308 308 308 309 310 310 311 311 310 310 310 310 310 310 311 311 311 312 312 313 313 313 314 315 315 315 315 316 315 315 315 315 314 314 313 312
320 323 325 321 317 316 316 315 313 310 310 311 314 315 314 313 313 313 311 308 307 308 309 309 310 312 311 310 310 311 312 311 311 311 310 310 309 310 310 310 310 310 311 311 311 312 313 314 314 314 314 315 315 314 314 315 316 315 315 315 314 314 313
319 321 322 319 317 317 316 315 314 312 312 314 315 316 315 314 313 313 313 311 310 310 309 309 311 313 312 310 311 312 313 312 311 310 310 309 309 309 310 310 310 310 310 311 311 312 312 314 315 315 315 315 314 313 313 314 315 315 315 315 314 314 314
321 320 320 318 317 317 317 318 315 313 314 314 315 317 315 313 314 314 314 313 313 313 310 309 310 312 311 310 311 311 312 313 313 312 311 310 309 310 310 310 310 310 310 311 312 312 312 312 313 314 314 314 313 313 313 313 314 315 315 315 315 314 314
321 321 321 319 318 319 320 319 316 314 315 314 315 317 316 313 314 315 315 314 314 315 314 310 309 309 309 309 310 311 312 313 313 312 312 311 310 310 310 310 310 310 309 310 310 310 310 310 311 312 312 312 312 312 313 313 313 314 314 314 315 315 314
321 321 321 319 319 321 321 319 317 316 317 316 315 317 317 314 314 315 315 314 314 315 316 314 312 311 309 309 310 310 311 313 313 313 312 311 310 310 310 310 309 309 309 309 309 311 312 312 313 313 314 314 313 313 313 312 313 313 313 313 314 315 314
321 321 320 319 320 321 320 319 318 317 317 318 316 316 317 316 315 315 315 315 314 315 315 315 315 314 313 312 312 311 311 312 313 313 312 311 310 309 310 309 309 310 311 311 312 314 315 315 316 316 316 315 315 314 313 312 313 314 313 312 313 314 314
322 321 320 321 321 322 320 319 319 318 317 318 318 317 317 316 316 316 315 315 315 315 315 315 316 316 316 315 314 314 313 313 313 313 312 312 311 310 310 311 311 313 314 315 316 316 317 317 317 317 317 317 317 316 315 314 314 315 315 313 313 313 314
321 321 321 321 321 321 320 320 320 319 318 318 319 319 318 317 316 317 317 316 315 315 316 316 316 316 316 316 315 315 315 315 315 315 314 314 314 313 313 314 315 316 317 317 317 317 317 317 317 317 317 317 317 317 317 317 316 316 316 315 313 313 314
318 319 320 320 319 319 319 319 320 320 319 318 319 320 320 318 317 317 317 317 316 316 316 317 317 316 316 316 316 316 316 316 316 316 316 316 316 316 316 316 316 317 318 318 318 317 317 317 318 318 318 317 316 316 317 317 317 316 317 316 314 313 314
316 316 317 318 318 318 318 318 318 318 318 318 318 319 320 320 319 318 318 318 317 317 316 316 317 317 317 317 317 317 317 317 317 317 317 317 318 318 318 318 318 318 318 318 318 318 317 317 317 318 318 317 316 316 316 317 317 317 317 316 315 314 314
314 314 315 316 317 317 317 318 318 318 318 318 318 318 318 318 319 319 319 319 319 318 318 317 317 317 317 318 318 318 318 318 318 318 318 318 320 319 318 318 319 319 319 319 319 319 318 318 317 317 317 317 316 316 316 317 317 317 317 316 315 315 314
313 313 314 314 314 315 316 316 317 317 316 317 317 316 316 316 316 317 318 319 319 319 319 318 318 318 318 318 318 318 318 319 319 319 319 319 319 319 318 318 318 319 319 319 319 319 319 319 318 317 317 317 316 316 316 317 317 318 317 316 315 315 314
312 312 312 313 313 313 314 314 315 315 315 315 315 315 315 315 315 315 315 317 319 320 320 319 319 319 319 319 319 319 319 319 319 319 320 320 319 319 319 319 318 318 318 317 318 319 319 319 318 317 317 317 316 316 317 317 317 317 317 316 316 315 315
309 309 310 310 311 312 312 313 313 314 314 314 314 314 313 314 314 314 314 315 316 318 318 318 318 319 319 320 320 319 319 319 319 319 319 320 320 319 319 319 318 318 317 317 318 318 318 318 318 317 317 317 316 316 317 317 317 316 316 316 316 316 315
302 303 304 305 306 307 308 309 311 312 313 313 314 313 313 312 312 312 312 313 314 315 316 316 317 317 317 317 317 317 317 317 317 317 317 318 319 318 319 319 319 318 318 318 318 318 317 317 317 316 316 316 315 315 315 316 316 316 316 315 315 315 314
299 299 300 300 300 301 302 303 304 305 307 309 310 311 312 312 312 312 312 312 312 313 314 315 315 316 316 316 316 316 316 316 316 315 315 315 316 317 317 318 318 318 318 318 317 317 317 316 316 315 315 314 314 314 314 315 315 315 314 313 312 312 311
299 299 299 299 299 299 299 299 299 299 300 301 302 304 305 306 308 309 310 311 311 312 313 313 313 314 315 315 315 315 315 316 315 314 313 312 312 314 315 316 317 317 318 318 317 317 316 315 314 314 313 313 313 312 312 313 312 312 310 309 309 308 308
298 298 298 298 298 299 299 298 299 299 299 299 299 300 301 301 302 303 304 305 307 308 310 311 311 312 313 313 313 313 314 314 313 313 312 311 311 312 313 315 317 317 317 317 317 316 315 314 313 313 313 313 314 312 309 309 309 309 308 308 308 307 307
298 298 298 298 298 298 298 298 298 299 299 299 299 299 300 300 301 301 301 302 302 303 304 306 307 309 310 311 311 312 312 313 312 311 311 311 312 313 313 315 316 317 317 316 316 315 314 313 313 313 311 311 313 313 310 309 309 309 308 308 308 307 307

ECMWFFLT1_850_thetae_048.txt.gz
Theta_e
328 324 323 324 323 324 326 326 325 325 325 325 326 326 325 324 324 325 325 325 326 325 326 326 326 325 325 326 326 325 325 325 325 326 327 327 327 327 327 326 326 325 325 325 325 325 325 326 326 325 325 325 325 323 321 319 317 315 314 314 314 314 312
327 325 324 325 324 323 324 324 323 322 322 322 323 323 323 323 322 323 324 324 325 325 325 325 326 326 325 326 326 325 325 324 324 324 325 327 326 326 326 326 326 325 324 325 325 325 324 325 325 325 324 324 323 320 317 315 313 312 311 311 311 310 309
327 326 326 325 324 322 322 322 321 320 318 318 318 318 317 316 315 317 319 321 324 325 325 325 325 325 325 325 326 326 325 324 324 323 323 325 325 325 325 325 325 325 324 325 325 325 324 323 323 324 324 323 321 318 316 314 312 310 309 308 309 308 306
326 326 325 323 322 322 321 321 319 318 317 317 317 316 315 311 310 313 317 319 322 323 324 325 325 325 325 325 325 324 325 325 324 324 323 323 323 324 325 325 325 325 324 324 325 324 324 323 323 324 324 322 318 317 316 312 309 308 307 306 306 306 305
325 325 322 319 320 319 318 317 316 316 317 318 318 318 316 314 312 315 318 318 319 321 322 322 324 325 325 324 324 322 323 323 323 324 323 323 323 324 324 325 326 325 325 325 325 324 324 323 322 324 323 320 318 317 315 312 309 308 307 306 306 306 306
326 324 321 317 316 315 313 314 314 315 317 318 320 319 318 317 316 318 320 320 320 321 321 320 321 324 325 324 323 322 323 323 323 323 324 324 325 324 324 325 325 325 325 325 326 325 324 323 323 323 321 319 318 317 316 313 310 308 307 306 306 306 306
327 326 323 318 313 311 312 312 313 316 318 319 320 320 319 319 319 319 320 321 322 322 322 320 319 323 324 324 323 322 322 323 323 323 324 324 325 325 325 325 325 325 325 325 325 325 324 324 323 322 320 319 318 318 316 313 310 308 307 307 306 307 307
327 327 324 316 312 312 313 313 316 318 320 320 320 319 320 320 320 320 320 321 322 322 322 321 320 322 323 322 322 321 321 321 322 322 323 323 324 325 325 325 325 325 325 325 325 325 324 324 323 322 320 319 319 318 317 313 310 309 307 307 308 308 309
328 327 322 315 314 315 315 315 317 319 320 320 319 318 319 320 320 321 322 321 322 323 322 321 319 320 321 321 320 320 320 321 321 322 322 323 324 325 325 325 325 326 325 325 325 325 324 324 323 322 321 319 318 318 317 314 311 309 308 308 309 309 309
328 325 319 316 316 315 314 315 317 320 321 321 321 320 319 318 318 320 322 321 321 321 321 320 318 317 318 319 318 318 320 321 321 322 322 323 323 324 325 325 325 325 325 325 325 324 323 323 323 322 321 319 315 315 315 313 310 309 308 308 309 309 309
326 321 318 317 317 314 314 315 318 321 322 322 322 322 320 317 314 316 319 319 319 320 320 320 317 316 317 317 317 319 321 322 322 322 322 322 323 323 324 324 324 325 325 325 324 324 323 323 322 321 320 318 314 312 311 309 309 308 308 308 309 309 309
323 321 319 318 317 315 314 316 319 321 321 322 322 322 320 316 312 312 314 315 315 317 319 318 315 315 317 317 319 321 322 322 322 322 322 322 322 323 324 324 324 324 325 325 324 323 323 322 322 321 319 317 314 310 308 308 309 309 308 308 309 309 309
325 323 320 317 316 314 315 317 320 321 322 322 321 320 318 312 308 308 310 311 312 313 317 317 315 316 318 319 321 322 323 322 322 321 321 321 321 322 323 324 324 323 324 324 324 323 322 321 321 320 318 316 313 310 309 310 310 309 308 308 308 309 309
326 325 320 314 313 313 315 318 319 321 322 322 320 318 313 307 305 306 307 308 308 311 315 316 314 316 319 320 321 322 322 322 322 321 320 320 319 320 322 323 323 323 323 324 323 322 322 321 321 320 318 315 313 311 311 311 311 310 309 307 308 309 309
327 325 318 311 311 314 316 317 318 319 320 321 320 314 308 305 305 305 305 306 307 311 315 315 313 314 316 318 320 321 322 321 320 320 320 319 318 318 321 322 322 323 323 323 322 320 319 319 319 318 316 314 314 313 312 312 311 311 310 309 309 309 310
326 324 316 312 313 315 317 318 318 317 319 319 317 310 305 305 305 305 305 305 307 312 316 318 317 316 314 315 316 320 322 320 317 318 319 318 316 317 320 322 321 322 322 321 320 319 318 318 317 317 316 315 315 314 314 313 312 311 310 310 310 310 310
326 322 316 315 317 319 320 320 317 316 317 315 311 306 304 305 305 305 305 305 307 309 313 316 317 316 314 313 313 317 321 321 317 316 317 317 316 316 319 321 321 321 321 320 318 317 317 317 317 316 316 316 316 316 315 314 313 312 311 310 310 311 310
325 321 317 317 321 322 322 320 317 315 313 309 307 306 306 306 306 306 305 305 306 307 308 309 310 311 311 312 313 314 317 320 318 316 316 316 316 315 316 318 319 319 319 318 317 316 316 316 316 316 316 316 316 316 316 316 315 314 312 310 310 311 311
324 321 318 320 322 322 321 318 316 314 311 308 307 307 308 308 308 307 306 305 305 306 307 307 306 307 308 311 312 312 314 316 317 317 316 316 316 315 315 315 316 317 317 316 316 316 315 315 315 314 314 314 315 315 316 317 316 315 314 311 310 311 311
324 322 320 322 323 322 320 318 316 313 310 310 311 310 309 310 310 310 309 307 305 305 307 307 308 308 308 309 310 309 310 313 314 315 314 313 313 315 315 315 314 315 315 315 315 315 314 313 313 313 313 313 313 314 315 316 316 316 315 312 311 313 313
323 323 322 322 323 320 318 317 317 314 310 310 312 313 312 312 312 312 312 311 308 307 307 307 308 309 309 309 309 308 309 311 312 312 312 311 311 312 314 314 314 314 314 315 314 313 313 312 312 312 312 312 312 313 314 315 315 315 314 312 312 314 314
323 323 322 322 322 320 317 316 316 316 313 310 312 315 315 314 313 313 313 313 312 311 310 309 309 309 309 310 310 309 308 309 311 312 312 313 312 312 313 313 313 314 314 314 313 313 312 312 311 311 311 311 311 312 313 314 314 314 313 312 314 315 315
322 322 321 321 321 319 317 315 315 317 315 312 313 316 316 316 315 313 313 313 313 313 314 312 311 310 309 310 311 310 309 308 310 311 313 314 314 314 314 313 314 313 313 313 312 312 312 311 311 311 311 312 312 313 314 314 315 314 313 314 314 314 314
321 321 321 321 320 319 317 316 316 317 316 315 316 317 316 316 316 314 313 314 314 314 314 314 314 312 310 310 310 310 310 310 311 312 312 313 314 314 314 314 313 313 312 312 312 311 311 311 311 312 311 311 312 312 313 313 314 314 313 313 313 313 313
320 321 321 321 320 318 317 317 318 318 317 317 318 318 316 316 316 315 314 314 314 315 314 314 314 314 313 312 311 311 310 310 311 311 312 312 313 313 313 313 313 312 311 311 311 311 310 310 310 311 310 310 311 311 311 311 311 312 312 312 312 312 313
320 320 321 320 320 318 318 318 319 318 318 318 318 318 316 316 316 316 315 314 314 315 315 315 314 314 314 314 314 313 313 312 311 311 311 311 311 311 311 311 311 310 310 310 310 311 311 310 310 311 312 313 313 313 312 312 312 312 313 314 313 313 314
320 319 320 320 320 320 319 320 319 318 318 318 319 318 317 316 316 316 316 316 315 315 315 315 315 315 315 315 315 315 315 314 314 314 314 314 313 313 312 312 311 311 311 311 312 313 313 313 313 313 314 315 316 316 316 316 315 315 316 316 316 316 316
320 319 319 320 320 321 321 320 319 318 318 318 319 319 319 318 318 318 317 317 316 316 316 316 316 316 315 315 315 315 315 315 315 315 315 315 315 315 315 315 315 314 314 315 315 315 316 316 316 316 316 316 317 317 317 317 317 317 317 317 317 317 317
319 319 319 319 319 320 321 320 320 319 318 318 317 318 318 319 319 319 319 318 318 317 317 317 317 317 316 316 316 316 316 316 315 316 316 315 315 315 315 316 316 316 316 316 316 317 317 317 317 318 318 318 318 318 318 318 318 317 317 317 317 317 317
315 316 317 318 318 318 319 319 319 319 319 318 317 317 317 318 318 318 319 319 319 319 318 318 318 317 318 317 317 317 316 316 316 316 316 316 316 315 315 315 316 316 316 316 316 317 317 318 318 318 318 319 319 319 318 318 319 318 318 318 318 318 317
310 312 313 314 316 316 317 318 317 317 317 317 316 316 316 317 317 317 317 317 318 318 318 318 318 318 318 318 318 318 318 318 317 317 316 316 316 316 316 316 316 317 317 317 317 318 318 318 318 318 318 318 318 318 317 317 317 317 317 318 317 317 317
306 308 309 310 311 312 313 314 314 315 315 315 315 315 315 315 315 315 315 315 315 315 316 316 316 317 317 318 318 318 318 318 318 318 318 318 317 317 318 318 317 317 317 317 317 317 317 318 318 318 318 318 318 317 317 317 317 317 317 317 317 316 316
306 306 306 306 307 307 308 308 308 309 311 312 312 313 313 313 313 313 314 314 314 314 314 314 313 314 314 315 315 316 317 318 318 319 319 319 319 319 319 318 317 316 316 316 316 316 316 316 316 315 315 315 315 315 316 316 317 317 317 317 317 316 316
306 306 306 306 306 306 306 305 305 306 306 307 307 307 308 308 308 308 309 309 310 311 312 312 312 312 312 312 312 313 314 314 315 316 317 318 319 319 319 318 317 316 316 316 316 315 314 313 312 311 311 311 311 312 313 313 315 316 316 317 317 316 316
303 303 303 303 303 303 303 303 303 303 303 303 303 303 303 303 303 303 303 303 304 305 306 307 307 308 309 309 310 310 310 310 311 312 313 314 315 317 317 317 317 316 316 316 316 315 313 313 312 311 310 310 311 312 313 314 314 315 315 316 316 316 316
300 300 300 300 300 300 300 300 300 301 300 301 301 301 301 301 301 301 301 301 301 301 301 301 302 302 302 303 304 304 305 306 307 308 309 310 311 313 314 315 315 315 315 315 315 315 314 313 312 312 311 310 311 313 314 315 316 316 316 315 316 316 315
299 299 299 299 299 299 299 299 299 299 299 299 299 299 299 299 299 300 300 300 300 299 299 299 299 299 299 299 299 300 300 301 302 303 304 305 306 308 309 311 312 313 313 314 314 314 314 313 312 312 310 310 311 313 314 315 316 317 317 316 316 314 313

ECMWFFLT1_850_thetae_054.txt.gz
Theta_e
332 329 329 329 329 330 330 328 328 328 328 328 328 329 328 328 328 327 327 328 328 328 327 327 327 326 327 330 331 330 330 331 330 330 330 329 329 329 327 326 326 328 329 329 328 328 328 327 327 326 326 327 327 326 325 325 325 323 321 318 317 316 315
331 330 331 331 330 330 328 327 328 328 328 329 328 329 328 327 327 327 327 327 328 328 327 327 327 325 325 328 330 330 330 331 330 329 328 328 329 329 327 327 328 328 329 329 328 328 328 327 327 326 326 326 326 325 325 324 323 320 318 316 315 313 312
330 331 332 331 330 328 327 328 328 328 328 328 327 327 327 325 324 325 325 326 328 327 327 328 327 325 325 326 327 328 328 329 330 329 327 327 327 328 328 328 328 328 329 328 328 328 328 327 328 327 326 326 325 324 322 320 319 317 315 313 311 310 308
328 330 331 330 329 327 328 328 327 326 325 323 324 325 324 323 323 323 323 324 326 326 326 328 327 326 326 325 326 328 329 329 330 330 328 327 325 325 327 328 328 328 328 328 328 328 328 327 327 327 326 326 324 322 319 316 315 313 312 310 308 306 305
325 329 329 328 328 328 328 327 323 322 321 321 322 321 319 318 320 322 323 323 323 323 325 326 326 326 326 326 326 328 329 329 330 330 329 328 327 326 327 328 328 327 328 328 328 328 327 327 327 326 326 325 323 320 316 313 312 312 310 309 307 305 304
327 329 327 325 327 328 326 323 319 318 318 318 319 319 318 318 318 319 320 321 321 323 325 325 324 324 325 326 326 327 329 329 329 329 329 327 327 328 329 328 328 328 328 328 328 328 327 327 326 326 325 324 322 318 314 312 311 310 309 308 307 306 305
328 327 325 325 326 326 322 319 320 321 319 318 319 320 320 320 320 319 319 321 321 323 325 324 324 324 324 325 325 327 329 329 328 328 328 327 326 327 328 327 327 328 328 328 328 327 327 327 326 326 325 323 321 317 314 312 310 310 309 308 307 306 306
327 325 324 325 324 322 319 319 322 324 324 323 324 322 320 320 321 320 320 322 323 322 322 322 322 323 323 324 325 326 327 327 327 326 327 328 327 327 327 326 327 327 328 328 328 327 327 327 326 326 325 323 320 317 315 313 311 310 309 307 306 306 306
326 324 324 324 322 319 319 320 323 325 326 326 325 322 321 321 320 318 319 322 323 323 322 321 321 322 322 323 324 325 325 325 325 325 326 328 328 328 327 326 326 327 327 327 327 328 327 327 325 325 325 323 320 318 316 314 313 311 309 307 307 306 306
326 324 324 323 321 320 320 322 324 325 324 323 321 318 319 320 319 319 321 322 323 323 323 321 321 321 322 323 324 324 324 323 323 325 325 327 329 328 328 327 326 327 328 326 326 328 327 326 326 325 324 322 320 319 318 316 314 311 309 308 308 307 307
325 323 321 321 320 320 321 322 323 323 320 318 316 315 317 319 318 319 321 322 323 323 323 321 321 321 321 323 324 324 323 322 323 324 323 325 327 327 328 327 326 328 329 327 327 328 327 327 326 325 324 322 319 320 319 317 316 312 310 309 309 308 308
324 321 319 320 320 321 322 322 323 321 318 318 317 315 318 320 320 321 322 322 322 322 323 321 320 320 321 322 322 321 320 320 322 323 322 323 324 324 326 327 327 328 328 327 328 328 328 328 326 325 324 322 320 320 319 318 317 314 312 312 310 308 308
324 323 320 319 321 323 323 323 324 321 318 320 320 319 321 321 320 321 322 321 321 321 322 322 320 320 321 321 321 320 318 319 321 322 322 322 321 322 325 327 328 327 326 326 327 327 327 328 326 324 323 321 319 319 319 317 316 316 314 313 312 309 308
324 326 323 321 322 323 324 324 323 321 320 321 322 322 323 321 321 322 322 322 322 320 321 322 321 321 321 320 319 320 319 320 323 322 321 321 321 324 327 328 327 326 325 326 326 324 325 326 325 323 321 319 318 318 318 316 315 317 316 315 313 311 309
327 327 324 323 322 322 323 324 323 322 321 321 322 323 323 319 319 320 320 321 321 321 322 322 321 322 322 320 318 319 320 321 323 322 320 320 322 323 326 328 328 325 325 326 325 324 324 325 325 323 320 319 317 316 317 316 315 316 316 315 314 313 310
327 327 325 323 322 322 324 324 323 322 322 321 322 322 319 314 314 316 316 316 318 320 322 322 321 322 322 322 321 320 321 321 321 320 319 320 321 322 324 328 328 324 324 324 324 324 324 323 323 321 320 319 317 316 315 315 315 315 315 314 314 314 312
326 325 325 324 322 323 324 323 323 323 322 323 320 315 311 310 311 314 315 316 317 319 322 322 321 322 322 322 322 321 321 321 321 321 319 319 321 321 323 326 326 324 324 325 324 324 323 322 321 320 319 319 318 317 316 315 315 315 315 315 314 314 313
325 324 324 323 322 322 323 323 323 322 323 322 314 307 308 310 312 314 316 317 318 318 320 320 320 321 321 320 320 321 322 321 321 321 319 317 319 321 323 325 325 324 324 324 324 322 321 320 320 319 319 319 318 318 317 315 315 315 316 316 314 313 313
325 325 323 321 321 322 323 323 323 323 322 318 311 310 312 314 316 317 316 317 317 316 316 316 317 317 318 318 318 320 321 320 320 320 319 318 318 320 323 325 324 323 324 323 322 321 320 320 319 319 319 318 318 318 318 317 316 316 316 316 316 314 313
325 324 321 320 322 323 323 323 323 320 315 312 312 316 317 317 317 318 317 316 316 316 315 314 313 313 315 317 317 318 319 320 319 319 319 318 317 317 321 323 323 322 322 322 321 318 317 318 319 319 319 319 319 318 318 318 317 317 317 317 317 316 315
325 323 320 321 323 323 323 322 318 312 308 308 310 313 314 315 317 316 316 316 315 315 315 315 314 314 315 316 316 317 318 319 320 318 317 317 316 316 318 320 322 322 322 321 319 317 316 317 317 318 319 319 319 319 318 319 318 318 318 318 318 318 317
323 321 321 322 323 323 322 319 312 308 308 309 309 309 311 313 316 316 316 316 315 314 315 315 314 313 315 316 316 316 316 317 319 319 317 317 316 316 317 317 319 320 320 319 317 315 316 316 316 318 318 316 316 317 318 318 319 318 318 318 318 318 317
322 320 321 323 323 323 320 314 310 310 311 311 311 311 311 312 314 315 317 317 314 312 312 311 309 309 311 313 315 317 316 315 317 319 318 317 316 315 316 316 316 317 317 317 316 315 315 314 314 316 316 314 314 315 317 317 318 318 317 318 318 318 317
321 320 321 323 323 321 317 312 312 313 313 313 314 314 314 313 312 312 314 315 314 312 312 311 311 310 310 310 312 316 317 316 316 317 318 318 317 316 316 316 315 315 315 315 315 315 314 314 313 313 313 312 312 314 315 317 317 318 317 317 316 317 317
320 320 322 322 322 320 315 313 315 316 316 316 316 315 316 314 312 311 312 311 312 314 314 313 313 313 312 311 310 313 317 317 316 316 317 318 318 317 317 317 316 315 315 314 314 314 314 314 313 313 312 311 311 311 311 312 314 315 316 316 316 316 316
321 320 321 321 321 318 317 317 318 319 318 318 316 315 315 314 313 313 312 310 311 314 315 314 315 314 314 313 311 311 315 317 317 318 318 319 319 319 319 318 317 315 314 313 313 314 314 313 312 312 311 311 310 310 310 309 310 311 313 315 315 316 316
321 320 320 321 320 319 319 319 319 318 318 317 316 316 316 316 315 315 315 313 313 314 314 314 315 314 314 314 313 313 314 314 315 316 317 317 318 318 318 319 319 318 317 315 313 314 315 315 314 312 311 311 311 311 311 311 310 311 312 314 315 316 316
321 320 320 320 319 319 318 318 317 318 318 317 317 318 318 317 317 316 316 316 315 315 315 314 314 315 315 315 315 314 314 314 314 314 314 314 314 314 314 314 315 317 317 316 314 313 314 314 314 313 312 313 314 315 315 314 314 315 316 316 316 316 317
320 320 320 319 319 318 318 318 318 318 318 319 319 319 319 318 318 317 317 317 317 317 317 316 316 315 315 315 315 315 315 315 315 315 315 314 314 314 314 314 314 314 315 315 314 313 313 313 313 313 314 315 316 317 317 317 317 317 317 318 317 318 317
319 319 319 319 319 319 318 318 319 319 319 319 319 319 319 319 319 318 318 318 318 318 318 318 318 318 317 317 316 316 316 316 316 316 316 316 315 315 315 315 315 315 315 315 315 314 314 314 314 315 315 316 316 317 317 317 317 317 317 318 318 318 318
317 317 317 318 318 318 318 317 317 317 317 317 317 317 317 317 317 317 318 317 317 318 318 318 318 318 318 318 318 318 318 317 317 317 317 317 317 317 316 316 316 316 316 316 315 315 315 315 315 316 316 316 317 317 318 318 317 317 317 317 318 318 318
316 316 316 317 317 317 317 316 316 316 316 316 316 316 316 316 315 315 316 316 316 316 316 316 316 316 317 317 317 317 317 316 317 317 317 317 317 318 317 317 318 318 317 317 317 316 316 316 316 316 316 316 317 318 319 320 319 319 317 318 318 317 316
311 311 311 311 311 312 312 312 311 311 312 312 312 313 313 314 314 314 314 314 314 314 314 314 314 314 314 314 314 314 314 314 314 315 315 315 314 315 315 315 316 316 317 317 317 318 318 318 318 317 317 318 318 319 319 319 320 319 318 317 317 316 316
305 305 305 304 305 305 305 305 304 304 304 304 305 305 305 306 308 309 309 309 309 309 309 309 309 309 309 309 309 309 309 310 310 310 310 310 310 310 310 311 312 312 312 312 313 314 315 316 317 317 318 318 319 319 318 317 318 319 318 317 317 316 316
302 302 302 302 302 302 302 302 302 302 302 302 302 302 302 302 302 303 303 303 303 303 303 303 304 304 304 304 304 304 304 305 305 305 305 305 305 305 305 306 307 307 307 307 308 308 309 310 311 312 314 315 317 317 317 317 317 317 318 317 316 316 316
299 300 300 300 300 300 300 300 300 300 300 300 300 300 300 300 300 300 300 299 300 300 300 300 300 300 300 301 301 301 301 301 301 301 301 301 301 301 301 302 303 303 303 303 304 305 305 306 308 309 310 313 315 316 317 317 317 317 317 316 316 316 316
298 299 299 299 299 299 299 299 299 299 299 299 299 299 299 299 299 299 299 298 298 298 298 298 298 298 298 298 299 299 299 299 299 299 299 299 299 299 299 299 300 300 300 300 300 301 301 302 304 305 307 309 312 314 316 317 317 317 317 316 315 315 315

ECMWFFLT1_850_thetae_057.txt.gz
Theta_e
330 331 330 330 328 326 330 333 332 331 330 330 330 331 331 330 329 329 328 329 331 331 330 330 329 331 331 332 332 331 331 330 328 330 331 330 328 327 328 328 327 326 326 327 327 328 329 329 328 327 327 326 326 326 326 324 324 322 320 319 318 317 317
330 331 328 328 327 327 331 333 332 331 331 330 330 330 330 329 329 330 329 330 330 330 331 331 330 331 331 331 331 330 330 329 327 328 329 330 330 329 328 327 326 326 327 327 327 327 328 328 328 328 328 327 326 326 324 323 323 320 318 316 315 315 314
332 331 327 327 327 327 330 332 331 331 332 331 330 331 330 329 328 328 328 329 330 329 330 330 330 330 330 330 330 329 329 328 327 328 328 329 329 329 329 328 327 328 329 329 328 327 327 328 328 328 328 328 327 326 323 322 321 319 317 315 314 313 312
331 330 327 327 328 327 328 330 332 332 331 330 330 329 327 326 324 324 325 326 328 329 329 330 330 331 332 331 329 327 328 328 328 328 327 327 328 329 331 329 327 327 329 329 329 328 328 328 328 328 328 328 327 325 323 322 320 318 316 314 312 311 310
329 329 327 326 325 324 325 329 331 331 330 328 326 325 324 323 322 322 323 324 327 329 330 330 330 331 332 332 329 328 327 327 328 327 325 326 326 327 328 328 326 327 327 328 328 328 328 328 328 328 328 327 326 324 321 319 317 316 314 312 311 309 309
328 327 325 323 322 323 327 330 331 330 329 326 323 322 321 320 322 323 323 323 326 328 328 329 330 331 331 332 330 328 328 327 327 328 327 326 325 324 326 327 327 328 327 328 328 327 327 328 327 327 327 326 325 322 320 317 316 314 312 311 309 309 309
329 327 325 323 322 326 330 330 330 330 329 327 325 323 320 319 321 324 324 325 326 326 327 327 328 329 329 330 331 329 328 328 327 328 328 327 326 325 325 327 327 327 327 328 328 326 326 327 327 327 326 325 323 320 319 317 315 314 312 310 309 309 310
328 326 325 323 324 329 330 328 328 330 329 329 327 324 321 319 320 321 320 322 323 323 327 327 327 329 328 328 330 328 327 327 327 327 327 327 327 326 327 327 327 326 327 328 328 326 326 326 327 327 325 324 321 319 318 316 314 313 311 309 308 309 310
326 325 325 325 327 329 329 327 328 329 329 329 328 326 325 323 321 321 320 321 323 323 325 325 325 327 326 326 329 328 326 327 326 326 327 326 326 327 328 327 327 328 327 327 328 327 327 326 326 326 325 323 321 319 317 315 314 313 310 309 309 309 311
325 325 326 327 328 328 328 328 328 328 329 328 328 327 327 324 321 323 325 325 326 326 325 323 323 324 324 326 328 328 328 327 325 325 326 325 326 326 326 326 327 327 327 327 328 327 327 326 326 327 326 323 321 319 318 316 314 312 310 309 309 310 311
326 326 327 326 326 326 326 326 326 328 328 328 328 326 325 323 319 323 327 325 325 326 325 325 324 323 323 326 327 328 329 327 325 326 325 324 326 326 326 326 325 326 326 327 328 327 327 326 325 326 326 323 321 321 319 317 315 313 310 310 309 310 312
324 326 328 326 323 323 321 321 325 328 328 328 327 324 324 324 322 324 327 325 325 325 325 325 324 324 324 326 327 328 328 327 327 329 327 325 326 325 326 326 326 327 327 327 327 326 326 325 324 324 324 323 322 321 320 319 316 313 311 311 310 310 312
325 327 327 324 321 320 318 322 327 327 327 327 325 323 324 326 325 325 326 325 325 326 325 325 325 325 325 325 326 326 326 325 327 329 328 327 327 326 326 326 326 327 326 326 326 325 326 326 324 324 323 322 322 321 320 320 317 314 312 312 311 310 312
327 327 326 323 321 319 320 325 328 326 326 326 324 324 325 325 325 326 325 325 325 325 326 325 325 325 324 324 325 325 324 324 325 325 326 326 327 327 327 326 326 326 326 327 327 326 326 325 324 325 324 322 322 321 321 320 317 315 314 313 311 310 312
327 327 324 322 320 321 322 326 326 326 327 326 324 325 325 324 325 325 325 325 325 325 325 324 324 325 325 325 325 324 323 323 324 324 324 325 326 328 328 327 327 327 326 327 328 327 327 326 325 325 323 321 321 320 320 319 317 316 316 315 313 311 312
326 325 322 320 321 322 325 327 327 326 327 325 324 325 325 324 325 325 325 325 325 324 324 323 324 325 325 325 324 324 324 324 324 324 324 324 324 327 328 327 327 326 325 327 328 327 327 327 326 324 322 320 319 318 319 318 317 317 317 316 315 313 312
326 324 320 321 323 324 327 328 327 327 327 326 326 326 324 322 323 324 324 324 324 324 324 323 323 324 324 324 324 323 323 323 324 323 323 323 322 325 327 327 327 326 325 327 327 326 326 326 324 322 321 319 317 317 317 317 317 318 317 317 317 315 313
326 322 321 323 325 326 328 328 327 327 327 326 326 325 322 321 322 322 322 323 324 324 323 323 323 323 323 323 324 323 322 322 323 323 322 322 322 323 326 327 327 327 327 328 327 326 325 324 322 321 321 319 317 317 317 317 317 316 317 317 317 316 315
328 325 324 325 326 327 328 328 328 327 326 325 324 322 320 320 320 320 320 322 322 322 322 322 322 322 322 322 323 323 323 322 322 322 321 322 322 323 324 327 328 326 326 328 327 325 324 323 322 321 320 319 318 317 317 316 316 316 316 317 317 316 316
327 325 324 325 326 327 327 327 327 326 324 323 320 319 320 320 320 319 319 319 319 319 320 319 320 320 320 321 321 323 323 323 322 322 321 321 322 323 324 327 327 324 326 327 325 323 322 321 321 321 320 319 318 318 318 317 317 317 317 317 317 317 316
325 324 325 324 324 326 326 326 325 324 323 321 319 320 320 320 320 320 319 319 319 318 317 317 317 317 318 319 320 321 323 323 322 322 322 322 322 322 323 327 327 326 327 326 324 322 322 321 321 320 320 320 319 319 319 318 318 318 318 318 318 318 317
321 322 325 324 323 324 325 325 324 322 322 321 321 320 319 319 319 318 318 318 319 318 317 316 316 316 317 319 319 320 321 322 321 321 321 321 322 322 322 324 326 326 326 326 324 322 321 321 321 321 321 321 321 320 320 320 319 319 319 319 319 319 319
321 321 324 324 324 325 324 323 322 321 321 320 320 319 318 318 318 317 318 318 316 315 316 317 316 316 317 317 318 318 319 320 321 321 320 320 321 321 322 322 323 324 324 324 322 321 320 320 320 320 321 321 321 321 320 320 320 320 320 320 319 319 320
325 324 325 325 325 325 324 322 321 320 319 318 317 317 319 319 319 319 319 317 312 308 310 312 313 312 313 316 318 319 318 319 320 320 320 319 320 321 321 321 320 320 321 320 318 318 318 318 317 318 320 320 320 320 320 320 320 319 319 319 319 319 319
325 325 325 325 325 325 324 321 318 316 314 312 312 314 316 318 318 317 317 314 310 309 309 309 309 308 308 312 317 319 319 319 319 319 320 319 319 319 321 321 319 318 318 317 316 316 316 315 315 315 316 316 316 316 318 318 319 319 319 319 318 318 318
323 323 324 324 324 323 320 316 313 313 313 313 314 315 315 316 316 315 314 313 313 313 313 312 312 311 309 310 311 313 317 319 318 318 319 319 318 319 319 320 320 318 318 317 316 316 316 315 314 314 314 313 313 312 313 313 315 317 318 319 319 318 318
321 321 323 323 323 321 317 314 313 314 316 317 317 317 316 316 316 314 313 313 313 314 314 314 314 314 313 312 310 310 316 319 318 319 319 319 320 320 319 320 320 320 320 318 316 317 318 318 317 315 313 312 312 311 311 310 310 311 312 314 315 315 316
319 320 321 321 321 318 315 314 315 316 318 318 317 316 316 316 315 314 314 313 313 313 314 314 314 314 314 314 313 312 314 316 317 318 319 319 320 320 320 320 321 320 321 321 319 317 317 319 320 319 317 315 314 314 314 312 311 311 310 311 310 310 311
320 320 320 319 318 316 315 315 316 317 318 317 316 316 316 316 316 315 316 316 315 315 315 314 314 314 314 315 315 315 316 317 318 319 319 319 318 319 319 319 319 319 320 320 320 318 316 317 318 319 320 320 319 319 319 317 315 313 312 311 311 311 311
320 320 319 318 317 316 316 317 318 318 318 318 318 318 318 318 317 317 317 317 317 317 317 316 315 315 316 316 316 316 318 319 321 321 321 320 319 319 320 318 317 318 319 319 318 317 315 314 314 314 317 319 319 319 319 319 318 317 315 314 314 314 314
319 319 319 319 318 318 318 318 318 319 319 319 319 318 319 319 318 318 318 318 318 318 318 318 318 317 318 317 317 317 317 318 319 321 321 321 321 321 321 318 317 317 318 318 318 316 315 314 314 314 315 317 319 319 319 319 319 319 318 318 317 316 316
317 317 318 318 318 317 317 318 318 317 317 317 317 317 317 317 317 317 317 317 318 318 317 317 317 317 318 318 318 318 317 317 318 319 319 319 319 320 319 319 318 318 317 317 317 317 316 316 316 316 315 316 317 318 319 319 319 320 320 319 318 317 316
314 315 315 315 316 316 316 316 316 316 316 316 316 315 315 315 316 316 316 316 316 315 315 315 315 315 315 315 315 315 315 316 316 316 317 317 316 316 317 317 317 317 317 317 317 317 317 317 317 317 317 317 317 318 318 319 319 320 319 319 319 317 316
313 312 312 311 312 312 312 311 311 311 311 312 312 311 310 311 311 312 311 310 310 309 310 310 310 310 310 310 310 309 309 310 311 311 312 312 312 312 313 315 315 314 314 314 314 315 315 315 315 316 316 316 317 318 318 318 318 318 318 319 319 318 317
307 307 306 304 304 304 304 304 304 304 304 304 304 304 303 303 303 304 303 303 303 303 304 304 304 304 305 305 305 304 305 305 305 305 306 306 306 308 309 311 312 312 311 310 310 310 309 309 309 310 310 311 312 313 315 316 317 318 318 319 319 318 317
301 301 301 300 300 300 300 300 300 300 301 302 302 302 301 301 301 302 303 303 303 301 301 301 301 301 301 301 301 301 301 302 302 302 302 302 302 302 304 306 307 306 306 305 305 304 304 304 304 304 305 305 306 307 309 311 313 315 316 317 317 317 316
299 299 299 299 299 299 299 300 300 300 301 304 306 305 304 304 304 305 305 306 305 304 302 300 299 299 300 299 299 300 300 299 300 300 299 299 299 299 300 301 301 301 301 301 300 300 300 300 300 300 300 301 301 302 303 304 306 307 309 310 312 314 315

ECMWFFLT1_850_thetae_060.txt.gz
Theta_e
331 330 330 330 330 330 328 327 325 325 328 330 329 331 333 332 331 330 330 329 330 330 329 328 329 330 331 331 331 330 329 330 331 331 329 328 327 327 327 327 328 327 328 329 329 328 328 328 327 326 326 325 325 326 325 325 324 324 324 324 324 324 323
332 330 330 330 329 327 326 325 325 326 328 327 326 329 333 332 330 330 331 330 330 330 330 330 329 331 331 331 332 330 329 330 330 329 329 329 328 327 327 329 328 327 328 329 328 328 328 328 327 327 326 326 326 326 325 325 324 322 321 321 321 321 318
331 330 330 330 328 326 325 325 324 325 326 324 327 332 333 332 330 331 331 331 331 331 331 332 331 331 331 330 331 330 329 329 329 328 328 329 328 328 328 329 328 327 328 328 327 328 328 328 328 327 327 326 326 325 324 324 322 319 318 317 316 316 314
330 329 329 329 328 326 324 325 324 324 325 326 330 332 332 332 331 331 331 331 331 332 331 331 332 332 331 329 329 329 329 329 328 327 327 327 328 328 329 328 327 328 328 327 327 328 328 328 328 328 327 326 325 324 323 322 320 317 316 315 314 313 313
330 328 328 329 327 324 324 324 323 324 327 328 328 330 332 331 329 329 329 329 330 331 330 331 331 331 330 329 329 328 327 328 328 327 327 327 327 328 328 328 328 328 329 328 327 327 328 328 328 328 328 327 325 324 322 321 319 317 315 313 312 311 310
330 329 329 330 327 324 324 324 322 324 326 325 326 330 331 328 325 326 326 326 328 329 330 331 331 330 330 330 328 328 327 328 328 327 326 326 327 327 328 327 327 327 328 328 328 327 328 328 328 328 327 326 325 323 322 320 318 316 314 312 311 310 309
330 330 331 330 326 325 324 323 323 326 326 324 327 330 327 324 323 324 324 323 326 329 330 329 330 331 330 329 328 328 329 329 328 327 326 326 326 327 326 327 327 325 326 328 327 327 327 328 328 328 327 325 323 322 321 318 316 314 312 310 309 310 309
328 330 330 328 326 325 323 322 325 328 327 328 330 329 325 323 323 323 324 325 326 328 329 328 328 329 329 328 328 328 328 329 328 327 327 327 327 327 325 325 326 325 326 327 327 327 327 327 328 327 326 324 322 321 319 317 315 313 311 310 309 310 309
327 327 327 325 324 323 322 324 327 328 328 330 331 328 323 322 322 322 324 325 324 325 326 328 328 329 328 327 327 327 327 327 327 327 327 327 327 327 325 325 326 326 326 326 326 326 327 327 327 326 325 323 321 320 318 316 314 313 310 309 309 310 309
327 326 326 324 323 322 323 326 327 327 329 330 330 326 322 322 321 322 324 323 322 323 324 326 327 328 328 327 327 327 326 325 326 326 327 327 327 327 326 326 327 326 326 326 326 327 326 326 327 326 325 323 321 319 318 316 314 312 310 309 310 311 310
327 327 326 324 323 324 325 325 326 328 329 330 329 325 324 324 322 323 327 324 323 326 325 325 326 326 327 327 328 328 327 325 324 325 326 327 326 326 327 327 327 327 326 327 326 326 326 326 327 326 324 323 321 319 317 315 313 311 309 309 310 311 311
329 328 325 323 324 326 327 327 328 329 329 329 328 324 323 324 320 323 328 326 325 327 326 325 326 325 326 328 328 328 328 327 326 326 327 327 326 326 326 326 326 327 326 326 326 326 327 326 326 326 324 322 321 320 317 315 313 311 310 309 310 311 310
329 327 324 324 326 328 329 329 329 328 328 328 326 323 323 323 320 323 327 326 326 327 326 326 326 325 325 326 326 327 328 328 328 328 328 328 326 325 326 326 326 326 325 326 325 325 327 326 325 325 324 322 322 321 318 316 314 312 310 310 310 311 311
327 325 325 326 327 329 329 329 328 327 327 327 323 321 325 326 324 324 326 326 326 327 326 326 326 325 324 323 324 326 327 326 327 328 327 328 327 326 326 326 327 326 326 326 326 325 326 326 325 325 323 322 323 321 320 317 314 312 310 310 310 310 312
325 325 327 327 327 328 329 328 327 326 327 326 322 323 327 327 326 326 326 325 326 326 326 326 325 325 325 324 324 325 324 323 325 326 324 325 326 327 328 328 328 327 326 326 326 325 325 325 325 325 323 322 322 321 321 318 315 313 312 311 311 311 312
326 326 326 325 324 325 326 325 324 326 327 325 324 326 327 326 326 326 325 325 326 325 325 325 324 325 326 325 324 325 324 324 325 324 322 322 324 326 327 328 328 327 327 327 326 326 326 325 324 324 323 322 322 321 321 319 316 314 313 312 311 311 311
326 323 322 323 322 321 324 325 324 326 325 324 325 326 326 325 326 326 325 326 325 323 324 323 322 325 325 324 324 324 323 325 324 322 322 323 323 324 325 328 328 327 327 327 326 326 325 325 324 324 323 322 321 320 320 320 317 316 315 313 312 311 311
323 321 320 323 323 322 324 326 326 327 325 325 327 326 325 325 325 325 325 325 324 322 323 322 321 324 324 323 325 323 321 324 323 322 323 323 323 323 324 327 328 327 327 327 326 325 324 324 324 323 322 321 319 318 319 319 318 317 316 313 312 312 312
324 322 321 324 325 323 324 327 328 327 326 326 326 325 324 323 323 323 323 324 324 322 323 323 321 323 323 322 323 323 321 322 322 323 322 321 323 323 323 325 327 326 326 326 325 325 325 325 325 322 321 321 318 317 318 318 318 317 316 315 313 313 314
325 324 324 326 325 324 326 327 328 327 326 326 325 322 322 322 321 322 322 323 323 322 323 322 321 322 322 320 321 323 323 322 322 322 322 321 323 323 323 325 326 325 325 325 325 325 325 325 323 321 321 320 318 317 317 317 318 317 317 316 315 314 315
325 325 326 326 325 324 325 326 325 326 325 324 322 321 321 321 320 320 320 320 320 320 320 320 320 321 321 320 321 322 323 322 321 322 321 322 323 322 323 325 325 325 325 325 325 325 324 323 322 321 321 320 319 318 317 316 317 317 317 317 316 315 316
326 325 325 324 324 325 325 324 323 324 324 321 321 321 320 320 320 320 320 319 319 319 318 318 318 318 319 320 321 321 323 322 321 321 321 321 322 322 323 324 324 325 325 325 324 323 322 322 321 321 321 320 319 319 318 316 316 317 318 318 317 316 316
322 323 325 325 325 326 326 324 323 323 322 321 321 321 320 320 319 319 320 319 319 318 317 317 317 315 316 320 320 320 321 321 322 321 320 321 321 321 322 322 323 325 326 325 323 322 322 321 321 321 321 320 320 319 319 317 316 317 318 318 318 318 318
319 322 326 325 324 325 325 324 323 322 321 321 320 320 319 318 318 318 318 317 315 314 314 315 316 315 316 318 318 318 319 320 321 321 320 320 320 321 321 321 321 323 325 325 324 323 322 321 321 321 320 320 320 320 320 320 319 319 319 319 319 319 319
323 324 326 325 325 325 323 322 321 321 320 320 319 318 318 318 318 318 318 317 313 311 309 309 311 313 314 315 316 318 318 319 320 320 320 320 319 320 321 320 320 320 321 322 323 323 322 320 320 321 320 320 321 320 320 320 320 320 320 320 319 319 319
325 325 326 325 325 324 322 321 321 320 320 319 318 318 319 319 319 318 318 317 313 311 310 308 308 309 309 310 316 319 319 318 319 319 319 320 319 319 320 320 320 319 318 319 319 319 320 319 319 318 318 319 320 320 319 320 320 320 320 319 319 319 319
323 324 325 324 324 323 322 321 320 319 318 318 317 317 317 317 318 318 317 315 313 313 313 312 311 310 307 307 312 317 318 319 319 319 319 319 319 319 319 319 320 320 319 318 317 317 318 318 317 317 316 316 317 316 316 317 318 319 319 319 319 319 319
322 323 323 324 324 323 322 321 320 318 316 315 315 317 317 317 317 317 315 314 313 313 314 314 314 314 312 310 310 312 315 317 317 318 319 319 319 320 319 319 320 320 320 319 319 319 318 318 319 319 319 318 316 315 313 313 313 314 315 315 316 317 317
322 322 323 324 323 323 322 320 316 314 314 314 316 318 318 317 316 315 315 314 313 313 314 314 314 314 314 313 312 311 313 315 316 318 319 318 318 319 318 319 320 320 320 320 320 320 319 318 319 320 321 321 320 319 317 315 315 315 314 313 313 313 313
322 322 322 321 321 321 320 316 313 313 315 317 318 318 317 316 315 314 315 315 314 314 314 314 314 314 314 314 314 315 316 318 319 320 320 319 319 319 318 318 319 318 319 319 319 320 319 318 317 317 318 318 318 317 318 318 318 318 318 316 315 315 314
320 320 320 318 317 317 316 314 314 315 317 317 317 317 317 317 316 315 316 316 317 317 317 316 316 315 315 316 316 316 317 318 320 321 320 320 320 320 320 320 319 319 318 318 318 318 318 317 317 316 315 315 314 314 316 318 319 318 318 318 318 318 318
317 318 318 316 315 315 315 316 316 317 318 318 318 318 318 318 318 318 318 318 318 318 318 318 318 317 318 318 317 317 317 317 317 319 320 318 317 318 318 318 318 319 318 318 317 317 318 318 318 317 317 316 316 315 316 317 318 318 318 319 318 318 319
316 317 317 316 316 317 317 318 318 318 318 318 318 318 318 317 317 317 318 317 317 317 317 316 316 317 317 317 317 317 317 317 317 317 319 317 314 313 313 314 315 316 317 317 317 317 317 317 317 317 317 317 317 317 317 317 318 318 318 318 318 318 319
314 314 315 316 317 317 317 316 316 317 317 317 317 316 316 316 316 316 316 315 314 314 314 313 313 313 313 313 313 313 312 313 314 314 315 315 313 311 312 313 313 314 314 315 315 315 315 315 315 315 315 316 316 316 316 316 316 317 317 318 318 319 319
311 311 312 313 314 314 313 313 312 312 312 312 311 309 308 309 309 308 308 307 306 306 305 306 307 307 306 306 306 306 306 306 307 308 308 308 308 307 309 311 312 312 313 313 313 313 313 312 311 310 310 309 308 308 307 307 307 308 308 310 311 312 313
306 306 306 307 306 305 305 305 305 305 306 305 305 303 302 303 304 304 304 304 304 303 302 301 301 301 301 301 301 301 301 301 302 302 303 302 302 302 303 305 306 307 308 308 307 307 305 304 303 303 302 301 301 300 300 300 300 300 300 301 301 301 302
302 302 303 303 303 303 304 303 303 306 307 307 306 306 305 306 307 307 307 307 306 305 304 302 300 299 299 299 299 299 299 299 299 299 299 299 299 299 299 299 300 300 300 301 300 300 299 299 298 298 298 298 298 298 298 298 298 297 297 298 299 300 302

ECMWFFLT1_850_thetae_063.txt.gz
Theta_e
331 332 332 332 332 332 331 332 331 330 328 327 327 328 329 330 330 327 325 328 331 330 331 330 329 330 331 331 331 330 330 329 330 331 329 327 328 328 329 329 327 328 328 327 326 325 325 325 326 326 325 326 326 325 325 325 324 325 325 325 325 326 325
330 332 332 332 331 331 331 331 331 329 327 326 328 330 331 331 330 328 327 329 331 331 331 330 329 330 331 331 331 331 329 329 329 330 329 327 326 326 328 327 326 327 328 327 327 326 324 325 326 326 325 325 325 325 325 324 324 324 324 324 325 324 322
325 328 331 332 330 330 331 331 331 329 326 326 330 331 331 330 329 328 329 330 330 330 331 329 329 331 331 331 332 331 329 328 329 329 329 328 326 326 326 326 326 327 328 328 327 327 325 324 325 325 325 325 325 325 324 324 324 323 323 322 321 320 318
320 323 328 330 330 329 330 331 330 328 326 328 330 330 329 329 329 328 330 330 330 330 331 330 330 330 330 331 331 331 330 329 329 328 328 328 327 326 326 327 326 326 326 327 327 327 327 325 324 325 325 325 325 325 324 324 323 322 322 320 317 317 316
319 321 326 328 329 329 328 328 327 326 327 328 328 328 329 330 328 329 330 331 330 330 330 331 331 330 330 330 330 331 330 329 329 328 327 328 328 327 327 328 327 326 326 326 326 327 327 327 325 325 325 326 325 324 324 323 322 320 318 316 315 316 314
323 321 326 327 327 328 327 326 326 325 325 326 328 330 330 329 328 330 331 330 331 331 330 330 331 331 331 330 329 330 329 328 328 327 327 327 327 327 327 328 327 327 327 327 327 327 327 327 326 325 325 325 325 324 323 322 320 317 315 314 314 314 311
330 326 327 327 326 328 327 325 324 324 325 327 329 330 328 327 328 330 329 330 331 331 330 330 331 331 330 330 329 329 328 327 328 327 327 327 327 327 328 328 327 327 328 328 327 327 327 327 327 327 326 325 324 322 321 320 317 315 314 314 313 311 309
331 330 329 327 327 327 325 324 323 324 327 328 329 329 327 326 327 326 326 328 329 329 330 330 330 330 330 330 329 328 327 328 328 327 327 326 326 327 328 328 326 326 328 328 327 327 327 327 327 327 326 324 323 321 320 318 316 315 313 312 311 310 309
331 331 330 327 327 327 324 323 323 324 326 326 327 328 325 324 324 323 323 325 326 328 329 328 329 329 330 329 328 328 328 328 328 327 327 326 326 327 326 326 326 326 326 327 327 327 327 327 327 327 326 324 323 321 320 319 317 315 313 311 310 310 310
331 331 330 328 328 327 324 323 324 326 327 326 327 327 323 322 322 322 324 324 325 327 328 328 328 329 329 328 328 327 327 327 328 327 327 327 327 327 326 325 325 326 326 326 327 327 327 327 327 327 325 324 323 321 319 318 316 314 312 310 310 310 310
331 331 330 329 329 327 324 324 326 328 328 328 329 327 324 322 321 322 324 324 323 324 325 327 328 329 328 327 328 327 326 326 327 327 327 328 327 327 327 325 325 325 326 326 326 326 327 327 327 327 324 323 322 320 317 316 315 313 311 310 309 310 310
331 331 331 330 329 326 324 325 328 329 329 330 329 326 323 321 322 323 322 321 323 324 325 326 327 327 328 327 328 328 326 326 326 325 327 327 325 326 327 326 326 326 326 326 326 326 326 327 327 326 324 322 321 318 317 315 313 311 311 310 310 310 309
332 331 331 329 326 325 325 327 329 329 330 330 328 325 322 322 323 324 323 323 325 326 325 326 326 325 327 327 328 328 327 326 325 326 327 326 326 326 326 326 326 326 327 326 326 327 326 326 326 326 324 323 321 319 317 316 313 311 310 311 310 310 310
331 331 328 326 324 325 327 328 329 330 330 329 327 325 323 323 323 324 324 324 326 326 325 327 327 324 325 326 327 328 328 327 327 327 327 326 326 326 325 326 326 325 326 327 327 326 326 326 326 326 324 322 323 322 319 316 314 311 309 310 310 310 310
331 329 326 325 326 327 328 330 330 330 329 328 325 322 321 320 322 323 324 324 325 325 325 326 326 324 322 324 326 325 326 326 326 326 326 325 327 327 327 327 326 326 326 326 326 325 325 326 326 326 325 322 322 323 320 316 314 312 310 309 309 309 309
330 328 325 326 328 328 329 330 329 329 328 325 321 321 322 322 324 325 325 325 325 324 324 324 325 325 323 323 324 324 324 324 325 325 324 323 325 326 327 327 326 326 327 327 326 325 326 326 325 326 325 322 322 322 320 317 315 313 312 310 309 310 310
329 328 327 328 329 330 329 329 329 328 324 321 321 324 325 325 326 326 325 326 325 324 324 323 325 326 324 322 323 324 325 325 324 325 323 322 323 324 325 326 325 326 327 327 327 326 325 326 325 325 325 323 322 322 320 318 317 315 314 312 310 310 311
328 328 329 329 329 330 329 328 328 325 321 322 325 326 325 325 326 325 325 326 324 324 324 322 324 325 323 323 324 323 323 324 323 324 324 323 324 324 323 325 326 327 327 327 327 326 325 325 324 324 324 323 321 322 321 320 319 318 316 313 312 311 311
328 328 329 329 329 328 327 326 324 322 323 325 326 325 325 325 325 325 325 324 322 324 324 321 323 324 323 324 324 321 321 322 321 323 323 322 324 324 323 323 325 326 326 326 327 326 325 325 325 324 323 322 320 321 322 321 320 319 317 315 313 312 311
328 327 327 327 327 325 323 323 322 323 325 327 326 324 325 325 324 324 325 323 322 324 323 321 323 323 322 323 324 322 321 321 321 322 322 322 323 323 321 321 324 326 325 325 326 326 325 325 325 324 322 321 319 319 320 320 319 318 317 315 313 312 311
327 326 325 324 325 326 324 323 323 325 326 326 324 323 323 323 323 323 323 323 323 323 323 322 322 322 322 322 323 323 322 321 321 321 322 322 322 321 321 322 325 326 326 325 325 325 325 324 324 323 322 321 321 319 317 318 318 317 317 316 314 312 311
325 326 325 322 323 326 326 325 325 326 326 324 322 322 322 321 321 322 323 323 323 322 322 322 321 321 321 320 321 322 322 321 322 321 321 322 321 320 322 323 325 326 325 324 324 324 325 325 325 323 322 322 321 318 317 317 317 317 317 316 315 314 313
324 326 327 325 325 327 327 326 326 325 323 322 321 321 321 320 320 321 322 322 321 321 320 320 320 320 321 320 320 320 321 321 321 321 321 321 321 321 321 321 323 325 324 324 324 324 323 324 323 322 321 322 320 318 317 316 317 317 318 317 317 316 314
325 326 326 325 325 326 325 324 324 323 321 321 321 320 320 320 320 319 320 320 319 318 318 318 317 317 318 320 320 319 320 321 321 321 321 320 321 321 320 320 321 324 325 324 324 323 322 322 321 321 321 321 320 319 317 316 316 317 318 318 318 317 316
325 326 325 321 321 324 323 323 322 321 320 320 320 320 320 320 319 319 319 317 314 313 313 313 314 315 316 318 319 318 319 321 321 321 320 320 320 321 320 319 319 321 324 325 323 322 322 322 321 321 321 320 320 320 318 318 318 317 317 318 319 319 318
325 325 323 319 321 323 322 322 322 321 320 321 320 319 319 319 318 318 317 316 314 312 311 310 310 312 315 317 317 318 318 319 320 321 320 320 320 320 320 319 319 319 321 322 323 323 323 322 321 321 320 320 320 320 319 319 319 318 318 318 319 319 319
323 323 322 321 323 323 322 322 322 321 321 320 319 318 318 317 318 318 317 317 315 313 312 309 307 309 312 315 317 318 319 319 319 320 320 320 319 320 320 320 320 319 318 319 321 322 323 322 321 320 320 320 320 319 319 319 319 319 319 319 319 320 319
320 321 323 323 323 323 322 322 322 321 320 319 318 318 318 318 318 318 318 317 315 313 313 311 309 308 308 310 315 319 319 318 319 319 319 320 320 320 321 320 320 320 319 318 319 319 320 319 319 319 318 317 317 317 317 318 317 316 317 318 319 319 319
320 321 323 324 322 322 322 321 321 320 319 319 319 319 318 318 318 318 317 315 314 313 314 313 313 311 310 309 312 317 318 317 318 319 319 319 319 319 320 321 320 320 320 320 319 319 318 318 318 318 318 317 318 318 317 317 315 314 314 314 315 316 317
322 321 323 323 321 321 321 321 320 320 319 319 318 318 317 318 318 317 315 314 313 313 314 314 314 314 313 312 312 314 314 315 317 319 319 318 318 318 319 319 320 320 320 320 320 320 320 319 318 319 319 319 320 319 319 318 317 316 315 314 314 314 314
321 321 321 321 321 321 320 319 319 318 317 317 317 316 317 316 316 315 314 314 314 313 314 314 314 313 314 314 314 315 316 316 319 320 320 319 319 319 319 318 319 319 319 319 319 319 319 319 318 319 319 319 319 319 318 318 317 317 317 318 318 317 316
320 319 319 318 319 318 317 318 318 316 314 315 316 317 317 316 315 315 316 316 316 316 315 315 315 315 315 315 316 317 318 318 320 320 319 320 320 320 320 320 319 319 319 319 318 318 318 318 318 318 318 318 318 318 317 317 316 316 316 317 318 318 318
317 316 316 316 316 316 316 317 317 315 314 316 317 317 317 317 317 317 317 317 317 317 317 317 317 317 317 317 317 317 317 318 319 319 318 318 318 318 318 318 318 318 318 318 318 317 317 317 317 317 317 317 317 317 317 317 317 317 317 317 317 317 318
313 314 315 315 315 315 316 316 316 316 316 317 317 318 318 317 317 317 317 317 317 317 316 316 316 315 315 316 316 317 316 316 316 317 317 317 317 317 316 316 316 315 315 315 315 316 316 316 315 315 315 314 314 313 313 312 311 311 310 310 310 310 310
309 311 312 313 315 316 316 316 316 316 316 315 314 313 312 312 312 314 314 313 313 312 311 310 310 309 309 309 310 311 311 310 310 311 313 313 313 313 312 312 312 312 312 312 312 311 311 310 309 307 307 306 304 304 303 303 302 301 301 301 301 301 301
306 306 307 308 311 312 312 311 311 311 310 308 306 306 306 306 306 307 307 307 306 305 304 304 303 302 302 302 303 304 304 303 303 303 303 304 304 304 303 303 303 304 304 304 303 303 302 301 300 300 300 299 299 300 300 300 300 300 300 300 300 301 301
305 305 305 305 307 308 307 307 308 308 307 306 305 306 307 307 306 306 306 306 305 304 303 302 301 300 299 299 299 299 300 300 299 299 299 299 299 299 299 299 298 298 299 299 299 299 299 299 299 300 300 300 301 301 302 302 303 303 302 303 304 305 304

ECMWFFLT1_850_thetae_066.txt.gz
Theta_e
330 329 329 330 330 330 330 331 332 332 331 330 331 330 328 328 329 329 329 327 324 326 329 330 330 329 329 330 329 329 329 328 328 329 330 329 328 328 329 328 328 328 328 326 325 324 324 325 325 324 324 325 325 326 326 325 326 326 325 325 325 325 323
331 329 329 330 330 331 331 331 332 332 331 330 329 329 329 329 329 330 329 326 324 327 329 329 330 329 329 330 329 329 329 329 329 329 330 329 327 327 328 328 328 328 328 327 325 324 324 324 324 324 325 326 326 326 326 325 326 325 325 325 325 325 325
332 331 330 331 331 331 331 331 331 331 331 331 329 328 327 328 329 329 329 327 326 328 329 330 330 329 329 330 329 329 329 329 329 329 331 330 327 327 328 328 328 327 327 327 326 325 324 323 323 323 325 326 326 325 325 324 324 324 324 324 325 325 324
333 332 332 332 332 332 332 332 332 331 331 331 329 326 326 328 330 330 330 327 327 328 329 330 330 328 328 330 329 330 330 329 329 329 331 330 327 327 328 328 328 326 325 326 326 326 325 324 323 323 324 326 325 325 324 324 323 323 323 323 322 322 321
334 333 332 332 332 332 333 333 332 332 331 330 328 325 326 329 331 331 330 329 328 329 329 330 330 328 328 329 330 330 330 329 328 329 330 329 327 327 327 327 327 326 325 325 326 326 326 324 323 323 324 325 325 324 324 324 324 323 323 322 319 318 317
334 333 332 333 333 333 333 333 332 331 331 330 327 325 327 330 331 330 329 329 329 329 329 329 329 328 328 329 329 330 330 329 329 329 328 328 328 327 327 326 326 327 326 326 326 326 327 325 324 323 324 324 324 324 324 324 324 323 322 320 318 316 314
334 333 332 333 333 334 333 333 332 331 331 329 326 326 328 330 330 329 328 329 330 330 330 330 328 328 329 329 328 329 330 330 329 329 328 327 328 328 327 326 327 327 327 326 327 327 327 326 325 324 324 325 324 324 324 323 323 322 321 319 317 315 313
334 333 332 332 332 333 333 332 331 331 330 328 326 327 329 330 330 329 329 330 330 330 331 330 329 330 330 329 328 329 330 330 329 328 328 327 327 328 327 327 327 327 327 326 326 326 326 326 327 325 323 324 324 323 323 322 320 320 319 317 316 314 312
333 333 332 331 330 332 332 331 331 330 328 326 326 328 329 330 330 330 330 330 330 330 330 330 329 330 329 329 329 329 329 328 327 327 327 326 326 327 327 327 327 326 327 327 327 326 326 326 327 326 324 324 324 323 322 320 318 318 318 316 315 313 311
333 333 332 329 330 332 331 329 329 328 326 325 326 329 330 331 330 329 329 330 330 329 329 328 329 329 329 329 329 328 328 327 327 327 327 326 326 326 326 327 327 327 327 327 327 327 327 327 327 327 325 325 325 324 323 321 318 317 316 315 314 312 310
332 333 332 328 329 332 330 329 328 326 325 326 327 330 331 330 330 329 329 329 329 329 328 328 328 329 329 329 328 328 327 327 328 328 328 327 326 326 326 327 327 327 327 327 327 327 327 327 327 327 327 326 325 323 322 321 318 316 315 314 313 311 310
332 331 329 328 330 331 329 328 326 326 327 329 330 331 330 330 330 329 327 327 328 328 328 328 328 329 329 328 328 327 327 328 327 327 328 327 326 326 327 327 326 325 326 326 326 327 326 327 327 327 327 326 324 322 321 320 318 316 315 314 312 311 310
331 329 327 328 330 331 328 326 325 326 328 330 331 330 329 329 328 327 326 326 327 328 328 327 327 328 327 327 327 326 326 326 326 326 327 327 327 327 327 327 326 324 325 326 326 326 326 327 327 327 327 326 324 322 321 319 317 316 315 314 313 311 310
330 328 327 328 329 329 327 326 326 327 328 329 330 329 327 327 327 326 326 325 325 326 327 327 328 328 327 326 327 326 325 325 325 325 326 326 326 326 326 327 326 325 325 326 326 326 326 327 327 327 327 325 324 323 321 318 316 316 315 314 312 311 310
330 327 327 328 329 327 327 327 328 329 330 329 330 329 327 327 327 326 324 323 324 325 326 326 327 327 327 326 326 327 326 325 324 324 325 325 325 325 325 326 326 326 326 327 327 326 326 327 327 327 327 325 323 322 321 318 316 315 314 314 312 311 310
329 328 327 328 328 328 328 328 329 330 330 329 329 329 328 328 326 325 324 324 325 325 325 325 324 325 327 327 327 327 327 326 325 325 324 325 326 325 325 325 326 326 326 327 327 327 327 327 327 327 326 325 323 322 321 320 318 316 314 313 312 311 310
328 328 328 328 328 328 328 328 329 329 329 328 329 328 327 327 326 325 325 326 326 325 325 323 322 322 325 326 326 326 327 326 326 324 323 323 325 326 325 325 325 325 326 326 326 326 327 327 326 327 326 324 324 323 323 322 321 318 316 314 313 313 311
328 329 329 329 328 328 328 328 329 328 328 328 328 327 326 326 326 326 326 325 325 325 324 323 322 321 322 324 324 324 325 325 324 323 322 322 323 324 324 325 326 325 325 326 326 326 326 326 326 327 327 325 324 324 324 322 320 318 316 314 313 313 312
329 330 330 328 327 327 328 328 328 328 327 327 326 326 326 326 326 326 325 324 323 324 324 324 323 323 323 324 324 324 324 324 323 323 323 323 323 323 323 323 325 326 325 325 326 326 326 325 326 326 327 325 324 324 323 320 318 316 315 314 315 315 314
330 331 330 327 327 327 328 328 328 326 326 326 326 326 326 326 326 326 325 323 323 323 324 324 324 323 323 324 323 323 323 323 322 323 323 322 322 323 323 321 322 324 325 325 325 326 325 325 326 326 326 325 323 323 323 320 319 316 314 315 316 316 315
330 330 329 327 328 328 327 326 325 325 325 326 326 326 325 325 326 325 325 324 324 323 323 324 324 323 324 324 322 321 321 321 322 323 322 321 322 322 321 319 320 323 325 325 325 326 326 325 325 325 325 324 322 322 322 321 321 318 315 316 317 316 315
328 328 328 327 328 328 326 324 324 324 324 325 325 325 325 325 325 325 324 324 324 323 322 323 324 323 323 323 322 321 321 321 322 322 321 322 322 320 319 320 322 324 325 325 325 326 326 325 325 325 325 323 320 321 321 320 321 320 317 317 317 315 315
326 327 329 328 327 326 324 324 324 324 324 325 324 325 326 325 325 324 323 323 323 322 322 322 322 321 322 323 322 322 322 322 322 321 321 322 321 319 319 321 323 325 325 325 325 325 325 325 325 325 325 322 320 322 321 319 320 320 319 318 316 315 315
325 326 328 327 326 325 324 324 324 324 324 322 322 323 324 324 324 324 323 323 323 322 322 321 321 321 321 321 322 322 322 321 321 321 321 320 320 320 319 320 322 325 325 325 325 325 324 325 325 325 324 322 321 321 319 317 318 319 318 317 316 316 315
325 325 326 326 326 325 324 323 323 323 321 319 319 322 322 322 323 323 322 322 321 321 321 320 320 320 320 320 320 320 321 321 321 321 320 320 320 320 319 318 321 324 325 325 324 324 323 324 324 323 322 321 321 319 317 317 318 318 317 316 315 316 316
325 325 326 326 325 323 322 321 322 321 319 318 320 321 321 321 321 321 321 321 320 319 319 318 318 318 318 319 319 318 319 321 321 320 320 320 320 320 319 318 319 323 325 325 323 323 322 322 322 321 321 321 320 319 317 317 318 318 318 318 318 318 318
325 325 324 324 323 321 320 321 321 320 319 320 320 320 320 320 320 319 319 318 315 314 314 313 314 315 316 319 319 317 318 320 321 321 320 320 320 320 320 319 318 320 323 324 323 323 322 322 321 321 321 320 320 319 319 318 318 318 318 318 319 319 319
325 324 323 322 322 321 320 320 321 320 320 320 320 320 320 319 319 318 317 315 314 313 312 310 310 313 316 317 318 317 318 319 320 320 320 319 320 320 319 319 319 319 319 321 323 323 321 320 320 320 320 319 319 319 319 319 319 319 319 318 319 319 319
324 324 322 321 321 321 321 320 321 320 320 320 320 320 319 319 318 318 316 316 316 314 312 309 307 310 314 317 318 319 318 319 319 320 320 319 320 320 319 319 319 319 318 318 320 321 320 319 319 319 319 319 319 318 318 318 317 318 318 318 317 317 317
323 322 321 320 319 319 320 320 321 320 320 320 319 319 318 318 318 318 317 316 315 313 311 311 309 309 311 314 317 318 319 319 319 319 319 320 320 320 320 320 320 320 319 318 318 319 319 318 319 319 318 318 318 317 317 316 316 316 316 315 315 314 314
323 322 321 320 319 319 319 320 320 320 320 319 319 318 318 318 318 317 316 315 314 313 313 313 313 312 312 312 314 316 317 318 319 319 319 319 319 320 320 320 320 320 320 319 319 319 318 318 318 318 318 318 318 318 317 317 317 317 317 317 317 317 317
322 322 322 321 321 320 319 319 319 319 319 318 318 318 317 318 317 316 315 313 313 314 314 314 314 315 315 315 315 315 315 316 318 319 319 318 319 319 319 319 320 320 319 319 319 319 319 319 319 319 318 318 319 319 319 319 319 318 318 318 318 317 318
318 319 319 319 319 319 319 318 317 317 318 318 317 316 316 316 315 314 313 313 313 314 314 314 314 315 316 317 317 316 316 317 318 319 319 319 319 319 319 319 319 319 319 319 319 319 319 319 319 319 318 318 318 318 318 318 318 318 318 317 317 317 316
315 315 315 316 316 316 316 316 316 316 316 316 316 316 315 315 315 315 314 314 314 315 315 314 314 315 316 317 317 317 317 317 318 319 319 319 319 319 319 319 318 318 318 318 318 318 317 317 317 317 317 317 317 316 316 315 315 314 314 313 313 313 312
313 313 313 313 314 314 314 315 315 315 316 316 316 316 315 315 315 314 313 313 314 315 315 315 315 316 316 317 317 317 317 317 318 318 318 318 318 318 317 317 317 317 317 316 316 315 315 315 315 314 314 313 312 311 309 308 306 306 305 304 304 304 303
311 311 311 311 312 312 313 313 314 314 315 315 314 314 314 314 312 310 308 308 309 309 309 310 312 313 314 313 312 313 314 314 315 315 315 315 315 315 315 314 313 312 311 311 310 310 309 308 308 307 306 306 304 303 302 301 301 301 301 301 301 301 301
307 307 308 308 309 309 310 310 310 310 311 310 309 310 310 309 308 307 306 305 304 303 303 303 304 305 306 305 304 304 305 305 306 306 306 307 307 307 306 306 305 303 303 302 302 302 301 301 301 301 300 300 301 300 301 301 301 301 301 302 302 302 302

ECMWFFLT1_850_thetae_069.txt.gz
Theta_e
329 331 331 331 332 333 333 333 332 332 333 332 331 331 330 329 330 329 328 328 330 331 329 329 328 328 329 329 330 330 329 328 327 327 327 328 328 329 329 328 327 327 327 327 325 323 324 325 325 325 325 324 324 324 324 324 325 325 325 325 325 324 322
332 332 332 331 331 332 332 333 332 333 333 332 332 331 329 329 329 330 329 329 330 330 329 328 328 328 330 330 329 329 328 327 327 327 327 328 328 328 328 328 327 327 327 328 326 324 323 324 325 324 324 324 324 324 324 325 325 325 325 325 325 325 323
334 333 332 332 331 331 332 333 333 333 333 332 332 331 330 329 330 329 329 329 330 329 328 327 328 329 330 330 328 328 328 327 327 327 327 329 329 329 328 327 327 327 327 328 327 325 324 324 324 324 323 323 324 324 325 325 325 325 325 325 325 325 324
334 334 333 332 332 331 332 332 333 333 333 332 332 332 331 330 330 328 328 329 330 329 326 326 328 329 330 329 328 328 328 327 327 328 328 329 330 330 329 327 327 327 327 327 326 326 325 324 323 323 322 322 324 324 325 325 325 325 325 325 325 325 325
332 333 334 333 332 332 332 332 333 333 332 332 332 332 331 330 330 329 329 329 330 329 326 326 328 329 329 329 328 328 328 328 328 328 329 329 330 330 329 328 327 328 328 327 326 326 326 325 324 323 322 322 324 325 325 325 324 324 323 323 324 322 322
332 333 334 333 333 332 331 331 332 332 332 332 333 332 330 330 329 329 329 330 330 329 326 327 329 330 330 329 328 328 328 328 328 329 329 329 330 329 328 328 328 328 328 327 326 326 326 325 325 323 322 323 325 325 325 324 324 323 323 322 321 319 316
333 333 334 333 333 333 332 331 331 330 330 331 333 332 330 329 328 327 329 330 330 329 327 327 329 330 330 329 328 329 329 329 329 328 328 329 330 329 328 327 327 327 327 326 326 326 326 326 325 324 322 323 325 324 324 324 323 323 323 322 320 317 315
333 334 334 334 334 334 332 331 331 330 328 329 332 333 331 329 327 327 329 331 331 330 328 327 329 329 329 329 328 329 330 330 329 328 328 329 329 329 328 327 327 327 327 326 326 326 326 326 326 325 323 323 325 324 324 324 324 323 322 322 320 317 314
333 333 333 333 333 334 332 330 330 331 330 328 330 332 332 329 326 327 330 331 331 330 328 329 329 329 329 328 328 329 330 330 329 328 328 329 329 328 328 327 327 326 326 327 327 326 326 326 326 326 324 323 324 324 324 324 324 323 323 322 320 316 313
334 333 332 332 332 333 332 329 328 330 331 330 328 330 331 329 326 328 330 331 331 330 329 330 330 329 328 328 328 329 329 330 329 329 329 328 328 328 328 328 327 327 327 327 327 326 326 326 326 327 326 325 323 323 324 324 324 323 323 322 320 316 312
333 331 331 331 331 332 332 330 328 329 330 330 329 330 331 329 327 328 330 329 330 330 330 330 329 329 329 328 329 329 329 329 328 328 328 328 327 327 327 327 327 327 327 327 327 326 326 326 326 326 327 326 324 323 323 323 324 323 323 322 320 316 312
330 330 331 332 331 332 333 331 329 329 330 330 330 330 330 329 328 329 329 327 328 330 330 330 330 330 330 329 329 329 329 328 328 327 327 327 327 326 327 327 327 327 327 327 327 327 327 327 327 326 327 327 325 324 324 324 323 321 321 322 319 314 312
330 330 331 332 331 331 332 330 328 329 330 329 328 329 329 328 328 329 329 327 327 330 330 330 330 330 329 329 329 329 328 328 328 327 327 327 327 326 326 326 326 327 327 327 327 327 327 327 327 327 327 327 326 325 324 324 322 320 320 320 317 313 311
330 328 329 331 331 331 330 329 328 330 330 329 327 327 327 327 328 330 329 326 325 329 330 329 329 329 329 329 329 328 328 328 328 328 328 327 326 326 326 326 326 327 327 327 327 327 327 326 326 327 327 327 326 326 325 324 322 320 319 317 315 313 311
331 329 329 330 330 330 329 328 329 330 329 328 327 326 325 327 329 330 328 325 326 329 330 328 328 328 328 329 328 328 328 327 328 327 327 326 326 326 326 326 327 327 326 326 326 326 326 326 326 327 327 327 327 326 326 324 322 320 318 316 314 313 312
330 330 330 330 329 329 328 328 330 330 328 326 326 325 325 327 330 329 328 327 327 329 329 328 328 328 328 328 328 327 327 326 326 326 325 326 326 325 326 326 326 327 326 325 326 326 326 326 326 326 327 327 327 327 326 324 322 320 318 316 314 313 312
329 329 329 329 329 329 328 328 329 329 327 325 325 325 325 328 329 327 327 328 328 328 328 328 328 328 327 327 326 326 326 325 325 324 324 325 325 325 325 325 325 326 326 325 326 326 326 326 326 326 326 327 327 326 326 324 322 320 318 316 315 314 313
329 329 328 328 329 329 328 328 328 327 326 325 325 325 325 327 327 325 326 328 326 326 327 327 327 327 327 326 325 326 326 325 325 324 324 325 325 325 325 325 325 325 325 325 325 326 326 326 326 326 326 325 325 326 325 324 323 320 319 319 318 317 314
329 329 329 328 328 329 329 329 328 326 325 325 326 326 326 327 326 325 326 326 325 326 326 326 325 325 326 326 326 326 327 326 326 324 323 323 324 324 324 324 325 326 325 325 325 325 326 326 326 327 326 325 324 325 324 323 322 322 322 322 321 319 316
328 328 328 328 329 329 329 329 328 327 326 326 327 327 327 326 325 325 326 326 326 326 326 324 324 324 325 326 326 325 326 326 325 323 321 322 323 323 323 322 323 325 325 326 325 326 325 325 326 326 326 326 325 325 325 323 322 323 323 322 320 318 316
327 327 327 328 328 329 329 329 328 328 326 325 327 328 326 324 325 326 326 326 326 326 325 324 324 324 325 325 324 324 324 324 324 322 322 322 322 322 323 322 321 321 324 326 326 326 326 326 326 325 325 326 325 325 325 323 323 323 321 318 316 316 315
326 327 327 327 327 329 329 329 329 328 327 326 327 327 325 323 325 326 326 326 326 325 324 324 323 324 324 324 324 323 323 323 323 322 322 321 321 322 322 321 319 319 323 326 326 326 326 326 326 326 325 325 325 324 324 323 323 322 320 317 316 314 313
325 326 326 326 327 328 329 329 328 327 326 325 326 325 324 324 325 325 325 325 325 324 324 323 323 323 323 323 322 322 322 322 322 322 321 321 321 321 320 319 319 321 324 326 326 326 326 326 326 325 325 325 324 323 323 323 322 321 321 320 318 316 314
325 325 325 325 326 328 329 328 327 327 326 324 324 324 325 325 325 324 324 324 323 323 323 323 323 323 323 323 322 321 320 320 321 321 321 321 321 320 319 319 320 323 325 325 325 326 326 326 325 325 325 324 323 323 322 322 321 321 320 321 320 319 317
325 325 325 325 326 327 328 327 327 327 325 324 324 325 325 325 325 324 324 324 323 323 322 323 323 323 323 323 322 321 320 321 321 321 321 321 320 319 319 318 320 322 324 325 325 326 326 325 325 325 324 323 322 322 321 321 320 319 319 319 320 320 318
325 324 325 325 325 326 328 327 326 326 324 324 324 325 325 325 325 324 323 323 323 322 322 323 323 321 321 322 322 322 321 321 321 321 321 320 320 320 320 318 318 321 324 325 325 325 324 324 324 324 323 322 321 321 320 319 318 317 317 318 318 318 316
324 324 324 324 324 325 326 325 324 324 324 323 323 324 325 325 324 323 323 323 323 322 322 322 322 321 320 320 321 322 322 322 321 321 320 320 320 320 320 318 317 320 324 325 324 323 323 323 323 323 322 321 321 320 319 318 318 317 317 317 317 317 316
323 324 324 324 324 324 323 323 323 323 323 323 323 324 324 323 323 323 322 322 322 322 321 321 320 320 320 319 319 320 320 321 321 321 320 320 320 320 320 319 318 319 323 324 323 321 321 322 321 321 320 320 320 319 318 318 318 318 318 318 318 318 318
322 322 323 323 323 324 323 323 322 321 321 322 322 323 322 321 321 323 322 321 322 321 320 319 318 318 318 317 317 318 318 318 319 320 320 319 320 320 320 319 319 318 320 322 323 322 321 320 320 320 320 320 319 319 319 319 318 319 319 319 319 318 318
321 321 321 320 320 322 322 321 320 320 321 321 321 321 321 320 320 321 319 318 318 317 316 316 316 316 315 315 316 318 318 317 317 319 320 319 319 320 320 319 319 318 318 319 322 322 320 319 318 318 319 319 318 318 318 318 318 318 318 318 318 317 317
319 319 320 319 319 320 319 319 319 320 320 320 320 320 320 320 319 318 316 315 315 315 313 312 312 314 316 316 317 317 317 317 317 319 320 319 319 320 320 319 318 318 318 317 318 319 319 318 317 316 317 318 318 318 318 318 318 317 317 317 317 317 317
317 318 319 319 319 318 318 318 319 320 319 319 320 319 319 319 319 318 316 315 315 314 313 310 310 312 313 315 317 318 318 318 318 319 319 319 319 319 319 319 318 318 318 318 318 318 318 318 318 317 317 318 319 319 319 319 318 318 318 318 318 318 318
318 318 319 320 319 318 318 318 318 319 319 319 319 319 318 318 319 317 316 315 315 313 312 312 312 312 312 313 315 317 318 318 318 319 319 320 320 320 319 319 319 319 319 319 319 319 318 319 319 319 319 319 319 319 319 318 318 318 318 317 317 317 316
316 315 316 317 318 317 317 317 317 318 318 317 316 317 317 317 317 316 315 314 314 313 313 314 315 316 316 315 316 317 317 317 318 318 319 319 319 319 319 319 319 319 319 319 319 319 319 319 319 319 319 319 318 318 318 317 317 317 317 316 315 314 313
315 314 313 314 315 314 314 314 315 316 316 314 313 313 314 315 315 315 314 313 313 314 314 315 316 317 318 318 318 318 318 318 318 318 318 319 319 319 319 319 319 319 319 319 319 318 318 318 318 318 317 317 317 316 315 315 314 314 312 311 310 308 306
312 313 313 313 313 311 310 309 311 313 313 311 311 311 312 313 314 313 312 313 314 314 314 315 316 316 317 317 317 317 317 318 318 318 319 319 319 319 318 318 317 317 317 316 316 316 316 315 315 314 312 311 310 309 307 306 306 305 304 303 302 302 301
309 310 311 312 312 311 308 306 306 308 309 308 308 308 308 309 310 310 310 311 311 310 311 312 313 313 313 314 313 314 315 316 317 317 317 317 317 317 316 315 315 314 313 313 312 312 311 309 307 305 304 303 302 301 301 300 300 301 300 300 301 301 301

ECMWFFLT1_850_thetae_072.txt.gz
Theta_e
332 333 335 335 335 335 334 333 332 332 333 332 332 332 332 332 332 331 331 330 331 331 330 330 330 329 329 328 328 329 329 329 330 330 329 329 328 328 329 329 328 327 326 326 326 324 324 324 324 324 325 325 325 324 324 324 324 324 325 325 324 323 322
333 333 334 334 334 334 334 333 332 333 333 333 332 332 332 333 332 331 330 330 331 331 330 329 329 329 329 329 328 328 328 330 330 330 329 328 327 327 328 329 329 327 326 327 327 325 323 323 324 324 324 325 324 324 324 324 324 325 325 325 325 324 322
333 333 333 333 333 333 334 333 333 334 334 333 333 332 333 332 332 331 331 331 331 330 330 329 330 330 329 329 328 328 329 330 330 330 329 328 328 328 329 329 328 328 327 326 327 326 324 323 323 324 324 324 324 323 323 324 324 325 325 325 325 325 323
333 333 333 333 333 333 334 333 333 334 333 332 332 331 332 332 331 331 331 331 331 330 329 329 331 330 329 328 328 328 329 330 329 329 328 328 328 329 329 329 328 328 327 326 327 327 326 325 323 323 323 323 323 323 323 324 325 325 325 325 325 325 324
333 333 333 333 333 332 333 334 334 333 332 332 332 331 331 331 331 332 331 330 331 330 329 330 331 330 328 329 329 329 329 329 329 329 328 328 329 329 329 329 329 328 327 327 327 327 326 326 324 323 323 323 323 323 323 324 325 325 325 325 325 325 324
333 333 333 333 333 332 333 334 333 333 332 332 332 331 331 331 332 331 330 330 330 330 330 331 331 329 329 329 330 329 330 329 329 329 328 328 328 329 329 329 329 328 328 327 328 327 326 326 325 324 323 323 322 323 324 324 325 324 325 324 324 325 323
332 332 331 332 332 332 332 332 331 331 331 331 332 331 331 331 331 331 330 330 331 330 329 330 330 329 329 329 330 330 330 329 329 328 328 328 329 329 329 330 329 328 327 327 328 327 326 326 326 325 324 322 322 323 324 324 324 324 324 323 323 323 321
330 331 331 331 331 331 330 329 328 328 330 331 332 332 332 331 331 331 330 329 330 329 328 329 329 329 328 328 328 329 329 328 328 328 328 328 329 329 329 329 328 327 327 327 327 327 326 326 326 326 325 323 322 324 325 324 324 323 323 322 322 321 318
329 330 330 330 331 330 328 327 327 329 329 329 330 331 331 331 331 331 330 328 328 329 328 329 329 329 329 328 328 328 329 328 329 328 328 329 329 328 329 329 327 326 326 327 327 326 326 326 326 327 326 324 323 323 324 324 323 323 323 322 322 320 317
329 329 328 329 331 330 328 325 326 328 327 326 328 330 331 331 331 331 331 329 327 327 327 329 330 329 329 329 329 329 328 328 329 329 329 329 328 328 328 328 327 326 326 326 327 326 326 326 326 326 326 326 324 323 323 323 323 322 323 323 322 320 317
329 329 328 329 331 330 328 326 324 324 326 326 328 330 330 331 331 331 331 329 326 325 327 329 330 330 328 327 328 329 328 328 329 330 329 328 328 328 328 327 327 327 327 326 326 327 327 327 326 326 326 326 326 324 323 323 322 322 323 323 323 321 317
327 328 328 329 330 330 329 327 325 324 326 328 329 330 330 330 331 331 331 329 326 325 326 329 330 329 327 325 327 329 328 328 329 330 329 329 328 328 328 327 327 326 327 326 327 327 327 327 326 326 326 326 326 326 324 323 323 323 323 322 322 322 317
328 328 328 329 330 330 330 329 327 325 326 329 329 329 329 330 331 331 330 329 326 326 327 329 329 328 326 325 327 329 329 329 329 329 329 329 328 328 327 327 326 326 327 327 327 327 327 327 327 327 326 326 326 326 325 324 323 323 323 321 321 322 317
329 329 329 329 330 331 330 330 329 328 328 329 329 328 329 330 330 330 330 328 327 327 328 329 328 327 326 325 327 329 329 329 329 329 329 328 327 327 327 326 326 326 327 327 327 327 327 327 327 327 326 326 327 326 326 325 324 324 324 321 320 320 315
329 329 329 329 330 330 330 330 330 330 330 329 328 328 329 329 329 329 328 327 326 327 328 329 328 327 326 326 328 329 328 329 329 328 328 327 326 326 326 326 326 326 326 326 327 327 326 327 327 327 327 326 326 326 326 326 325 325 324 321 318 316 312
330 329 329 329 329 330 330 330 330 330 330 329 328 327 328 328 328 328 327 326 326 327 327 328 329 328 327 327 328 329 329 329 329 328 327 327 326 327 327 326 325 325 326 326 327 326 326 326 326 326 326 326 326 326 326 326 325 325 324 321 318 315 312
330 330 330 330 329 329 329 330 329 329 330 329 328 327 328 327 326 326 325 325 327 328 326 327 329 328 326 327 328 329 329 328 328 327 327 327 326 326 326 326 325 325 326 326 326 326 325 325 325 326 326 326 326 326 326 326 325 325 324 322 319 316 314
329 329 330 330 329 328 328 328 328 328 328 329 328 328 328 327 326 324 324 325 327 327 325 326 328 327 326 327 328 328 328 327 327 326 326 326 326 326 326 326 326 326 325 326 326 325 325 325 325 326 326 325 325 326 326 326 326 325 323 322 319 317 315
328 328 329 329 329 329 328 328 328 327 327 327 328 329 328 327 325 323 324 326 327 326 324 325 327 326 326 327 328 328 327 327 326 326 325 325 324 325 326 325 325 325 325 325 325 325 325 325 325 325 326 325 325 326 326 326 326 324 323 321 319 318 318
327 327 328 328 328 329 328 328 328 328 327 327 328 329 328 327 325 323 324 326 325 324 324 325 325 325 327 328 328 327 327 327 326 325 324 324 324 325 326 326 326 326 325 325 325 325 325 325 325 326 326 326 326 325 325 325 325 325 323 321 320 320 321
324 325 326 326 327 328 328 328 328 328 328 327 328 329 328 326 324 323 325 327 325 324 324 324 324 326 327 328 327 327 326 327 326 325 324 324 325 325 325 325 324 324 325 326 326 325 325 325 325 326 326 326 326 325 325 324 325 325 322 321 320 321 322
322 323 324 325 325 326 327 327 327 327 327 327 328 328 328 326 324 324 326 326 325 324 323 323 324 327 327 326 327 327 327 327 327 325 324 323 323 324 324 323 322 321 322 325 326 325 325 325 325 325 325 325 325 326 325 325 325 325 323 321 321 323 322
322 322 323 324 324 325 325 326 326 327 327 328 328 328 327 326 325 325 325 325 324 323 322 323 326 326 324 325 326 327 326 326 326 324 322 322 322 323 323 323 322 320 319 322 325 325 325 326 325 325 325 325 325 325 326 325 325 325 324 320 319 321 320
322 322 322 323 323 324 324 324 325 326 327 328 328 328 327 325 325 326 326 324 323 322 322 325 326 324 323 324 326 325 324 325 325 323 321 322 321 322 322 322 320 319 318 320 323 325 325 325 325 325 325 324 324 325 325 325 324 325 325 321 319 320 319
321 321 321 322 323 323 324 324 324 326 327 327 328 328 326 325 325 326 325 324 323 323 325 326 324 322 323 325 325 324 323 324 323 322 322 321 321 321 321 319 318 318 320 322 324 325 324 325 325 325 325 324 324 324 324 324 324 324 325 323 321 320 320
321 321 321 322 323 324 324 325 325 326 327 327 327 327 327 326 325 325 324 324 325 325 325 325 323 323 324 324 323 323 322 322 322 322 321 321 321 321 319 318 317 319 321 324 325 324 324 324 324 324 324 324 324 323 322 322 323 323 324 322 320 319 319
320 321 322 322 322 323 324 324 325 326 326 326 327 327 328 327 325 324 325 326 325 324 324 324 324 323 323 323 323 322 321 321 321 321 321 321 321 320 319 319 317 317 321 324 324 324 324 324 324 324 323 323 323 322 321 321 321 320 320 319 317 317 317
319 321 321 322 322 323 323 324 324 324 324 325 326 326 328 327 325 326 326 324 322 322 324 325 324 323 323 322 322 322 321 321 321 321 321 321 321 320 319 319 318 317 320 323 324 323 323 323 323 324 324 323 322 321 320 319 319 318 317 317 317 317 317
317 319 320 321 322 322 322 322 323 322 323 325 324 323 325 325 324 325 324 323 322 323 323 324 324 323 322 321 321 322 322 321 321 321 321 321 320 320 320 320 318 317 319 322 323 322 322 322 322 323 323 321 320 320 319 318 318 318 318 317 317 317 317
315 317 318 319 320 320 320 320 320 320 323 325 324 323 324 324 322 323 323 323 323 322 322 323 322 321 321 320 320 320 321 321 321 321 321 320 320 320 320 320 319 318 318 321 322 321 320 320 321 321 320 319 319 319 318 318 318 318 318 318 318 318 318
314 316 317 317 317 316 316 316 316 319 322 323 322 322 321 321 320 320 321 322 322 321 321 321 321 320 320 319 319 319 319 320 320 320 320 320 319 319 320 320 319 318 318 319 321 322 320 319 319 319 318 318 319 318 318 318 317 317 318 318 317 318 317
314 315 316 316 314 313 313 313 314 317 319 319 318 318 317 318 318 317 318 319 319 319 320 319 319 318 318 317 317 317 318 319 318 318 319 320 320 319 320 320 319 318 317 318 319 320 319 318 318 318 317 317 318 318 318 317 317 317 317 318 318 317 317
315 315 315 315 315 315 315 315 315 316 317 317 316 316 316 317 318 316 316 316 316 316 317 317 317 316 316 316 316 316 317 318 317 317 318 319 320 320 320 320 318 317 317 317 317 318 318 317 317 317 317 317 318 318 318 318 318 318 318 318 318 317 317
314 314 314 314 315 316 317 317 317 317 317 317 316 316 316 317 317 316 315 314 314 314 313 313 313 313 313 314 315 316 317 318 318 318 318 319 319 320 319 319 317 317 317 317 317 317 318 318 318 317 317 317 317 317 317 316 316 316 315 315 314 314 313
312 313 313 312 313 314 315 316 317 317 317 317 316 315 316 316 316 316 315 315 314 313 312 312 311 311 311 312 314 315 317 318 318 318 318 319 319 319 318 317 317 317 317 317 318 318 317 317 317 316 316 315 315 314 313 312 311 311 310 309 308 308 307
309 310 310 310 310 311 312 313 313 314 314 315 315 315 315 315 315 315 314 314 314 314 313 313 313 313 313 314 316 317 317 318 318 318 318 319 318 318 318 318 318 318 317 317 317 316 316 316 315 314 312 311 310 309 308 306 306 305 304 304 303 303 303
307 308 308 307 308 308 308 309 309 308 309 310 311 311 311 312 312 312 311 313 314 316 316 316 316 317 317 317 317 317 317 317 317 317 317 317 317 317 318 317 317 316 315 315 315 314 313 312 311 309 307 306 304 303 302 302 302 302 302 301 301 301 301

ECMWFFLT1_850_thetae_075.txt.gz
Theta_e
333 332 332 333 333 333 332 331 332 332 333 334 333 333 333 332 331 331 332 331 331 331 331 332 332 332 330 330 330 330 330 330 330 330 330 330 330 330 329 329 328 328 326 326 326 327 327 327 326 326 326 326 326 327 327 325 325 325 324 325 324 323 322
332 332 332 332 332 331 331 331 331 331 332 333 333 332 332 331 330 330 330 331 331 330 331 332 332 332 331 330 331 331 330 329 330 330 330 330 330 330 329 328 328 328 327 326 326 326 326 326 326 326 326 326 326 327 326 325 325 324 324 325 324 323 322
332 333 333 332 332 332 331 332 332 331 331 332 332 332 332 331 331 329 330 330 330 330 330 331 332 332 331 332 332 331 330 329 329 329 329 330 330 330 329 328 328 329 328 327 326 326 326 326 326 326 326 326 326 326 325 324 324 324 325 325 325 324 323
332 333 333 332 333 332 331 331 331 331 331 330 331 331 331 332 331 330 330 330 330 330 329 330 331 331 331 332 331 330 330 329 329 328 329 330 330 329 329 328 328 329 329 328 326 326 326 326 326 326 326 326 326 325 325 325 324 325 325 325 325 325 323
332 332 332 331 331 329 328 329 329 329 330 331 330 328 329 331 332 332 331 331 330 329 329 330 331 331 332 332 330 330 330 330 329 328 329 330 330 329 328 329 329 329 329 328 327 327 327 327 326 326 326 326 326 325 325 324 324 325 325 325 325 325 324
332 332 332 331 330 327 325 326 327 329 331 331 330 328 327 327 329 331 332 332 331 330 329 329 330 331 331 331 331 330 329 329 329 329 329 330 330 329 328 328 329 329 329 328 327 327 328 327 327 326 326 325 325 325 325 323 324 325 325 325 325 324 325
331 331 331 331 330 328 327 327 328 330 330 330 329 328 326 326 327 328 330 331 331 331 330 330 330 330 329 329 330 329 327 328 329 329 329 330 330 329 328 329 329 329 329 328 327 328 328 327 326 326 326 326 325 324 324 324 324 325 325 325 324 324 325
331 330 330 330 329 328 328 328 329 329 328 329 330 329 328 328 327 327 329 330 331 331 330 330 329 329 328 329 330 328 327 328 329 328 329 329 329 329 329 329 329 329 329 328 328 328 328 327 326 327 326 326 325 324 324 324 325 325 325 325 324 324 325
330 330 330 330 329 329 328 328 328 329 329 330 330 329 328 327 327 327 328 329 330 330 330 330 330 329 327 328 329 328 326 326 327 328 328 329 329 330 329 329 329 330 329 328 328 328 328 327 327 327 326 326 325 324 324 324 325 325 324 325 324 323 324
329 329 329 330 330 329 328 328 328 329 329 329 328 327 327 326 326 328 328 328 329 329 330 330 331 330 327 326 328 329 327 326 326 328 329 329 329 330 330 329 330 330 329 328 327 327 328 327 326 326 326 326 326 325 324 324 325 325 325 325 323 322 322
328 328 328 329 330 329 328 328 329 329 328 327 327 328 328 328 327 328 328 328 328 329 330 330 331 331 328 326 327 328 327 326 325 326 328 329 329 330 330 329 329 330 329 328 327 327 327 327 326 326 326 326 326 326 325 325 325 325 324 324 323 323 321
329 328 328 328 328 328 328 328 329 329 328 327 328 330 330 329 329 329 328 328 327 328 329 329 330 331 329 328 328 328 327 326 325 325 326 328 330 330 329 328 329 329 328 327 327 327 327 327 327 326 326 326 326 326 326 325 325 324 323 323 323 323 322
329 328 328 328 328 329 328 328 328 328 329 328 329 330 331 330 330 329 328 328 328 329 329 329 329 329 328 328 328 328 328 326 325 326 327 327 329 329 328 329 329 328 328 327 327 326 326 327 327 327 326 326 326 326 326 325 325 324 323 322 322 323 323
329 329 328 328 329 329 328 327 327 328 329 329 329 330 330 330 329 328 328 329 329 330 330 329 328 327 327 327 328 328 328 327 326 326 327 327 328 329 329 329 329 328 327 327 327 326 326 327 327 326 326 326 326 326 326 325 325 325 323 323 322 322 323
328 329 329 329 329 329 328 329 329 329 330 330 330 329 329 329 329 328 328 329 329 330 330 329 327 326 326 328 328 328 328 327 326 326 326 327 328 329 329 329 328 327 327 327 327 326 326 327 327 326 326 326 326 326 326 325 326 325 324 324 322 321 322
326 327 329 329 329 328 328 329 329 330 330 330 330 330 329 329 328 327 328 329 329 329 329 328 326 325 327 328 328 328 327 326 326 326 326 326 326 328 329 329 328 327 326 326 326 326 327 327 327 327 327 326 326 326 326 326 326 325 324 324 322 320 321
324 325 326 328 329 329 329 329 329 329 330 330 330 330 330 330 328 328 328 329 328 329 328 327 326 326 328 328 327 327 327 326 327 327 326 325 326 328 329 328 327 327 326 326 326 326 327 327 326 326 326 326 326 326 326 326 326 325 325 325 323 320 318
323 324 325 327 327 327 328 328 328 328 329 329 330 329 330 330 329 328 328 328 328 328 327 326 327 327 327 327 327 326 327 328 328 327 324 325 328 329 328 327 326 326 326 326 326 326 326 327 327 326 326 326 326 325 326 326 326 326 325 325 324 321 318
322 324 325 326 326 326 327 327 328 328 328 329 329 329 329 329 329 328 328 328 328 327 326 326 327 327 326 326 326 326 327 328 328 326 323 324 327 328 328 327 327 326 326 326 326 326 326 326 327 326 325 325 325 325 325 325 326 326 325 325 324 322 319
322 323 324 324 325 326 326 327 328 328 328 328 328 329 329 329 329 328 328 328 327 326 325 325 327 327 326 326 326 327 327 328 327 325 323 324 327 328 328 327 327 326 326 326 326 326 326 326 326 325 324 325 325 325 325 325 326 327 325 324 325 323 320
320 321 323 323 324 325 325 326 327 327 328 328 328 328 328 328 328 328 328 329 327 325 324 325 328 327 326 327 327 327 327 328 328 326 324 325 327 327 327 327 326 326 325 325 325 325 326 326 325 325 325 325 325 325 326 326 326 326 325 324 324 323 320
319 320 321 322 323 324 324 325 325 326 327 327 328 328 328 328 328 328 329 329 328 326 325 326 327 326 326 327 327 327 327 328 328 326 325 326 326 326 326 326 326 326 325 325 325 325 325 325 324 324 324 325 326 326 326 326 326 326 325 324 323 323 321
319 320 321 322 322 322 323 324 324 325 325 326 327 327 327 328 328 328 329 329 327 326 326 327 327 326 326 326 326 326 326 327 327 326 326 327 326 325 325 325 325 324 324 324 325 325 325 325 325 324 324 324 326 326 326 326 325 325 325 325 324 322 321
318 319 320 321 321 322 323 323 324 324 324 324 325 326 326 327 327 328 329 329 327 325 325 326 327 326 325 325 325 325 325 326 325 325 326 326 325 325 325 324 323 322 321 321 322 323 324 325 325 324 324 324 325 326 326 326 326 325 325 325 324 322 321
317 317 318 319 320 321 322 322 323 323 323 323 323 324 325 326 327 327 328 328 327 325 326 327 327 326 325 325 325 324 324 325 325 325 325 325 324 324 324 323 322 321 320 319 318 320 323 325 324 324 324 324 325 326 326 325 326 326 325 325 325 323 320
316 317 318 318 319 320 320 321 322 322 323 323 323 324 325 326 326 327 328 328 326 326 327 327 326 325 325 325 324 324 325 325 326 325 324 323 323 323 322 322 321 319 318 318 318 320 323 325 325 324 324 325 325 325 325 324 324 325 325 325 325 324 320
317 317 317 317 319 319 319 320 321 321 322 323 323 324 325 325 326 326 327 327 327 327 328 327 325 325 325 324 324 324 325 324 325 325 323 322 321 321 321 320 318 317 316 318 321 323 324 325 324 324 324 325 325 324 324 324 323 323 324 324 324 323 321
316 317 316 316 317 318 318 318 319 320 321 322 322 323 324 325 325 325 326 327 328 328 327 326 325 325 324 323 323 324 324 324 324 324 322 321 321 321 321 319 318 317 316 318 322 324 324 324 324 324 324 324 324 324 324 323 322 322 323 323 323 322 321
315 316 315 315 315 316 316 316 316 317 318 319 319 320 321 322 322 324 325 326 327 327 326 326 325 324 323 323 324 324 323 323 323 322 322 322 321 321 320 319 318 318 316 318 322 324 324 324 323 323 324 324 324 323 322 321 320 319 319 320 320 319 318
313 314 314 314 313 314 313 313 313 314 315 316 316 317 318 318 319 321 324 326 326 326 326 325 324 323 323 323 323 323 322 322 321 321 322 321 321 321 320 319 319 319 317 318 321 323 322 322 322 323 323 323 322 321 320 318 318 317 317 317 317 316 316
312 312 313 313 312 312 312 312 311 312 313 313 314 314 316 318 318 319 322 324 323 323 324 324 323 323 323 323 322 322 322 321 321 321 321 321 321 320 320 319 319 319 318 318 320 322 322 321 321 321 321 320 318 318 318 317 317 317 317 317 317 316 316
310 310 311 311 311 311 311 310 310 311 312 312 313 314 316 319 318 318 319 321 320 321 322 323 323 323 322 322 321 321 321 321 321 321 321 321 321 320 320 320 319 319 318 318 319 321 321 320 319 319 319 317 317 317 318 318 317 317 317 317 317 317 317
309 309 309 309 309 310 310 310 310 311 312 312 312 313 315 317 317 317 318 318 318 319 320 320 321 321 321 320 320 320 320 320 320 320 320 320 320 320 320 320 319 319 318 318 319 321 321 320 318 318 317 317 318 318 318 317 317 317 317 318 317 317 317
308 308 308 308 308 309 309 310 310 311 312 313 313 313 314 314 315 316 316 316 317 317 317 318 319 319 319 319 319 318 319 319 319 319 319 319 319 319 320 320 319 318 318 318 319 320 319 318 317 317 317 317 318 318 317 317 318 317 317 317 316 316 315
306 306 306 306 307 307 307 308 309 310 311 312 313 313 314 314 314 314 314 315 315 315 316 316 317 318 318 318 318 318 318 318 318 318 317 317 318 319 320 320 319 317 317 317 318 318 317 317 317 317 317 317 318 317 317 317 317 316 315 314 313 312 312
305 304 304 305 305 305 305 306 307 308 309 310 311 312 313 313 314 314 314 314 314 313 314 314 315 316 317 317 317 317 318 318 318 318 318 317 318 318 318 318 317 316 316 316 317 316 316 316 316 316 316 317 316 316 315 314 313 312 311 309 308 307 306
304 304 303 304 304 304 304 304 304 305 306 307 309 310 310 311 311 312 312 312 313 313 313 313 314 315 316 316 317 317 317 317 317 317 317 317 317 317 317 316 315 314 314 316 316 316 315 314 313 313 313 313 312 311 310 308 307 306 305 304 303 303 302

ECMWFFLT1_850_thetae_078.txt.gz
Theta_e
333 334 334 333 332 332 332 331 331 330 329 328 328 329 331 332 331 331 331 331 331 331 331 330 330 331 330 330 330 330 330 330 330 331 332 332 332 332 332 332 331 329 329 330 330 330 330 330 329 328 329 329 328 328 328 327 328 328 326 326 326 325 326
333 333 333 332 331 331 331 331 330 330 329 327 327 327 329 331 331 329 329 330 331 331 331 330 330 330 330 330 329 329 329 330 330 329 330 332 332 332 333 331 330 330 330 330 330 330 330 330 330 329 328 329 328 328 328 328 328 327 325 326 326 324 324
333 332 332 332 331 331 330 331 330 329 329 327 326 327 328 329 330 330 329 330 330 330 331 332 331 330 330 329 329 330 330 330 331 330 329 331 331 332 332 332 331 331 331 331 331 330 330 330 329 329 329 329 328 328 328 328 327 326 325 327 327 325 325
333 333 333 333 332 331 331 331 328 327 327 326 326 327 326 326 327 328 328 329 329 328 329 330 331 330 330 329 329 330 331 331 331 330 329 330 331 331 331 332 332 331 331 332 332 331 330 330 329 329 329 329 328 328 328 328 327 326 326 327 327 326 326
332 332 333 333 332 332 332 331 327 325 325 325 326 327 327 326 325 325 326 327 328 328 329 330 330 329 329 329 329 329 330 330 330 330 329 329 331 330 330 331 331 331 331 331 331 330 330 330 330 330 329 328 328 328 328 328 328 328 327 327 327 327 327
333 332 332 333 332 332 332 331 328 325 324 325 327 328 328 326 326 325 325 325 326 327 329 330 331 329 328 328 329 329 329 330 329 330 329 329 331 330 330 331 331 331 331 331 330 330 330 330 330 329 329 328 328 328 328 328 327 327 328 328 327 327 327
333 333 333 332 332 331 331 331 330 328 327 326 327 329 328 327 326 325 325 325 326 326 327 329 330 331 328 327 328 329 328 329 329 329 329 329 331 331 330 332 332 331 331 330 330 330 330 330 330 329 329 328 328 328 327 327 327 327 327 327 327 327 327
331 332 333 333 332 332 332 331 331 330 329 328 328 328 328 327 326 325 325 325 325 326 327 328 329 331 330 327 328 329 328 329 329 330 330 330 330 330 330 331 331 331 331 330 330 331 330 330 330 330 329 328 328 328 327 327 327 327 327 327 327 327 326
330 330 331 332 332 332 332 332 331 331 330 331 330 328 327 327 326 326 325 325 325 326 328 329 329 331 331 329 329 330 330 329 330 330 329 329 330 329 330 330 330 330 331 330 330 330 329 330 330 330 329 328 327 327 327 327 327 327 327 327 327 326 325
329 329 330 330 331 331 331 332 332 332 331 331 330 329 327 327 327 326 326 326 325 326 328 329 330 331 331 331 330 330 330 330 330 330 328 329 330 330 331 330 329 329 329 330 331 330 330 330 330 329 329 329 328 327 327 327 327 328 327 327 327 326 325
328 329 329 329 329 330 330 331 331 332 332 331 331 330 328 326 326 325 325 326 326 327 327 328 329 330 331 331 330 328 328 329 330 329 328 329 329 330 331 331 329 328 327 329 331 330 330 331 330 329 330 329 329 328 327 327 328 328 328 328 327 326 326
328 328 328 328 328 329 329 330 330 331 332 332 332 331 329 327 326 325 326 327 327 328 328 328 329 329 330 330 329 328 327 327 329 330 329 328 329 330 331 330 329 328 326 327 330 330 330 330 330 330 330 330 329 329 329 328 327 328 328 328 327 327 326
326 328 328 328 329 329 329 328 329 330 331 331 331 331 330 328 327 326 327 329 329 328 329 330 329 329 329 329 329 328 327 327 328 330 330 329 328 329 330 329 328 327 326 327 329 330 331 330 330 330 330 329 330 330 330 329 328 328 328 328 327 327 326
323 326 328 328 328 329 329 328 329 330 330 330 330 331 331 330 329 328 328 330 330 329 329 330 330 329 328 328 328 328 328 328 328 329 330 329 327 328 328 329 329 327 326 328 329 330 331 331 330 330 330 330 330 330 330 330 329 328 328 327 327 327 326
321 323 325 327 328 329 329 329 329 329 330 329 330 331 331 331 330 329 330 330 330 330 330 330 330 330 329 329 328 328 328 329 329 330 330 329 328 328 327 328 329 328 327 328 329 330 331 331 330 330 330 330 330 330 329 329 329 328 326 325 326 326 325
321 321 322 324 326 328 329 329 329 329 329 329 330 330 331 331 331 331 331 330 330 330 330 330 330 330 330 329 328 327 326 327 329 330 330 329 328 328 327 328 328 328 327 327 329 330 330 330 330 330 330 330 330 330 329 329 328 328 327 325 324 325 324
321 321 322 322 323 325 327 328 328 329 329 329 330 330 330 330 330 331 330 330 330 330 330 331 331 331 330 329 328 326 325 326 328 330 330 329 328 326 327 327 328 327 325 326 328 329 329 330 330 329 330 330 330 330 329 329 328 328 328 325 324 324 323
320 320 321 322 322 324 325 326 327 327 328 328 329 329 330 330 330 330 330 330 330 330 330 330 331 331 331 330 328 326 325 327 329 331 330 328 326 326 327 327 328 327 325 325 328 328 329 330 330 330 331 330 330 330 330 329 328 328 328 326 324 323 322
319 319 320 320 321 322 324 325 326 327 327 328 328 329 329 330 330 330 330 330 330 330 330 330 331 331 331 330 328 327 327 329 330 331 330 328 326 327 327 327 328 327 326 327 328 329 330 330 330 330 330 330 330 329 330 329 328 328 327 326 325 322 321
318 319 319 320 321 321 323 324 325 326 326 327 328 328 329 329 329 329 330 330 330 330 330 330 331 330 330 330 328 328 329 330 330 330 329 327 327 328 327 327 327 325 325 327 327 328 330 329 328 329 330 330 329 329 330 329 328 327 327 326 325 323 321
317 318 319 320 320 321 322 324 325 325 326 326 326 327 328 328 329 329 329 329 330 330 330 330 330 330 330 330 329 329 329 330 330 329 328 328 328 328 327 328 327 324 323 326 327 328 330 328 327 328 329 330 329 329 329 328 327 327 327 326 325 324 322
317 317 318 319 320 320 322 323 325 325 325 325 325 326 327 328 328 329 329 329 329 329 329 329 329 329 329 329 330 330 329 329 329 328 329 328 327 326 327 328 327 323 323 327 328 328 328 327 327 329 329 330 329 329 328 328 327 327 327 326 325 324 324
317 317 318 319 319 320 321 322 323 324 324 325 325 325 326 327 327 328 328 328 328 329 329 329 329 329 328 328 329 329 328 328 328 328 328 327 326 326 326 327 326 323 324 327 326 326 326 325 326 327 329 329 329 329 329 328 327 327 326 326 325 325 324
317 317 317 318 319 319 320 320 321 322 323 323 324 324 325 326 326 326 327 328 328 328 329 329 329 328 328 328 329 329 328 327 328 328 327 327 326 325 325 325 325 323 324 325 324 325 325 324 324 326 326 327 327 327 328 327 327 327 326 326 326 325 323
316 315 315 316 317 318 318 319 319 320 321 321 322 322 323 324 325 325 326 327 327 328 328 328 329 328 328 328 329 329 328 328 328 327 326 326 326 325 325 325 324 322 323 324 324 325 326 325 325 325 325 325 325 325 326 326 326 327 326 326 326 325 324
315 315 315 315 316 316 316 317 317 317 318 319 319 320 322 323 324 324 325 326 326 327 327 327 329 329 328 328 328 329 328 328 327 327 327 326 325 324 324 324 323 322 322 323 323 324 324 324 324 325 325 324 325 324 325 325 325 326 326 325 325 325 325
313 314 315 315 315 315 315 316 316 315 316 317 318 320 321 322 323 324 325 325 325 326 326 327 327 328 328 328 328 328 328 327 327 327 326 326 325 324 324 323 323 323 323 322 321 320 320 320 322 325 325 325 325 324 325 325 325 326 326 325 324 325 325
312 313 314 314 315 314 314 314 314 314 314 315 316 317 319 320 321 322 323 323 324 325 325 326 326 326 328 328 327 327 327 327 327 327 326 325 325 325 325 324 323 322 321 319 318 317 317 319 322 325 326 325 324 324 325 325 325 325 325 325 325 325 324
311 312 312 313 314 314 313 313 313 312 312 313 314 315 317 318 319 319 319 320 321 322 324 324 325 327 328 327 327 327 327 326 327 326 325 325 323 323 324 324 322 320 318 317 316 318 320 322 323 325 325 324 324 324 325 325 325 325 324 324 324 324 324
309 309 310 312 312 312 312 312 311 311 311 312 313 314 315 317 317 317 317 317 318 320 322 323 325 327 328 327 328 328 327 326 325 325 324 323 322 322 323 322 320 318 317 316 317 320 323 324 324 325 325 324 325 325 325 324 324 324 323 323 323 322 322
307 307 308 309 310 310 311 311 311 310 310 311 312 312 313 314 315 316 315 315 315 316 318 321 324 327 327 327 327 327 325 325 324 323 323 322 321 322 322 320 319 318 317 317 318 322 324 324 324 324 324 324 324 324 324 324 323 322 320 320 320 319 319
305 305 306 306 308 309 309 310 310 310 310 310 310 311 312 313 314 315 314 314 315 316 317 320 323 325 326 326 325 324 322 322 323 322 322 322 322 322 321 320 319 319 318 317 319 322 323 323 322 323 323 323 323 322 321 320 319 318 317 317 316 316 316
305 305 304 305 306 306 307 308 309 310 310 310 310 311 312 313 313 314 314 314 315 316 318 320 321 322 323 323 322 321 321 321 321 322 322 322 322 321 320 319 319 319 319 318 319 321 322 321 321 320 320 321 320 319 317 317 317 317 317 317 316 316 316
304 304 304 304 304 304 305 305 306 308 309 310 310 310 311 312 313 313 314 315 315 316 318 319 319 319 320 320 320 320 320 320 320 321 321 322 321 321 320 320 319 319 319 318 319 320 321 320 319 318 317 317 317 317 317 317 317 317 317 317 317 317 317
304 304 304 304 304 304 304 304 304 305 306 308 309 309 309 310 311 312 313 314 315 315 316 317 317 317 318 319 319 318 319 319 320 320 321 321 321 319 319 320 320 319 319 318 319 320 320 319 317 316 316 316 317 317 317 317 317 317 317 317 316 316 316
304 304 304 304 304 304 304 303 303 303 304 305 306 307 308 308 309 311 312 312 313 313 314 315 315 316 317 317 317 317 317 318 318 319 319 320 320 319 320 320 320 320 319 318 319 319 318 316 316 316 316 317 317 317 317 317 317 317 316 315 314 314 314
303 303 303 303 303 303 303 303 303 303 303 303 303 304 305 306 307 309 310 311 311 312 312 313 313 314 315 316 316 317 316 316 317 317 317 318 319 319 320 320 320 319 318 318 318 317 316 315 315 316 316 315 315 315 314 314 313 313 312 311 311 310 309

ECMWFFLT1_850_thetae_081.txt.gz
Theta_e
336 336 336 336 336 335 333 332 332 330 329 329 329 329 329 329 329 330 329 328 326 326 327 327 325 324 327 330 329 329 329 329 328 328 328 327 327 328 329 329 329 329 330 331 331 331 331 331 332 332 331 330 330 330 330 329 329 330 329 329 329 329 328
336 336 336 336 336 335 332 331 332 331 330 329 328 327 327 327 328 329 329 328 327 326 327 327 326 324 326 330 330 330 330 329 329 329 328 327 326 327 328 328 329 329 329 331 332 331 330 330 331 332 331 331 330 329 329 329 330 330 329 328 328 329 329
335 335 335 336 336 336 333 332 333 332 331 330 328 326 325 326 328 329 329 328 327 327 328 327 327 326 327 329 330 330 329 329 329 329 329 327 327 327 327 328 329 328 329 332 332 332 331 331 331 331 332 331 331 330 329 329 329 330 330 328 327 328 328
334 335 335 335 336 337 336 335 334 332 332 331 328 326 325 326 327 328 329 329 330 329 330 330 329 328 328 329 330 330 329 328 328 329 328 327 327 327 327 327 328 327 329 332 332 332 333 332 331 330 331 331 330 331 330 329 329 330 330 328 327 328 328
335 335 335 334 336 336 335 336 336 334 332 330 329 328 327 326 327 326 326 328 330 331 331 331 330 330 329 328 330 331 330 329 328 328 327 326 326 327 328 327 327 328 329 332 332 332 333 332 331 330 331 331 330 330 331 329 329 330 331 329 328 328 328
334 335 335 334 333 334 334 335 337 335 334 332 330 329 329 329 329 328 326 325 326 328 330 331 330 331 330 328 329 330 329 328 327 327 327 328 328 329 329 327 327 328 329 331 332 331 331 331 331 331 331 330 329 330 331 330 329 330 330 329 329 329 329
331 332 334 334 333 333 333 334 334 334 334 335 334 332 331 332 332 331 329 326 325 325 327 329 330 331 330 329 329 329 328 327 328 328 328 329 329 329 328 326 327 328 329 330 331 331 332 332 331 331 331 330 330 330 330 330 329 329 330 330 329 329 329
329 330 332 333 334 333 333 333 333 333 333 334 335 334 332 332 333 333 330 328 327 325 326 328 330 331 329 328 329 330 329 328 328 329 328 329 329 329 328 326 326 327 328 329 330 331 332 332 332 331 330 331 330 330 330 329 329 329 329 329 329 329 329
327 328 330 332 333 333 333 333 333 333 333 332 332 331 330 331 333 333 332 330 328 325 325 326 328 330 330 329 327 328 330 329 328 328 329 329 328 328 328 328 327 326 327 330 331 331 331 331 332 330 330 331 330 329 330 330 329 329 329 329 329 329 329
325 327 328 329 331 332 332 333 333 333 332 331 330 329 329 329 330 332 332 331 329 326 325 325 326 328 329 329 328 327 330 330 328 328 330 329 328 328 328 328 327 325 327 330 330 330 329 330 331 330 329 331 330 329 329 330 329 329 329 329 329 330 329
322 324 326 328 329 330 331 332 332 332 332 331 330 330 330 329 329 331 332 331 330 329 327 325 326 327 328 329 328 328 329 330 328 328 330 329 329 329 329 328 327 326 327 329 329 329 329 329 330 330 329 330 330 329 329 329 329 328 329 329 329 329 329
321 323 325 327 328 329 329 330 331 331 331 331 330 329 329 329 328 330 331 330 330 330 329 327 327 328 328 328 329 329 330 330 330 329 329 329 329 330 329 328 328 327 328 329 329 329 330 329 329 329 330 330 330 329 329 329 328 328 329 329 329 329 329
321 322 324 325 326 327 328 329 331 331 331 331 330 329 328 329 329 329 330 330 329 330 330 328 327 328 328 328 329 330 330 330 330 330 330 330 329 329 329 328 329 329 328 329 330 329 328 329 328 328 331 330 329 329 329 329 328 328 328 329 329 328 329
320 321 322 323 324 326 327 328 330 331 331 330 330 329 328 328 329 329 328 328 328 329 331 330 328 329 330 329 329 330 330 330 330 330 331 331 329 329 329 328 328 328 327 328 330 328 326 327 327 328 330 330 329 329 329 329 329 328 328 329 329 328 328
320 320 321 321 322 324 326 327 328 329 330 330 330 329 329 328 328 328 327 327 327 327 330 332 330 330 331 330 330 330 330 331 330 330 331 330 328 328 329 327 326 328 328 329 331 329 325 326 327 328 330 330 329 329 330 330 330 328 327 329 329 327 328
320 320 320 320 321 322 323 324 326 327 329 330 330 329 329 329 328 328 327 327 326 326 329 331 331 330 330 330 331 330 330 331 330 330 329 328 328 328 328 327 326 328 329 329 330 328 326 326 327 328 329 329 329 329 330 330 330 328 327 329 329 327 328
319 319 319 320 320 320 321 322 324 326 327 328 329 330 330 330 329 329 328 328 327 328 329 331 332 331 330 330 330 330 331 331 331 330 329 328 329 328 327 326 326 328 328 328 328 327 326 326 326 326 327 329 329 329 329 330 329 328 328 328 328 327 328
318 318 318 319 319 319 320 321 323 325 326 327 328 328 329 330 330 330 329 328 328 329 330 331 332 331 331 330 330 330 331 331 331 331 330 329 329 328 328 327 327 328 329 330 330 327 326 327 326 326 326 327 329 329 330 329 329 329 328 327 327 327 327
316 316 316 317 318 319 319 321 323 324 326 326 327 327 327 329 330 330 330 329 329 330 330 330 331 331 330 331 331 330 331 331 332 331 330 329 329 329 329 328 329 328 329 331 331 328 327 327 326 327 327 328 329 329 329 330 329 328 327 327 327 327 326
315 315 315 316 317 318 319 320 322 324 325 326 326 326 326 327 328 329 330 330 330 330 330 329 330 330 330 331 331 331 331 331 331 330 330 330 329 329 328 329 329 328 328 329 329 327 327 326 326 327 328 328 329 328 329 330 329 328 328 327 327 326 326
314 315 315 315 316 317 319 320 321 323 324 325 325 326 326 326 327 328 328 329 329 330 330 329 329 329 330 330 331 330 330 330 330 330 329 329 329 329 329 329 328 328 330 330 328 327 326 326 326 327 328 328 328 328 328 329 328 328 328 327 326 326 325
314 314 314 315 315 316 317 319 320 321 322 323 324 325 325 325 326 326 327 328 329 329 329 329 329 329 330 330 330 329 329 330 331 330 328 328 329 329 329 328 328 329 331 330 328 327 326 325 326 327 326 326 327 328 328 328 328 328 328 327 327 326 325
314 314 314 314 314 314 315 316 318 319 320 321 322 323 324 324 324 325 326 327 328 328 328 328 328 329 329 329 329 330 330 330 330 329 328 328 329 329 328 327 329 330 328 327 327 327 326 326 326 326 324 324 325 327 328 328 328 327 328 328 328 327 325
313 313 313 313 313 313 314 315 315 316 317 318 319 320 321 322 323 324 325 326 327 327 328 328 328 328 329 328 329 329 329 330 329 329 329 328 328 329 328 328 330 329 326 326 327 326 325 326 325 325 324 322 323 324 325 326 327 327 327 327 327 326 325
312 312 312 312 312 312 313 314 314 315 316 316 316 317 318 319 320 321 322 324 324 326 327 327 327 327 327 328 328 329 329 329 329 328 327 327 328 329 329 329 330 328 326 327 327 325 325 325 326 326 324 322 322 324 324 325 326 327 327 326 326 326 326
311 311 311 311 311 311 312 313 314 315 315 315 315 316 316 317 318 319 321 322 323 324 324 325 326 327 327 327 328 328 328 329 328 327 327 327 328 330 329 329 329 327 326 327 325 325 325 325 325 325 323 322 323 324 325 325 327 327 327 326 326 326 326
309 310 310 310 310 310 311 312 313 313 314 314 315 315 316 316 317 318 319 320 321 322 323 324 325 326 326 327 327 327 328 329 328 327 328 328 329 329 329 328 326 325 326 326 325 325 325 324 324 324 323 323 324 325 325 326 327 327 326 326 326 325 325
308 309 309 308 308 309 310 311 312 313 313 314 314 314 315 315 316 316 317 317 318 319 320 322 324 325 326 326 326 327 327 328 328 327 328 328 328 328 328 328 326 326 325 325 324 324 324 324 324 324 324 325 325 325 325 325 325 326 326 326 325 324 324
307 307 307 307 307 307 308 309 310 311 312 313 313 313 313 314 314 315 315 316 316 317 318 319 321 324 325 326 326 326 326 328 328 327 328 329 328 328 328 328 327 327 326 324 324 324 323 323 321 321 323 325 325 325 325 325 324 325 326 326 324 323 323
307 307 307 307 306 306 306 307 308 310 311 312 312 312 312 312 313 314 314 314 315 315 316 317 318 320 323 324 326 325 325 326 328 328 328 329 328 327 327 327 327 327 325 324 323 322 320 319 319 321 323 323 323 324 325 325 325 325 326 326 325 324 324
306 306 306 306 306 306 306 306 306 307 309 310 311 311 311 311 312 313 313 313 313 314 314 315 316 317 319 322 324 325 325 325 327 328 328 328 327 326 326 326 326 325 323 321 319 317 317 319 321 323 323 321 321 324 325 325 325 325 326 326 325 324 324
306 306 306 306 306 306 306 305 305 305 307 308 309 310 310 310 311 311 312 313 313 314 314 314 315 316 317 318 320 322 323 323 324 325 326 326 326 327 326 326 325 322 320 318 317 318 320 322 323 323 322 322 323 325 325 325 325 325 325 324 324 323 323
305 305 305 305 305 305 305 305 305 304 304 305 307 308 309 309 310 310 311 311 312 313 314 315 315 315 316 317 317 319 321 322 323 325 325 324 324 326 326 324 322 319 318 317 318 321 323 324 324 323 323 323 324 324 324 324 324 324 323 323 323 322 321
304 304 304 305 305 305 305 305 304 304 304 304 304 306 307 307 308 309 309 310 310 311 312 313 314 315 316 316 316 318 320 321 322 324 324 322 322 324 324 322 319 318 318 319 320 322 324 324 323 322 322 322 322 322 322 322 322 320 319 320 319 317 317
303 303 304 304 304 304 304 304 304 304 303 303 303 304 304 305 306 307 308 308 309 309 310 311 312 313 315 315 315 316 318 319 319 320 321 321 322 322 321 320 319 319 320 320 321 322 323 322 321 320 320 319 319 319 318 317 317 316 315 315 315 314 314
302 302 302 303 303 303 302 302 302 302 302 302 302 302 302 303 304 305 306 306 307 308 309 310 310 312 313 314 315 316 316 317 317 317 318 319 320 320 320 319 320 320 320 321 321 321 321 320 319 318 317 317 316 316 316 315 315 315 314 314 314 314 315
301 301 301 301 302 301 301 301 301 301 301 301 301 301 301 301 302 303 303 304 305 306 307 308 309 310 311 312 313 314 314 315 315 315 316 317 317 318 319 319 320 320 320 320 320 320 319 318 317 317 316 316 315 316 316 316 315 315 315 315 315 315 315

ECMWFFLT1_850_thetae_084.txt.gz
Theta_e
337 337 336 336 334 333 333 333 333 332 331 330 331 331 332 331 330 331 331 331 331 330 327 325 325 326 325 325 325 326 326 325 326 326 325 328 329 329 330 329 329 329 329 330 330 330 331 332 331 331 331 331 331 331 331 330 329 328 329 330 330 329 328
337 337 336 336 335 333 332 332 333 333 333 332 332 332 331 331 331 330 330 331 332 332 330 326 325 326 326 326 325 325 326 326 326 325 326 326 327 328 328 328 328 327 328 330 330 329 331 331 331 332 331 331 331 331 331 331 330 329 329 330 330 329 329
336 337 336 335 335 334 332 332 332 332 333 333 333 332 331 331 331 331 331 331 331 332 331 328 327 326 327 327 326 324 325 326 327 327 327 328 328 327 327 327 327 327 328 329 328 328 330 330 331 331 331 331 331 331 331 331 330 329 330 330 329 330 329
336 336 336 336 336 335 334 333 332 332 333 333 332 331 331 331 331 331 331 331 331 332 331 330 329 328 328 328 328 327 326 327 328 328 328 329 328 328 327 326 325 326 327 327 326 326 328 329 330 330 330 331 332 331 331 330 330 330 330 330 329 330 330
334 334 335 336 336 336 335 334 333 333 333 332 330 329 330 330 330 330 331 331 331 332 332 332 331 330 330 329 329 328 328 329 329 329 329 329 328 328 327 327 326 325 325 325 326 327 327 327 328 329 329 330 331 332 331 330 330 330 330 330 329 330 330
330 331 333 334 335 335 335 334 334 333 333 332 330 330 330 329 330 330 330 329 329 330 332 332 332 332 332 330 330 330 330 330 331 330 330 329 327 327 327 327 327 326 325 324 325 327 327 327 329 329 329 329 331 332 332 330 329 330 330 330 329 329 329
327 328 330 332 333 334 334 334 334 333 333 332 331 331 330 330 331 331 329 329 330 331 331 330 331 331 332 331 330 330 330 330 330 331 330 329 328 327 327 327 326 325 325 325 326 326 328 329 329 329 329 330 330 331 331 330 330 330 331 330 329 329 328
324 325 326 328 331 333 333 333 333 332 332 332 331 331 331 331 332 332 331 330 331 331 331 330 329 330 331 331 331 331 331 330 330 330 330 329 329 328 327 326 325 325 326 326 326 325 327 328 328 329 330 329 329 330 330 330 330 330 330 330 330 329 329
323 323 324 325 327 329 331 332 332 331 331 331 330 330 331 331 331 331 331 331 330 329 330 331 330 330 330 330 331 331 331 330 330 331 330 329 329 328 327 326 326 327 328 327 326 324 326 328 328 329 330 329 329 329 330 331 331 331 331 330 330 329 329
322 323 323 324 324 325 328 330 331 331 331 331 330 330 330 330 330 331 331 331 330 328 327 328 329 330 330 330 330 331 331 330 330 330 330 330 329 329 328 328 329 329 328 327 326 324 325 328 329 329 328 328 329 330 330 330 330 330 330 330 330 329 329
321 321 322 323 323 323 324 327 329 330 330 331 331 330 329 330 331 330 330 331 330 328 327 327 328 329 330 330 329 330 331 331 330 330 330 331 330 330 330 330 330 329 328 327 326 324 326 328 329 328 327 328 330 330 330 329 329 329 329 329 329 329 329
320 321 321 321 321 321 322 324 326 328 329 330 330 330 330 330 330 330 329 329 329 329 328 328 328 329 329 330 330 330 330 330 330 330 330 331 331 330 330 330 330 329 328 328 326 325 326 328 328 327 327 329 331 331 330 330 330 329 329 329 329 329 329
319 320 320 320 320 321 321 322 323 325 327 329 329 330 330 330 330 330 329 329 329 329 328 328 328 328 329 329 329 329 330 330 331 330 330 330 331 330 330 331 331 330 328 328 327 326 326 327 328 327 328 330 330 330 330 330 329 328 328 329 329 329 329
318 319 319 319 319 320 320 320 321 322 324 326 328 329 329 330 330 330 329 329 329 329 329 328 327 327 328 327 327 327 328 330 331 331 331 331 331 330 330 330 330 330 329 328 327 326 325 327 327 327 328 329 329 330 330 329 328 329 328 328 329 329 329
318 318 318 318 318 319 319 319 320 321 322 324 326 328 328 329 330 330 330 330 329 329 329 329 328 327 327 327 326 326 326 327 329 331 332 331 330 330 330 330 330 330 330 329 328 327 326 326 326 326 328 329 329 329 329 329 329 329 329 328 329 329 328
317 317 317 317 317 318 318 319 319 320 321 322 324 327 328 328 329 329 330 329 329 329 329 329 328 328 327 327 327 325 325 326 328 330 332 331 331 330 330 330 330 330 330 329 329 328 327 327 326 327 328 329 329 329 330 330 329 329 329 329 329 329 328
316 316 316 316 316 316 317 317 318 319 320 320 323 325 327 328 328 328 329 329 329 329 329 329 329 328 328 328 328 327 327 326 328 331 332 331 331 331 330 330 330 330 330 330 329 328 327 326 327 328 328 328 329 330 330 330 330 329 330 329 329 329 329
315 315 315 315 315 316 316 316 317 318 318 319 321 324 325 326 327 327 328 329 329 329 329 329 329 329 329 329 329 329 328 327 328 330 331 330 331 330 329 329 330 329 330 329 329 328 326 325 326 327 327 327 329 330 330 330 330 329 329 329 329 329 328
314 315 315 315 315 315 315 315 316 317 318 319 320 322 323 324 325 326 327 327 328 328 328 329 329 329 329 329 330 330 329 328 327 329 330 330 330 330 329 329 330 329 329 329 328 328 327 326 327 327 326 327 329 330 330 330 329 329 328 328 329 329 328
314 314 315 315 315 314 314 314 315 316 318 319 319 320 321 322 323 324 324 325 326 327 328 328 328 329 328 329 330 330 329 329 328 329 330 329 330 330 328 329 330 329 329 329 328 328 329 328 327 327 327 328 328 329 330 330 328 328 328 328 328 328 328
314 314 314 314 314 313 314 314 315 316 317 318 318 318 319 320 321 322 322 323 324 325 327 327 328 328 328 329 329 329 329 329 329 329 329 329 329 330 329 328 329 329 329 329 328 328 329 329 328 328 328 328 327 328 330 329 328 328 329 328 328 328 327
313 312 312 312 312 313 313 313 314 315 316 317 317 317 317 317 318 319 320 321 322 323 324 325 326 326 327 328 328 329 329 329 329 329 330 329 329 329 330 329 329 329 329 328 328 329 329 329 328 328 327 327 327 328 329 328 328 329 328 328 328 327 327
311 311 311 311 311 312 312 313 313 314 315 316 316 317 316 317 317 317 318 319 320 321 322 323 324 325 326 327 327 328 328 328 329 329 329 329 328 328 329 329 329 328 328 328 329 329 328 328 328 327 326 326 327 328 328 328 328 328 328 327 327 327 326
310 310 310 310 310 311 312 313 314 314 314 314 315 315 315 316 316 316 317 317 318 319 320 321 322 323 324 325 326 327 327 327 328 328 328 329 329 328 329 330 329 328 328 328 328 328 328 329 329 328 327 327 327 328 328 327 327 327 327 327 326 326 326
309 309 309 308 308 309 310 312 313 313 313 313 313 314 314 315 315 315 316 316 317 317 318 319 320 321 322 323 324 325 327 327 327 327 327 329 329 328 329 330 329 328 328 328 327 327 329 330 330 328 327 327 327 328 328 327 327 327 326 326 326 326 325
308 308 308 308 308 307 308 309 311 311 311 311 312 312 312 313 314 314 315 316 316 316 317 317 318 319 320 321 322 323 324 325 326 327 327 328 328 329 328 329 329 328 327 328 327 327 329 330 329 328 328 328 328 328 328 327 326 326 326 326 325 325 324
307 307 307 307 307 307 307 307 308 309 309 310 310 310 309 311 312 313 314 315 315 316 316 317 317 318 318 319 320 321 322 323 324 326 327 327 327 328 328 328 328 328 327 328 328 327 328 328 328 328 328 328 328 328 327 326 325 324 325 326 324 324 324
307 307 307 307 307 307 306 306 306 306 307 308 308 308 307 308 310 311 312 313 314 314 315 315 316 317 318 318 319 320 321 322 324 325 326 327 327 327 328 328 328 328 327 328 328 327 326 327 327 327 327 327 328 327 326 325 325 325 325 326 325 324 324
306 306 306 306 306 306 306 306 305 305 305 305 307 307 306 306 308 310 311 311 312 313 314 315 315 316 317 318 319 319 320 322 323 325 326 326 326 327 328 328 328 329 328 328 328 327 326 327 327 327 327 327 327 326 325 325 325 325 326 326 325 325 325
305 305 306 306 305 305 305 305 305 304 304 304 305 306 305 304 305 307 309 310 311 311 312 313 315 315 316 317 317 318 320 321 322 324 325 325 326 327 328 328 328 328 328 327 327 327 328 328 327 327 327 327 326 325 325 325 325 325 325 326 326 326 325
304 304 305 305 304 304 305 305 304 304 304 304 303 304 304 303 303 305 307 308 309 310 310 311 313 314 315 316 316 317 319 321 322 322 323 324 325 326 327 328 328 328 328 327 327 327 328 329 328 327 327 326 326 325 326 325 325 325 325 325 325 325 325
303 303 303 304 303 303 303 303 303 303 303 303 303 302 302 302 302 303 305 306 307 308 309 310 311 313 314 315 316 316 317 319 320 320 321 323 324 325 326 328 328 328 328 327 327 328 328 327 327 326 326 325 326 326 325 325 325 325 325 325 325 325 324
302 302 302 302 302 301 301 302 302 302 302 302 302 301 301 301 301 302 303 304 305 306 307 308 310 311 312 314 315 315 316 316 317 317 319 320 321 322 325 327 328 327 327 327 326 325 324 324 324 324 324 324 324 324 324 324 324 324 324 325 325 324 323
302 302 301 302 301 300 300 300 301 301 300 301 300 300 300 301 301 301 302 303 303 304 305 307 308 310 311 312 313 314 314 315 315 316 317 318 319 321 324 327 327 326 324 323 322 322 321 323 323 323 323 323 323 323 323 323 323 323 324 324 324 324 324
301 301 301 301 301 300 299 299 300 300 299 300 300 300 300 300 300 300 301 302 302 303 304 305 306 307 309 310 311 312 313 314 314 314 316 318 319 319 320 322 323 323 321 320 321 322 322 323 323 322 322 322 322 322 322 322 323 323 323 322 322 322 321
301 301 300 300 300 300 299 298 299 299 299 299 299 300 300 300 300 300 300 301 301 302 302 303 303 304 306 307 308 310 311 312 313 313 315 317 317 316 317 318 318 319 320 321 321 321 321 321 320 320 320 320 320 320 320 321 321 321 320 320 319 318 316
301 301 301 300 300 300 299 298 298 299 299 299 299 299 300 300 300 300 300 300 300 301 301 302 302 302 303 304 306 307 308 310 311 312 313 314 313 313 315 318 318 318 319 320 320 320 320 319 319 319 318 317 317 317 318 318 318 318 317 316 315 314 312

ECMWFFLT1_850_thetae_087.txt.gz
Theta_e
336 336 336 336 336 336 334 333 333 333 333 333 332 331 331 331 331 331 332 332 332 331 330 329 328 327 326 325 326 326 326 327 328 329 329 329 330 330 330 330 330 329 329 329 329 329 330 331 331 330 330 330 331 330 330 330 330 330 329 328 329 329 329
336 335 336 336 336 336 335 334 333 332 332 332 333 333 332 332 332 332 332 332 331 331 331 331 331 330 328 326 326 326 326 326 326 327 328 328 329 329 329 329 329 330 330 329 330 330 329 329 330 330 330 330 331 331 330 330 331 330 329 329 329 329 329
335 335 336 335 335 335 335 335 334 333 332 332 333 333 333 332 332 332 332 331 331 331 331 330 331 331 331 328 326 326 326 326 325 326 328 328 328 329 328 329 329 330 330 330 329 330 329 329 329 330 330 331 330 330 330 330 330 330 329 329 329 330 330
333 334 335 335 335 335 335 335 335 334 334 333 333 333 333 332 332 331 331 331 331 331 330 330 330 331 331 330 328 327 327 327 326 327 328 328 329 329 328 329 330 330 329 329 328 328 328 329 329 329 330 331 330 330 330 330 330 330 330 329 329 329 329
331 331 333 334 333 333 333 334 334 334 334 334 333 334 333 333 332 331 331 330 330 330 330 330 330 330 331 331 330 329 329 328 327 327 327 327 328 329 329 329 330 329 328 327 327 326 326 327 328 328 329 330 330 330 330 330 330 330 330 330 329 329 329
327 328 329 331 332 332 332 332 332 333 333 333 333 333 333 332 332 332 331 331 330 330 330 330 330 330 330 331 331 331 330 330 329 328 327 326 327 329 329 329 329 328 328 327 327 327 326 327 328 327 327 328 329 329 330 330 331 330 330 330 330 330 330
323 324 326 328 329 330 330 331 331 331 332 332 332 331 331 331 331 331 331 331 331 331 331 331 331 331 330 330 331 331 331 331 331 330 329 328 328 329 329 329 329 329 329 328 328 327 327 327 328 327 327 328 328 329 329 330 331 330 330 330 330 330 330
321 321 323 324 326 327 329 329 329 330 330 330 331 330 331 331 330 330 330 331 331 331 331 331 331 331 330 330 330 330 330 331 331 331 330 330 330 329 329 330 330 330 330 330 329 328 327 326 326 326 327 327 328 329 329 329 330 330 330 330 330 330 330
320 320 320 321 322 324 326 328 328 329 329 330 330 330 330 330 330 330 329 330 330 330 331 331 330 330 329 329 330 330 330 330 331 331 330 330 330 330 330 331 330 330 330 330 330 329 328 326 325 326 327 327 328 329 329 329 330 330 330 330 330 330 329
319 319 319 319 320 321 324 326 327 328 328 329 329 329 330 330 330 330 330 330 330 330 330 330 330 330 329 329 329 329 329 330 330 330 330 331 331 330 330 330 330 330 330 330 330 329 328 326 326 326 327 328 328 329 329 329 330 330 330 330 329 330 330
318 318 318 318 319 319 321 323 324 325 327 328 328 328 329 329 329 330 330 331 330 329 329 329 329 330 329 329 329 329 329 329 329 329 329 330 330 330 330 330 331 330 330 330 330 329 328 326 327 328 328 328 329 330 330 329 329 329 330 329 329 330 330
317 317 317 317 318 318 318 319 320 322 323 325 326 327 328 328 329 329 329 330 330 329 329 329 329 329 328 328 329 329 329 329 330 330 329 329 329 330 329 329 331 331 330 330 330 329 328 328 329 329 328 327 328 330 330 329 329 329 330 330 329 330 330
316 316 316 317 317 317 317 318 318 319 320 322 323 325 326 327 328 328 328 329 330 330 329 329 329 329 328 328 328 328 328 329 329 329 329 329 329 329 329 328 329 330 331 331 330 330 330 330 330 329 328 327 328 330 330 329 329 330 330 330 330 330 330
315 315 316 316 316 316 316 316 317 318 319 320 320 322 325 327 328 328 328 329 329 330 329 329 329 329 329 329 328 328 328 328 328 328 328 329 329 329 329 329 329 330 330 330 331 330 330 330 330 329 327 327 328 329 330 330 329 329 330 330 329 330 330
315 315 315 315 315 315 315 315 315 316 317 318 319 320 322 325 326 327 328 328 328 328 329 329 329 329 329 329 329 329 329 328 328 328 328 328 328 329 329 329 329 329 329 329 330 330 330 330 330 329 327 327 328 329 330 330 330 329 329 329 329 330 330
314 314 314 314 314 314 313 313 314 315 316 317 318 319 320 321 323 325 326 327 327 327 328 328 328 328 328 329 329 329 329 329 329 329 329 329 329 329 329 329 329 328 327 327 328 329 330 330 330 329 328 327 328 329 330 331 330 329 329 329 328 329 329
313 313 314 314 314 313 313 313 314 316 316 317 318 318 318 319 321 322 323 325 326 326 326 326 326 327 327 328 328 328 329 329 329 329 329 329 329 329 328 329 329 329 327 327 329 329 330 330 330 330 329 328 328 329 330 330 330 330 329 328 328 328 329
312 312 313 313 313 313 313 314 315 316 316 317 317 318 318 318 318 319 320 321 323 324 324 325 325 326 326 327 328 328 328 328 329 329 329 329 329 329 328 329 330 329 328 327 328 329 330 331 330 330 329 329 328 328 329 330 330 330 329 328 328 328 328
311 311 312 312 312 313 313 314 315 315 316 316 317 317 317 317 318 318 318 319 320 320 321 323 324 325 325 326 327 327 327 328 328 328 328 328 329 329 329 329 329 329 328 327 327 327 329 330 329 329 328 328 328 328 329 329 330 330 330 329 329 328 328
310 310 310 310 311 312 314 314 314 314 315 315 315 316 316 316 316 317 317 317 318 318 318 320 321 322 323 324 326 326 327 327 328 328 328 328 328 328 328 329 330 329 328 328 328 328 328 328 328 328 328 328 328 329 329 329 329 330 330 329 330 328 328
308 308 308 308 309 310 312 313 313 313 314 314 314 314 315 315 315 316 316 316 317 317 317 318 318 319 320 322 323 325 326 326 327 328 328 328 328 328 328 329 329 328 328 328 328 328 328 328 328 327 327 327 328 329 330 329 329 330 330 329 329 328 328
307 307 307 307 308 308 309 310 311 312 312 312 313 313 314 314 315 315 316 316 316 316 317 317 317 317 318 319 320 322 323 324 325 326 327 328 328 328 328 328 328 328 328 328 327 327 327 327 328 328 327 327 327 328 329 329 330 330 330 329 329 327 327
307 307 307 306 307 307 307 307 309 310 310 311 312 312 312 313 314 314 315 315 316 316 316 316 316 316 317 317 318 319 320 321 322 323 325 326 327 327 327 328 328 329 329 328 327 327 327 328 328 328 327 327 328 328 328 328 329 330 329 329 329 328 327
306 306 306 306 306 305 305 306 306 307 308 309 310 311 311 312 312 313 313 314 314 315 315 315 315 315 316 317 317 318 319 319 320 321 323 324 325 326 326 327 327 328 328 328 327 328 328 328 328 327 327 328 328 328 329 328 329 329 329 328 328 328 327
306 306 305 305 305 305 305 304 305 305 306 307 308 309 310 310 311 311 311 312 313 313 313 314 315 315 315 316 317 318 318 319 319 320 321 322 323 325 326 327 327 327 327 328 328 328 328 328 328 327 327 328 329 329 329 328 328 329 328 328 328 327 327
305 305 304 304 304 304 304 303 303 304 304 305 306 307 308 309 310 310 310 311 311 312 312 313 314 314 314 315 317 317 318 319 319 319 320 320 321 323 324 325 326 326 327 328 328 328 327 327 328 328 328 328 329 329 328 328 328 328 328 327 328 328 327
304 304 304 303 303 304 304 303 303 303 303 303 304 305 306 307 308 308 309 309 310 310 310 311 312 313 314 315 316 317 318 318 319 320 320 319 320 321 323 324 325 326 326 327 327 328 327 327 327 328 328 328 328 328 328 328 328 328 328 328 328 327 326
303 303 302 301 302 303 303 302 302 302 303 302 302 303 303 305 306 307 308 308 308 308 309 309 310 312 313 314 315 316 317 318 319 319 319 319 320 321 322 323 324 325 326 326 326 327 327 327 327 328 328 328 328 328 329 329 329 328 327 327 327 326 326
302 301 300 299 300 301 301 301 301 301 302 301 301 301 302 303 304 305 306 306 307 307 307 308 309 310 312 313 314 315 316 316 317 318 318 319 319 320 322 323 324 325 325 326 326 327 327 327 328 328 328 328 329 329 329 329 328 328 328 327 326 325 326
301 300 299 299 300 300 300 300 301 301 301 301 300 301 301 302 302 303 304 304 305 305 306 306 307 309 311 312 313 314 315 315 316 317 317 318 318 319 321 322 324 324 324 325 326 326 327 327 328 328 328 328 329 330 329 328 328 328 327 326 325 326 326
300 300 299 298 299 300 300 300 301 301 300 300 300 301 301 301 301 302 302 303 303 304 304 305 306 307 309 310 311 313 314 315 315 315 316 317 317 318 319 320 322 323 324 325 326 326 327 327 327 327 328 328 329 329 328 327 327 327 327 326 326 326 326
300 299 298 298 298 299 299 300 300 300 300 300 300 301 301 301 301 301 301 302 302 303 303 304 305 306 307 308 310 310 312 313 314 314 315 316 316 317 318 319 320 321 323 325 325 326 327 327 326 326 326 327 327 328 327 327 327 327 326 326 326 326 326
300 300 299 298 298 298 298 299 299 299 299 300 300 300 300 300 300 300 300 300 300 301 302 303 303 304 305 306 307 308 309 310 312 313 313 314 315 316 317 318 319 320 322 324 325 326 327 327 326 326 326 326 327 327 327 327 326 326 326 326 326 325 325
300 300 299 299 298 298 298 298 298 298 299 299 299 299 299 299 299 299 298 299 299 299 300 300 301 302 303 304 305 306 306 307 309 311 311 312 313 315 317 318 318 320 322 324 325 327 327 326 325 325 326 326 327 327 326 326 326 326 326 326 325 325 325
301 300 300 299 299 299 298 298 298 298 298 298 298 298 298 298 298 298 298 298 298 298 299 299 299 300 301 302 303 304 305 305 306 309 310 311 311 313 316 317 318 319 321 322 323 324 325 324 324 323 323 324 325 325 324 324 324 324 324 325 324 324 324
301 301 300 300 300 299 299 298 298 298 297 297 297 297 296 296 296 297 297 298 299 299 298 298 298 298 299 300 301 302 303 304 304 306 308 309 309 310 313 315 318 319 320 321 321 321 321 321 321 321 321 322 322 322 322 323 323 323 323 323 323 324 323
301 300 300 300 300 300 299 298 298 298 298 297 297 296 296 295 295 295 296 297 298 298 298 298 298 298 298 299 300 301 302 303 303 304 306 307 307 308 310 313 315 317 318 319 319 319 319 318 318 319 320 320 320 320 320 321 321 321 322 322 322 323 321

ECMWFFLT1_850_thetae_090.txt.gz
Theta_e
335 336 336 336 336 336 336 335 335 334 333 333 333 333 333 333 333 332 332 332 332 332 331 332 332 331 330 328 328 328 328 329 330 330 329 330 330 329 327 327 329 330 331 330 330 329 329 329 329 330 330 330 331 331 331 331 331 331 330 330 330 328 328
335 335 335 335 335 335 335 336 335 335 334 334 333 333 333 333 333 333 332 332 332 332 332 332 331 331 331 330 329 329 329 329 329 329 329 330 330 330 329 328 329 331 331 331 330 330 329 329 329 330 329 330 331 331 331 330 330 331 330 330 330 329 328
334 333 334 334 334 334 334 335 334 335 335 335 334 334 333 333 333 333 332 332 331 331 331 331 330 330 330 329 329 330 331 331 330 329 329 329 329 330 330 330 329 330 331 331 331 330 330 330 330 330 329 329 330 330 330 330 330 330 331 330 330 330 328
334 334 334 334 333 332 332 333 333 333 334 334 334 333 333 333 333 332 332 332 331 331 331 330 330 330 329 329 329 330 330 331 330 330 329 329 329 329 330 330 329 328 329 330 330 330 330 330 330 329 329 328 329 329 329 329 329 330 331 330 330 330 329
332 332 333 333 333 332 331 330 331 332 333 332 332 332 332 332 332 332 332 332 332 331 331 330 330 330 329 329 329 329 329 330 330 331 330 329 329 329 329 329 330 329 328 329 329 330 330 330 330 329 329 329 328 328 329 329 330 330 330 330 330 330 329
328 329 330 331 331 331 330 329 329 330 330 330 330 331 331 331 331 331 331 331 331 331 331 330 330 330 330 330 330 330 330 329 330 331 330 329 329 329 329 329 330 330 330 329 330 330 330 330 330 330 329 329 329 328 328 329 330 330 330 330 330 330 330
325 326 326 327 328 329 329 328 328 328 329 329 328 329 330 330 330 330 330 330 330 330 330 330 330 330 331 330 330 330 330 330 330 330 330 329 329 329 329 329 330 330 329 330 330 330 331 331 331 330 330 330 329 329 329 329 329 330 330 330 330 330 330
322 322 323 324 325 326 326 326 327 327 328 328 328 329 329 328 329 329 329 329 329 329 330 330 330 330 330 330 330 330 329 329 330 330 330 329 329 329 330 330 330 329 328 329 330 329 330 330 330 330 330 330 330 329 329 329 329 329 328 329 330 330 330
319 319 320 321 322 322 323 324 324 326 327 327 327 327 327 327 327 328 328 329 329 329 330 330 329 329 329 329 329 329 328 329 329 329 329 329 329 329 329 330 330 330 329 329 329 329 329 330 330 331 331 330 330 329 329 329 328 328 327 328 329 330 330
317 317 318 319 319 320 321 321 322 323 324 325 326 326 325 325 326 326 327 328 328 329 329 330 329 329 328 328 328 329 329 328 328 329 329 329 330 329 329 328 330 330 329 329 330 330 329 329 330 330 331 330 330 329 329 329 328 327 327 327 328 329 330
317 317 317 317 317 318 318 319 320 321 322 324 325 325 324 324 325 326 327 327 327 328 328 329 329 328 328 328 328 329 329 328 328 329 329 329 330 330 329 328 329 329 329 329 330 330 329 329 329 329 330 330 330 330 329 329 328 327 327 327 327 328 329
316 316 316 316 316 316 317 317 318 318 320 321 322 323 323 323 324 325 326 326 327 328 328 329 329 329 328 328 328 328 328 329 329 329 328 329 329 329 329 329 329 328 328 329 329 329 329 329 329 329 329 329 330 330 329 329 329 328 327 328 328 328 329
315 315 314 314 315 315 316 317 317 317 318 319 320 321 320 320 322 324 324 325 325 327 328 328 328 329 329 328 328 328 328 328 329 329 328 328 328 328 328 328 328 328 328 328 327 328 329 329 329 329 329 329 329 328 328 329 329 328 327 328 328 329 329
314 314 313 313 314 314 315 316 317 317 317 318 318 319 319 319 320 321 323 324 324 325 326 327 327 328 329 328 328 327 327 327 328 329 329 329 328 328 327 327 327 326 327 327 327 328 328 329 329 329 329 329 328 327 328 330 330 329 328 327 329 329 329
313 313 313 313 313 314 315 315 316 316 316 317 317 318 318 318 318 319 320 321 322 322 323 324 325 326 327 327 327 327 326 327 327 327 327 328 328 328 329 328 327 326 326 327 327 328 329 329 330 330 330 329 329 329 329 330 330 329 328 328 329 329 330
312 313 313 313 314 314 315 315 315 315 316 316 316 317 317 318 318 318 319 319 320 321 322 323 324 325 325 326 326 326 326 326 326 326 326 326 327 327 328 329 328 328 328 327 327 327 328 329 329 329 330 330 329 329 329 329 330 329 328 328 329 329 329
311 311 311 312 313 314 315 315 315 315 315 315 316 316 316 317 317 318 318 318 318 319 320 321 321 322 322 323 324 324 325 325 325 325 326 326 327 327 327 327 328 328 329 328 327 328 328 329 329 329 329 329 330 330 329 329 329 329 328 329 329 329 329
309 309 309 310 311 313 314 314 314 314 314 314 315 315 315 316 316 317 317 317 318 318 318 318 318 318 319 320 321 322 322 323 324 325 326 326 327 327 327 327 327 328 328 329 328 328 328 328 328 329 329 329 330 330 330 329 329 329 329 329 330 329 329
308 308 308 309 309 310 311 313 313 314 314 314 314 314 314 315 315 316 316 316 317 317 317 317 317 317 317 318 318 318 319 320 321 323 324 325 326 326 326 326 327 327 328 329 329 328 327 327 327 328 329 329 329 330 331 330 329 329 329 328 329 330 329
306 307 307 307 308 308 309 310 312 312 313 313 313 313 313 314 314 315 315 316 316 316 316 316 316 316 316 316 317 317 317 318 319 319 321 322 323 324 325 325 327 327 327 328 328 328 328 328 327 327 328 329 329 330 330 331 330 330 329 328 329 330 329
305 305 305 306 306 306 307 308 309 310 311 312 312 312 312 312 312 313 313 313 314 314 314 314 315 315 315 315 315 316 316 316 317 317 318 319 320 321 323 325 326 326 327 327 327 328 328 328 328 328 328 329 329 329 330 331 331 331 330 329 329 330 329
305 304 304 305 305 305 306 307 308 308 309 309 310 310 310 310 311 311 311 311 311 312 312 312 313 313 313 314 314 315 315 316 316 317 317 318 318 319 320 322 323 324 325 326 327 327 327 328 328 329 328 328 328 329 329 330 330 330 330 329 329 330 330
304 304 304 304 304 304 304 305 306 307 307 307 308 309 309 309 310 310 310 310 310 310 311 311 311 311 312 313 314 315 315 316 317 317 318 318 318 319 319 319 320 321 323 325 326 327 327 327 328 328 328 328 328 329 329 329 329 329 329 329 329 329 329
303 303 303 303 303 303 303 303 304 305 306 306 307 307 308 308 308 308 309 309 309 309 309 309 309 310 311 312 313 314 315 316 317 317 317 318 318 319 319 319 319 320 322 324 325 326 326 327 327 328 328 328 328 328 329 329 329 329 329 328 329 328 328
301 301 302 302 302 302 302 302 303 303 304 305 306 306 306 306 306 307 307 307 307 307 307 308 308 309 310 311 312 313 314 315 316 316 317 316 317 318 319 319 319 319 320 322 323 325 326 326 327 327 327 328 328 328 329 329 329 329 329 329 329 329 328
300 301 301 302 302 302 302 302 302 302 303 303 303 303 304 304 304 304 305 305 305 306 306 306 307 307 308 310 311 312 313 314 315 315 315 315 316 317 317 318 319 319 320 320 322 324 325 326 326 327 327 328 328 329 329 329 329 328 328 329 329 328 328
299 300 300 301 301 302 302 302 301 301 301 301 301 302 302 302 303 303 303 304 304 304 305 305 305 306 307 308 310 311 312 313 314 314 314 314 315 315 317 317 318 319 320 320 321 322 324 325 325 326 327 327 328 329 329 328 328 328 329 329 329 329 329
298 299 299 299 300 300 301 301 301 300 300 300 300 301 301 301 301 302 302 303 303 303 303 304 304 305 305 307 309 310 311 312 313 313 312 313 314 314 316 317 317 318 319 320 320 321 322 323 325 325 326 327 327 328 328 328 327 328 329 329 329 330 329
298 298 298 298 299 299 299 299 300 300 300 300 300 300 299 299 300 300 300 300 301 301 302 302 303 303 304 305 307 309 310 310 311 312 311 312 313 314 315 316 318 318 319 320 320 321 321 322 324 325 326 326 327 327 327 328 327 328 328 328 329 329 329
298 298 298 298 298 298 298 299 299 299 299 299 299 299 299 299 299 299 299 299 299 299 299 300 301 301 302 303 305 306 308 309 310 310 310 311 312 314 315 316 317 319 320 320 321 321 322 322 323 325 325 326 326 327 327 327 327 328 328 328 328 328 329
299 298 298 298 298 298 298 298 298 297 297 297 297 297 297 297 298 298 299 298 298 298 298 298 299 299 300 302 303 304 306 307 308 309 310 310 311 313 314 315 316 318 319 320 321 321 322 323 323 324 325 325 326 326 326 326 327 328 328 328 328 328 328
300 299 298 298 298 298 298 297 297 296 296 295 295 295 295 295 296 297 298 298 298 298 298 297 297 298 298 300 301 302 303 305 306 308 308 309 310 312 313 314 316 317 318 320 321 321 322 323 324 324 324 325 325 325 326 326 326 327 327 328 328 328 328
300 299 299 298 298 298 298 298 298 297 296 296 295 295 294 294 295 296 297 297 298 298 297 297 296 297 297 298 299 300 302 303 304 306 306 307 308 310 310 312 314 316 317 319 321 322 322 323 324 324 324 325 325 325 325 326 326 327 328 328 328 327 327
299 299 299 299 298 298 298 298 298 298 297 297 296 295 294 294 295 295 295 296 296 297 297 296 296 296 297 297 298 299 300 301 302 303 304 305 306 307 308 310 312 314 317 318 319 321 322 323 324 325 325 325 325 325 325 326 326 327 327 328 327 326 326
299 299 298 298 298 298 298 298 298 298 298 298 297 296 295 295 294 294 295 295 296 296 296 296 296 296 296 297 297 298 299 300 300 301 302 303 304 305 307 308 309 311 315 317 318 319 320 321 322 322 322 323 324 324 324 324 325 325 326 326 326 326 325
298 298 298 298 298 298 298 298 297 297 297 298 297 297 296 295 295 294 295 295 295 295 296 296 296 296 296 296 297 297 298 299 300 300 301 302 303 304 305 306 308 310 313 316 318 317 317 318 319 319 320 321 321 320 319 320 322 323 323 324 324 324 324
298 298 298 298 298 297 297 297 297 297 297 297 297 297 296 295 295 295 295 295 294 295 295 296 296 296 296 296 296 297 297 298 299 300 300 301 302 303 304 305 306 309 311 313 315 316 315 315 316 317 318 318 318 318 318 319 320 321 320 320 321 321 320

ECMWFFLT1_850_thetae_093.txt.gz
Theta_e
335 335 335 334 334 334 335 334 334 334 334 334 333 333 333 332 332 332 332 333 333 332 332 331 331 331 331 331 330 330 330 330 329 329 329 329 329 329 329 330 331 331 330 329 330 330 329 329 329 329 329 329 330 330 330 330 330 330 330 330 330 330 329
333 334 334 334 334 334 334 334 333 333 332 332 332 333 333 332 331 332 332 333 333 332 332 331 331 330 331 330 330 330 330 330 330 330 330 330 330 330 329 329 330 330 330 329 330 331 331 330 329 329 329 329 329 329 329 329 330 330 330 330 331 330 329
332 332 332 332 332 332 332 332 332 331 331 331 332 332 332 331 331 331 331 332 332 332 331 331 330 330 330 330 330 330 330 330 330 330 330 330 330 330 329 329 329 329 329 328 329 330 331 331 330 330 330 329 329 328 328 328 329 330 330 330 330 330 330
332 332 332 331 331 331 331 330 330 330 329 330 331 331 331 330 329 330 330 331 331 331 331 330 330 330 330 330 330 330 330 330 330 330 330 330 329 329 330 330 329 329 329 328 328 328 330 330 330 330 330 329 329 329 329 328 329 329 329 330 330 330 330
330 331 332 331 330 330 330 330 329 329 328 329 330 330 329 329 329 329 330 330 330 330 330 330 330 329 329 329 330 330 330 330 329 329 330 330 330 330 330 330 330 329 329 329 328 328 328 329 330 330 330 330 330 329 329 329 329 329 329 329 329 330 330
328 329 329 329 329 329 328 329 328 328 327 326 327 327 327 327 328 328 328 329 330 330 330 329 329 329 329 329 329 329 330 330 329 330 329 330 330 330 330 330 330 330 329 329 329 328 328 329 330 330 330 330 329 329 329 329 329 329 328 329 329 329 329
327 327 327 327 327 326 326 326 326 326 325 325 325 326 326 326 326 326 326 327 328 329 329 329 328 328 328 329 329 329 329 329 329 329 329 329 329 330 330 330 330 330 329 329 329 329 328 329 329 329 329 329 329 330 330 329 329 329 329 328 328 329 329
324 324 324 324 323 323 323 323 323 323 323 323 324 325 325 324 324 324 324 324 326 327 328 328 328 328 329 329 329 328 328 328 328 328 329 328 328 328 329 329 329 329 329 329 329 330 329 329 329 328 329 330 330 330 330 330 329 328 328 328 328 328 329
320 320 320 320 320 320 320 320 321 321 321 321 322 323 324 324 323 323 323 322 323 325 326 327 328 328 328 328 328 328 327 327 328 328 329 328 328 328 328 329 329 329 329 329 329 330 330 330 329 329 329 330 330 330 330 329 329 328 327 327 328 328 328
317 317 318 318 318 319 319 319 319 320 320 319 320 321 322 322 322 322 322 322 323 324 325 326 327 326 326 326 327 327 327 327 328 328 328 328 328 328 328 329 329 330 329 329 329 329 330 330 330 330 330 330 330 330 330 329 329 328 327 327 327 327 327
316 316 317 317 317 317 317 317 318 318 318 319 319 319 320 320 320 321 321 321 322 322 324 325 325 325 325 325 326 326 326 326 327 327 327 328 328 328 328 328 329 329 329 329 328 328 329 329 330 330 330 330 330 330 330 330 329 328 328 328 326 326 326
316 316 316 316 316 316 316 316 316 317 317 317 318 319 319 320 320 320 320 320 320 321 322 322 323 324 324 325 326 326 326 326 326 326 326 326 327 327 327 328 328 328 328 328 328 328 328 329 329 329 330 330 330 330 330 330 330 329 328 328 327 326 326
315 315 315 315 315 316 316 316 316 317 317 317 317 318 318 319 319 320 319 318 318 319 319 320 321 321 322 323 325 326 327 326 326 325 325 325 325 325 326 327 328 328 327 327 327 328 328 328 329 329 329 329 330 330 330 330 330 329 328 328 328 327 327
314 314 314 314 315 315 316 316 316 316 316 316 316 317 317 318 318 319 318 318 318 318 318 319 319 319 319 320 322 324 325 326 325 325 324 324 324 324 325 325 326 326 327 327 327 327 327 327 328 328 328 328 329 330 330 329 329 329 328 328 327 326 326
313 312 313 314 314 315 315 315 315 315 315 315 315 315 316 316 317 317 317 317 318 318 318 317 318 318 318 318 319 320 321 322 323 323 323 324 324 324 323 323 324 324 325 326 326 327 327 328 328 328 328 328 329 329 329 330 330 329 329 328 327 326 326
311 311 312 313 314 314 315 315 315 315 314 314 314 314 314 315 315 316 316 316 317 317 317 317 316 317 317 317 317 317 318 318 319 320 321 321 322 322 322 323 324 325 325 325 325 326 326 327 328 328 328 328 328 328 328 329 329 329 329 329 328 327 326
310 310 311 311 312 313 313 314 314 314 314 314 314 314 314 314 314 314 315 315 315 315 315 315 315 315 316 316 316 316 316 316 316 317 318 318 319 320 321 322 323 324 325 325 325 325 325 326 327 328 328 328 328 329 328 329 329 329 329 329 329 328 327
309 309 309 309 310 311 312 312 313 313 313 313 313 313 313 313 313 313 313 314 314 314 314 313 314 314 314 314 315 315 315 315 315 315 316 316 317 318 319 320 321 322 324 325 325 325 325 326 326 326 327 328 328 329 329 329 329 329 329 329 329 329 329
307 307 308 308 308 309 310 310 310 311 311 311 312 312 312 312 312 312 312 312 312 312 312 312 312 312 313 313 313 314 314 314 314 315 315 315 316 316 317 318 319 320 321 323 323 324 324 325 326 326 326 328 328 329 329 329 328 328 329 329 329 329 329
306 306 306 307 307 307 308 308 309 309 309 310 310 310 310 310 310 310 310 310 310 310 310 310 310 311 311 311 312 313 313 313 314 314 315 315 316 316 317 317 317 318 319 320 322 323 323 324 325 326 326 326 327 328 328 328 328 328 328 328 328 329 329
305 305 305 306 306 306 306 306 307 307 308 308 308 308 308 308 309 309 309 309 308 309 309 309 309 309 310 310 310 311 312 313 313 313 314 315 316 316 317 317 317 318 318 318 319 320 322 324 325 325 326 326 326 327 328 328 328 328 328 328 328 328 329
304 304 304 304 305 305 304 304 305 306 306 307 306 306 306 306 307 307 307 307 307 307 307 307 307 307 307 308 308 309 310 311 312 313 313 314 315 315 316 316 317 317 318 318 318 318 319 321 323 325 325 326 326 326 327 327 328 328 328 328 328 328 329
302 302 303 303 303 303 303 303 304 304 305 305 304 304 304 304 304 305 305 305 305 305 305 306 305 305 305 306 307 308 309 310 311 312 313 313 314 314 314 315 316 316 317 318 318 318 318 319 320 323 324 325 326 326 327 327 327 327 327 328 328 328 328
302 302 302 302 302 302 303 303 303 303 303 303 303 302 303 303 303 303 303 303 303 304 304 304 304 304 304 305 306 307 308 309 310 311 312 312 312 313 313 313 314 315 316 317 317 318 318 318 319 320 322 325 326 326 326 327 327 327 328 328 328 328 328
301 301 301 302 302 302 302 301 301 301 301 301 301 301 301 301 301 301 301 301 301 301 302 302 302 303 303 304 305 306 307 308 309 310 311 311 311 311 312 313 314 315 316 317 317 318 318 319 319 319 321 323 324 325 325 326 327 327 328 328 328 328 328
299 300 300 300 300 300 300 300 300 300 300 300 300 300 300 300 300 300 299 300 299 299 300 300 300 301 302 303 304 305 306 307 308 309 309 310 310 310 310 311 313 315 316 317 318 317 318 319 319 319 320 322 323 324 325 326 326 327 327 327 327 327 327
298 299 299 299 299 299 298 298 298 297 297 298 298 298 299 299 299 299 299 299 299 298 298 298 299 299 300 301 302 303 304 306 307 308 308 308 309 309 309 309 311 313 316 317 317 316 317 319 319 319 319 320 321 322 324 325 325 326 327 327 327 327 327
298 298 298 298 297 297 296 296 295 295 295 295 295 296 296 297 298 298 298 298 298 298 298 298 298 298 298 299 300 302 303 305 306 307 307 308 308 307 308 309 310 311 314 316 316 315 316 318 320 320 319 319 320 321 323 325 325 326 326 327 327 327 327
298 298 298 297 297 296 296 296 295 295 295 295 294 294 294 295 296 296 297 298 298 297 297 297 297 297 298 298 299 300 302 303 304 305 306 307 307 306 306 307 308 310 312 315 315 316 317 318 320 320 320 320 320 320 322 324 325 325 326 327 327 327 327
297 298 298 298 297 297 297 296 296 295 295 295 295 294 294 294 294 295 296 296 297 297 297 296 296 296 297 298 298 299 300 301 303 304 305 305 305 305 305 306 307 308 310 312 314 316 317 318 320 321 321 320 320 320 320 322 324 325 326 326 327 327 327
298 297 297 297 298 297 297 297 297 296 296 295 295 294 294 294 294 294 295 295 296 296 296 296 296 296 297 297 298 298 299 299 301 302 303 304 304 304 304 305 305 307 309 310 312 314 316 317 319 321 321 320 320 319 319 321 323 324 325 325 326 326 326
298 297 297 297 297 297 297 297 297 296 296 295 294 294 293 293 294 294 294 295 296 296 296 296 296 296 296 297 297 297 298 299 299 300 301 302 303 303 303 304 304 305 307 308 310 312 315 316 318 319 319 319 320 320 320 321 322 323 324 325 326 326 326
297 297 297 296 296 296 296 296 296 296 296 295 294 293 293 293 293 294 294 295 295 296 296 296 295 296 296 296 296 297 297 298 299 299 300 300 301 302 302 303 303 304 306 307 308 310 314 316 316 317 318 319 319 320 321 321 322 323 324 325 324 325 325
296 296 296 296 296 296 296 296 296 296 295 295 294 293 293 293 293 293 293 294 294 295 295 295 295 295 295 296 296 296 296 297 298 298 299 299 299 300 301 301 302 303 304 306 307 309 312 314 316 316 316 318 320 321 322 322 323 323 324 324 324 324 324
296 296 296 296 296 296 296 296 296 296 295 295 294 294 293 293 293 293 293 293 294 294 295 295 295 295 295 295 295 296 296 296 297 297 298 299 299 299 300 301 301 302 303 305 307 308 310 313 315 315 315 316 318 319 320 320 321 322 323 323 323 323 323
297 296 296 296 296 296 296 296 296 296 295 295 294 294 293 293 293 293 293 293 294 294 294 295 295 295 295 295 295 295 295 296 296 297 297 298 299 299 300 300 301 302 303 304 306 307 309 311 313 313 314 314 315 317 317 317 317 318 319 319 319 319 320
297 297 296 296 296 296 296 296 296 296 295 295 294 294 293 293 293 293 293 293 293 294 294 295 295 295 295 295 295 295 295 295 296 296 297 297 298 299 300 300 300 301 302 303 305 306 307 309 310 312 312 313 313 314 315 315 316 316 316 316 316 316 317

ECMWFFLT1_850_thetae_096.txt.gz
Theta_e
330 330 331 331 331 330 331 331 331 331 331 330 330 329 330 330 330 330 330 329 329 330 331 331 331 331 331 331 330 330 330 330 332 332 330 329 329 329 329 328 328 328 329 329 329 329 329 329 328 328 328 329 328 328 328 329 329 330 331 331 330 330 329
329 329 330 330 330 330 330 330 330 329 329 329 329 328 329 330 329 329 328 328 328 328 329 330 331 331 330 330 330 330 330 330 330 330 330 329 328 329 329 329 329 329 329 329 329 329 329 329 329 328 328 328 328 328 328 329 329 329 330 330 330 330 330
328 329 329 329 329 329 329 329 329 329 328 328 327 327 328 329 329 328 327 327 327 327 328 329 329 330 330 330 329 330 330 329 329 329 329 328 328 328 328 328 329 329 329 329 329 329 329 328 328 328 328 328 328 328 328 329 329 329 328 328 329 330 330
328 328 328 328 328 328 328 328 328 328 327 326 326 326 326 327 327 326 326 326 326 326 327 327 328 329 329 329 329 328 329 329 329 329 329 329 329 329 329 328 328 329 329 329 329 329 328 328 328 328 328 328 328 328 327 327 328 329 329 328 328 329 330
327 327 326 326 327 327 327 327 327 327 326 325 325 324 323 324 324 324 324 324 325 325 324 326 327 328 328 328 328 327 328 328 328 329 329 329 329 329 329 329 329 329 329 329 329 329 328 328 328 329 329 328 328 328 327 327 327 327 328 328 328 328 328
327 327 327 326 327 327 327 326 326 325 324 323 323 322 322 322 322 322 322 322 322 322 322 323 325 326 327 327 327 326 327 328 328 328 328 328 328 328 328 328 329 329 329 329 328 328 328 328 328 328 328 328 329 329 329 328 327 326 327 327 327 328 328
326 326 326 326 325 325 324 324 323 323 322 321 321 321 320 321 321 321 321 321 321 321 321 321 322 323 325 326 326 325 326 327 328 328 327 327 327 327 328 328 328 328 328 328 327 327 328 328 327 327 328 328 328 329 329 328 328 327 327 327 327 328 328
324 324 324 323 323 322 321 321 320 320 319 319 319 319 319 319 320 320 320 320 319 319 320 320 320 321 322 324 324 324 325 325 326 326 326 326 326 326 327 327 328 328 327 328 328 328 328 328 328 328 328 327 327 328 329 328 328 328 327 327 327 328 328
321 320 320 320 319 319 319 318 318 318 318 318 318 318 318 318 318 318 318 319 319 319 319 319 319 319 321 323 323 323 323 323 324 325 324 325 325 325 325 326 326 326 326 327 327 328 328 328 328 328 328 328 327 328 329 329 328 328 327 326 327 327 327
318 317 317 317 317 317 317 316 316 316 316 316 316 317 317 317 317 318 318 318 318 318 318 318 318 318 320 322 322 322 322 322 323 325 325 325 325 324 324 324 324 324 325 326 326 327 327 328 328 328 328 328 328 328 328 328 329 329 328 327 327 327 326
316 316 316 316 316 315 315 315 316 316 316 316 316 316 317 317 317 317 318 318 318 318 318 317 317 317 317 318 319 320 321 321 322 323 324 325 326 325 324 324 324 324 324 324 325 326 326 327 327 328 328 328 327 327 327 328 328 329 329 328 328 326 325
315 315 315 315 315 315 315 315 315 316 316 316 316 316 316 316 316 317 317 317 317 317 317 317 317 316 317 317 317 318 319 319 320 320 322 323 325 325 324 323 323 323 323 323 323 324 325 326 326 327 327 328 328 327 327 327 327 328 328 328 328 326 324
313 314 314 314 314 315 315 315 315 315 315 315 315 315 315 315 315 315 316 316 316 316 316 316 316 316 316 316 316 317 317 317 318 318 319 320 321 322 322 322 322 322 323 323 323 323 323 323 324 325 326 327 328 328 327 327 328 327 327 327 328 328 326
312 312 313 313 315 315 315 315 315 315 314 314 314 314 314 314 314 314 314 315 315 315 315 315 315 315 315 315 315 316 316 316 316 316 317 317 317 318 318 319 320 321 321 322 322 322 322 323 323 323 324 325 326 327 327 327 328 327 327 327 327 328 328
311 312 312 313 314 314 314 314 314 314 314 313 313 313 313 313 313 313 313 313 313 314 314 314 314 314 314 314 314 314 314 314 315 315 315 315 315 315 316 316 317 318 318 319 319 320 322 324 324 324 324 324 324 325 326 327 328 328 327 327 327 327 328
310 311 312 312 312 312 312 312 312 312 312 312 312 312 312 312 312 312 312 312 312 312 312 312 312 312 312 313 313 313 313 313 313 313 314 314 314 314 315 315 315 316 316 317 317 318 320 322 324 325 325 325 325 325 325 326 327 327 327 327 327 328 328
310 310 310 310 310 310 310 310 310 310 311 311 311 311 311 311 311 311 311 311 311 311 311 311 311 311 311 312 312 312 312 312 312 312 312 313 313 314 314 314 315 315 316 316 316 317 318 319 321 323 324 325 325 325 324 325 326 327 327 327 327 328 328
308 308 308 308 308 308 308 308 308 309 309 309 309 309 310 310 310 310 310 310 310 309 309 309 309 310 310 310 310 310 311 311 311 311 312 312 312 313 313 314 314 315 316 316 316 317 317 317 318 319 321 323 324 325 325 325 325 325 327 327 327 328 328
306 306 306 306 306 306 307 307 307 307 307 307 307 307 307 307 307 307 307 307 307 307 307 307 307 307 308 308 308 308 308 309 309 310 310 311 311 312 312 313 314 314 314 315 316 316 316 317 317 317 319 320 321 323 324 325 325 325 326 327 327 328 328
305 304 304 304 305 305 305 306 306 306 306 305 305 305 305 305 305 305 305 305 305 304 304 305 305 305 305 306 306 306 306 307 307 308 309 310 311 311 312 312 312 313 313 313 313 314 315 315 316 316 317 318 320 321 323 324 325 326 326 326 327 327 327
303 303 303 303 303 304 304 304 304 304 304 304 304 304 303 303 303 303 303 303 303 302 302 303 303 303 304 304 304 304 305 305 306 307 308 309 310 311 311 311 311 312 312 312 312 312 313 313 314 315 316 317 318 319 321 322 324 325 326 326 326 327 327
302 302 302 302 303 303 303 303 302 302 302 302 302 302 302 302 301 301 301 301 301 301 301 301 300 300 301 302 302 303 303 304 305 305 306 308 309 310 310 310 310 311 311 311 312 312 313 313 312 313 315 316 317 318 319 320 322 324 325 326 326 326 327
302 302 302 302 302 301 301 301 301 301 301 301 300 300 300 300 300 300 300 300 300 300 300 299 299 299 299 300 300 301 301 302 303 304 305 306 307 308 309 309 309 310 310 310 311 312 314 314 314 313 313 314 315 316 318 319 320 323 324 325 326 327 327
301 301 301 300 300 300 299 299 299 299 298 298 298 299 299 299 299 299 299 299 299 299 299 299 298 299 299 299 299 299 300 301 302 303 304 305 306 307 307 308 308 309 309 310 311 312 313 315 315 315 315 314 315 315 317 318 319 321 323 324 325 326 326
300 299 299 298 297 297 297 297 296 296 296 296 296 296 296 296 297 297 297 298 298 298 298 298 298 298 298 298 298 299 299 299 300 301 303 303 304 305 306 306 307 308 309 309 309 310 312 314 315 315 316 316 316 316 317 318 318 319 321 323 324 325 326
298 298 297 296 296 296 296 296 295 295 295 295 295 295 295 295 295 295 295 296 297 297 297 297 297 297 298 298 298 298 299 299 299 300 301 302 303 303 304 304 305 306 307 308 309 309 310 312 313 314 315 316 316 317 318 318 318 318 318 320 323 324 325
297 297 296 296 296 296 296 295 295 295 295 295 294 294 294 294 294 294 295 295 296 296 296 297 297 297 297 297 298 298 298 299 299 299 300 301 301 302 302 302 303 304 305 307 307 308 308 310 312 313 315 315 316 317 318 319 319 319 318 319 321 323 324
297 297 296 296 296 296 295 295 294 294 294 294 293 293 293 293 293 294 294 295 296 296 296 296 296 297 297 297 297 298 298 298 299 299 299 300 301 301 301 301 302 302 304 305 306 306 306 308 310 313 314 314 315 317 319 320 320 319 319 318 319 321 323
297 297 297 296 296 295 295 294 294 294 293 293 293 293 293 293 293 294 294 295 296 296 296 296 296 296 296 297 297 297 297 298 298 298 299 299 300 300 300 300 300 301 302 304 305 305 305 307 309 312 313 314 315 317 319 320 320 320 319 319 319 321 323
296 296 296 296 296 295 294 294 294 293 293 293 293 293 293 293 293 294 294 295 295 296 296 296 296 296 296 296 296 297 297 297 298 298 298 299 299 299 299 299 300 301 301 303 303 304 305 306 308 310 312 314 316 317 319 319 319 320 320 318 318 319 321
296 296 296 295 295 295 294 294 293 293 293 293 293 293 293 293 293 294 294 295 295 295 296 296 296 296 296 296 296 296 296 297 297 297 298 298 298 298 298 299 300 300 301 302 303 304 305 306 307 309 311 313 315 316 317 317 318 319 319 318 318 319 320
295 295 295 295 295 295 294 294 293 293 293 293 293 293 293 293 293 294 294 295 295 296 296 296 295 295 295 295 295 295 296 296 296 297 297 297 297 297 298 299 300 300 301 301 302 303 304 305 306 308 309 311 314 315 316 316 317 318 318 318 319 319 320
295 295 295 295 295 294 294 294 293 293 293 293 293 293 293 293 293 294 294 294 295 295 296 295 295 295 295 295 295 295 295 295 296 296 296 296 297 297 298 299 300 300 300 301 301 302 303 304 305 306 308 309 311 313 314 315 316 317 318 319 319 319 320
295 295 295 295 295 294 294 294 294 293 293 293 293 293 293 293 293 293 294 294 294 295 295 295 295 294 294 295 295 295 295 295 295 296 296 296 296 297 298 298 299 300 300 300 301 301 303 304 305 306 307 307 308 310 312 314 315 316 317 318 319 320 320
295 295 295 295 295 295 294 294 294 294 293 293 293 293 293 293 293 293 293 294 294 294 294 295 294 294 294 294 294 295 295 295 295 295 296 296 296 296 297 298 298 299 300 300 300 300 301 303 304 305 305 306 308 310 311 313 314 314 315 316 317 318 319
295 295 295 295 295 295 295 294 294 294 294 293 293 293 293 293 292 292 293 293 293 294 294 294 294 294 294 294 294 294 294 295 295 295 295 296 296 296 296 297 297 298 299 300 300 300 301 302 303 303 304 305 307 309 311 312 312 312 313 315 316 316 317
295 295 295 295 295 295 295 295 295 294 294 293 293 293 293 293 293 292 292 292 292 293 293 294 294 294 294 294 294 294 294 295 295 295 295 295 295 295 296 296 297 297 298 299 300 300 300 301 301 301 302 304 306 308 310 311 311 311 312 314 314 315 315

ECMWFFLT1_850_thetae_099.txt.gz
Theta_e
329 329 329 329 329 329 329 329 328 329 328 328 328 327 327 327 327 327 327 326 326 325 326 328 329 329 329 330 330 330 330 330 330 330 330 330 330 330 329 329 329 329 329 329 329 329 329 329 329 329 329 329 328 328 328 328 328 328 327 327 328 329 330
328 328 328 328 329 329 328 328 328 328 328 328 327 326 326 325 325 325 325 325 325 325 325 326 326 326 327 327 328 329 329 329 329 329 329 329 329 329 329 329 329 329 329 329 328 328 329 329 328 329 329 329 329 328 328 328 328 328 327 328 328 329 329
327 327 327 328 328 327 327 327 327 327 326 325 325 325 325 324 323 323 324 324 324 323 324 324 323 325 327 326 325 326 328 328 329 329 329 329 328 328 328 329 329 329 329 329 329 328 329 329 328 328 329 329 328 328 328 328 328 328 327 327 328 328 329
327 327 326 326 327 326 326 326 326 325 324 324 323 323 322 322 322 322 322 322 322 322 322 322 321 323 325 325 324 325 327 328 328 328 328 328 328 328 328 328 328 328 329 329 329 329 328 329 328 328 328 328 328 327 328 328 328 328 328 326 326 327 328
326 326 326 326 326 325 325 324 324 323 322 321 320 320 320 320 320 320 320 321 321 321 320 320 320 320 321 322 323 324 326 326 326 326 327 327 327 327 327 327 327 327 328 328 328 328 328 328 328 328 328 328 328 328 328 328 327 328 328 328 326 326 327
325 325 325 325 324 323 323 322 321 320 319 318 318 318 317 318 318 318 318 319 320 320 320 319 319 321 320 320 320 322 324 324 324 324 325 325 326 326 327 327 326 326 327 327 327 327 327 327 327 328 328 328 328 328 328 328 327 328 328 328 328 327 325
323 323 322 322 321 321 320 319 318 318 317 316 316 316 316 316 317 317 317 318 318 318 318 319 319 320 320 319 320 322 323 323 322 322 322 323 324 324 325 325 325 326 326 326 327 327 327 327 327 328 328 328 329 328 328 328 328 328 328 328 327 326 325
320 319 319 318 318 318 317 317 316 316 316 316 316 316 316 316 317 317 317 317 317 317 317 318 318 318 318 318 319 321 322 321 321 320 320 321 323 324 324 324 324 325 325 325 325 326 326 326 327 327 328 328 329 329 328 329 328 327 327 328 327 327 326
317 317 317 316 316 316 316 315 315 315 316 316 316 316 316 316 316 316 317 317 317 317 317 317 317 317 317 317 317 318 318 318 318 318 318 320 321 322 323 324 324 324 324 324 324 324 324 324 325 326 327 327 328 328 329 329 329 328 328 328 328 327 327
315 315 315 315 315 315 315 315 315 315 315 315 315 315 315 315 315 315 316 316 316 316 316 316 316 316 316 316 316 316 316 317 317 317 318 318 319 320 321 322 323 324 324 324 323 323 324 324 325 326 326 327 327 328 328 328 328 328 328 328 328 327 327
314 314 314 314 314 314 315 315 315 315 315 314 314 314 314 314 314 314 314 314 314 314 314 314 314 314 314 314 315 315 315 316 316 316 316 316 317 318 319 319 320 321 322 322 322 322 323 324 325 325 325 325 326 327 327 328 328 327 327 327 327 327 327
312 312 313 313 314 315 315 315 315 315 314 314 313 313 313 313 313 313 313 313 313 313 313 313 313 313 313 313 313 313 314 314 314 314 315 315 315 316 316 317 317 317 318 318 319 319 321 323 324 324 324 324 324 325 326 327 328 327 327 327 327 327 327
311 312 313 314 314 314 314 314 314 313 313 313 312 312 312 312 312 312 312 312 312 312 312 312 312 312 312 312 312 312 312 312 312 313 313 313 314 314 314 314 315 315 315 316 316 316 318 319 320 321 322 323 324 324 325 325 326 326 326 327 327 327 327
311 312 312 313 313 313 313 312 312 311 311 311 311 311 311 311 311 311 311 311 310 310 310 310 310 310 310 311 311 311 311 311 311 311 312 312 312 312 313 313 313 313 314 314 315 315 315 316 317 318 318 320 322 325 325 325 326 326 325 325 326 327 327
310 311 311 311 311 311 311 310 310 310 309 309 309 309 309 309 309 309 309 309 308 308 307 307 307 307 307 307 308 308 308 309 309 309 310 310 311 311 311 311 312 312 313 313 314 315 315 315 316 316 316 317 320 323 324 325 325 326 326 326 325 325 326
309 309 310 310 310 309 309 308 308 308 308 308 308 307 307 307 307 306 306 306 305 305 305 304 304 304 304 305 305 305 305 306 306 307 307 308 309 309 310 310 311 311 312 312 313 314 314 315 315 316 316 316 317 319 321 323 324 324 326 326 326 326 325
308 308 308 308 308 307 307 307 307 307 306 306 306 305 305 305 304 304 304 303 303 303 303 303 303 302 302 302 302 303 303 303 304 304 305 306 307 307 308 309 310 311 311 311 312 312 313 313 314 315 315 316 316 317 318 319 321 322 323 325 326 326 326
306 306 306 306 306 306 305 305 305 305 304 304 304 303 303 303 302 302 302 302 301 301 301 301 301 301 301 301 301 301 301 301 302 302 303 304 305 306 307 308 309 310 311 311 311 311 311 311 312 312 313 314 315 315 316 317 318 319 321 322 324 325 326
304 305 304 304 304 304 304 303 303 303 302 302 302 301 301 301 301 301 300 300 300 300 300 300 300 300 300 300 300 300 300 300 300 300 301 302 303 304 305 307 308 309 310 310 310 310 310 310 310 310 311 312 313 313 314 316 316 317 318 320 321 323 325
303 303 303 303 303 302 302 301 301 300 300 299 299 299 299 298 298 298 298 298 298 298 298 298 298 298 299 299 299 299 299 299 300 300 300 300 301 302 304 305 306 307 308 308 308 309 309 309 309 310 310 311 312 312 313 314 315 316 316 318 319 321 322
302 302 302 301 301 300 300 299 298 298 297 297 297 296 296 296 296 296 296 296 296 297 297 297 298 298 298 298 298 298 299 299 299 299 299 300 300 301 302 304 305 306 306 307 307 307 308 308 309 309 310 311 311 312 313 313 314 315 316 317 318 319 320
301 300 300 299 299 298 297 297 297 296 296 296 295 295 295 295 295 295 295 295 295 296 297 297 297 297 298 298 298 298 298 299 299 299 299 299 300 300 301 302 303 304 305 305 306 306 307 307 307 308 310 311 311 312 312 313 313 314 315 316 317 318 318
299 299 298 297 297 297 296 296 296 295 295 295 295 295 295 295 294 294 294 294 295 296 296 297 297 297 297 297 298 298 298 298 298 299 299 299 300 300 300 301 302 303 303 304 304 305 306 306 307 308 309 309 310 311 311 312 313 314 314 315 316 317 318
298 297 297 296 296 296 296 295 295 295 295 294 294 294 294 294 294 294 294 295 295 296 296 297 297 297 297 297 297 298 298 298 298 298 298 299 299 300 300 300 301 302 302 303 303 304 305 306 307 308 308 309 309 310 310 311 313 313 314 314 316 316 317
297 296 296 296 296 295 295 295 294 294 294 294 294 294 294 294 294 294 294 295 296 296 296 296 297 297 297 297 297 297 297 298 298 298 298 298 299 299 299 299 300 300 301 301 302 302 303 305 306 307 308 309 309 310 310 311 312 313 314 314 315 316 317
297 296 296 296 295 295 294 294 294 294 294 294 294 294 294 294 294 294 295 295 296 296 296 296 297 297 297 297 297 297 297 297 297 297 297 298 298 298 298 298 299 299 299 300 300 300 301 303 305 306 307 308 309 310 311 312 312 313 314 314 314 316 317
296 296 295 295 294 294 294 294 294 294 294 294 294 294 294 294 294 295 295 296 296 296 296 296 296 296 297 297 297 297 297 297 297 297 297 297 297 297 297 298 298 299 299 299 299 300 300 301 303 305 306 308 308 309 311 312 313 313 313 313 313 315 318
296 296 295 294 294 294 294 293 293 293 293 293 294 294 294 294 295 295 296 296 296 296 296 296 296 296 296 296 296 297 296 296 296 296 296 297 297 297 297 298 299 299 299 299 299 299 300 300 301 303 304 306 308 309 310 312 312 312 312 312 313 315 317
295 295 294 294 294 293 293 293 293 293 293 293 293 293 294 294 294 295 295 296 296 296 295 295 295 295 296 296 296 296 296 296 296 296 296 296 296 297 297 298 298 299 299 300 299 299 300 300 301 302 303 305 307 308 310 311 311 312 312 313 314 314 316
295 294 294 294 294 293 293 293 293 293 293 293 293 293 293 294 294 294 295 295 295 295 295 295 295 295 295 295 295 295 295 295 295 295 296 296 296 296 297 297 298 298 299 299 299 299 300 300 301 301 302 304 305 306 308 309 311 312 313 314 315 316 316
295 294 294 294 294 293 293 293 293 293 293 293 293 293 293 293 294 294 294 294 294 294 294 294 294 294 295 295 295 295 295 295 295 295 295 295 296 296 296 297 297 298 298 299 299 300 299 299 300 301 301 302 303 304 305 307 310 312 314 314 315 317 317
294 294 294 294 294 293 293 293 293 293 293 293 293 293 293 293 293 293 294 294 294 294 294 294 294 294 294 294 294 295 295 295 295 295 295 295 295 296 296 296 297 297 298 298 299 299 299 299 300 300 300 301 302 302 303 305 307 308 310 312 314 316 317
294 294 294 294 294 294 293 293 293 293 293 293 293 293 293 293 293 293 293 293 293 293 294 294 294 294 294 294 294 294 294 295 295 295 295 295 295 295 295 296 296 297 297 298 298 299 299 299 299 300 300 300 300 300 302 304 305 305 306 308 310 313 315
294 294 294 294 294 294 293 293 293 293 293 293 293 293 293 293 292 292 292 292 293 293 293 293 294 294 294 294 294 294 294 294 295 295 294 294 294 294 294 295 296 296 297 297 298 299 299 299 299 300 300 300 299 300 301 302 302 303 305 306 308 310 312
295 294 294 294 294 294 294 293 293 293 293 293 293 293 293 292 292 292 292 292 292 292 293 293 293 294 294 294 294 294 294 294 294 294 294 294 294 294 294 294 295 296 297 297 297 298 299 299 299 299 300 300 300 301 301 300 300 302 305 306 307 309 311
295 295 295 294 294 294 294 294 293 293 293 293 293 293 293 292 292 292 292 292 292 292 292 293 293 294 294 294 294 294 294 294 294 294 294 293 294 294 294 294 294 295 296 297 297 298 298 298 299 299 299 300 300 301 301 299 299 302 304 305 306 309 310
294 295 295 295 294 294 294 294 294 294 293 293 293 293 293 293 292 292 292 292 292 292 292 292 293 293 293 294 293 293 294 294 294 294 294 293 293 293 294 294 294 294 295 296 297 297 298 298 298 299 299 299 300 300 300 299 299 301 303 304 305 306 307

ECMWFFLT1_850_thetae_102.txt.gz
Theta_e
331 330 329 329 328 328 329 329 328 328 328 328 328 326 326 327 327 327 328 328 329 329 328 328 328 328 328 328 329 329 330 330 330 330 330 330 330 330 330 330 330 329 330 331 330 330 331 330 329 330 330 330 332 333 333 332 331 331 331 330 329 328 327
328 328 328 328 328 328 328 328 328 328 328 327 326 324 324 325 325 326 326 325 326 325 325 326 326 324 325 327 328 328 329 329 329 329 330 330 329 329 329 330 330 329 330 330 329 329 331 330 329 329 330 330 330 331 332 332 332 332 331 332 331 329 328
327 327 327 327 327 328 327 327 326 326 325 324 323 322 322 324 323 323 322 322 322 322 322 324 323 322 323 325 326 326 326 328 329 329 329 329 329 329 329 329 330 329 329 329 329 329 330 331 330 330 330 330 329 330 331 332 332 332 332 331 331 331 329
327 327 326 326 326 326 325 325 324 324 323 322 321 320 320 321 320 319 319 320 321 322 322 322 320 320 322 323 323 322 323 326 328 328 328 328 328 328 328 328 329 329 328 329 328 328 329 329 329 329 329 330 329 329 330 331 331 332 332 331 331 331 332
325 324 325 324 324 323 323 322 322 321 320 319 319 318 318 318 317 317 318 318 319 319 320 319 319 319 320 320 320 319 319 323 326 326 325 325 324 325 326 327 328 328 328 328 328 328 328 328 328 329 329 329 329 329 330 331 331 331 332 332 331 331 332
323 322 322 321 321 320 319 319 319 318 318 317 317 317 316 317 317 317 317 317 317 317 318 318 318 318 318 318 318 318 318 320 322 322 321 321 321 321 322 324 326 326 326 327 327 327 327 327 328 328 328 328 329 329 330 330 330 331 331 332 332 331 331
320 319 319 318 318 318 317 317 317 317 316 316 316 316 316 316 316 316 316 316 316 316 316 316 316 316 316 317 317 317 317 318 319 319 319 319 319 318 319 322 324 324 323 324 324 325 326 327 328 328 328 327 327 328 329 329 330 330 331 332 331 331 331
317 317 317 316 316 316 316 316 316 316 316 315 315 315 315 315 315 315 315 315 315 315 315 315 315 315 315 315 315 315 316 316 317 317 317 317 317 317 318 319 321 321 321 322 322 323 324 326 328 327 328 328 327 328 328 328 329 330 331 331 330 331 331
316 315 315 315 315 315 315 315 315 315 315 315 315 314 314 314 314 314 314 314 314 313 313 313 313 313 313 313 313 314 314 314 315 315 315 315 315 316 316 317 318 318 319 320 321 321 322 323 325 324 325 327 328 329 328 328 329 329 330 330 330 331 332
314 314 314 314 314 314 314 315 314 314 314 314 314 313 313 313 313 313 313 312 312 312 312 312 312 312 312 312 312 312 312 313 313 313 313 313 314 314 314 315 315 316 317 317 318 318 318 319 319 321 322 325 326 328 328 328 328 328 328 329 330 330 332
313 313 314 313 314 314 314 314 314 313 313 313 312 312 312 312 312 312 311 311 311 311 311 310 310 310 310 310 310 310 310 310 311 311 311 311 312 312 312 313 313 314 314 315 315 315 316 316 316 317 319 321 322 324 326 326 327 327 327 327 329 330 330
312 313 313 313 313 313 313 313 312 312 311 311 311 311 311 310 310 310 309 309 308 308 307 307 307 307 307 307 307 307 307 307 307 308 308 308 309 310 310 310 311 312 313 313 313 314 314 314 314 315 316 317 318 320 322 323 324 326 326 326 327 328 329
311 312 312 312 312 312 311 311 310 310 310 309 309 309 308 308 308 307 306 306 305 305 304 304 304 304 304 304 304 304 304 305 305 305 306 307 307 308 309 309 309 310 311 311 312 312 313 313 313 314 314 315 315 317 319 320 321 323 324 325 326 327 328
310 310 310 310 310 309 309 309 308 308 308 307 307 306 306 305 305 304 304 303 303 302 302 302 302 302 302 301 302 302 302 302 302 303 304 305 306 306 307 308 308 309 309 309 310 310 311 312 312 312 313 313 314 315 316 317 318 319 320 322 324 326 327
309 309 309 308 308 308 307 307 306 306 305 305 305 304 303 303 302 302 301 301 300 300 300 300 299 299 299 299 299 300 300 300 300 301 301 303 305 305 305 306 307 308 308 308 309 309 309 310 310 310 311 311 312 312 313 314 315 316 317 318 320 323 325
308 308 308 307 307 306 305 305 304 304 303 303 302 301 301 300 300 299 299 298 298 298 298 298 298 298 298 298 298 298 298 299 299 300 302 303 304 304 304 305 305 306 306 307 307 308 308 308 308 308 309 309 310 310 311 311 312 313 314 315 316 318 321
307 307 306 305 304 304 303 303 302 301 300 300 299 298 298 298 297 297 296 296 296 296 297 297 297 297 297 297 297 297 298 299 299 300 302 303 304 304 304 304 305 305 305 305 306 306 306 306 306 307 307 307 308 308 309 310 310 310 311 313 314 315 316
306 305 304 303 302 301 301 300 299 298 297 297 297 296 296 296 295 295 295 295 296 296 296 296 296 296 297 297 297 297 298 299 300 301 302 303 303 303 303 304 304 304 304 304 305 305 305 305 306 306 306 306 305 306 307 308 309 310 310 311 313 314 315
304 303 302 300 300 299 298 297 297 297 296 296 296 295 295 295 295 295 295 295 295 296 296 296 296 296 297 297 297 297 298 298 299 301 302 302 302 303 302 303 303 303 303 303 303 303 304 304 305 305 305 304 304 304 305 306 308 309 310 311 312 313 314
301 300 299 298 298 297 296 296 296 295 295 295 295 295 295 295 294 294 295 295 296 296 296 296 296 296 297 297 297 298 298 298 299 300 301 302 302 302 302 302 302 302 302 302 301 301 302 302 303 304 304 304 304 304 305 306 306 307 308 310 311 312 313
299 298 297 297 296 296 295 295 295 295 295 295 295 295 294 294 294 295 295 296 296 296 296 296 296 297 297 297 297 298 298 298 299 300 301 301 301 301 301 301 301 301 301 300 300 300 301 301 301 302 303 303 303 304 304 305 305 305 306 307 309 311 312
297 296 296 296 295 295 295 295 295 294 294 294 294 294 294 294 294 295 296 296 296 296 296 296 297 297 297 297 297 298 298 299 299 300 300 300 300 300 300 300 300 300 299 299 299 299 300 301 300 300 301 301 302 302 303 304 305 305 305 305 306 309 310
296 296 295 295 294 294 294 294 294 294 294 294 294 294 294 294 295 296 296 296 296 296 296 296 296 297 297 297 297 297 298 299 299 299 299 300 299 299 299 299 299 299 299 299 299 299 299 300 300 300 300 301 301 301 302 303 304 305 305 304 304 306 307
296 295 294 294 294 294 294 294 294 294 294 294 294 294 294 295 295 296 296 296 296 296 296 296 296 296 296 296 297 297 297 298 298 299 299 299 299 299 299 299 299 299 299 299 298 298 298 299 300 300 301 301 301 301 301 301 302 303 304 303 304 305 306
295 294 294 294 294 294 294 294 294 294 294 294 294 294 294 295 295 296 296 296 296 295 296 295 296 296 296 296 296 296 297 297 298 298 299 299 298 299 298 298 298 298 298 298 298 297 298 299 300 300 301 302 302 301 301 301 301 302 302 303 303 305 306
294 294 294 294 294 294 294 294 294 294 294 294 294 294 294 295 295 296 296 296 296 295 295 295 295 296 296 296 296 296 298 298 298 298 298 298 298 298 298 298 298 298 297 298 297 297 298 299 300 300 301 302 302 301 301 301 301 301 301 302 302 304 306
294 294 294 294 294 294 293 294 294 294 294 294 294 294 294 294 295 295 295 296 296 295 294 295 295 295 295 295 295 296 297 298 298 298 298 298 298 298 297 297 297 297 297 297 297 298 298 299 299 300 300 301 301 301 302 302 301 300 300 301 302 302 304
294 294 294 294 293 294 294 293 293 293 294 294 294 294 294 294 294 294 294 296 296 295 294 294 295 295 295 295 295 295 296 297 298 298 298 298 297 297 297 297 296 296 296 297 297 298 299 299 299 300 300 300 300 301 301 301 300 300 300 300 301 302 303
294 294 294 294 293 293 293 293 293 293 293 293 293 293 293 294 294 294 294 295 296 295 294 294 294 294 294 295 295 295 296 297 297 297 297 297 297 297 297 296 296 296 296 297 297 298 299 299 299 299 299 300 300 300 301 300 300 300 300 300 301 302 303
294 294 294 294 293 293 293 293 293 293 293 293 293 293 293 293 293 294 293 294 295 295 294 293 294 294 294 294 294 295 295 296 297 297 297 297 297 297 297 296 295 296 296 297 297 298 299 299 299 299 298 299 300 300 300 301 301 301 300 301 301 302 302
294 294 294 294 293 293 293 293 293 293 293 293 293 293 293 293 293 293 293 293 294 295 295 294 294 294 294 294 294 295 295 296 297 297 297 297 297 296 296 296 295 295 296 297 297 298 298 298 299 299 298 298 299 299 300 301 301 301 300 301 301 302 302
294 294 293 293 294 293 293 293 293 293 294 294 293 293 293 293 292 292 293 293 293 294 294 294 293 293 294 294 294 294 294 295 296 297 296 296 296 296 296 296 295 295 296 297 297 298 298 298 299 299 298 298 298 298 299 300 299 299 300 301 302 302 302
294 294 294 293 294 294 294 293 293 294 294 294 293 293 293 293 293 292 292 293 293 293 293 293 294 293 293 294 294 294 294 295 296 296 296 296 296 296 296 296 295 295 296 297 297 297 298 298 299 299 298 298 298 298 299 300 299 299 299 301 302 302 302
294 294 294 294 294 294 293 293 294 295 295 294 293 293 293 294 294 294 293 293 293 293 293 293 293 293 293 293 294 294 294 294 295 296 296 296 296 296 295 295 295 295 296 296 296 297 297 298 298 298 298 298 298 298 299 299 299 299 299 300 300 300 301
294 294 295 295 295 294 294 293 294 295 295 294 293 293 294 295 296 296 295 294 294 294 294 293 293 293 293 293 293 294 294 294 294 295 296 295 295 295 295 294 294 294 295 295 296 296 297 298 298 298 298 298 298 298 299 299 299 299 298 299 299 299 300
294 294 295 296 296 296 296 295 295 295 296 297 296 296 295 296 297 297 296 296 295 294 294 294 293 293 293 293 293 293 294 294 294 294 295 295 295 295 294 293 293 294 294 295 295 295 296 297 298 298 298 298 298 298 298 299 300 299 299 298 298 298 300
295 295 297 298 298 297 297 297 297 297 297 298 298 297 297 297 297 297 297 297 296 295 295 295 294 293 292 293 293 293 293 294 293 294 295 295 295 295 294 293 294 294 294 294 295 295 295 297 298 298 298 298 298 298 298 298 299 299 299 298 298 298 299

ECMWFFLT1_850_thetae_105.txt.gz
Theta_e
333 333 333 332 332 331 329 329 329 328 327 327 327 327 327 327 326 327 328 328 328 329 328 328 328 328 327 327 328 329 330 331 331 331 332 332 332 332 332 331 332 332 331 331 331 332 332 331 330 330 331 331 332 332 331 329 329 329 330 331 331 332 332
331 331 330 330 329 328 328 328 328 328 327 326 326 325 325 325 324 325 325 324 324 324 324 325 325 324 324 325 326 327 327 328 330 330 330 331 331 331 331 331 331 331 331 331 331 332 332 332 331 331 331 331 331 331 331 330 329 328 329 330 331 331 331
329 329 329 329 329 329 329 328 327 327 325 324 324 323 322 321 320 322 322 321 320 320 320 321 321 321 322 323 323 323 323 324 326 328 328 328 329 329 329 329 330 330 330 331 331 331 331 331 331 330 330 330 331 331 331 331 330 328 329 330 331 331 330
329 329 329 328 328 328 327 326 326 324 323 322 322 321 318 317 318 319 319 319 319 319 319 319 319 319 320 320 321 322 321 320 322 324 326 327 326 326 326 326 327 327 328 329 329 329 330 330 330 330 330 330 330 330 331 331 331 330 330 330 330 331 330
328 328 327 326 325 325 324 324 323 322 321 320 319 318 317 316 317 317 317 318 318 317 318 318 318 318 318 319 320 320 318 318 318 320 322 323 322 321 322 323 323 324 325 326 326 327 328 328 328 329 329 329 329 330 330 330 330 331 331 331 331 330 330
324 324 324 323 323 322 321 321 321 320 320 318 317 317 316 316 316 316 316 316 316 316 316 315 316 316 316 317 317 316 316 316 316 316 318 318 318 318 319 319 320 321 322 323 324 324 325 325 326 327 328 328 328 329 329 329 330 330 330 330 330 330 331
321 321 321 320 320 320 319 319 319 319 318 317 316 316 316 315 315 315 315 315 315 314 314 313 314 313 313 314 315 314 314 314 314 315 316 316 316 316 316 316 317 318 319 320 321 321 322 323 323 324 325 325 326 327 328 328 328 329 329 330 330 330 331
319 318 318 318 318 317 317 317 317 317 317 316 316 315 315 314 315 315 314 314 313 312 312 312 312 312 312 312 312 312 312 312 312 313 314 314 314 315 315 315 315 316 317 319 319 319 319 320 320 321 322 323 323 324 325 326 327 328 329 329 329 330 330
317 316 316 316 316 316 316 316 316 316 316 315 314 314 314 314 313 313 313 312 311 311 311 310 310 310 309 309 309 309 309 309 309 312 313 313 313 313 314 314 314 315 316 317 317 317 317 318 318 319 319 320 321 322 322 323 325 326 328 328 328 329 329
316 316 315 315 315 315 315 315 315 315 314 313 313 313 313 312 312 311 310 309 309 308 308 307 307 307 306 306 306 305 306 306 306 309 310 311 311 312 312 312 313 314 314 315 314 315 315 316 316 317 317 318 318 319 320 321 322 323 325 326 327 327 328
314 315 314 314 314 314 315 315 314 313 312 312 312 312 311 310 309 308 307 306 305 305 305 304 304 304 303 303 303 303 303 303 304 306 307 308 310 310 311 311 311 312 312 312 312 312 313 314 314 315 315 315 316 317 318 319 319 320 321 323 324 325 326
313 314 313 313 313 314 314 313 312 311 311 311 311 310 308 306 305 305 304 303 303 302 302 302 301 301 301 300 300 301 300 301 304 304 305 307 308 308 309 310 310 310 310 310 310 310 311 312 312 313 313 313 313 314 315 316 316 317 318 319 320 320 321
312 312 312 312 312 312 312 311 311 310 309 308 307 306 305 304 304 303 302 300 300 299 299 299 299 298 298 298 298 299 298 299 302 303 303 305 306 307 308 309 309 309 309 309 309 309 309 310 310 310 310 311 311 312 312 313 314 314 314 315 316 316 316
311 311 311 311 311 311 311 310 308 307 306 305 304 304 303 303 302 301 300 298 297 297 297 297 297 296 296 297 297 297 297 298 300 301 303 305 306 307 307 308 308 308 308 308 308 308 308 308 308 308 308 308 309 309 310 310 311 311 311 311 312 313 313
311 310 310 310 310 309 309 307 305 304 303 302 303 302 301 300 300 299 298 296 296 296 296 296 296 296 296 297 297 297 298 299 301 303 305 306 306 306 307 307 307 307 307 307 306 306 306 306 306 306 306 306 307 307 307 308 309 309 310 310 310 311 311
310 310 309 308 307 305 304 304 303 302 301 300 299 299 299 299 299 299 298 296 295 295 296 296 296 296 296 297 298 300 300 301 303 305 305 305 306 306 306 306 306 306 306 305 305 304 304 304 304 304 304 304 305 305 305 306 306 307 307 308 308 309 309
309 308 307 305 304 302 301 302 301 300 300 300 299 298 299 299 299 299 299 297 295 295 296 296 296 296 296 297 299 301 301 302 303 304 305 305 305 305 305 305 305 305 304 304 303 303 302 302 302 302 302 303 303 303 303 304 304 304 305 305 306 306 307
306 304 303 302 301 300 299 299 299 299 299 299 298 299 300 301 301 300 298 296 296 295 296 296 296 296 296 297 299 301 302 302 303 304 304 304 304 304 304 304 304 304 303 302 302 302 301 301 301 301 301 301 301 302 302 302 302 303 303 304 304 305 306
303 301 301 300 299 298 298 299 299 299 299 299 298 299 299 300 301 300 297 296 296 296 296 296 296 296 296 296 299 302 303 303 304 304 304 304 303 303 303 303 303 302 302 301 301 300 300 300 299 299 300 300 300 300 301 301 301 302 302 303 304 304 305
301 300 299 298 297 296 297 297 298 298 299 300 300 300 300 299 300 299 297 296 296 296 296 296 296 296 296 296 300 303 304 303 303 304 303 303 303 302 302 302 302 301 301 300 300 299 299 299 298 298 299 299 299 299 300 300 301 301 302 302 303 304 305
299 299 297 297 296 295 295 295 296 296 296 298 301 302 302 301 301 299 297 296 296 295 295 296 296 296 296 296 299 303 304 303 303 303 303 302 302 301 301 301 301 301 300 300 299 298 298 298 298 298 299 299 299 299 299 300 300 300 301 301 302 303 304
298 297 296 296 296 295 295 295 295 296 296 297 299 302 302 302 302 301 298 296 296 295 295 296 295 296 296 295 297 301 303 303 303 303 302 302 301 301 301 301 301 300 299 298 298 297 298 298 298 299 299 299 299 299 299 299 299 300 300 301 302 302 303
298 297 297 297 296 296 295 295 295 296 296 296 297 299 301 302 302 301 297 295 295 295 295 296 296 295 296 296 296 299 302 303 302 302 302 301 301 301 300 300 300 299 298 298 297 297 297 298 299 299 300 300 300 299 299 299 299 300 300 300 301 301 302
300 298 298 297 296 296 295 294 294 294 294 295 296 298 300 300 300 299 297 295 295 295 295 295 295 295 295 296 295 298 302 303 302 301 301 301 300 300 300 299 299 299 298 298 297 297 298 298 299 300 300 300 300 299 299 299 299 299 300 300 300 301 301
299 298 297 296 295 295 294 294 295 295 295 295 296 297 298 298 299 300 299 295 294 295 295 295 295 295 295 295 295 298 301 302 301 301 300 300 300 299 299 299 298 298 298 297 297 297 298 299 299 300 300 300 300 299 299 299 299 299 299 300 300 300 301
296 295 295 294 294 294 294 295 295 295 295 295 295 295 296 297 299 301 300 297 294 294 295 294 295 295 295 295 295 298 301 301 301 301 300 300 299 299 299 298 298 297 297 297 297 297 298 298 299 300 300 300 300 299 299 299 299 299 299 299 299 299 300
295 295 295 295 295 295 295 296 297 297 297 297 296 296 295 295 297 299 301 299 295 294 294 294 294 294 295 295 295 298 300 301 300 300 300 299 299 299 298 298 297 297 297 297 297 297 298 298 299 299 300 300 300 299 299 299 299 299 299 298 298 298 298
297 297 296 295 295 296 297 298 299 299 299 298 298 297 295 295 295 298 301 301 296 293 294 294 294 294 294 295 296 299 300 300 300 300 300 299 299 299 298 298 297 297 296 296 296 297 298 298 298 299 299 299 299 299 299 299 299 299 299 299 298 297 297
299 299 298 296 296 297 299 300 300 299 300 299 298 296 295 295 294 295 299 300 297 294 293 294 294 294 294 294 295 298 300 300 300 300 300 299 299 299 298 297 297 296 296 296 297 297 298 298 298 298 298 298 298 298 298 299 299 300 299 299 299 298 298
300 300 299 299 298 299 300 300 300 300 300 300 299 298 296 295 294 293 295 297 297 294 293 294 294 294 294 294 294 297 299 300 300 300 299 299 299 298 298 297 297 296 295 296 297 297 298 298 298 298 298 298 298 298 298 299 300 300 300 299 298 298 298
300 300 300 300 300 300 300 300 300 300 300 300 300 300 299 297 295 294 293 294 294 294 293 294 294 294 294 293 294 295 297 298 299 299 299 299 299 298 297 297 297 295 295 296 297 297 297 297 298 298 298 298 298 298 298 299 299 299 299 298 298 297 298
300 300 300 300 301 301 301 301 300 300 300 300 300 300 300 299 297 296 295 294 293 293 293 293 293 293 294 293 293 294 294 295 297 299 299 298 298 298 297 297 296 295 295 296 296 296 296 296 297 298 297 297 297 297 298 299 298 298 298 298 298 297 298
300 300 300 301 301 301 301 301 300 300 300 300 301 300 300 300 299 298 298 297 294 293 293 293 293 293 293 293 293 293 294 294 295 297 299 298 298 298 297 297 296 295 295 296 296 296 296 296 297 297 297 297 297 297 297 298 298 298 298 298 298 297 297
299 299 299 300 301 301 301 301 301 301 300 300 301 301 301 301 300 299 299 299 297 294 293 293 293 293 293 293 293 293 293 293 293 295 298 298 298 297 297 297 296 295 295 295 295 296 296 296 296 297 297 297 297 297 297 297 298 298 298 298 298 297 297
299 300 300 301 301 301 301 302 302 301 301 301 301 301 301 301 301 301 300 300 299 297 295 293 292 292 293 292 293 293 293 293 292 294 297 298 298 297 297 297 296 295 295 295 296 296 296 296 296 296 297 297 297 297 296 296 297 298 298 298 298 297 297
300 302 302 302 301 301 301 302 302 302 302 301 301 301 301 300 301 301 300 300 299 299 298 295 292 292 292 292 292 292 292 292 292 293 295 297 297 297 297 296 296 295 295 295 295 296 296 296 296 296 296 297 297 296 296 296 296 298 298 297 297 297 297
301 302 302 302 302 302 302 301 301 301 301 301 301 300 300 300 300 301 300 300 299 298 298 296 294 292 292 292 292 291 292 292 292 293 295 296 296 296 296 296 295 295 295 295 295 296 296 296 296 296 296 296 296 296 295 296 296 297 297 297 297 297 297

ECMWFFLT1_850_thetae_108.txt.gz
Theta_e
334 334 334 334 333 332 331 331 330 328 328 328 328 328 327 327 327 328 328 329 328 328 329 328 328 328 328 327 326 326 327 327 328 328 328 328 328 329 330 330 330 330 330 331 331 331 331 330 330 329 329 330 330 330 331 331 330 331 331 330 330 329 328
333 332 332 332 331 331 330 328 328 327 326 325 325 324 323 322 323 323 324 324 323 324 324 323 322 321 321 321 320 321 323 324 324 325 326 326 326 326 327 327 327 327 327 328 327 327 328 328 329 328 328 329 328 328 329 330 330 330 331 330 330 330 330
331 330 330 330 329 328 328 327 327 326 325 324 323 322 320 319 319 319 318 318 317 318 317 317 317 316 316 317 317 317 317 318 319 320 322 323 324 325 326 326 325 324 324 324 323 323 324 325 326 326 326 327 327 327 327 328 329 330 330 330 330 330 330
329 329 329 329 328 328 327 326 325 324 323 322 321 319 318 318 317 316 316 316 316 316 315 315 315 315 315 316 316 315 315 315 315 316 318 319 321 321 322 322 321 320 321 321 322 322 322 323 323 323 324 324 325 325 325 326 327 327 328 329 329 329 330
329 329 329 328 327 326 325 324 323 322 322 320 318 317 316 316 316 316 316 316 315 315 314 314 313 313 313 314 314 313 313 313 313 314 315 315 316 316 316 317 317 317 318 319 320 320 321 321 320 321 321 321 321 321 321 322 323 323 326 328 328 329 329
328 327 326 325 324 323 323 323 322 321 320 318 316 316 316 316 315 315 315 314 313 313 312 312 312 312 312 311 311 311 311 311 311 313 314 313 314 314 314 314 314 315 317 318 318 318 318 318 318 318 318 318 319 319 319 319 320 321 323 324 327 328 328
325 324 323 323 321 321 321 321 320 319 317 316 316 316 315 315 314 314 313 312 311 311 311 310 310 310 309 309 309 308 309 309 309 312 313 312 312 312 312 313 313 314 316 316 316 317 316 316 317 317 317 316 317 317 317 318 318 319 320 320 323 326 327
322 321 321 320 319 319 319 318 318 317 316 315 315 314 314 314 313 312 310 310 310 309 309 308 308 308 307 307 307 306 306 306 306 309 310 309 309 310 310 310 311 312 314 314 314 314 314 314 315 315 315 315 315 315 315 316 316 317 318 319 319 321 323
319 318 318 317 317 316 317 316 316 317 316 314 314 313 313 312 311 310 309 308 307 307 307 306 306 305 305 305 304 304 303 303 304 305 305 307 308 307 308 309 309 310 311 310 310 311 310 311 313 313 313 313 314 314 314 314 315 315 315 316 316 316 319
316 316 316 316 315 315 315 315 315 315 313 313 313 312 310 309 308 307 306 306 305 304 304 304 303 303 302 302 301 301 301 300 302 301 301 305 306 305 306 308 309 310 310 309 309 309 309 309 310 311 311 311 311 312 312 312 313 313 313 314 314 314 314
314 314 314 314 314 314 315 314 313 313 312 312 312 310 307 306 305 304 304 303 302 302 301 301 300 300 299 299 299 298 298 299 300 300 300 304 306 306 307 308 309 309 308 307 308 308 308 308 308 308 308 309 309 309 310 310 310 310 311 311 311 311 310
313 313 313 313 313 313 314 313 312 312 312 311 309 307 305 304 303 302 301 300 299 299 299 298 298 298 298 297 297 297 297 299 301 302 304 306 306 307 308 307 308 308 306 306 306 306 306 306 305 305 305 306 306 307 307 307 308 307 307 308 307 306 306
313 313 313 312 312 312 312 312 311 309 308 308 307 306 304 302 301 300 298 298 297 297 297 297 296 296 297 296 297 297 297 299 302 304 306 307 306 306 306 306 307 306 305 305 303 303 303 303 302 302 302 303 303 304 304 305 305 305 305 305 305 304 302
312 312 312 312 312 311 311 311 309 307 306 306 305 303 302 301 300 298 297 296 296 296 296 296 296 296 297 297 297 298 298 301 304 304 305 306 305 305 305 306 306 305 303 302 301 301 301 301 301 301 301 301 301 302 303 303 303 303 303 303 303 302 302
312 311 312 312 311 309 307 307 306 304 304 303 302 301 301 302 299 296 296 296 296 296 296 296 296 296 297 299 299 299 299 302 304 304 305 305 305 305 304 304 304 302 300 300 300 300 300 299 299 299 300 300 300 300 301 301 302 302 302 302 302 302 302
311 311 310 310 308 306 305 305 304 302 301 300 300 300 301 301 299 296 295 295 295 296 296 296 296 296 296 299 301 301 300 302 303 304 305 305 304 303 303 303 302 300 299 299 299 299 298 298 299 299 299 299 299 299 299 300 300 301 301 301 301 301 302
310 310 309 308 306 305 304 304 303 301 300 300 301 301 300 299 297 295 295 295 295 295 296 296 296 296 296 300 303 303 302 304 304 304 305 304 302 303 302 302 302 300 299 299 298 298 298 298 298 299 299 299 299 300 300 300 300 300 300 300 300 301 301
309 308 306 305 304 303 302 302 301 301 301 302 303 304 302 298 295 295 295 295 295 295 296 296 296 296 297 300 304 303 303 304 305 303 303 303 302 302 302 302 302 300 299 298 297 297 297 298 298 298 299 299 300 300 300 300 300 299 299 299 300 300 300
306 304 303 303 302 301 301 302 301 300 300 299 301 302 301 298 295 295 295 295 295 295 295 296 295 296 297 298 302 304 303 304 304 303 302 303 302 302 301 301 301 299 299 298 297 297 297 297 298 299 299 300 300 300 300 299 299 298 298 299 299 300 300
303 302 302 301 301 302 303 302 302 302 302 301 300 299 298 296 295 295 295 295 295 295 295 296 295 296 297 297 300 304 303 303 303 302 302 302 302 301 301 301 300 299 298 298 297 297 297 298 298 299 299 299 300 299 298 298 297 297 298 298 299 300 300
302 301 300 299 299 300 300 300 300 301 303 303 303 302 301 299 296 295 295 295 295 295 295 295 295 295 296 297 299 302 303 303 302 302 301 302 301 301 300 299 299 299 298 298 297 296 297 297 298 298 299 299 299 299 297 297 297 298 298 299 299 299 300
300 299 298 298 298 298 298 298 298 299 302 304 304 304 303 301 297 294 295 295 295 295 294 295 295 295 295 297 298 301 303 303 302 301 301 301 301 300 300 299 298 299 298 297 296 296 297 297 298 299 299 299 299 298 297 297 297 298 298 299 299 299 299
299 298 298 298 297 297 298 298 298 299 300 302 303 304 303 300 296 294 295 295 294 295 295 294 295 295 295 296 297 299 301 302 302 301 301 301 300 300 299 298 298 298 297 296 296 296 297 298 298 299 299 298 298 297 297 297 297 298 298 298 299 299 299
299 298 298 298 297 297 297 297 297 297 297 299 301 302 301 298 295 294 294 295 294 294 295 294 295 295 295 296 297 298 300 302 302 301 300 300 300 300 299 298 298 298 297 296 296 297 297 298 298 299 298 298 298 297 297 297 298 298 298 298 298 298 298
301 300 298 297 296 296 296 295 295 295 296 297 298 299 299 299 299 296 294 294 294 294 294 294 294 295 295 295 296 298 300 302 302 301 300 300 300 299 298 298 298 297 296 296 296 297 297 298 298 298 298 298 297 297 297 298 298 298 298 298 297 297 297
300 298 296 295 295 295 295 294 295 294 295 295 295 296 298 301 301 298 294 294 294 294 294 294 294 294 295 295 296 298 300 301 301 300 300 300 300 299 299 298 297 297 296 296 297 297 297 297 298 298 298 297 297 297 297 298 298 298 298 297 297 297 297
296 295 295 295 295 294 294 294 295 295 295 294 294 295 296 299 301 300 296 293 294 294 294 294 294 294 295 296 297 299 300 301 301 300 300 299 299 299 298 298 297 296 296 296 296 296 296 297 297 297 297 297 297 297 297 297 298 298 298 297 297 297 297
295 296 297 297 296 296 296 296 297 297 296 295 294 294 294 297 301 301 296 293 294 294 294 294 294 294 294 295 296 299 301 301 301 300 299 299 299 299 298 298 297 296 295 296 296 296 296 296 296 296 297 297 297 297 296 296 297 298 298 297 297 297 297
297 298 298 298 297 296 295 296 296 296 295 295 294 294 294 295 298 298 296 293 294 294 294 294 294 294 294 294 294 297 299 300 301 300 299 299 299 299 298 297 297 296 295 296 296 296 296 296 296 296 296 296 296 296 296 296 297 298 298 297 297 297 297
299 299 298 298 297 297 297 297 297 296 296 295 294 293 293 293 294 295 295 294 294 294 293 293 293 293 293 294 293 294 296 298 300 300 299 299 299 299 298 298 298 296 295 295 296 296 296 296 296 296 296 296 296 296 296 296 297 297 297 297 297 297 297
301 300 299 297 297 298 298 297 297 298 299 299 298 297 295 294 293 293 293 294 294 293 293 293 293 293 293 293 293 293 294 295 297 298 298 298 299 299 298 298 297 296 295 295 296 296 296 296 296 296 296 296 296 296 296 296 296 297 297 297 297 297 297
301 300 298 297 297 298 298 299 299 299 300 300 301 299 297 296 296 295 294 293 293 293 293 293 293 293 293 293 293 293 293 293 295 297 298 298 299 298 298 298 297 296 295 295 296 296 296 296 296 296 296 296 296 296 296 296 296 296 296 297 297 297 297
301 299 298 298 299 300 301 301 301 302 302 301 301 300 299 298 298 298 297 295 294 293 293 292 292 293 293 293 293 293 293 292 294 295 297 298 298 298 298 298 297 296 295 295 296 296 296 296 296 295 296 296 296 296 296 296 296 296 296 296 296 297 297
300 298 298 299 300 301 301 301 301 301 301 301 302 302 301 301 300 300 300 298 295 294 293 292 292 292 292 293 293 293 293 292 293 294 295 296 297 297 297 297 296 295 296 296 295 296 296 296 296 296 296 296 296 296 296 296 296 296 296 296 296 297 297
298 298 299 300 301 302 302 301 301 300 300 301 302 302 302 302 302 301 301 299 297 294 293 292 292 292 292 292 292 292 292 292 293 293 293 294 295 296 296 296 295 295 296 296 296 296 296 296 296 296 296 296 296 296 295 295 296 296 296 296 296 296 297
297 298 299 300 301 302 302 302 302 302 301 301 302 302 302 302 302 301 300 300 298 296 294 293 292 292 292 292 292 292 292 292 293 293 293 294 295 295 296 296 296 296 296 296 296 296 296 296 296 295 296 296 295 296 295 295 296 296 295 295 296 296 297
298 299 300 301 301 302 302 302 302 303 302 302 301 301 301 302 302 301 301 300 298 297 295 293 292 292 292 292 292 292 292 292 292 293 293 294 295 296 296 296 296 296 296 296 296 296 296 296 295 295 296 295 295 295 295 295 295 295 295 295 295 296 296

ECMWFFLT1_850_thetae_111.txt.gz
Theta_e
333 333 333 334 334 334 334 333 333 332 331 331 331 331 331 331 330 329 329 330 330 329 329 328 327 327 326 325 325 324 323 323 323 324 323 322 321 322 323 325 325 325 325 324 322 321 322 322 322 322 322 322 322 322 322 324 325 327 329 328 328 328 328
334 334 334 334 334 333 332 332 331 330 330 329 328 328 328 328 327 326 326 326 327 326 325 323 322 320 319 318 318 318 318 318 319 319 319 318 318 318 318 319 320 321 320 319 319 319 319 320 321 321 320 319 318 317 318 319 320 322 324 324 325 325 325
333 333 333 333 332 332 331 330 329 328 328 327 327 326 325 324 323 322 321 320 320 320 319 318 317 316 315 316 315 314 314 314 315 315 315 315 315 315 316 316 316 316 316 316 316 317 317 318 318 318 317 317 317 315 315 315 316 317 318 320 323 323 323
332 332 332 331 330 329 329 328 327 327 326 326 325 323 321 320 318 317 317 316 316 316 315 314 314 314 313 313 313 312 312 312 312 313 312 312 312 312 313 313 314 315 315 316 316 316 316 316 316 316 315 315 315 314 313 313 313 313 314 317 321 322 321
332 330 330 329 328 327 327 326 326 325 324 324 322 319 317 316 316 316 315 315 315 314 313 312 312 312 311 311 310 310 310 310 311 311 310 309 309 309 309 311 313 314 314 314 315 315 314 314 314 313 313 313 313 312 311 310 310 310 312 314 318 320 319
329 329 328 328 327 326 325 325 324 324 323 322 318 316 316 315 315 315 314 313 312 312 311 311 310 310 309 309 308 308 308 308 308 308 307 306 306 306 306 308 311 312 312 312 312 311 311 311 311 311 311 311 311 310 309 308 307 307 308 310 313 315 316
328 328 328 327 326 325 324 323 323 323 322 319 316 315 315 314 314 313 312 311 310 310 309 309 308 308 307 307 306 305 305 305 305 304 304 304 303 304 305 307 309 310 309 308 307 307 308 309 309 309 309 309 309 308 306 305 304 304 304 305 306 308 310
328 327 327 327 326 324 323 322 322 322 319 316 315 315 314 313 311 310 310 309 308 308 307 307 306 305 305 304 303 303 303 302 302 301 302 302 302 304 306 308 308 308 306 305 304 305 307 308 308 308 308 307 306 304 303 302 301 302 302 301 301 302 303
327 327 326 325 324 322 321 320 320 318 315 314 314 313 313 311 309 308 308 307 306 306 305 304 303 303 302 301 301 301 300 300 300 301 301 301 302 305 306 307 307 305 304 303 302 303 304 304 305 305 306 305 305 304 303 301 299 299 301 300 299 299 299
325 325 324 323 322 321 319 318 316 314 313 313 312 310 309 308 306 306 305 304 304 303 302 301 301 300 299 299 299 299 299 300 301 302 302 301 303 305 306 306 305 303 302 301 300 300 300 300 300 301 302 302 302 303 303 302 300 299 300 299 299 299 298
323 322 322 321 320 318 316 314 313 312 313 312 310 307 306 305 305 304 303 302 301 300 300 299 298 298 298 298 298 299 300 301 301 301 301 301 302 303 304 304 302 301 300 299 299 298 298 299 298 299 299 299 300 300 301 301 301 300 300 299 299 299 300
319 318 318 317 316 314 313 312 312 312 312 310 308 305 304 304 303 302 301 300 299 298 298 298 297 297 297 297 298 298 300 301 301 301 300 300 301 302 302 301 300 299 298 298 298 298 298 299 299 299 299 299 299 299 299 300 300 300 300 300 300 300 300
314 314 313 313 313 312 312 312 311 311 310 308 306 305 304 302 301 300 299 298 297 297 297 297 297 297 297 297 298 299 300 300 301 301 300 299 300 300 299 298 298 297 298 298 298 298 298 298 299 299 299 299 299 299 299 299 299 300 300 300 300 300 301
313 312 312 312 312 311 311 310 310 310 308 306 305 303 302 300 299 298 297 297 297 297 296 296 297 297 297 298 298 298 299 299 300 300 299 298 298 298 298 297 297 297 297 298 298 298 298 298 298 299 299 299 300 300 299 298 298 299 300 300 300 301 301
312 312 312 312 311 311 310 308 308 307 306 305 303 301 299 298 297 297 296 296 296 296 296 296 297 297 297 298 299 300 300 299 299 299 298 298 299 298 297 297 297 297 297 297 297 298 298 298 298 299 299 299 299 300 300 299 297 297 298 299 299 300 300
312 312 311 311 310 309 308 307 306 305 303 303 302 300 298 296 296 296 296 296 296 296 296 296 297 297 297 298 300 303 303 301 300 299 300 300 300 298 297 296 297 297 297 297 297 297 298 298 298 298 299 299 299 300 299 298 297 297 297 298 298 298 299
311 311 309 308 307 306 305 304 303 302 302 301 300 299 297 296 296 296 296 296 296 296 296 296 297 297 297 298 301 304 304 301 300 301 301 301 299 298 297 296 296 296 296 296 297 297 297 298 298 298 299 299 299 299 299 297 296 296 297 297 297 297 298
311 310 308 307 306 305 304 302 301 302 302 301 299 297 296 295 295 295 295 296 296 296 296 296 298 298 298 299 301 303 303 301 300 301 301 300 298 297 296 296 296 296 296 296 297 297 297 298 298 298 298 298 298 298 297 296 296 296 297 297 297 297 298
309 308 307 306 305 304 303 301 302 303 303 302 300 296 295 295 295 295 295 295 295 295 296 296 297 298 299 300 300 301 302 301 300 301 300 298 297 297 296 296 296 296 295 296 297 297 297 298 298 298 298 298 297 297 296 296 296 297 297 298 298 298 298
307 306 305 304 304 303 302 301 301 302 302 301 299 296 295 295 295 295 295 295 295 295 295 296 297 298 300 300 300 301 301 300 300 301 299 297 297 296 296 296 296 296 295 296 297 297 297 298 298 297 297 297 296 296 296 296 297 297 298 298 298 298 298
305 304 303 303 302 302 301 301 301 302 301 299 296 295 295 295 295 295 295 295 295 295 295 295 296 297 299 300 301 301 300 299 299 300 298 297 297 297 296 296 296 296 295 296 297 297 297 297 297 297 297 297 296 296 296 296 296 297 297 297 297 297 297
304 303 302 302 302 301 301 302 303 303 302 300 297 295 295 295 295 295 295 295 295 295 295 295 296 297 299 300 300 300 301 300 299 299 299 298 297 297 297 297 296 296 295 296 297 297 297 297 297 297 297 297 296 296 295 296 296 297 297 297 297 297 297
302 301 301 301 301 301 301 302 302 303 303 301 298 295 295 295 295 295 295 295 295 295 295 295 295 296 297 298 299 300 301 300 299 299 300 299 298 298 298 297 296 295 295 296 296 297 297 297 297 297 297 296 296 296 296 296 296 297 297 297 297 297 297
301 300 300 299 299 299 299 299 300 301 302 301 298 295 295 295 295 294 295 294 294 295 294 295 295 296 296 297 298 300 300 299 299 299 300 299 298 298 298 297 297 296 295 295 296 296 296 297 297 297 297 296 296 296 296 296 297 297 296 297 297 297 297
299 299 298 298 297 297 297 298 298 299 300 299 297 295 294 295 294 294 294 294 294 294 294 294 295 295 296 297 297 299 299 299 299 299 299 299 298 298 298 297 297 296 295 295 296 296 296 296 296 296 296 296 296 296 296 296 296 296 296 296 296 296 297
298 297 297 297 296 296 296 297 297 298 298 297 296 295 295 294 294 294 294 294 294 294 294 294 294 295 295 296 298 299 300 300 300 299 299 299 299 299 298 297 297 297 295 295 296 296 296 296 295 295 296 296 296 296 296 296 296 296 296 296 296 296 297
297 297 296 296 295 295 296 296 296 296 296 295 296 296 295 294 294 294 294 294 294 294 294 294 294 294 295 295 297 298 299 300 300 299 299 299 299 299 298 297 297 297 295 295 296 296 296 296 295 295 295 295 295 295 295 295 295 295 296 296 296 296 296
297 296 296 295 295 295 295 295 295 295 294 294 295 296 295 294 294 294 294 294 294 294 294 294 294 294 294 294 295 296 298 299 300 299 298 299 299 299 298 298 298 296 295 295 296 296 296 296 295 295 295 295 295 295 295 295 295 295 295 295 295 296 296
296 295 295 295 295 295 294 295 295 294 294 294 294 295 295 294 294 294 294 294 294 294 294 294 294 294 294 294 294 295 296 298 299 299 298 298 299 299 298 298 298 296 295 295 296 296 296 296 295 295 295 295 295 295 295 295 295 295 295 295 295 295 296
295 295 295 295 295 295 295 295 294 294 294 294 294 294 294 294 294 294 294 294 294 294 294 294 293 293 293 293 293 294 295 296 297 298 298 298 298 298 298 298 297 295 295 295 296 296 296 296 295 295 295 295 295 295 295 295 295 295 295 295 295 295 296
295 295 295 295 295 295 294 294 294 294 294 294 294 294 293 293 294 293 294 294 294 294 294 293 293 293 293 293 293 293 294 294 295 296 298 298 298 298 298 297 296 295 295 296 296 296 296 296 295 295 296 295 295 295 295 295 295 295 295 295 295 295 296
295 295 295 295 295 294 294 295 295 295 295 294 294 293 293 293 293 293 293 293 293 293 293 293 293 293 293 293 293 293 293 293 294 294 295 296 296 296 296 296 295 296 296 295 296 296 296 296 295 295 295 295 295 295 295 295 295 295 295 295 295 295 296
295 295 295 295 295 296 297 297 298 298 296 295 294 294 294 294 293 293 293 293 293 293 293 293 293 293 293 293 293 293 293 293 293 293 294 294 294 295 295 295 295 296 296 295 296 296 296 296 295 295 295 295 295 295 295 294 294 294 294 295 295 295 295
295 295 295 296 297 299 300 301 301 300 298 297 297 297 296 296 295 294 294 293 293 293 293 293 293 292 293 292 293 293 293 293 293 293 293 294 294 295 296 296 296 296 296 295 295 295 296 296 295 295 295 295 295 294 294 294 294 294 294 295 295 295 295
296 296 296 298 299 301 301 302 302 301 299 299 299 299 298 298 297 296 296 294 293 292 293 293 292 292 292 292 292 293 293 293 293 293 294 294 295 296 296 296 296 296 296 295 295 295 296 296 295 295 295 295 295 294 294 294 294 294 294 295 295 295 295
296 296 297 299 300 300 300 300 300 299 299 300 300 300 300 300 300 299 298 297 294 292 292 293 292 292 292 292 292 293 292 293 293 293 294 294 295 296 296 296 296 296 295 295 294 295 295 295 295 295 295 295 295 294 293 293 294 294 294 295 295 295 295
296 297 297 298 299 299 299 299 300 300 300 300 300 300 301 301 300 300 300 299 296 293 292 293 292 292 292 292 292 292 292 292 293 293 294 294 295 296 296 295 295 295 295 294 294 294 294 295 295 294 294 295 295 294 292 293 294 294 294 294 295 295 295

ECMWFFLT1_850_thetae_114.txt.gz
Theta_e
333 334 334 333 333 333 333 334 334 333 333 333 332 332 331 331 331 331 330 330 329 328 328 329 328 327 326 325 323 322 320 319 318 318 319 320 320 320 320 321 322 322 321 321 321 320 320 320 319 317 316 315 314 314 314 313 313 312 314 317 319 320 321
333 333 334 334 333 333 333 333 333 333 333 332 331 331 330 330 330 329 328 327 326 326 326 326 326 324 321 318 318 317 316 316 315 316 316 316 315 315 315 315 316 317 317 317 317 316 316 315 315 314 313 311 310 310 310 310 310 309 311 314 317 318 319
333 333 334 334 333 333 333 333 332 332 331 331 330 329 329 328 327 326 326 325 323 322 322 321 320 318 316 315 316 315 313 313 313 313 312 312 311 311 312 313 313 313 313 313 313 312 312 312 312 311 310 309 307 306 306 306 306 306 306 309 313 315 317
333 333 333 332 332 332 332 332 331 331 330 329 328 327 327 326 325 324 322 320 318 317 317 316 315 314 313 313 313 312 311 311 311 310 309 308 308 308 309 310 311 311 311 310 310 310 309 310 309 309 308 305 303 301 301 301 301 301 301 302 306 309 311
334 333 332 332 332 331 331 331 330 329 328 327 326 325 324 323 321 320 318 316 315 315 314 314 313 312 311 310 310 310 309 309 308 307 306 305 305 305 306 307 308 309 308 307 307 306 306 307 307 306 304 302 300 299 299 298 298 298 298 299 300 301 302
333 332 331 331 331 331 330 329 328 327 326 325 324 323 321 319 318 317 315 314 314 313 312 312 311 310 308 308 307 307 307 306 305 304 303 303 303 304 305 305 305 305 304 302 301 301 301 302 302 300 299 299 299 298 298 298 298 298 298 298 298 298 298
331 331 331 331 330 329 328 327 326 325 324 324 322 320 317 316 315 315 314 313 312 311 310 309 308 308 307 306 305 304 304 303 302 301 302 302 303 304 304 304 303 301 300 299 298 298 298 298 298 298 298 298 298 298 298 298 298 298 299 299 299 299 299
331 331 330 330 329 327 326 325 324 323 324 322 319 316 315 315 314 313 312 311 310 309 308 307 306 305 304 303 303 302 302 301 301 300 301 301 302 303 303 303 302 299 298 298 298 298 298 298 298 298 298 298 298 298 298 298 298 298 299 299 299 299 299
330 329 329 328 327 325 325 324 323 323 323 320 316 315 314 313 312 311 310 308 308 306 305 304 303 302 302 301 301 300 300 301 300 300 300 301 301 302 302 301 299 298 298 298 298 298 298 298 298 298 298 298 299 299 299 298 298 299 299 299 299 299 299
329 328 328 326 325 324 324 323 323 323 320 316 315 314 313 311 309 309 307 306 305 304 303 302 301 300 300 300 300 300 300 300 300 299 300 300 301 301 300 298 297 297 298 298 298 298 298 298 298 298 299 299 299 298 299 300 298 299 299 299 299 300 300
328 327 326 325 325 324 323 323 323 320 316 314 313 312 311 309 307 306 305 304 302 301 300 299 299 299 299 299 299 299 300 300 300 299 299 300 300 300 298 297 297 297 297 297 297 298 298 298 298 298 299 299 299 298 298 299 299 299 299 299 299 299 300
326 326 325 324 324 323 323 322 319 316 314 312 311 309 308 307 305 304 302 301 299 299 298 298 298 299 299 299 299 299 300 300 299 298 298 299 298 297 297 297 297 297 297 297 297 298 298 298 298 298 298 299 299 298 297 297 298 298 298 299 299 299 299
324 324 324 323 323 322 320 318 315 313 312 311 308 307 306 305 303 301 299 298 297 297 298 298 298 298 298 298 298 298 299 299 298 297 297 297 297 297 297 297 297 297 297 297 297 297 297 298 298 298 298 298 298 298 297 296 296 298 298 298 299 299 299
322 322 322 321 320 319 316 314 313 312 310 308 307 306 304 302 300 298 297 297 296 297 297 297 297 297 297 297 297 297 298 297 297 297 297 296 296 296 296 296 296 296 297 297 297 297 297 298 298 298 298 298 298 297 296 296 296 297 297 297 297 298 298
318 318 317 317 316 315 313 312 312 310 309 307 306 304 301 299 298 297 296 296 296 296 297 297 297 297 297 297 298 298 297 297 297 297 297 296 296 296 296 296 296 296 296 296 297 297 297 298 298 298 298 298 297 297 296 296 296 296 297 297 296 297 297
315 314 314 314 313 312 312 311 310 309 307 306 304 301 298 297 297 296 296 296 296 296 296 297 297 297 297 298 299 299 297 297 297 297 296 296 296 296 296 296 296 296 296 296 297 297 297 297 297 297 297 297 297 296 296 295 295 296 296 296 296 296 297
313 313 313 312 311 310 310 310 308 307 305 303 301 299 297 296 296 296 296 296 296 296 296 297 297 297 298 299 299 298 297 297 297 296 296 296 295 295 295 295 295 295 296 297 297 297 297 297 297 297 297 296 296 296 296 296 296 296 296 296 296 296 297
313 312 312 311 310 309 308 308 307 305 303 301 299 297 296 296 296 296 296 296 296 296 296 297 297 297 298 298 298 297 297 297 296 296 295 295 295 295 295 295 295 295 296 296 297 297 297 297 297 297 297 296 296 296 297 296 296 296 296 296 297 296 296
312 311 311 310 309 308 307 305 304 302 301 299 297 296 296 296 296 296 296 296 296 296 296 297 298 298 298 298 297 296 296 296 296 296 295 295 295 295 295 295 295 295 296 296 297 297 297 296 296 296 296 296 296 297 296 296 296 296 296 296 296 296 296
310 309 308 307 306 305 304 303 302 300 300 298 296 296 296 296 296 296 296 296 296 296 296 296 297 297 297 297 297 296 296 296 296 296 296 296 296 296 295 295 295 295 296 296 296 296 296 296 296 296 296 296 296 296 296 295 295 296 296 296 296 296 296
309 308 307 306 305 303 302 301 300 300 299 297 296 296 296 296 296 296 296 296 296 295 296 296 296 297 297 297 297 296 296 296 297 297 297 297 297 297 296 295 295 295 296 296 296 296 295 295 295 295 295 295 295 296 295 295 295 296 295 295 296 296 296
309 308 307 306 304 303 301 301 300 300 298 296 295 296 296 295 295 295 295 295 295 295 295 295 295 296 296 297 297 296 297 298 298 298 298 298 298 297 297 296 295 295 295 296 296 295 295 295 295 295 295 295 295 295 295 295 295 296 295 295 295 295 296
308 307 306 304 303 302 301 300 299 298 296 295 295 295 295 295 295 295 295 295 295 295 295 295 295 295 296 297 297 297 298 299 299 299 298 298 298 298 297 296 295 295 295 295 295 295 295 295 295 295 295 295 295 295 295 295 295 295 295 295 295 295 295
306 305 304 303 302 301 299 299 298 297 295 295 295 295 295 295 295 295 295 295 295 295 295 295 295 295 296 297 297 297 298 299 299 298 298 298 298 298 297 297 296 294 295 295 295 295 295 295 295 295 295 295 295 295 295 295 295 295 295 295 295 295 295
305 304 303 303 302 301 300 299 298 298 297 295 295 295 295 295 295 295 295 295 295 295 295 295 295 295 296 296 297 298 299 298 298 298 298 299 298 298 297 297 296 295 295 295 295 295 295 295 295 295 295 295 295 295 295 295 295 295 295 295 295 295 295
304 304 303 303 302 301 300 299 299 299 298 295 295 295 295 295 295 295 295 295 295 295 295 294 294 295 295 297 298 299 299 299 298 298 298 299 298 298 298 297 295 295 295 295 295 295 295 295 295 295 295 295 295 295 294 294 294 294 294 295 295 295 295
303 302 302 302 302 301 301 299 298 299 298 295 294 295 295 295 295 295 295 295 295 295 294 294 294 294 295 296 298 298 299 299 298 298 298 298 298 298 297 296 295 295 295 295 295 295 295 295 295 295 295 295 295 295 294 294 294 294 294 295 295 295 295
302 300 300 300 300 301 300 299 298 298 297 295 294 295 295 295 295 295 294 294 294 294 294 294 294 294 294 295 296 297 298 298 298 297 298 298 298 297 296 295 295 295 295 295 295 295 295 295 295 295 295 295 295 295 294 294 293 294 294 295 295 296 296
300 299 299 298 299 299 299 298 297 297 296 295 295 295 295 295 294 294 294 294 294 294 294 293 293 293 293 294 295 296 297 297 297 297 297 297 297 296 295 295 295 295 295 295 295 295 295 295 295 295 295 295 295 295 294 293 293 294 294 295 296 296 296
299 299 298 298 298 298 298 297 296 295 295 295 295 294 294 294 294 294 294 294 294 294 294 293 293 293 293 293 294 295 296 297 296 296 296 296 295 295 294 295 295 295 295 295 295 295 295 295 295 295 295 295 295 294 293 293 293 294 294 295 296 296 296
298 297 297 296 296 296 296 296 295 295 295 294 294 294 294 294 294 294 294 294 293 293 293 293 293 293 293 293 293 293 294 295 295 295 295 295 294 294 295 295 295 295 294 295 295 295 295 295 294 294 295 295 294 294 292 292 294 294 294 295 296 296 296
297 296 295 295 295 295 295 294 294 294 294 294 294 294 294 294 294 293 293 293 293 293 293 293 293 293 293 293 293 293 293 294 294 294 294 294 294 294 295 295 295 294 294 294 295 295 295 294 294 294 294 294 294 293 292 292 294 294 294 295 295 296 296
296 295 295 295 295 295 294 294 294 294 294 294 294 294 294 294 293 293 293 293 293 293 293 293 293 293 293 293 293 293 293 293 293 293 294 294 294 294 294 294 294 293 293 294 294 294 294 294 294 293 293 293 293 292 291 292 293 294 294 295 295 296 296
295 295 296 295 295 295 294 294 294 294 294 294 294 294 293 293 293 293 293 293 293 293 293 293 293 292 292 292 293 293 293 293 293 293 293 294 294 294 294 294 293 293 293 293 293 293 293 293 293 292 292 292 292 291 291 292 293 294 294 294 295 296 295
296 296 296 296 295 294 294 294 294 294 294 294 293 293 293 293 293 293 293 293 293 293 293 293 293 292 292 292 292 293 293 293 293 293 293 293 294 294 294 294 294 293 293 293 293 293 293 292 292 292 291 292 291 291 291 292 293 294 294 294 295 295 295
298 297 296 295 295 295 295 295 294 294 295 295 295 295 295 295 294 294 293 293 292 293 293 293 292 292 292 292 292 292 293 293 293 293 293 293 293 293 294 294 294 293 293 292 292 292 292 292 292 292 291 292 292 291 291 292 293 293 294 294 295 295 295
297 296 296 296 297 297 297 296 295 296 296 297 297 297 297 297 297 296 295 293 292 292 293 292 292 292 292 292 293 292 292 293 293 293 293 293 293 293 294 294 294 293 292 292 292 292 292 292 291 291 292 292 292 292 291 292 293 293 294 294 295 295 295

ECMWFFLT1_850_thetae_117.txt.gz
Theta_e
334 334 334 334 333 333 333 333 332 332 332 332 332 332 332 331 330 330 329 329 328 327 326 325 323 323 322 321 318 316 315 314 314 314 313 313 314 314 314 315 316 317 317 317 317 316 315 315 313 310 309 306 303 302 301 301 300 300 301 302 303 304 305
335 333 333 333 332 332 332 332 332 332 332 332 331 331 330 330 329 329 328 327 326 325 323 321 320 319 318 316 315 314 314 313 312 312 311 310 310 310 310 310 311 311 312 313 314 313 312 310 307 304 303 302 302 300 299 299 299 298 298 298 298 299 300
335 333 333 332 331 332 332 332 332 332 332 331 331 330 330 329 328 327 326 325 324 322 319 318 316 315 315 314 313 312 312 311 310 310 309 308 307 307 307 307 307 307 307 307 306 305 303 302 301 300 299 300 301 301 299 298 298 298 298 298 298 298 298
334 333 332 331 331 331 330 331 332 332 331 330 330 330 329 328 326 325 324 322 321 318 316 315 314 314 313 312 311 310 309 309 308 307 306 305 305 304 304 303 303 302 301 300 299 298 298 298 298 298 298 298 299 300 299 298 298 298 298 298 298 298 298
333 333 332 332 331 331 330 331 331 331 330 329 328 328 327 325 323 322 321 319 317 315 315 314 313 312 311 310 309 308 307 307 305 304 303 303 302 302 302 301 300 299 298 298 298 298 298 298 298 298 297 298 298 299 298 298 298 298 298 298 298 299 299
333 333 332 332 331 331 331 331 330 329 328 328 327 326 324 322 321 319 317 316 315 314 313 312 311 310 309 308 307 306 305 304 303 302 301 301 300 300 300 300 298 297 297 298 298 298 298 297 297 297 297 297 298 298 298 298 298 298 298 298 298 299 299
333 333 332 332 331 331 331 330 329 328 327 326 324 323 321 319 317 316 315 314 313 312 311 310 309 308 307 306 305 303 302 301 300 300 299 300 299 299 298 298 297 297 298 298 297 297 297 297 297 297 297 297 298 298 298 298 298 298 298 298 298 299 299
334 333 332 332 331 331 330 329 328 326 325 324 323 321 318 316 315 314 313 312 312 310 309 308 307 306 304 303 302 301 300 300 300 299 299 298 298 298 297 297 297 297 297 297 297 297 297 297 297 297 297 298 298 298 298 298 298 298 298 298 298 298 299
333 333 332 331 330 329 328 327 326 324 323 323 322 319 316 314 313 312 311 311 310 308 307 306 304 303 302 301 300 299 299 299 299 298 298 298 297 297 297 297 297 297 297 297 297 297 297 297 297 297 297 297 298 298 298 298 298 298 298 298 299 298 298
333 332 331 330 329 328 326 325 324 323 322 322 320 316 314 312 311 310 310 309 308 306 305 303 302 301 299 299 299 298 299 299 298 297 297 297 297 297 297 297 297 297 297 297 297 297 297 297 297 297 298 298 298 297 298 298 298 298 298 298 298 298 298
331 330 329 328 328 326 325 323 322 322 321 320 317 314 312 311 310 309 308 307 305 304 302 300 299 299 298 298 298 298 298 298 297 297 297 297 297 296 297 297 297 297 297 297 297 297 297 297 297 297 297 297 298 297 296 296 297 297 298 297 297 297 298
330 329 328 327 326 325 324 323 321 321 320 318 314 312 311 310 309 308 306 304 302 300 299 298 298 298 298 298 297 297 298 297 297 297 296 296 296 296 296 296 296 296 296 296 297 297 297 297 297 297 297 297 297 297 296 295 296 297 297 297 297 297 297
328 327 327 326 325 324 323 322 321 320 319 316 313 311 309 309 307 305 303 301 299 298 297 297 298 298 297 297 297 297 297 297 296 296 296 296 296 296 296 296 296 296 296 296 297 297 297 297 297 297 297 297 297 297 296 296 296 297 296 296 297 297 297
326 326 325 324 324 323 322 321 320 319 317 314 311 309 308 306 305 302 300 298 297 297 297 297 297 297 297 297 297 297 296 296 296 296 296 296 296 296 296 296 296 296 296 296 296 297 297 297 297 297 297 297 296 296 296 296 296 296 297 296 296 297 297
325 324 324 323 323 322 321 320 319 317 315 313 310 307 305 303 301 299 298 297 297 296 297 297 297 297 297 297 297 297 296 296 296 296 296 296 296 296 296 296 296 296 296 296 296 297 297 297 297 297 296 296 296 296 296 296 295 296 296 297 296 297 297
323 323 322 322 321 320 319 318 316 314 312 310 307 305 302 300 298 297 297 297 296 296 297 297 297 297 297 298 297 297 296 296 296 296 296 296 295 295 295 295 296 296 296 296 296 296 296 296 296 296 296 296 296 296 296 295 295 295 295 296 296 296 296
321 321 320 320 319 318 317 315 313 312 310 307 304 302 299 297 297 297 296 296 296 296 297 297 297 297 297 298 297 296 296 296 296 296 295 295 295 295 295 295 295 295 296 296 296 296 296 296 296 295 295 295 295 295 295 295 295 295 295 295 296 296 296
318 317 317 316 316 315 314 313 311 310 307 304 301 299 297 297 297 296 296 296 296 296 297 297 297 297 297 297 296 296 296 296 295 295 295 295 295 295 295 295 295 295 296 296 296 295 295 295 295 295 295 295 295 294 294 295 295 295 295 295 295 296 296
314 314 314 314 313 313 312 311 310 307 304 302 299 297 297 296 296 296 296 296 296 296 297 297 297 297 297 296 296 296 296 295 295 295 295 295 295 294 294 294 295 295 295 295 295 295 295 295 295 295 295 295 294 294 294 294 294 294 294 295 295 295 296
312 313 312 312 312 311 310 309 307 304 302 299 297 296 296 296 296 296 296 296 296 296 297 297 297 297 297 296 296 296 296 295 295 295 295 295 295 295 294 294 295 295 295 295 295 295 295 295 295 295 295 295 295 294 294 294 294 294 294 294 295 295 295
312 312 311 311 310 309 308 307 304 302 299 297 296 296 296 296 296 295 295 296 296 296 296 296 296 296 296 296 296 295 295 295 295 295 295 296 296 295 294 294 294 295 295 295 295 295 295 295 295 295 295 295 295 294 294 294 294 294 294 294 294 295 295
311 311 311 310 309 308 307 305 302 300 299 296 296 296 295 295 295 295 296 295 296 296 296 296 296 296 296 296 295 295 295 295 295 295 296 296 296 295 294 294 294 295 295 295 295 295 295 295 295 295 295 295 294 294 294 294 293 293 294 294 294 295 295
310 310 310 309 308 306 304 303 301 300 298 296 295 295 295 295 295 295 295 295 295 295 295 295 295 295 296 296 295 296 296 295 295 296 297 297 296 295 294 294 294 295 295 295 294 295 295 295 295 295 295 295 294 294 294 293 293 293 294 294 294 295 295
310 308 308 307 306 305 303 302 302 300 297 295 295 295 295 295 295 295 295 295 295 295 295 295 295 295 295 295 296 296 296 295 296 297 297 297 296 296 295 294 294 295 295 295 294 294 295 295 295 295 295 294 294 294 294 293 293 293 294 294 295 295 296
309 308 307 306 306 305 304 303 302 299 297 295 295 295 295 295 295 295 295 295 295 295 295 295 295 295 295 295 296 296 296 296 296 297 297 297 296 296 295 294 294 295 295 295 295 294 295 294 294 294 294 294 294 294 293 292 293 294 294 294 295 295 296
309 308 307 307 306 305 304 303 301 298 295 295 295 295 295 295 295 295 295 295 295 295 295 295 295 295 295 295 296 296 297 296 296 296 296 296 296 295 294 294 295 295 295 295 295 295 295 294 294 294 293 293 293 293 292 292 293 294 294 294 295 296 296
308 308 307 306 305 304 303 301 299 297 296 295 295 295 295 295 295 295 295 295 295 295 295 295 295 295 295 295 295 296 297 296 296 296 296 296 295 295 294 294 295 295 295 295 295 295 294 294 294 293 293 293 292 292 292 292 293 293 294 294 295 296 296
307 307 306 305 304 303 303 301 299 299 297 295 294 295 295 295 295 295 295 295 295 295 295 295 295 295 294 294 295 296 296 296 295 295 295 296 295 294 294 294 294 294 294 295 295 295 294 294 293 293 292 292 292 292 292 292 293 293 294 294 295 295 295
306 306 306 305 304 303 303 301 300 300 298 295 294 295 294 295 295 295 295 295 295 295 295 295 294 294 294 294 294 295 295 295 295 295 295 295 294 294 294 294 294 294 294 294 295 294 294 293 292 292 292 292 292 292 292 292 293 293 293 294 294 295 295
306 305 305 304 303 303 303 302 300 300 298 295 294 294 294 295 295 295 295 295 294 295 295 295 294 294 294 294 294 294 294 294 294 295 294 294 294 294 294 294 294 293 293 294 294 293 293 292 292 292 292 292 292 292 292 292 293 293 293 293 294 295 295
306 306 305 303 302 303 303 301 300 300 298 295 294 294 294 294 295 295 294 294 294 294 295 294 294 294 293 293 293 293 293 294 294 294 294 293 294 294 294 293 293 293 293 293 293 292 292 292 292 292 292 292 292 292 292 292 292 293 293 293 294 294 294
306 305 304 302 301 302 302 301 299 299 298 296 294 294 294 294 295 294 294 294 294 294 294 294 294 294 293 293 293 293 293 293 294 293 293 293 294 294 293 293 293 292 292 292 292 292 292 292 292 292 292 292 292 292 292 292 292 292 293 293 293 294 294
305 304 303 301 300 300 300 300 299 298 297 296 294 294 294 294 294 294 294 294 294 294 294 294 294 293 293 293 293 293 293 293 293 293 293 293 293 293 293 293 292 292 292 292 292 292 292 292 292 292 292 292 292 292 291 292 292 292 292 293 293 293 294
303 302 302 301 301 300 299 299 298 297 296 295 294 294 294 294 294 294 294 294 294 294 294 293 293 293 293 293 293 293 293 293 293 293 293 293 293 293 293 293 292 292 292 292 292 292 292 292 292 291 291 291 291 291 291 291 292 292 292 292 293 293 294
302 302 301 301 300 299 298 297 296 295 295 294 293 293 294 293 293 294 294 294 293 293 293 293 293 293 293 293 293 293 293 293 293 293 293 293 293 293 293 292 292 292 291 291 291 291 291 291 291 291 291 291 291 291 291 291 291 291 292 292 293 293 294
303 302 300 299 298 297 296 295 294 294 294 294 293 293 293 293 293 293 294 294 293 293 293 293 293 293 293 293 293 292 292 293 293 293 293 293 293 292 292 292 292 291 291 291 291 291 291 291 291 290 290 290 291 291 291 291 291 291 291 292 293 294 294
303 301 298 296 296 296 295 294 293 293 293 293 293 293 293 293 293 293 294 294 293 293 293 293 293 293 293 293 292 292 293 293 293 293 292 292 292 292 292 292 292 291 291 291 291 291 291 291 291 291 291 291 291 291 291 291 291 291 291 292 293 294 294

ECMWFFLT1_850_thetae_120.txt.gz
Theta_e
335 335 335 334 333 332 332 333 333 332 331 331 330 330 330 330 330 330 329 328 326 326 325 323 319 317 316 315 314 313 312 311 311 310 309 309 308 307 307 307 307 307 307 306 304 302 300 300 300 300 300 300 298 297 298 298 297 298 298 298 298 298 298
335 335 334 333 332 332 332 333 332 331 330 330 330 330 330 329 329 329 327 326 325 324 322 319 316 315 314 313 312 311 310 309 308 308 307 306 305 303 303 303 302 302 302 301 300 299 299 299 300 300 301 300 299 298 297 297 297 298 298 298 298 298 298
335 334 334 333 332 332 332 332 331 329 329 330 330 330 329 329 328 326 325 323 322 320 318 316 315 314 312 311 310 309 308 307 307 306 304 302 301 300 300 300 300 299 299 299 299 299 299 299 299 299 299 300 299 298 297 297 297 298 298 298 298 298 298
334 334 333 332 332 332 331 331 330 329 330 330 330 330 329 327 326 324 322 321 319 317 315 314 313 312 311 309 308 307 306 305 304 302 301 300 300 299 299 299 299 299 299 299 299 298 298 298 298 298 298 298 298 298 298 298 298 298 298 298 298 298 298
334 334 333 332 331 331 330 330 329 329 330 330 329 328 327 325 323 321 319 317 316 314 313 312 311 310 308 307 306 306 304 302 301 300 299 299 299 299 299 298 298 298 298 298 297 297 297 297 297 297 298 298 298 298 298 297 297 298 298 298 297 298 298
334 334 333 332 331 330 329 329 329 329 329 329 328 327 324 322 319 317 316 315 313 313 311 310 309 308 306 305 304 302 301 300 299 299 299 299 299 299 298 298 298 298 298 297 297 297 297 297 297 297 297 297 298 298 298 297 297 298 298 298 297 297 298
333 333 332 332 331 330 329 329 329 329 328 327 326 324 322 319 316 315 313 312 311 310 309 308 307 306 304 303 301 300 299 299 299 298 299 298 298 298 298 298 297 297 297 297 297 297 297 297 297 297 297 297 297 297 297 297 297 298 298 297 297 297 298
333 333 332 331 331 330 330 329 329 328 326 325 324 322 319 315 313 312 311 310 309 308 307 306 304 303 301 300 299 299 299 299 298 298 298 298 298 298 297 297 297 297 297 296 296 297 297 297 297 297 297 297 297 297 297 297 297 297 297 297 297 297 297
333 333 332 331 331 330 329 329 327 326 325 324 323 320 316 313 311 311 309 308 307 306 305 303 302 300 299 299 298 298 299 298 298 298 298 298 298 297 297 297 297 297 296 296 296 296 296 297 297 297 296 296 297 297 297 297 297 297 297 297 297 297 297
333 333 332 331 331 330 329 328 326 325 324 323 321 317 313 311 309 308 307 306 305 303 302 300 299 299 298 298 298 298 298 298 298 298 298 297 297 297 297 296 296 296 296 296 296 296 296 296 296 296 296 296 296 296 297 297 297 297 297 297 297 297 297
333 333 332 331 330 329 329 328 326 325 323 321 319 315 310 308 307 306 305 304 302 301 300 299 298 298 298 298 298 298 298 298 298 298 297 297 297 296 296 296 296 296 296 296 296 296 296 296 296 296 296 296 296 296 295 296 296 296 296 297 297 297 297
332 332 332 331 329 329 328 326 325 323 321 319 317 312 308 306 305 303 302 301 300 299 298 298 298 298 298 298 298 298 298 297 297 297 297 296 296 296 296 296 296 296 296 296 296 296 296 296 296 296 296 295 295 295 295 295 296 296 296 296 296 296 296
332 331 330 329 329 328 327 325 324 322 320 318 314 309 305 304 302 301 300 299 299 298 298 297 297 297 297 297 298 298 297 297 297 297 296 296 296 296 296 296 296 296 296 296 296 296 296 296 296 295 295 295 295 295 295 294 295 295 295 295 295 295 295
331 330 329 328 327 326 325 324 322 320 319 316 311 306 303 302 301 300 299 298 298 297 297 297 297 297 297 297 297 297 297 296 296 296 296 296 296 296 296 296 296 296 296 296 296 296 296 295 295 295 295 295 295 294 294 294 294 294 295 295 294 295 295
330 329 328 327 326 325 324 322 320 319 318 314 308 304 302 300 299 299 298 297 297 297 297 297 297 297 297 297 297 297 296 296 296 296 295 296 296 295 296 296 296 295 295 296 296 295 295 295 295 295 295 295 295 294 294 294 294 293 294 295 294 294 294
328 327 327 326 324 323 322 321 319 318 315 311 306 303 301 299 298 298 297 297 297 297 297 297 297 297 297 297 297 296 296 296 295 295 295 295 295 295 295 295 295 295 295 295 295 295 295 295 295 295 295 295 294 294 294 294 294 293 293 294 294 294 294
326 325 324 323 323 322 320 319 317 316 313 309 305 302 299 298 297 297 297 297 296 296 297 297 297 297 297 297 296 296 295 295 295 295 295 295 295 295 295 295 295 295 295 295 295 295 295 295 295 295 295 294 294 294 294 293 293 293 293 293 294 294 294
324 323 322 322 321 320 319 317 316 313 310 306 302 299 297 297 297 296 296 296 296 296 296 297 297 296 296 296 296 295 295 295 295 295 295 295 295 295 295 295 295 295 295 295 295 295 295 295 295 294 294 294 294 294 294 293 293 293 293 293 293 294 294
322 321 320 319 318 318 316 315 314 311 307 303 300 297 297 296 296 296 296 296 296 296 296 297 297 296 296 296 296 295 295 295 295 295 295 295 295 295 295 295 295 295 295 295 295 295 295 294 294 294 294 294 293 293 293 293 292 293 293 293 293 294 294
319 318 318 317 316 315 314 313 312 309 305 301 298 296 296 296 296 296 296 296 296 296 297 297 297 296 296 296 296 295 295 295 295 295 295 295 295 295 295 294 295 295 295 295 294 294 294 294 294 294 294 293 293 293 292 292 292 293 293 293 293 294 294
316 316 315 315 314 313 313 312 309 306 302 299 296 296 296 296 296 296 296 296 296 296 296 296 296 296 296 296 295 295 295 295 295 295 295 295 294 294 294 294 295 295 295 294 294 294 294 294 294 293 293 293 293 292 292 292 292 293 293 293 293 294 294
314 313 313 313 312 312 311 310 306 302 299 297 296 295 296 295 295 296 296 296 296 296 296 296 296 296 295 295 295 295 295 295 295 295 295 294 294 294 294 294 295 295 294 294 294 294 294 294 294 293 293 292 292 292 292 292 292 293 293 293 293 294 294
312 312 312 312 311 310 310 307 303 300 297 296 295 295 295 295 295 295 295 296 296 295 296 296 296 295 295 295 295 295 295 295 295 295 295 294 294 294 294 294 295 294 294 294 294 294 294 294 293 293 292 292 291 291 291 292 292 293 293 293 293 294 294
312 311 311 311 310 309 308 305 302 299 297 295 295 295 295 295 295 295 295 295 295 295 295 295 295 295 295 295 295 295 295 295 294 294 294 294 294 294 294 294 294 294 294 294 294 294 293 293 293 292 292 292 291 291 291 292 292 293 293 293 293 294 295
311 311 310 310 309 308 307 304 302 300 297 295 295 295 295 295 295 295 295 295 295 295 295 295 295 295 295 295 295 295 295 294 294 294 294 294 294 294 294 294 294 294 294 294 294 293 293 293 292 292 292 292 292 292 292 292 292 293 293 293 293 294 294
311 310 309 309 308 307 305 302 302 301 297 295 295 295 295 295 295 295 295 295 295 295 295 295 295 295 295 295 295 295 294 294 294 294 294 294 294 294 294 294 294 294 294 294 293 293 293 293 293 292 292 292 292 292 292 292 292 293 293 293 293 294 294
310 309 308 308 306 305 303 301 302 301 297 295 295 295 295 295 295 295 295 295 295 295 295 295 295 295 295 295 295 295 294 294 294 293 293 293 293 294 294 294 294 293 293 293 293 293 293 293 293 292 292 292 292 292 292 292 292 292 292 293 293 293 294
309 309 308 307 306 305 303 302 302 300 296 294 295 294 294 295 295 295 295 295 295 295 295 295 295 295 295 294 294 294 294 294 293 293 293 293 293 293 293 293 293 293 293 293 293 293 293 293 292 292 292 292 292 292 292 292 292 292 292 292 293 294 295
309 308 307 306 305 304 302 301 301 299 296 295 294 294 294 295 295 295 295 295 294 294 295 295 295 294 294 294 294 294 294 294 293 293 293 293 293 293 293 293 293 293 293 292 292 292 292 292 292 292 292 292 292 292 292 292 292 292 292 293 293 294 295
309 307 306 306 305 303 301 300 300 300 298 295 294 294 294 294 294 294 295 295 294 294 295 294 295 294 294 294 294 294 294 293 293 293 293 293 293 293 293 293 292 292 292 292 292 292 292 292 291 291 291 291 291 291 292 292 292 291 292 293 293 294 294
309 307 306 305 304 302 301 301 301 301 299 296 294 294 294 294 294 294 294 294 294 294 294 295 295 294 294 294 294 293 294 293 293 293 293 293 293 292 293 292 292 292 292 292 292 292 291 291 291 291 291 291 291 291 291 291 291 291 292 292 293 293 294
309 307 305 304 302 301 301 302 302 302 300 297 294 294 294 294 294 294 294 294 294 294 294 294 294 295 294 294 294 294 293 293 293 293 293 293 293 292 292 292 292 292 292 291 291 291 291 291 291 291 291 291 291 291 291 291 291 291 291 292 292 293 293
308 306 304 303 302 302 302 302 302 302 301 298 294 293 294 294 294 294 294 294 294 294 294 294 294 294 294 294 294 294 293 293 293 293 293 293 292 292 292 292 292 291 291 291 291 291 291 291 291 291 291 291 291 291 291 291 291 291 291 291 292 293 293
307 305 304 304 303 303 302 302 302 302 301 299 295 293 294 294 294 294 294 294 294 294 294 294 294 294 294 294 294 294 293 293 293 293 293 293 292 292 292 292 291 291 291 291 291 291 291 291 291 291 291 291 291 291 291 291 291 291 291 291 291 292 293
306 304 304 304 304 303 303 303 303 302 301 299 296 294 294 294 294 294 294 294 294 294 294 294 294 294 294 294 294 294 293 293 293 293 293 292 292 292 292 292 291 291 291 291 291 291 291 291 292 292 292 292 292 292 292 292 292 291 291 291 291 291 292
305 303 303 304 304 302 302 302 302 302 301 298 296 294 293 293 294 293 294 294 294 294 294 294 294 294 294 294 294 293 293 293 293 293 292 292 292 292 292 292 291 291 291 291 292 292 292 292 292 293 293 293 293 293 293 293 293 292 292 291 291 291 291
304 302 302 304 304 303 302 302 302 302 301 298 295 294 293 293 293 293 293 294 294 294 294 294 294 294 294 294 294 293 293 293 293 293 292 292 292 292 292 292 292 292 292 292 292 292 292 293 293 293 294 294 294 294 294 294 294 294 293 292 291 291 290

ECMWFFLT1_850_thetae_126.txt.gz
Theta_e
334 333 332 332 332 333 333 333 332 333 332 332 331 331 330 330 330 329 329 328 327 325 322 318 316 314 313 311 311 310 308 307 305 303 302 302 301 301 301 300 301 300 300 303 306 310 314 314 310 307 304 302 299 297 298 299 298 298 298 298 298 298 299
333 333 333 333 332 333 333 332 332 332 332 331 330 330 329 329 329 328 328 327 325 322 318 315 313 312 311 310 309 307 305 303 302 301 301 301 301 300 300 299 300 300 299 299 300 303 309 310 308 308 308 308 305 300 299 301 301 300 299 299 299 299 299
333 333 333 333 333 333 333 332 332 331 331 330 329 329 328 328 328 327 326 324 321 317 315 313 312 310 309 308 305 303 302 301 301 301 300 300 300 299 299 299 300 301 300 300 299 301 306 309 307 307 307 309 308 303 300 300 301 301 300 300 300 299 299
333 333 333 333 333 333 332 331 331 331 330 329 329 328 328 328 327 325 323 320 316 314 312 311 310 309 306 304 302 301 301 301 300 300 299 299 299 299 299 299 299 300 299 299 299 300 304 308 308 307 306 307 306 304 302 301 301 301 301 300 300 299 299
333 333 333 333 333 333 332 331 330 330 329 328 328 327 327 326 325 322 319 316 313 312 310 309 308 305 302 301 300 300 300 300 299 299 299 299 299 299 299 299 299 298 299 298 298 298 300 304 307 307 306 306 306 305 304 303 303 301 301 301 300 299 299
334 333 333 333 334 333 331 331 330 329 329 328 328 327 326 325 322 319 316 313 312 310 308 307 305 302 300 300 299 300 300 299 299 299 299 299 299 299 299 299 298 298 298 298 297 298 297 299 304 307 307 307 307 306 305 304 303 302 301 301 301 300 299
334 333 332 333 333 332 331 330 330 329 328 328 327 327 326 323 318 315 313 311 309 308 306 304 301 300 299 299 299 299 299 299 299 298 298 299 299 299 298 298 298 298 297 297 297 297 298 297 299 303 306 308 307 306 305 304 303 302 301 300 301 300 298
331 332 333 333 332 331 330 329 329 329 328 328 327 326 325 320 315 313 311 309 308 306 304 301 300 299 299 299 299 299 298 298 298 298 298 298 298 298 298 297 297 297 297 297 297 297 297 298 297 298 301 305 306 305 305 305 303 302 300 300 300 300 298
329 331 332 332 331 331 330 329 329 328 328 327 326 326 324 318 313 312 310 308 306 304 301 299 299 299 299 298 298 298 298 298 298 298 298 298 298 297 297 297 297 297 296 297 297 297 297 297 297 297 297 300 304 305 304 304 304 302 300 300 300 299 298
331 331 332 331 331 330 329 329 329 328 328 327 325 325 322 316 311 310 308 306 304 301 299 299 298 298 298 298 298 298 298 297 297 298 297 297 297 297 297 296 296 296 297 297 296 297 297 296 297 297 296 297 300 303 304 304 304 302 299 299 299 298 297
332 332 332 331 331 330 330 329 328 327 327 326 325 323 319 313 310 308 306 304 301 299 299 298 298 298 298 298 298 297 297 297 297 297 297 297 297 296 296 296 296 296 296 297 297 296 296 297 298 298 297 296 296 298 301 302 303 301 299 298 298 298 297
332 332 332 331 330 330 330 329 327 326 326 325 324 321 315 310 309 306 304 302 299 298 298 298 298 298 297 297 297 297 297 297 297 297 297 296 296 296 296 296 296 296 296 296 296 296 295 296 297 298 299 298 296 295 297 300 302 301 300 299 298 298 298
332 332 331 331 330 329 329 328 326 325 325 324 322 318 312 309 307 304 302 300 298 298 298 297 298 297 297 297 297 297 297 297 297 296 296 296 296 296 296 296 296 296 296 296 297 297 297 297 297 297 298 298 297 294 295 298 300 300 300 299 298 299 299
332 331 331 330 329 328 328 326 325 325 324 323 320 315 309 307 304 301 300 298 298 298 297 297 297 297 297 297 296 297 296 296 296 296 296 296 296 296 296 296 296 295 295 296 297 298 298 299 298 297 297 298 297 295 294 296 299 300 299 299 299 299 299
331 330 330 330 329 328 326 325 324 324 323 322 318 311 307 305 302 300 299 298 298 297 297 297 297 297 297 296 296 296 296 296 296 296 296 296 295 296 296 295 295 295 295 296 297 297 297 298 298 298 297 298 296 295 294 295 298 300 299 300 300 300 299
331 330 330 329 328 326 325 324 323 323 322 320 315 308 305 303 300 299 298 297 297 297 297 297 297 297 296 296 296 296 296 296 296 296 296 296 296 296 296 295 295 295 295 296 296 296 295 296 297 296 296 296 295 294 294 295 297 299 300 300 300 300 300
330 329 329 328 327 325 324 323 323 322 322 318 311 305 303 301 299 298 298 297 297 297 297 297 297 296 296 296 296 296 296 296 296 296 295 296 296 296 296 296 295 295 295 296 296 295 295 295 295 295 294 296 296 294 294 295 297 299 300 301 301 300 300
329 329 328 327 326 325 323 322 322 322 320 315 308 303 301 299 298 298 297 297 297 297 297 297 296 296 296 296 295 295 295 296 295 295 295 295 295 295 296 295 295 295 295 295 295 295 294 294 295 294 294 295 295 294 295 296 297 298 300 301 301 300 300
329 329 328 326 325 323 321 320 321 321 318 312 306 302 300 299 298 298 298 297 297 297 297 296 296 296 296 295 295 295 295 295 295 295 295 295 295 295 295 295 294 295 295 294 294 294 294 294 294 294 293 294 294 293 295 296 297 298 300 300 301 300 300
328 328 326 324 323 322 320 319 320 319 315 310 305 301 299 298 299 300 299 298 297 297 297 296 296 296 295 295 295 295 295 295 295 295 295 295 295 295 294 294 294 294 294 294 294 294 294 294 294 293 293 293 293 293 295 296 297 299 300 300 300 300 300
327 325 324 323 322 321 319 318 318 316 312 308 304 300 298 298 300 301 300 299 298 297 296 296 296 295 295 295 295 295 295 295 295 295 295 295 295 295 294 294 294 294 294 294 294 294 294 294 294 293 293 293 293 293 294 295 297 298 299 300 300 300 300
325 324 323 322 320 319 319 318 316 313 309 306 302 299 298 299 301 301 300 299 298 297 296 296 296 296 295 295 295 295 295 295 295 295 295 295 294 294 294 294 294 294 294 294 294 294 294 294 294 293 293 293 293 293 293 294 296 297 298 300 300 300 299
324 323 322 320 319 319 318 317 314 312 308 303 299 297 298 299 301 301 300 299 298 297 296 296 296 296 295 295 295 295 295 295 295 295 295 295 294 294 294 294 294 293 293 293 293 293 293 294 293 293 294 294 293 294 293 293 294 294 297 299 299 299 299
323 322 321 319 318 317 316 314 313 310 305 300 297 296 297 299 300 301 300 299 297 296 296 296 296 295 295 295 295 294 295 295 294 295 296 295 295 295 294 294 294 293 293 293 293 293 293 293 293 293 293 294 293 293 293 293 293 292 294 297 299 298 298
321 320 319 318 317 315 314 313 312 309 303 298 296 296 297 299 300 300 299 298 297 296 296 295 295 295 295 295 295 295 294 294 295 296 296 296 296 296 295 294 293 293 293 293 293 293 293 293 293 293 293 293 293 293 293 293 293 292 292 295 298 298 297
319 318 317 316 315 314 313 313 311 308 302 298 296 296 297 299 299 299 299 298 297 296 295 295 295 295 295 294 294 296 295 295 296 296 295 295 295 296 296 295 294 293 293 293 293 293 293 293 293 294 294 294 294 293 294 294 293 293 292 293 295 296 295
317 316 315 314 314 313 313 312 310 306 301 297 296 296 296 297 298 298 298 298 297 295 295 295 295 295 295 294 294 296 296 295 295 294 294 294 294 294 295 295 295 293 293 293 294 294 294 294 294 294 294 294 294 294 294 294 294 294 293 292 293 293 293
316 315 314 314 313 312 312 311 307 303 299 296 296 296 296 296 296 297 297 297 296 296 295 295 295 295 295 294 294 295 295 295 294 294 293 294 293 293 293 294 294 293 293 294 294 294 295 295 295 295 295 295 295 295 294 294 294 294 294 293 293 292 292
316 315 314 313 312 312 311 309 304 299 297 296 296 295 296 296 296 296 296 296 296 296 295 295 295 295 295 294 294 296 296 295 295 294 293 293 293 293 293 293 293 293 294 294 295 295 295 295 295 295 295 295 295 296 295 295 295 295 295 295 294 294 293
316 314 313 313 312 312 310 306 301 298 296 295 295 296 296 296 296 296 296 296 296 297 295 295 295 295 295 294 294 296 298 297 296 295 293 294 294 293 293 294 294 294 294 295 295 295 295 295 295 295 295 295 296 296 296 295 296 296 295 295 295 295 296
315 314 313 313 312 311 309 305 300 297 296 296 297 297 296 297 296 296 296 295 296 297 295 294 295 295 295 294 294 297 299 299 297 295 294 294 295 294 293 294 295 294 295 295 295 295 296 296 296 295 296 296 296 296 296 296 296 296 296 296 296 296 296
315 314 313 312 311 310 308 304 301 298 298 299 299 297 297 297 296 295 295 295 295 296 295 294 295 295 295 294 294 297 301 301 297 296 296 295 295 294 293 294 295 295 295 295 295 296 296 296 296 296 296 296 296 296 296 296 296 296 296 296 296 296 297
314 313 313 312 310 309 306 303 301 301 300 299 298 297 296 296 295 295 295 295 294 295 295 294 294 294 294 294 294 297 301 302 299 296 297 298 296 295 294 294 295 295 295 296 295 296 296 296 296 296 296 296 296 296 296 296 296 296 296 297 297 297 297
313 312 312 311 309 307 305 303 303 302 299 297 297 296 295 294 294 295 295 294 294 295 295 294 294 294 294 294 294 295 299 302 301 297 297 299 298 297 297 296 295 295 295 296 295 296 296 296 296 296 296 296 296 296 296 296 296 296 297 298 298 298 298
313 312 311 310 308 307 305 303 301 299 297 296 296 295 294 294 295 295 294 294 294 294 294 294 294 294 293 294 294 293 297 300 300 298 298 299 299 299 298 297 295 295 295 296 295 295 296 295 295 296 296 296 296 296 296 296 296 297 298 299 298 298 298
313 312 311 310 308 307 305 302 299 297 297 296 295 295 294 294 295 295 294 294 294 294 294 294 294 294 293 293 294 293 295 297 297 297 298 299 298 298 296 295 295 295 295 296 295 295 295 295 296 296 295 296 296 296 296 296 297 298 298 298 298 298 298
313 311 311 309 308 307 304 300 299 299 298 295 295 295 294 295 296 295 294 293 294 294 294 294 294 294 294 293 294 293 294 294 293 294 298 299 298 297 296 294 295 295 295 295 295 295 295 295 295 295 296 296 296 296 296 297 297 297 298 298 298 298 298

ECMWFFLT1_850_thetae_129.txt.gz
Theta_e
335 334 334 334 333 332 332 333 333 333 332 332 332 331 331 330 329 330 330 329 327 326 325 321 317 314 313 312 311 311 310 307 309 311 309 307 303 301 302 304 304 303 305 311 316 318 317 317 315 312 309 307 304 301 299 301 302 302 302 303 303 303 305
334 334 334 334 332 332 332 332 333 333 332 332 331 331 331 329 329 330 329 327 326 325 322 317 314 313 311 310 309 308 306 304 303 303 303 303 302 302 301 301 301 302 302 302 308 312 314 314 313 312 312 313 312 307 302 303 306 306 305 305 305 304 304
333 333 333 333 332 332 333 333 332 332 332 332 331 331 330 329 329 329 327 325 324 321 317 314 312 311 309 308 306 304 303 302 302 301 302 302 302 302 302 301 302 305 307 305 305 310 312 312 311 310 311 312 313 311 305 305 307 306 305 305 305 304 304
332 332 333 333 332 332 333 333 332 332 332 331 331 330 329 328 328 327 325 324 321 317 314 312 310 309 307 304 302 301 301 301 301 301 301 301 301 301 301 301 301 303 306 305 306 310 312 313 313 310 310 310 310 310 308 307 307 305 304 304 304 304 303
332 333 333 332 332 333 333 332 331 331 331 330 330 329 328 328 327 324 322 320 317 314 312 310 308 306 303 301 301 301 301 301 301 301 301 301 300 300 300 300 300 300 300 301 303 307 309 312 313 311 310 310 309 309 308 307 306 304 303 303 303 303 302
333 333 333 332 332 333 333 332 331 331 330 329 329 328 327 326 324 322 319 316 314 312 310 308 305 303 301 301 301 301 301 300 301 300 301 300 300 300 300 300 300 299 299 299 300 302 305 308 311 312 311 310 309 308 308 307 305 303 302 303 303 302 302
333 333 334 333 332 333 332 331 330 330 329 329 328 327 327 325 322 321 318 314 312 310 308 305 302 300 300 301 300 300 300 300 300 300 300 300 300 300 300 299 299 299 299 299 299 299 300 302 306 309 311 311 309 308 307 306 305 303 302 302 303 302 301
333 334 334 333 333 332 331 330 330 329 328 328 327 326 325 322 321 320 315 312 310 308 305 302 300 300 300 300 300 300 300 300 300 299 299 299 300 299 299 299 299 299 299 298 299 298 298 299 301 304 307 310 309 307 307 307 305 303 302 302 303 301 301
333 333 332 333 333 331 330 330 329 328 328 328 327 325 324 322 319 316 312 310 308 305 302 300 300 300 299 299 299 299 299 299 299 299 299 299 299 299 299 299 298 298 298 298 298 298 298 298 298 300 302 306 308 307 307 308 306 303 302 302 302 301 302
334 332 332 332 331 330 329 329 329 328 328 328 327 326 325 322 316 313 311 308 305 302 300 300 299 299 299 299 299 299 299 299 299 299 299 298 298 298 298 298 298 298 298 298 298 298 298 298 298 299 300 301 304 306 307 307 306 303 302 302 302 302 302
332 330 331 332 330 329 329 328 329 328 328 327 326 325 324 319 313 311 309 306 303 300 299 299 299 299 299 299 299 299 299 299 299 299 298 298 298 298 298 298 297 297 297 297 298 297 298 300 301 302 302 300 300 303 305 306 305 303 302 302 302 302 302
329 329 331 332 330 329 329 328 328 328 327 326 326 324 321 316 311 309 307 304 301 299 299 299 299 299 299 299 298 298 298 299 299 298 298 297 297 297 297 297 298 297 297 297 297 298 298 300 302 303 303 301 297 298 302 304 305 303 302 302 303 303 303
328 330 332 331 330 329 329 328 327 327 326 326 324 322 317 313 310 308 305 302 299 299 299 298 298 298 298 298 298 298 298 298 298 297 297 297 297 297 297 297 298 298 300 300 300 301 301 301 302 303 302 302 298 296 300 303 304 303 303 303 303 304 303
330 332 331 331 330 329 328 327 326 326 325 324 322 318 314 311 309 306 303 300 299 298 298 298 298 298 298 298 298 298 298 298 297 297 297 297 297 297 297 297 298 298 300 303 303 303 304 302 302 302 302 301 300 297 298 302 303 303 303 303 304 304 303
331 332 330 330 330 329 328 326 325 325 323 322 320 316 312 309 307 304 301 299 298 298 298 298 298 298 298 298 298 298 298 298 297 296 297 297 297 297 297 297 297 297 298 301 303 302 303 303 302 302 301 301 300 298 298 300 302 303 304 304 304 304 303
331 331 330 330 330 328 327 325 325 324 322 320 318 314 311 308 305 302 299 298 298 298 298 298 298 298 298 298 297 297 298 297 296 297 298 298 297 297 298 297 297 297 298 301 301 300 301 302 301 301 301 301 300 298 299 300 302 303 303 304 304 304 303
331 331 330 329 329 328 326 325 325 323 320 319 317 314 310 306 303 300 299 298 298 298 298 298 298 297 297 297 297 297 297 297 298 300 301 300 299 299 299 299 298 299 300 302 302 300 300 302 301 299 300 302 301 298 300 302 303 303 304 304 304 303 303
330 330 330 329 328 327 325 325 324 321 319 319 317 312 308 305 303 299 299 299 298 298 298 297 297 297 297 297 297 297 297 299 301 302 301 300 300 299 300 300 300 299 300 300 300 300 299 300 301 298 297 300 300 298 300 302 303 303 303 304 304 303 303
330 330 330 329 328 326 325 325 324 322 320 320 316 310 306 305 302 299 299 299 298 298 297 297 297 297 297 297 296 297 297 299 300 300 299 299 299 300 300 299 298 298 298 296 296 296 296 297 298 297 295 297 297 298 300 302 302 302 303 303 303 303 303
330 330 329 329 328 326 325 324 323 322 322 320 315 308 306 305 302 301 301 300 299 299 298 298 297 296 297 297 297 297 296 298 299 299 299 299 300 301 300 297 296 296 296 295 295 295 296 296 296 295 295 296 296 297 300 301 302 302 302 303 303 302 302
330 330 329 328 327 325 324 323 323 322 321 318 312 307 306 304 301 303 302 300 300 299 298 299 298 297 297 296 296 297 296 297 298 299 299 299 300 301 298 295 295 295 295 295 295 295 295 296 296 295 295 296 295 296 298 300 301 301 301 303 302 302 302
329 329 329 328 326 324 323 322 321 321 320 316 310 307 306 303 302 304 303 300 300 298 298 299 299 299 298 296 296 296 296 296 297 298 299 300 301 300 297 295 296 295 295 295 295 295 295 295 296 295 296 296 296 296 296 297 299 299 300 302 302 301 301
328 328 329 327 324 323 322 322 321 319 318 314 309 307 306 303 303 304 303 300 299 298 299 299 299 300 299 296 296 296 296 296 298 300 301 301 301 299 295 294 295 295 295 295 295 296 296 295 296 296 296 296 296 296 296 296 296 296 298 301 302 301 301
328 328 327 325 323 322 322 321 320 318 316 312 309 307 306 305 304 304 303 302 299 298 299 299 298 299 297 296 295 295 296 297 299 301 301 302 302 299 296 295 295 294 295 296 296 295 295 296 296 296 296 296 296 296 295 295 296 295 296 299 300 300 300
328 327 326 324 322 321 322 321 318 315 313 311 309 308 306 306 306 305 304 303 300 299 299 298 297 297 296 296 295 295 297 298 299 302 303 303 303 300 298 295 294 294 295 295 296 296 295 296 296 296 296 296 296 296 296 295 296 296 296 297 298 300 299
328 327 324 322 321 321 320 319 316 314 313 311 309 308 307 307 307 306 305 304 301 299 298 297 296 296 295 295 296 298 299 298 301 303 304 304 303 302 299 296 295 295 294 294 295 296 296 296 296 296 296 296 296 296 296 296 295 296 296 296 297 298 297
327 326 324 322 321 319 318 317 315 314 313 310 308 306 307 308 308 306 306 304 301 298 298 296 295 295 295 295 296 300 301 302 303 304 304 303 303 303 302 301 300 298 295 294 295 296 296 296 297 298 298 298 299 298 297 296 295 296 296 296 296 296 296
326 325 323 321 320 318 316 315 314 313 312 310 306 305 306 308 308 307 305 303 300 297 297 297 296 296 295 295 297 300 302 303 302 302 301 302 301 299 300 302 302 299 296 295 295 295 296 296 296 298 299 300 301 301 299 297 296 296 296 296 296 296 296
324 322 321 320 318 316 315 314 313 312 312 308 304 305 308 308 307 305 303 300 298 297 297 296 296 296 295 295 296 299 301 302 301 300 298 299 298 297 297 300 300 298 295 294 296 296 296 296 297 298 300 301 301 301 300 297 296 296 296 296 296 296 296
320 319 318 317 316 315 314 313 312 312 310 307 305 307 308 306 304 302 299 297 297 297 296 296 296 296 295 295 296 298 301 302 302 301 298 297 299 298 297 299 300 299 296 295 295 296 296 296 296 297 299 301 302 301 299 297 296 296 296 296 296 297 298
318 318 317 315 314 314 312 312 311 310 310 308 306 305 304 302 301 300 297 296 296 297 296 296 296 295 295 295 295 298 303 304 304 303 299 297 301 300 295 296 299 299 298 296 295 296 296 296 296 296 298 300 301 299 297 296 296 296 296 296 298 299 300
317 317 316 314 313 313 311 311 311 310 310 308 304 301 299 298 299 298 297 296 296 297 297 295 295 296 295 295 295 298 303 305 304 304 301 299 301 300 295 293 296 296 296 296 295 296 296 296 296 296 297 298 298 297 296 296 296 296 296 298 300 301 301
317 317 316 314 312 311 311 311 312 311 308 304 301 299 297 297 297 296 296 297 297 299 300 296 294 296 295 294 295 297 303 306 305 304 303 300 301 301 296 294 294 295 296 296 296 296 296 296 296 296 296 297 296 296 296 296 296 296 298 300 301 301 300
318 316 315 313 312 312 312 312 312 311 305 300 299 298 297 297 297 295 296 298 299 302 303 299 294 295 295 294 295 297 302 306 305 304 303 302 302 302 299 297 296 295 296 296 296 296 296 296 296 296 296 297 296 296 296 296 296 298 300 301 301 300 300
319 316 315 314 313 313 312 312 312 309 302 298 297 297 296 298 299 299 300 303 303 304 305 301 295 295 295 294 294 297 302 305 305 304 303 302 302 302 302 301 299 296 295 296 296 296 296 296 296 296 296 296 296 296 296 296 297 299 300 301 300 300 300
318 316 315 314 314 313 312 311 311 307 300 298 298 298 299 301 303 304 305 306 305 304 305 303 297 294 295 294 294 296 300 304 305 304 303 302 303 302 302 303 301 297 295 296 296 296 296 296 296 296 296 296 296 296 296 297 299 300 300 300 300 300 300
318 316 315 314 313 312 311 310 309 305 300 300 302 302 303 304 306 307 307 307 306 305 304 303 298 294 295 294 293 295 299 302 303 303 302 302 303 302 302 302 300 297 295 296 296 296 296 296 296 296 296 296 296 296 297 299 300 299 299 299 300 299 300